<?xml version="1.0" encoding="UTF-8" standalone="no" ?>
<gpx xmlns="http://www.topografix.com/GPX/1/1" xmlns:xsi="http://www.w3.org/2001/XMLSchema-instance" xsi:schemaLocation="http://www.topografix.com/GPX/1/1 http://www.topografix.com/GPX/1/1/gpx.xsd" version="1.1" creator="VisuGPX - https://www.visugpx.com">
  <metadata>
    <name>Tarascon-Chapelle St Gabriel</name>
    <desc><![CDATA[Boucle de 13 km, dénivelé cumulé 430 m au départ de la Chapelle St Gabriel]]></desc>
  </metadata>
  <trk>
    <name><![CDATA[Tarascon-Chapelle St Gabriel_22 mai 2019]]></name>
    <trkseg>
      <trkpt lat="43.76638" lon="4.69411">
        <ele>11</ele>
        <time>2019-05-22T07:47:23Z</time>
      </trkpt>
      <trkpt lat="43.76639" lon="4.6941">
        <ele>11</ele>
        <time>2019-05-22T07:47:28Z</time>
      </trkpt>
      <trkpt lat="43.76641" lon="4.6941">
        <ele>11</ele>
        <time>2019-05-22T07:47:32Z</time>
      </trkpt>
      <trkpt lat="43.76643" lon="4.69413">
        <ele>11</ele>
        <time>2019-05-22T07:47:35Z</time>
      </trkpt>
      <trkpt lat="43.76643" lon="4.69416">
        <ele>11</ele>
        <time>2019-05-22T07:47:38Z</time>
      </trkpt>
      <trkpt lat="43.76646" lon="4.69419">
        <ele>13</ele>
        <time>2019-05-22T07:47:42Z</time>
      </trkpt>
      <trkpt lat="43.76649" lon="4.69422">
        <ele>13</ele>
        <time>2019-05-22T07:47:47Z</time>
      </trkpt>
      <trkpt lat="43.76651" lon="4.69422">
        <ele>13</ele>
        <time>2019-05-22T07:47:52Z</time>
      </trkpt>
      <trkpt lat="43.76654" lon="4.69421">
        <ele>12</ele>
        <time>2019-05-22T07:47:57Z</time>
      </trkpt>
      <trkpt lat="43.76655" lon="4.69422">
        <ele>12</ele>
        <time>2019-05-22T07:48:01Z</time>
      </trkpt>
      <trkpt lat="43.76656" lon="4.69424">
        <ele>12</ele>
        <time>2019-05-22T07:48:05Z</time>
      </trkpt>
      <trkpt lat="43.76656" lon="4.69427">
        <ele>13</ele>
        <time>2019-05-22T07:48:08Z</time>
      </trkpt>
      <trkpt lat="43.76657" lon="4.69431">
        <ele>13</ele>
        <time>2019-05-22T07:48:12Z</time>
      </trkpt>
      <trkpt lat="43.76657" lon="4.69433">
        <ele>13</ele>
        <time>2019-05-22T07:48:16Z</time>
      </trkpt>
      <trkpt lat="43.76658" lon="4.69433">
        <ele>13</ele>
        <time>2019-05-22T07:48:21Z</time>
      </trkpt>
      <trkpt lat="43.7666" lon="4.6943">
        <ele>13</ele>
        <time>2019-05-22T07:48:26Z</time>
      </trkpt>
      <trkpt lat="43.7666" lon="4.69429">
        <ele>13</ele>
        <time>2019-05-22T07:48:29Z</time>
      </trkpt>
      <trkpt lat="43.7666" lon="4.69428">
        <ele>12</ele>
        <time>2019-05-22T07:48:32Z</time>
      </trkpt>
      <trkpt lat="43.76659" lon="4.69425">
        <ele>12</ele>
        <time>2019-05-22T07:48:37Z</time>
      </trkpt>
      <trkpt lat="43.7666" lon="4.69426">
        <ele>12</ele>
        <time>2019-05-22T07:49:15Z</time>
      </trkpt>
      <trkpt lat="43.76661" lon="4.69423">
        <ele>12</ele>
        <time>2019-05-22T07:49:19Z</time>
      </trkpt>
      <trkpt lat="43.76661" lon="4.69422">
        <ele>12</ele>
        <time>2019-05-22T07:49:23Z</time>
      </trkpt>
      <trkpt lat="43.76661" lon="4.69421">
        <ele>12</ele>
        <time>2019-05-22T07:49:29Z</time>
      </trkpt>
      <trkpt lat="43.76662" lon="4.6942">
        <ele>12</ele>
        <time>2019-05-22T07:49:43Z</time>
      </trkpt>
      <trkpt lat="43.76661" lon="4.6942">
        <ele>12</ele>
        <time>2019-05-22T07:49:50Z</time>
      </trkpt>
      <trkpt lat="43.7666" lon="4.69419">
        <ele>12</ele>
        <time>2019-05-22T07:49:55Z</time>
      </trkpt>
      <trkpt lat="43.76659" lon="4.6942">
        <ele>12</ele>
        <time>2019-05-22T07:50:00Z</time>
      </trkpt>
      <trkpt lat="43.76658" lon="4.6942">
        <ele>12</ele>
        <time>2019-05-22T07:50:30Z</time>
      </trkpt>
      <trkpt lat="43.76658" lon="4.69422">
        <ele>12</ele>
        <time>2019-05-22T07:50:35Z</time>
      </trkpt>
      <trkpt lat="43.76658" lon="4.69423">
        <ele>12</ele>
        <time>2019-05-22T07:50:42Z</time>
      </trkpt>
      <trkpt lat="43.76658" lon="4.69424">
        <ele>12</ele>
        <time>2019-05-22T07:50:48Z</time>
      </trkpt>
      <trkpt lat="43.76657" lon="4.69424">
        <ele>12</ele>
        <time>2019-05-22T07:50:52Z</time>
      </trkpt>
      <trkpt lat="43.76655" lon="4.69424">
        <ele>12</ele>
        <time>2019-05-22T07:50:56Z</time>
      </trkpt>
      <trkpt lat="43.76655" lon="4.69425">
        <ele>13</ele>
        <time>2019-05-22T07:51:04Z</time>
      </trkpt>
      <trkpt lat="43.76656" lon="4.69426">
        <ele>13</ele>
        <time>2019-05-22T07:51:08Z</time>
      </trkpt>
      <trkpt lat="43.76657" lon="4.69428">
        <ele>13</ele>
        <time>2019-05-22T07:51:12Z</time>
      </trkpt>
      <trkpt lat="43.76656" lon="4.69429">
        <ele>13</ele>
        <time>2019-05-22T07:51:16Z</time>
      </trkpt>
      <trkpt lat="43.76656" lon="4.6943">
        <ele>13</ele>
        <time>2019-05-22T07:51:21Z</time>
      </trkpt>
      <trkpt lat="43.76656" lon="4.69431">
        <ele>13</ele>
        <time>2019-05-22T07:51:25Z</time>
      </trkpt>
      <trkpt lat="43.76657" lon="4.69435">
        <ele>13</ele>
        <time>2019-05-22T07:51:30Z</time>
      </trkpt>
      <trkpt lat="43.76657" lon="4.69436">
        <ele>13</ele>
        <time>2019-05-22T07:51:33Z</time>
      </trkpt>
      <trkpt lat="43.76656" lon="4.69437">
        <ele>13</ele>
        <time>2019-05-22T07:51:37Z</time>
      </trkpt>
      <trkpt lat="43.76655" lon="4.69437">
        <ele>13</ele>
        <time>2019-05-22T07:51:45Z</time>
      </trkpt>
      <trkpt lat="43.76654" lon="4.69437">
        <ele>13</ele>
        <time>2019-05-22T07:51:57Z</time>
      </trkpt>
      <trkpt lat="43.76654" lon="4.69438">
        <ele>13</ele>
        <time>2019-05-22T07:52:20Z</time>
      </trkpt>
      <trkpt lat="43.76654" lon="4.6944">
        <ele>13</ele>
        <time>2019-05-22T07:53:01Z</time>
      </trkpt>
      <trkpt lat="43.76654" lon="4.6944">
        <ele>13</ele>
        <time>2019-05-22T07:53:04Z</time>
      </trkpt>
      <trkpt lat="43.76655" lon="4.69442">
        <ele>13</ele>
        <time>2019-05-22T07:53:09Z</time>
      </trkpt>
      <trkpt lat="43.76654" lon="4.69442">
        <ele>13</ele>
        <time>2019-05-22T07:53:25Z</time>
      </trkpt>
      <trkpt lat="43.76654" lon="4.69441">
        <ele>13</ele>
        <time>2019-05-22T07:53:31Z</time>
      </trkpt>
      <trkpt lat="43.76654" lon="4.69441">
        <ele>13</ele>
        <time>2019-05-22T07:53:39Z</time>
      </trkpt>
      <trkpt lat="43.76655" lon="4.69446">
        <ele>14</ele>
        <time>2019-05-22T07:53:44Z</time>
      </trkpt>
      <trkpt lat="43.76656" lon="4.69448">
        <ele>14</ele>
        <time>2019-05-22T07:53:47Z</time>
      </trkpt>
      <trkpt lat="43.76656" lon="4.69451">
        <ele>14</ele>
        <time>2019-05-22T07:53:51Z</time>
      </trkpt>
      <trkpt lat="43.76656" lon="4.69453">
        <ele>14</ele>
        <time>2019-05-22T07:53:56Z</time>
      </trkpt>
      <trkpt lat="43.76655" lon="4.69459">
        <ele>14</ele>
        <time>2019-05-22T07:54:00Z</time>
      </trkpt>
      <trkpt lat="43.76654" lon="4.69464">
        <ele>15</ele>
        <time>2019-05-22T07:54:04Z</time>
      </trkpt>
      <trkpt lat="43.76654" lon="4.69466">
        <ele>15</ele>
        <time>2019-05-22T07:54:08Z</time>
      </trkpt>
      <trkpt lat="43.76653" lon="4.69468">
        <ele>15</ele>
        <time>2019-05-22T07:54:12Z</time>
      </trkpt>
      <trkpt lat="43.76653" lon="4.69471">
        <ele>15</ele>
        <time>2019-05-22T07:54:17Z</time>
      </trkpt>
      <trkpt lat="43.76652" lon="4.69474">
        <ele>15</ele>
        <time>2019-05-22T07:54:21Z</time>
      </trkpt>
      <trkpt lat="43.76651" lon="4.69478">
        <ele>15</ele>
        <time>2019-05-22T07:54:26Z</time>
      </trkpt>
      <trkpt lat="43.76652" lon="4.69483">
        <ele>15</ele>
        <time>2019-05-22T07:54:31Z</time>
      </trkpt>
      <trkpt lat="43.76652" lon="4.69485">
        <ele>16</ele>
        <time>2019-05-22T07:54:35Z</time>
      </trkpt>
      <trkpt lat="43.76652" lon="4.69484">
        <ele>16</ele>
        <time>2019-05-22T07:54:44Z</time>
      </trkpt>
      <trkpt lat="43.76652" lon="4.69483">
        <ele>15</ele>
        <time>2019-05-22T07:54:49Z</time>
      </trkpt>
      <trkpt lat="43.76652" lon="4.69484">
        <ele>16</ele>
        <time>2019-05-22T07:54:54Z</time>
      </trkpt>
      <trkpt lat="43.76653" lon="4.69484">
        <ele>16</ele>
        <time>2019-05-22T07:54:59Z</time>
      </trkpt>
      <trkpt lat="43.76652" lon="4.69484">
        <ele>16</ele>
        <time>2019-05-22T07:55:04Z</time>
      </trkpt>
      <trkpt lat="43.76652" lon="4.69484">
        <ele>16</ele>
        <time>2019-05-22T07:55:07Z</time>
      </trkpt>
      <trkpt lat="43.7665" lon="4.69485">
        <ele>16</ele>
        <time>2019-05-22T07:55:11Z</time>
      </trkpt>
      <trkpt lat="43.76649" lon="4.69484">
        <ele>15</ele>
        <time>2019-05-22T07:55:20Z</time>
      </trkpt>
      <trkpt lat="43.7665" lon="4.69483">
        <ele>15</ele>
        <time>2019-05-22T07:55:27Z</time>
      </trkpt>
      <trkpt lat="43.76649" lon="4.69483">
        <ele>15</ele>
        <time>2019-05-22T07:55:40Z</time>
      </trkpt>
      <trkpt lat="43.76649" lon="4.69484">
        <ele>15</ele>
        <time>2019-05-22T07:55:59Z</time>
      </trkpt>
      <trkpt lat="43.76649" lon="4.69488">
        <ele>16</ele>
        <time>2019-05-22T07:56:04Z</time>
      </trkpt>
      <trkpt lat="43.7665" lon="4.69493">
        <ele>16</ele>
        <time>2019-05-22T07:56:08Z</time>
      </trkpt>
      <trkpt lat="43.7665" lon="4.69495">
        <ele>16</ele>
        <time>2019-05-22T07:56:12Z</time>
      </trkpt>
      <trkpt lat="43.76652" lon="4.69498">
        <ele>16</ele>
        <time>2019-05-22T07:56:16Z</time>
      </trkpt>
      <trkpt lat="43.76653" lon="4.69501">
        <ele>19</ele>
        <time>2019-05-22T07:56:20Z</time>
      </trkpt>
      <trkpt lat="43.76652" lon="4.69508">
        <ele>19</ele>
        <time>2019-05-22T07:56:24Z</time>
      </trkpt>
      <trkpt lat="43.76652" lon="4.69513">
        <ele>19</ele>
        <time>2019-05-22T07:56:28Z</time>
      </trkpt>
      <trkpt lat="43.76652" lon="4.69515">
        <ele>20</ele>
        <time>2019-05-22T07:56:33Z</time>
      </trkpt>
      <trkpt lat="43.76652" lon="4.69517">
        <ele>20</ele>
        <time>2019-05-22T07:56:37Z</time>
      </trkpt>
      <trkpt lat="43.76652" lon="4.69522">
        <ele>20</ele>
        <time>2019-05-22T07:56:41Z</time>
      </trkpt>
      <trkpt lat="43.76651" lon="4.69523">
        <ele>20</ele>
        <time>2019-05-22T07:56:46Z</time>
      </trkpt>
      <trkpt lat="43.76651" lon="4.69524">
        <ele>20</ele>
        <time>2019-05-22T07:56:49Z</time>
      </trkpt>
      <trkpt lat="43.76652" lon="4.69526">
        <ele>20</ele>
        <time>2019-05-22T07:56:53Z</time>
      </trkpt>
      <trkpt lat="43.76654" lon="4.69526">
        <ele>20</ele>
        <time>2019-05-22T07:56:58Z</time>
      </trkpt>
      <trkpt lat="43.76655" lon="4.69526">
        <ele>20</ele>
        <time>2019-05-22T07:57:03Z</time>
      </trkpt>
      <trkpt lat="43.76656" lon="4.69528">
        <ele>20</ele>
        <time>2019-05-22T07:57:07Z</time>
      </trkpt>
      <trkpt lat="43.76658" lon="4.69532">
        <ele>21</ele>
        <time>2019-05-22T07:57:11Z</time>
      </trkpt>
      <trkpt lat="43.7666" lon="4.69535">
        <ele>21</ele>
        <time>2019-05-22T07:57:16Z</time>
      </trkpt>
      <trkpt lat="43.7666" lon="4.69536">
        <ele>21</ele>
        <time>2019-05-22T07:57:19Z</time>
      </trkpt>
      <trkpt lat="43.76661" lon="4.69539">
        <ele>21</ele>
        <time>2019-05-22T07:57:23Z</time>
      </trkpt>
      <trkpt lat="43.76661" lon="4.69542">
        <ele>21</ele>
        <time>2019-05-22T07:57:27Z</time>
      </trkpt>
      <trkpt lat="43.76661" lon="4.69543">
        <ele>22</ele>
        <time>2019-05-22T07:57:31Z</time>
      </trkpt>
      <trkpt lat="43.7666" lon="4.69546">
        <ele>22</ele>
        <time>2019-05-22T07:57:36Z</time>
      </trkpt>
      <trkpt lat="43.76659" lon="4.69548">
        <ele>22</ele>
        <time>2019-05-22T07:57:39Z</time>
      </trkpt>
      <trkpt lat="43.76658" lon="4.69554">
        <ele>22</ele>
        <time>2019-05-22T07:57:44Z</time>
      </trkpt>
      <trkpt lat="43.76658" lon="4.69557">
        <ele>23</ele>
        <time>2019-05-22T07:57:48Z</time>
      </trkpt>
      <trkpt lat="43.76658" lon="4.6956">
        <ele>23</ele>
        <time>2019-05-22T07:57:52Z</time>
      </trkpt>
      <trkpt lat="43.76656" lon="4.69562">
        <ele>23</ele>
        <time>2019-05-22T07:57:56Z</time>
      </trkpt>
      <trkpt lat="43.76656" lon="4.69565">
        <ele>23</ele>
        <time>2019-05-22T07:58:00Z</time>
      </trkpt>
      <trkpt lat="43.76657" lon="4.69568">
        <ele>24</ele>
        <time>2019-05-22T07:58:05Z</time>
      </trkpt>
      <trkpt lat="43.76659" lon="4.6957">
        <ele>24</ele>
        <time>2019-05-22T07:58:09Z</time>
      </trkpt>
      <trkpt lat="43.7666" lon="4.69572">
        <ele>24</ele>
        <time>2019-05-22T07:58:12Z</time>
      </trkpt>
      <trkpt lat="43.76662" lon="4.69577">
        <ele>25</ele>
        <time>2019-05-22T07:58:17Z</time>
      </trkpt>
      <trkpt lat="43.76662" lon="4.6958">
        <ele>25</ele>
        <time>2019-05-22T07:58:20Z</time>
      </trkpt>
      <trkpt lat="43.76661" lon="4.69582">
        <ele>25</ele>
        <time>2019-05-22T07:58:24Z</time>
      </trkpt>
      <trkpt lat="43.76659" lon="4.69584">
        <ele>28</ele>
        <time>2019-05-22T07:58:28Z</time>
      </trkpt>
      <trkpt lat="43.76659" lon="4.69586">
        <ele>28</ele>
        <time>2019-05-22T07:58:32Z</time>
      </trkpt>
      <trkpt lat="43.76658" lon="4.69587">
        <ele>28</ele>
        <time>2019-05-22T07:58:36Z</time>
      </trkpt>
      <trkpt lat="43.76656" lon="4.6959">
        <ele>29</ele>
        <time>2019-05-22T07:58:39Z</time>
      </trkpt>
      <trkpt lat="43.76654" lon="4.69592">
        <ele>29</ele>
        <time>2019-05-22T07:58:42Z</time>
      </trkpt>
      <trkpt lat="43.76654" lon="4.69594">
        <ele>29</ele>
        <time>2019-05-22T07:58:46Z</time>
      </trkpt>
      <trkpt lat="43.76653" lon="4.69597">
        <ele>30</ele>
        <time>2019-05-22T07:58:50Z</time>
      </trkpt>
      <trkpt lat="43.76652" lon="4.69601">
        <ele>30</ele>
        <time>2019-05-22T07:58:54Z</time>
      </trkpt>
      <trkpt lat="43.7665" lon="4.69607">
        <ele>31</ele>
        <time>2019-05-22T07:58:58Z</time>
      </trkpt>
      <trkpt lat="43.76648" lon="4.69615">
        <ele>32</ele>
        <time>2019-05-22T07:59:02Z</time>
      </trkpt>
      <trkpt lat="43.76646" lon="4.69625">
        <ele>33</ele>
        <time>2019-05-22T07:59:07Z</time>
      </trkpt>
      <trkpt lat="43.76646" lon="4.69628">
        <ele>33</ele>
        <time>2019-05-22T07:59:10Z</time>
      </trkpt>
      <trkpt lat="43.76646" lon="4.69633">
        <ele>34</ele>
        <time>2019-05-22T07:59:14Z</time>
      </trkpt>
      <trkpt lat="43.76647" lon="4.69639">
        <ele>35</ele>
        <time>2019-05-22T07:59:19Z</time>
      </trkpt>
      <trkpt lat="43.76648" lon="4.69642">
        <ele>35</ele>
        <time>2019-05-22T07:59:23Z</time>
      </trkpt>
      <trkpt lat="43.7665" lon="4.69644">
        <ele>35</ele>
        <time>2019-05-22T07:59:27Z</time>
      </trkpt>
      <trkpt lat="43.76652" lon="4.69646">
        <ele>35</ele>
        <time>2019-05-22T07:59:32Z</time>
      </trkpt>
      <trkpt lat="43.76651" lon="4.69648">
        <ele>36</ele>
        <time>2019-05-22T07:59:36Z</time>
      </trkpt>
      <trkpt lat="43.7665" lon="4.69651">
        <ele>36</ele>
        <time>2019-05-22T07:59:41Z</time>
      </trkpt>
      <trkpt lat="43.7665" lon="4.69653">
        <ele>36</ele>
        <time>2019-05-22T07:59:45Z</time>
      </trkpt>
      <trkpt lat="43.76649" lon="4.6966">
        <ele>37</ele>
        <time>2019-05-22T07:59:49Z</time>
      </trkpt>
      <trkpt lat="43.76649" lon="4.69667">
        <ele>42</ele>
        <time>2019-05-22T07:59:53Z</time>
      </trkpt>
      <trkpt lat="43.76649" lon="4.69672">
        <ele>43</ele>
        <time>2019-05-22T07:59:58Z</time>
      </trkpt>
      <trkpt lat="43.76649" lon="4.69676">
        <ele>43</ele>
        <time>2019-05-22T08:00:03Z</time>
      </trkpt>
      <trkpt lat="43.76651" lon="4.69679">
        <ele>43</ele>
        <time>2019-05-22T08:00:07Z</time>
      </trkpt>
      <trkpt lat="43.76652" lon="4.6968">
        <ele>43</ele>
        <time>2019-05-22T08:00:11Z</time>
      </trkpt>
      <trkpt lat="43.76651" lon="4.69683">
        <ele>43</ele>
        <time>2019-05-22T08:00:15Z</time>
      </trkpt>
      <trkpt lat="43.76651" lon="4.6969">
        <ele>44</ele>
        <time>2019-05-22T08:00:19Z</time>
      </trkpt>
      <trkpt lat="43.76651" lon="4.69698">
        <ele>44</ele>
        <time>2019-05-22T08:00:24Z</time>
      </trkpt>
      <trkpt lat="43.76651" lon="4.69703">
        <ele>45</ele>
        <time>2019-05-22T08:00:29Z</time>
      </trkpt>
      <trkpt lat="43.76651" lon="4.69706">
        <ele>45</ele>
        <time>2019-05-22T08:00:32Z</time>
      </trkpt>
      <trkpt lat="43.76652" lon="4.6971">
        <ele>45</ele>
        <time>2019-05-22T08:00:36Z</time>
      </trkpt>
      <trkpt lat="43.76651" lon="4.69712">
        <ele>45</ele>
        <time>2019-05-22T08:00:40Z</time>
      </trkpt>
      <trkpt lat="43.76651" lon="4.69715">
        <ele>46</ele>
        <time>2019-05-22T08:00:43Z</time>
      </trkpt>
      <trkpt lat="43.7665" lon="4.69718">
        <ele>46</ele>
        <time>2019-05-22T08:00:47Z</time>
      </trkpt>
      <trkpt lat="43.7665" lon="4.69722">
        <ele>46</ele>
        <time>2019-05-22T08:00:51Z</time>
      </trkpt>
      <trkpt lat="43.76651" lon="4.69728">
        <ele>47</ele>
        <time>2019-05-22T08:00:56Z</time>
      </trkpt>
      <trkpt lat="43.76651" lon="4.69732">
        <ele>47</ele>
        <time>2019-05-22T08:01:00Z</time>
      </trkpt>
      <trkpt lat="43.76651" lon="4.69736">
        <ele>47</ele>
        <time>2019-05-22T08:01:04Z</time>
      </trkpt>
      <trkpt lat="43.76652" lon="4.69739">
        <ele>48</ele>
        <time>2019-05-22T08:01:08Z</time>
      </trkpt>
      <trkpt lat="43.76652" lon="4.69743">
        <ele>48</ele>
        <time>2019-05-22T08:01:12Z</time>
      </trkpt>
      <trkpt lat="43.76651" lon="4.69748">
        <ele>48</ele>
        <time>2019-05-22T08:01:16Z</time>
      </trkpt>
      <trkpt lat="43.7665" lon="4.69753">
        <ele>51</ele>
        <time>2019-05-22T08:01:20Z</time>
      </trkpt>
      <trkpt lat="43.7665" lon="4.69758">
        <ele>51</ele>
        <time>2019-05-22T08:01:24Z</time>
      </trkpt>
      <trkpt lat="43.76649" lon="4.69763">
        <ele>52</ele>
        <time>2019-05-22T08:01:29Z</time>
      </trkpt>
      <trkpt lat="43.76649" lon="4.69767">
        <ele>52</ele>
        <time>2019-05-22T08:01:33Z</time>
      </trkpt>
      <trkpt lat="43.76649" lon="4.69769">
        <ele>52</ele>
        <time>2019-05-22T08:01:37Z</time>
      </trkpt>
      <trkpt lat="43.76649" lon="4.69773">
        <ele>52</ele>
        <time>2019-05-22T08:01:41Z</time>
      </trkpt>
      <trkpt lat="43.76648" lon="4.69778">
        <ele>52</ele>
        <time>2019-05-22T08:01:45Z</time>
      </trkpt>
      <trkpt lat="43.76648" lon="4.69783">
        <ele>53</ele>
        <time>2019-05-22T08:01:49Z</time>
      </trkpt>
      <trkpt lat="43.76651" lon="4.69789">
        <ele>53</ele>
        <time>2019-05-22T08:01:54Z</time>
      </trkpt>
      <trkpt lat="43.76653" lon="4.69791">
        <ele>53</ele>
        <time>2019-05-22T08:01:58Z</time>
      </trkpt>
      <trkpt lat="43.76656" lon="4.69791">
        <ele>53</ele>
        <time>2019-05-22T08:02:03Z</time>
      </trkpt>
      <trkpt lat="43.76658" lon="4.69792">
        <ele>53</ele>
        <time>2019-05-22T08:02:08Z</time>
      </trkpt>
      <trkpt lat="43.76658" lon="4.69795">
        <ele>53</ele>
        <time>2019-05-22T08:02:12Z</time>
      </trkpt>
      <trkpt lat="43.76658" lon="4.69798">
        <ele>53</ele>
        <time>2019-05-22T08:02:16Z</time>
      </trkpt>
      <trkpt lat="43.7666" lon="4.698">
        <ele>53</ele>
        <time>2019-05-22T08:02:21Z</time>
      </trkpt>
      <trkpt lat="43.76661" lon="4.69803">
        <ele>53</ele>
        <time>2019-05-22T08:02:26Z</time>
      </trkpt>
      <trkpt lat="43.76662" lon="4.69804">
        <ele>53</ele>
        <time>2019-05-22T08:02:29Z</time>
      </trkpt>
      <trkpt lat="43.76664" lon="4.69805">
        <ele>53</ele>
        <time>2019-05-22T08:02:33Z</time>
      </trkpt>
      <trkpt lat="43.76666" lon="4.69806">
        <ele>53</ele>
        <time>2019-05-22T08:02:37Z</time>
      </trkpt>
      <trkpt lat="43.76667" lon="4.69807">
        <ele>54</ele>
        <time>2019-05-22T08:02:40Z</time>
      </trkpt>
      <trkpt lat="43.76668" lon="4.69809">
        <ele>50</ele>
        <time>2019-05-22T08:02:44Z</time>
      </trkpt>
      <trkpt lat="43.76668" lon="4.69809">
        <ele>50</ele>
        <time>2019-05-22T08:02:50Z</time>
      </trkpt>
      <trkpt lat="43.7667" lon="4.6981">
        <ele>50</ele>
        <time>2019-05-22T08:02:54Z</time>
      </trkpt>
      <trkpt lat="43.76671" lon="4.6981">
        <ele>50</ele>
        <time>2019-05-22T08:02:59Z</time>
      </trkpt>
      <trkpt lat="43.76671" lon="4.6981">
        <ele>50</ele>
        <time>2019-05-22T08:03:19Z</time>
      </trkpt>
      <trkpt lat="43.76672" lon="4.69812">
        <ele>50</ele>
        <time>2019-05-22T08:03:23Z</time>
      </trkpt>
      <trkpt lat="43.76674" lon="4.69812">
        <ele>50</ele>
        <time>2019-05-22T08:03:27Z</time>
      </trkpt>
      <trkpt lat="43.76674" lon="4.69811">
        <ele>50</ele>
        <time>2019-05-22T08:03:39Z</time>
      </trkpt>
      <trkpt lat="43.76675" lon="4.69811">
        <ele>50</ele>
        <time>2019-05-22T08:03:43Z</time>
      </trkpt>
      <trkpt lat="43.76676" lon="4.69811">
        <ele>50</ele>
        <time>2019-05-22T08:03:48Z</time>
      </trkpt>
      <trkpt lat="43.76677" lon="4.69811">
        <ele>50</ele>
        <time>2019-05-22T08:03:57Z</time>
      </trkpt>
      <trkpt lat="43.76677" lon="4.69812">
        <ele>50</ele>
        <time>2019-05-22T08:04:03Z</time>
      </trkpt>
      <trkpt lat="43.76677" lon="4.69813">
        <ele>50</ele>
        <time>2019-05-22T08:04:07Z</time>
      </trkpt>
      <trkpt lat="43.76677" lon="4.69813">
        <ele>50</ele>
        <time>2019-05-22T08:04:29Z</time>
      </trkpt>
      <trkpt lat="43.76676" lon="4.69812">
        <ele>50</ele>
        <time>2019-05-22T08:04:34Z</time>
      </trkpt>
      <trkpt lat="43.76676" lon="4.69811">
        <ele>50</ele>
        <time>2019-05-22T08:04:39Z</time>
      </trkpt>
      <trkpt lat="43.76676" lon="4.6981">
        <ele>50</ele>
        <time>2019-05-22T08:04:44Z</time>
      </trkpt>
      <trkpt lat="43.76676" lon="4.69809">
        <ele>50</ele>
        <time>2019-05-22T08:04:47Z</time>
      </trkpt>
      <trkpt lat="43.76676" lon="4.69807">
        <ele>50</ele>
        <time>2019-05-22T08:04:51Z</time>
      </trkpt>
      <trkpt lat="43.76676" lon="4.69805">
        <ele>50</ele>
        <time>2019-05-22T08:04:55Z</time>
      </trkpt>
      <trkpt lat="43.76676" lon="4.69804">
        <ele>49</ele>
        <time>2019-05-22T08:05:03Z</time>
      </trkpt>
      <trkpt lat="43.76676" lon="4.69803">
        <ele>49</ele>
        <time>2019-05-22T08:05:15Z</time>
      </trkpt>
      <trkpt lat="43.76676" lon="4.69802">
        <ele>49</ele>
        <time>2019-05-22T08:05:19Z</time>
      </trkpt>
      <trkpt lat="43.76675" lon="4.69802">
        <ele>49</ele>
        <time>2019-05-22T08:05:45Z</time>
      </trkpt>
      <trkpt lat="43.76675" lon="4.69802">
        <ele>49</ele>
        <time>2019-05-22T08:06:00Z</time>
      </trkpt>
      <trkpt lat="43.76674" lon="4.69799">
        <ele>49</ele>
        <time>2019-05-22T08:06:04Z</time>
      </trkpt>
      <trkpt lat="43.76673" lon="4.69798">
        <ele>49</ele>
        <time>2019-05-22T08:06:09Z</time>
      </trkpt>
      <trkpt lat="43.76672" lon="4.69797">
        <ele>49</ele>
        <time>2019-05-22T08:06:12Z</time>
      </trkpt>
      <trkpt lat="43.76671" lon="4.69796">
        <ele>49</ele>
        <time>2019-05-22T08:06:22Z</time>
      </trkpt>
      <trkpt lat="43.76668" lon="4.69793">
        <ele>49</ele>
        <time>2019-05-22T08:06:26Z</time>
      </trkpt>
      <trkpt lat="43.76664" lon="4.69789">
        <ele>53</ele>
        <time>2019-05-22T08:06:29Z</time>
      </trkpt>
      <trkpt lat="43.76658" lon="4.69787">
        <ele>53</ele>
        <time>2019-05-22T08:06:34Z</time>
      </trkpt>
      <trkpt lat="43.76656" lon="4.69788">
        <ele>53</ele>
        <time>2019-05-22T08:06:37Z</time>
      </trkpt>
      <trkpt lat="43.76654" lon="4.69791">
        <ele>53</ele>
        <time>2019-05-22T08:06:42Z</time>
      </trkpt>
      <trkpt lat="43.76654" lon="4.69792">
        <ele>53</ele>
        <time>2019-05-22T08:06:46Z</time>
      </trkpt>
      <trkpt lat="43.76653" lon="4.69794">
        <ele>53</ele>
        <time>2019-05-22T08:06:50Z</time>
      </trkpt>
      <trkpt lat="43.76651" lon="4.69796">
        <ele>53</ele>
        <time>2019-05-22T08:06:55Z</time>
      </trkpt>
      <trkpt lat="43.76651" lon="4.69797">
        <ele>53</ele>
        <time>2019-05-22T08:07:02Z</time>
      </trkpt>
      <trkpt lat="43.76651" lon="4.69798">
        <ele>53</ele>
        <time>2019-05-22T08:07:06Z</time>
      </trkpt>
      <trkpt lat="43.76649" lon="4.69802">
        <ele>53</ele>
        <time>2019-05-22T08:07:11Z</time>
      </trkpt>
      <trkpt lat="43.76646" lon="4.69808">
        <ele>53</ele>
        <time>2019-05-22T08:07:16Z</time>
      </trkpt>
      <trkpt lat="43.76646" lon="4.69811">
        <ele>54</ele>
        <time>2019-05-22T08:07:20Z</time>
      </trkpt>
      <trkpt lat="43.76646" lon="4.69813">
        <ele>54</ele>
        <time>2019-05-22T08:07:24Z</time>
      </trkpt>
      <trkpt lat="43.76646" lon="4.69814">
        <ele>54</ele>
        <time>2019-05-22T08:07:29Z</time>
      </trkpt>
      <trkpt lat="43.76647" lon="4.69815">
        <ele>54</ele>
        <time>2019-05-22T08:07:34Z</time>
      </trkpt>
      <trkpt lat="43.76647" lon="4.69816">
        <ele>54</ele>
        <time>2019-05-22T08:07:37Z</time>
      </trkpt>
      <trkpt lat="43.76647" lon="4.69819">
        <ele>54</ele>
        <time>2019-05-22T08:07:41Z</time>
      </trkpt>
      <trkpt lat="43.76647" lon="4.6982">
        <ele>54</ele>
        <time>2019-05-22T08:07:59Z</time>
      </trkpt>
      <trkpt lat="43.76646" lon="4.6982">
        <ele>54</ele>
        <time>2019-05-22T08:08:07Z</time>
      </trkpt>
      <trkpt lat="43.76645" lon="4.6982">
        <ele>54</ele>
        <time>2019-05-22T08:08:11Z</time>
      </trkpt>
      <trkpt lat="43.76643" lon="4.69821">
        <ele>54</ele>
        <time>2019-05-22T08:08:15Z</time>
      </trkpt>
      <trkpt lat="43.76642" lon="4.69823">
        <ele>54</ele>
        <time>2019-05-22T08:08:19Z</time>
      </trkpt>
      <trkpt lat="43.76638" lon="4.69826">
        <ele>54</ele>
        <time>2019-05-22T08:08:23Z</time>
      </trkpt>
      <trkpt lat="43.76634" lon="4.69828">
        <ele>54</ele>
        <time>2019-05-22T08:08:27Z</time>
      </trkpt>
      <trkpt lat="43.76631" lon="4.69831">
        <ele>54</ele>
        <time>2019-05-22T08:08:32Z</time>
      </trkpt>
      <trkpt lat="43.76628" lon="4.69835">
        <ele>58</ele>
        <time>2019-05-22T08:08:36Z</time>
      </trkpt>
      <trkpt lat="43.76626" lon="4.69839">
        <ele>58</ele>
        <time>2019-05-22T08:08:40Z</time>
      </trkpt>
      <trkpt lat="43.76622" lon="4.69844">
        <ele>58</ele>
        <time>2019-05-22T08:08:45Z</time>
      </trkpt>
      <trkpt lat="43.7662" lon="4.69848">
        <ele>59</ele>
        <time>2019-05-22T08:08:49Z</time>
      </trkpt>
      <trkpt lat="43.76618" lon="4.69851">
        <ele>59</ele>
        <time>2019-05-22T08:08:53Z</time>
      </trkpt>
      <trkpt lat="43.76616" lon="4.69853">
        <ele>59</ele>
        <time>2019-05-22T08:08:57Z</time>
      </trkpt>
      <trkpt lat="43.76614" lon="4.69853">
        <ele>59</ele>
        <time>2019-05-22T08:09:00Z</time>
      </trkpt>
      <trkpt lat="43.76611" lon="4.69854">
        <ele>59</ele>
        <time>2019-05-22T08:09:05Z</time>
      </trkpt>
      <trkpt lat="43.76609" lon="4.69857">
        <ele>59</ele>
        <time>2019-05-22T08:09:09Z</time>
      </trkpt>
      <trkpt lat="43.76606" lon="4.69861">
        <ele>59</ele>
        <time>2019-05-22T08:09:12Z</time>
      </trkpt>
      <trkpt lat="43.76603" lon="4.69866">
        <ele>59</ele>
        <time>2019-05-22T08:09:17Z</time>
      </trkpt>
      <trkpt lat="43.76602" lon="4.69872">
        <ele>60</ele>
        <time>2019-05-22T08:09:21Z</time>
      </trkpt>
      <trkpt lat="43.766" lon="4.69874">
        <ele>60</ele>
        <time>2019-05-22T08:09:24Z</time>
      </trkpt>
      <trkpt lat="43.76597" lon="4.69882">
        <ele>60</ele>
        <time>2019-05-22T08:09:29Z</time>
      </trkpt>
      <trkpt lat="43.76593" lon="4.69891">
        <ele>61</ele>
        <time>2019-05-22T08:09:33Z</time>
      </trkpt>
      <trkpt lat="43.76591" lon="4.69897">
        <ele>61</ele>
        <time>2019-05-22T08:09:37Z</time>
      </trkpt>
      <trkpt lat="43.7659" lon="4.69902">
        <ele>62</ele>
        <time>2019-05-22T08:09:41Z</time>
      </trkpt>
      <trkpt lat="43.76589" lon="4.69906">
        <ele>62</ele>
        <time>2019-05-22T08:09:45Z</time>
      </trkpt>
      <trkpt lat="43.76589" lon="4.6991">
        <ele>63</ele>
        <time>2019-05-22T08:09:48Z</time>
      </trkpt>
      <trkpt lat="43.7659" lon="4.69915">
        <ele>63</ele>
        <time>2019-05-22T08:09:52Z</time>
      </trkpt>
      <trkpt lat="43.76592" lon="4.69919">
        <ele>65</ele>
        <time>2019-05-22T08:09:56Z</time>
      </trkpt>
      <trkpt lat="43.76594" lon="4.69921">
        <ele>65</ele>
        <time>2019-05-22T08:10:00Z</time>
      </trkpt>
      <trkpt lat="43.76597" lon="4.69923">
        <ele>65</ele>
        <time>2019-05-22T08:10:04Z</time>
      </trkpt>
      <trkpt lat="43.766" lon="4.69925">
        <ele>66</ele>
        <time>2019-05-22T08:10:09Z</time>
      </trkpt>
      <trkpt lat="43.76602" lon="4.69926">
        <ele>66</ele>
        <time>2019-05-22T08:10:13Z</time>
      </trkpt>
      <trkpt lat="43.76603" lon="4.69928">
        <ele>66</ele>
        <time>2019-05-22T08:10:16Z</time>
      </trkpt>
      <trkpt lat="43.76607" lon="4.69932">
        <ele>66</ele>
        <time>2019-05-22T08:10:20Z</time>
      </trkpt>
      <trkpt lat="43.76612" lon="4.69936">
        <ele>66</ele>
        <time>2019-05-22T08:10:25Z</time>
      </trkpt>
      <trkpt lat="43.76616" lon="4.69938">
        <ele>67</ele>
        <time>2019-05-22T08:10:30Z</time>
      </trkpt>
      <trkpt lat="43.7662" lon="4.6994">
        <ele>67</ele>
        <time>2019-05-22T08:10:34Z</time>
      </trkpt>
      <trkpt lat="43.76625" lon="4.69941">
        <ele>67</ele>
        <time>2019-05-22T08:10:39Z</time>
      </trkpt>
      <trkpt lat="43.76629" lon="4.69943">
        <ele>67</ele>
        <time>2019-05-22T08:10:43Z</time>
      </trkpt>
      <trkpt lat="43.76633" lon="4.69946">
        <ele>67</ele>
        <time>2019-05-22T08:10:48Z</time>
      </trkpt>
      <trkpt lat="43.76636" lon="4.69947">
        <ele>67</ele>
        <time>2019-05-22T08:10:52Z</time>
      </trkpt>
      <trkpt lat="43.76638" lon="4.69948">
        <ele>67</ele>
        <time>2019-05-22T08:10:55Z</time>
      </trkpt>
      <trkpt lat="43.76644" lon="4.69949">
        <ele>67</ele>
        <time>2019-05-22T08:11:00Z</time>
      </trkpt>
      <trkpt lat="43.76646" lon="4.69949">
        <ele>67</ele>
        <time>2019-05-22T08:11:03Z</time>
      </trkpt>
      <trkpt lat="43.76649" lon="4.6995">
        <ele>67</ele>
        <time>2019-05-22T08:11:07Z</time>
      </trkpt>
      <trkpt lat="43.76652" lon="4.6995">
        <ele>67</ele>
        <time>2019-05-22T08:11:12Z</time>
      </trkpt>
      <trkpt lat="43.76654" lon="4.69951">
        <ele>67</ele>
        <time>2019-05-22T08:11:16Z</time>
      </trkpt>
      <trkpt lat="43.76659" lon="4.69956">
        <ele>67</ele>
        <time>2019-05-22T08:11:21Z</time>
      </trkpt>
      <trkpt lat="43.76663" lon="4.69959">
        <ele>67</ele>
        <time>2019-05-22T08:11:25Z</time>
      </trkpt>
      <trkpt lat="43.76666" lon="4.6996">
        <ele>67</ele>
        <time>2019-05-22T08:11:29Z</time>
      </trkpt>
      <trkpt lat="43.76668" lon="4.6996">
        <ele>66</ele>
        <time>2019-05-22T08:11:32Z</time>
      </trkpt>
      <trkpt lat="43.76674" lon="4.6996">
        <ele>66</ele>
        <time>2019-05-22T08:11:37Z</time>
      </trkpt>
      <trkpt lat="43.76678" lon="4.69961">
        <ele>66</ele>
        <time>2019-05-22T08:11:42Z</time>
      </trkpt>
      <trkpt lat="43.76682" lon="4.69962">
        <ele>66</ele>
        <time>2019-05-22T08:11:46Z</time>
      </trkpt>
      <trkpt lat="43.76685" lon="4.69961">
        <ele>66</ele>
        <time>2019-05-22T08:11:50Z</time>
      </trkpt>
      <trkpt lat="43.76689" lon="4.69961">
        <ele>65</ele>
        <time>2019-05-22T08:11:54Z</time>
      </trkpt>
      <trkpt lat="43.76694" lon="4.6996">
        <ele>65</ele>
        <time>2019-05-22T08:11:58Z</time>
      </trkpt>
      <trkpt lat="43.767" lon="4.6996">
        <ele>65</ele>
        <time>2019-05-22T08:12:02Z</time>
      </trkpt>
      <trkpt lat="43.7671" lon="4.69957">
        <ele>65</ele>
        <time>2019-05-22T08:12:07Z</time>
      </trkpt>
      <trkpt lat="43.76715" lon="4.69956">
        <ele>65</ele>
        <time>2019-05-22T08:12:11Z</time>
      </trkpt>
      <trkpt lat="43.76719" lon="4.69954">
        <ele>65</ele>
        <time>2019-05-22T08:12:15Z</time>
      </trkpt>
      <trkpt lat="43.76723" lon="4.69952">
        <ele>64</ele>
        <time>2019-05-22T08:12:19Z</time>
      </trkpt>
      <trkpt lat="43.76727" lon="4.69951">
        <ele>64</ele>
        <time>2019-05-22T08:12:22Z</time>
      </trkpt>
      <trkpt lat="43.76731" lon="4.6995">
        <ele>64</ele>
        <time>2019-05-22T08:12:27Z</time>
      </trkpt>
      <trkpt lat="43.76734" lon="4.69949">
        <ele>64</ele>
        <time>2019-05-22T08:12:30Z</time>
      </trkpt>
      <trkpt lat="43.76738" lon="4.69947">
        <ele>63</ele>
        <time>2019-05-22T08:12:34Z</time>
      </trkpt>
      <trkpt lat="43.76743" lon="4.69947">
        <ele>63</ele>
        <time>2019-05-22T08:12:39Z</time>
      </trkpt>
      <trkpt lat="43.76747" lon="4.69946">
        <ele>63</ele>
        <time>2019-05-22T08:12:43Z</time>
      </trkpt>
      <trkpt lat="43.7675" lon="4.69946">
        <ele>61</ele>
        <time>2019-05-22T08:12:47Z</time>
      </trkpt>
      <trkpt lat="43.76757" lon="4.69943">
        <ele>61</ele>
        <time>2019-05-22T08:12:52Z</time>
      </trkpt>
      <trkpt lat="43.76762" lon="4.6994">
        <ele>61</ele>
        <time>2019-05-22T08:12:56Z</time>
      </trkpt>
      <trkpt lat="43.76768" lon="4.69937">
        <ele>61</ele>
        <time>2019-05-22T08:13:01Z</time>
      </trkpt>
      <trkpt lat="43.76772" lon="4.69936">
        <ele>61</ele>
        <time>2019-05-22T08:13:04Z</time>
      </trkpt>
      <trkpt lat="43.76778" lon="4.69935">
        <ele>61</ele>
        <time>2019-05-22T08:13:08Z</time>
      </trkpt>
      <trkpt lat="43.76782" lon="4.69934">
        <ele>61</ele>
        <time>2019-05-22T08:13:12Z</time>
      </trkpt>
      <trkpt lat="43.76785" lon="4.69933">
        <ele>61</ele>
        <time>2019-05-22T08:13:16Z</time>
      </trkpt>
      <trkpt lat="43.76789" lon="4.69932">
        <ele>61</ele>
        <time>2019-05-22T08:13:21Z</time>
      </trkpt>
      <trkpt lat="43.76792" lon="4.69932">
        <ele>61</ele>
        <time>2019-05-22T08:13:24Z</time>
      </trkpt>
      <trkpt lat="43.76796" lon="4.69933">
        <ele>60</ele>
        <time>2019-05-22T08:13:29Z</time>
      </trkpt>
      <trkpt lat="43.768" lon="4.69932">
        <ele>60</ele>
        <time>2019-05-22T08:13:33Z</time>
      </trkpt>
      <trkpt lat="43.76805" lon="4.69932">
        <ele>60</ele>
        <time>2019-05-22T08:13:37Z</time>
      </trkpt>
      <trkpt lat="43.7681" lon="4.69931">
        <ele>60</ele>
        <time>2019-05-22T08:13:41Z</time>
      </trkpt>
      <trkpt lat="43.76816" lon="4.69929">
        <ele>60</ele>
        <time>2019-05-22T08:13:46Z</time>
      </trkpt>
      <trkpt lat="43.76821" lon="4.69926">
        <ele>59</ele>
        <time>2019-05-22T08:13:50Z</time>
      </trkpt>
      <trkpt lat="43.76825" lon="4.69924">
        <ele>59</ele>
        <time>2019-05-22T08:13:55Z</time>
      </trkpt>
      <trkpt lat="43.76828" lon="4.69923">
        <ele>58</ele>
        <time>2019-05-22T08:13:58Z</time>
      </trkpt>
      <trkpt lat="43.76832" lon="4.69922">
        <ele>58</ele>
        <time>2019-05-22T08:14:02Z</time>
      </trkpt>
      <trkpt lat="43.76836" lon="4.6992">
        <ele>57</ele>
        <time>2019-05-22T08:14:06Z</time>
      </trkpt>
      <trkpt lat="43.76838" lon="4.69918">
        <ele>57</ele>
        <time>2019-05-22T08:14:10Z</time>
      </trkpt>
      <trkpt lat="43.76841" lon="4.69914">
        <ele>55</ele>
        <time>2019-05-22T08:14:14Z</time>
      </trkpt>
      <trkpt lat="43.76849" lon="4.69909">
        <ele>53</ele>
        <time>2019-05-22T08:14:18Z</time>
      </trkpt>
      <trkpt lat="43.76858" lon="4.69904">
        <ele>52</ele>
        <time>2019-05-22T08:14:23Z</time>
      </trkpt>
      <trkpt lat="43.76863" lon="4.69902">
        <ele>52</ele>
        <time>2019-05-22T08:14:28Z</time>
      </trkpt>
      <trkpt lat="43.76867" lon="4.699">
        <ele>51</ele>
        <time>2019-05-22T08:14:32Z</time>
      </trkpt>
      <trkpt lat="43.76871" lon="4.69898">
        <ele>51</ele>
        <time>2019-05-22T08:14:36Z</time>
      </trkpt>
      <trkpt lat="43.76877" lon="4.69894">
        <ele>51</ele>
        <time>2019-05-22T08:14:41Z</time>
      </trkpt>
      <trkpt lat="43.76881" lon="4.69891">
        <ele>50</ele>
        <time>2019-05-22T08:14:45Z</time>
      </trkpt>
      <trkpt lat="43.76884" lon="4.69889">
        <ele>50</ele>
        <time>2019-05-22T08:14:48Z</time>
      </trkpt>
      <trkpt lat="43.76888" lon="4.69888">
        <ele>50</ele>
        <time>2019-05-22T08:14:52Z</time>
      </trkpt>
      <trkpt lat="43.76892" lon="4.69888">
        <ele>50</ele>
        <time>2019-05-22T08:14:56Z</time>
      </trkpt>
      <trkpt lat="43.76895" lon="4.69888">
        <ele>50</ele>
        <time>2019-05-22T08:15:00Z</time>
      </trkpt>
      <trkpt lat="43.76899" lon="4.69887">
        <ele>50</ele>
        <time>2019-05-22T08:15:05Z</time>
      </trkpt>
      <trkpt lat="43.76902" lon="4.69886">
        <ele>50</ele>
        <time>2019-05-22T08:15:10Z</time>
      </trkpt>
      <trkpt lat="43.76905" lon="4.69885">
        <ele>50</ele>
        <time>2019-05-22T08:15:15Z</time>
      </trkpt>
      <trkpt lat="43.76907" lon="4.69886">
        <ele>50</ele>
        <time>2019-05-22T08:15:19Z</time>
      </trkpt>
      <trkpt lat="43.76911" lon="4.69886">
        <ele>50</ele>
        <time>2019-05-22T08:15:23Z</time>
      </trkpt>
      <trkpt lat="43.76914" lon="4.69886">
        <ele>50</ele>
        <time>2019-05-22T08:15:26Z</time>
      </trkpt>
      <trkpt lat="43.76917" lon="4.69885">
        <ele>45</ele>
        <time>2019-05-22T08:15:31Z</time>
      </trkpt>
      <trkpt lat="43.76918" lon="4.69885">
        <ele>45</ele>
        <time>2019-05-22T08:15:35Z</time>
      </trkpt>
      <trkpt lat="43.76921" lon="4.69886">
        <ele>45</ele>
        <time>2019-05-22T08:15:38Z</time>
      </trkpt>
      <trkpt lat="43.76926" lon="4.69889">
        <ele>46</ele>
        <time>2019-05-22T08:15:43Z</time>
      </trkpt>
      <trkpt lat="43.76929" lon="4.69893">
        <ele>46</ele>
        <time>2019-05-22T08:15:47Z</time>
      </trkpt>
      <trkpt lat="43.7693" lon="4.69896">
        <ele>46</ele>
        <time>2019-05-22T08:15:51Z</time>
      </trkpt>
      <trkpt lat="43.76931" lon="4.69899">
        <ele>47</ele>
        <time>2019-05-22T08:15:54Z</time>
      </trkpt>
      <trkpt lat="43.76932" lon="4.69904">
        <ele>47</ele>
        <time>2019-05-22T08:15:58Z</time>
      </trkpt>
      <trkpt lat="43.76933" lon="4.69908">
        <ele>48</ele>
        <time>2019-05-22T08:16:02Z</time>
      </trkpt>
      <trkpt lat="43.76932" lon="4.69912">
        <ele>48</ele>
        <time>2019-05-22T08:16:06Z</time>
      </trkpt>
      <trkpt lat="43.7693" lon="4.69918">
        <ele>51</ele>
        <time>2019-05-22T08:16:11Z</time>
      </trkpt>
      <trkpt lat="43.7693" lon="4.69925">
        <ele>51</ele>
        <time>2019-05-22T08:16:14Z</time>
      </trkpt>
      <trkpt lat="43.7693" lon="4.69931">
        <ele>51</ele>
        <time>2019-05-22T08:16:18Z</time>
      </trkpt>
      <trkpt lat="43.76931" lon="4.69935">
        <ele>51</ele>
        <time>2019-05-22T08:16:23Z</time>
      </trkpt>
      <trkpt lat="43.7693" lon="4.69937">
        <ele>51</ele>
        <time>2019-05-22T08:16:26Z</time>
      </trkpt>
      <trkpt lat="43.7693" lon="4.69941">
        <ele>50</ele>
        <time>2019-05-22T08:16:31Z</time>
      </trkpt>
      <trkpt lat="43.7693" lon="4.69944">
        <ele>50</ele>
        <time>2019-05-22T08:16:35Z</time>
      </trkpt>
      <trkpt lat="43.76929" lon="4.69947">
        <ele>50</ele>
        <time>2019-05-22T08:16:39Z</time>
      </trkpt>
      <trkpt lat="43.76928" lon="4.6995">
        <ele>50</ele>
        <time>2019-05-22T08:16:43Z</time>
      </trkpt>
      <trkpt lat="43.76928" lon="4.69953">
        <ele>50</ele>
        <time>2019-05-22T08:16:46Z</time>
      </trkpt>
      <trkpt lat="43.76927" lon="4.69956">
        <ele>50</ele>
        <time>2019-05-22T08:16:50Z</time>
      </trkpt>
      <trkpt lat="43.76927" lon="4.69957">
        <ele>50</ele>
        <time>2019-05-22T08:16:54Z</time>
      </trkpt>
      <trkpt lat="43.76926" lon="4.6996">
        <ele>51</ele>
        <time>2019-05-22T08:16:57Z</time>
      </trkpt>
      <trkpt lat="43.76923" lon="4.69964">
        <ele>51</ele>
        <time>2019-05-22T08:17:01Z</time>
      </trkpt>
      <trkpt lat="43.7692" lon="4.69968">
        <ele>51</ele>
        <time>2019-05-22T08:17:06Z</time>
      </trkpt>
      <trkpt lat="43.76918" lon="4.6997">
        <ele>51</ele>
        <time>2019-05-22T08:17:10Z</time>
      </trkpt>
      <trkpt lat="43.76916" lon="4.69972">
        <ele>56</ele>
        <time>2019-05-22T08:17:14Z</time>
      </trkpt>
      <trkpt lat="43.76915" lon="4.69975">
        <ele>56</ele>
        <time>2019-05-22T08:17:17Z</time>
      </trkpt>
      <trkpt lat="43.76913" lon="4.6998">
        <ele>55</ele>
        <time>2019-05-22T08:17:22Z</time>
      </trkpt>
      <trkpt lat="43.76911" lon="4.69983">
        <ele>55</ele>
        <time>2019-05-22T08:17:26Z</time>
      </trkpt>
      <trkpt lat="43.76907" lon="4.69985">
        <ele>55</ele>
        <time>2019-05-22T08:17:30Z</time>
      </trkpt>
      <trkpt lat="43.76904" lon="4.69988">
        <ele>56</ele>
        <time>2019-05-22T08:17:35Z</time>
      </trkpt>
      <trkpt lat="43.76899" lon="4.69992">
        <ele>56</ele>
        <time>2019-05-22T08:17:39Z</time>
      </trkpt>
      <trkpt lat="43.76895" lon="4.69994">
        <ele>56</ele>
        <time>2019-05-22T08:17:43Z</time>
      </trkpt>
      <trkpt lat="43.76892" lon="4.69995">
        <ele>56</ele>
        <time>2019-05-22T08:17:48Z</time>
      </trkpt>
      <trkpt lat="43.76888" lon="4.69995">
        <ele>56</ele>
        <time>2019-05-22T08:17:51Z</time>
      </trkpt>
      <trkpt lat="43.76883" lon="4.69995">
        <ele>57</ele>
        <time>2019-05-22T08:17:56Z</time>
      </trkpt>
      <trkpt lat="43.7688" lon="4.69996">
        <ele>57</ele>
        <time>2019-05-22T08:18:00Z</time>
      </trkpt>
      <trkpt lat="43.76875" lon="4.69996">
        <ele>57</ele>
        <time>2019-05-22T08:18:05Z</time>
      </trkpt>
      <trkpt lat="43.76872" lon="4.69995">
        <ele>58</ele>
        <time>2019-05-22T08:18:10Z</time>
      </trkpt>
      <trkpt lat="43.76868" lon="4.69995">
        <ele>58</ele>
        <time>2019-05-22T08:18:15Z</time>
      </trkpt>
      <trkpt lat="43.76865" lon="4.69995">
        <ele>58</ele>
        <time>2019-05-22T08:18:19Z</time>
      </trkpt>
      <trkpt lat="43.76862" lon="4.69996">
        <ele>59</ele>
        <time>2019-05-22T08:18:23Z</time>
      </trkpt>
      <trkpt lat="43.76859" lon="4.69997">
        <ele>59</ele>
        <time>2019-05-22T08:18:27Z</time>
      </trkpt>
      <trkpt lat="43.76855" lon="4.7">
        <ele>59</ele>
        <time>2019-05-22T08:18:30Z</time>
      </trkpt>
      <trkpt lat="43.7685" lon="4.70004">
        <ele>61</ele>
        <time>2019-05-22T08:18:34Z</time>
      </trkpt>
      <trkpt lat="43.76845" lon="4.70008">
        <ele>61</ele>
        <time>2019-05-22T08:18:39Z</time>
      </trkpt>
      <trkpt lat="43.76842" lon="4.70011">
        <ele>62</ele>
        <time>2019-05-22T08:18:42Z</time>
      </trkpt>
      <trkpt lat="43.76837" lon="4.70015">
        <ele>62</ele>
        <time>2019-05-22T08:18:46Z</time>
      </trkpt>
      <trkpt lat="43.76834" lon="4.70017">
        <ele>62</ele>
        <time>2019-05-22T08:18:50Z</time>
      </trkpt>
      <trkpt lat="43.76832" lon="4.70019">
        <ele>65</ele>
        <time>2019-05-22T08:18:53Z</time>
      </trkpt>
      <trkpt lat="43.76831" lon="4.7002">
        <ele>65</ele>
        <time>2019-05-22T08:18:57Z</time>
      </trkpt>
      <trkpt lat="43.76827" lon="4.70022">
        <ele>66</ele>
        <time>2019-05-22T08:19:02Z</time>
      </trkpt>
      <trkpt lat="43.76824" lon="4.70024">
        <ele>66</ele>
        <time>2019-05-22T08:19:06Z</time>
      </trkpt>
      <trkpt lat="43.76821" lon="4.70025">
        <ele>66</ele>
        <time>2019-05-22T08:19:11Z</time>
      </trkpt>
      <trkpt lat="43.76818" lon="4.70027">
        <ele>66</ele>
        <time>2019-05-22T08:19:15Z</time>
      </trkpt>
      <trkpt lat="43.76816" lon="4.70029">
        <ele>66</ele>
        <time>2019-05-22T08:19:20Z</time>
      </trkpt>
      <trkpt lat="43.76815" lon="4.7003">
        <ele>66</ele>
        <time>2019-05-22T08:19:24Z</time>
      </trkpt>
      <trkpt lat="43.76814" lon="4.70034">
        <ele>67</ele>
        <time>2019-05-22T08:19:28Z</time>
      </trkpt>
      <trkpt lat="43.76813" lon="4.70038">
        <ele>67</ele>
        <time>2019-05-22T08:19:32Z</time>
      </trkpt>
      <trkpt lat="43.7681" lon="4.70043">
        <ele>67</ele>
        <time>2019-05-22T08:19:36Z</time>
      </trkpt>
      <trkpt lat="43.76809" lon="4.7005">
        <ele>67</ele>
        <time>2019-05-22T08:19:41Z</time>
      </trkpt>
      <trkpt lat="43.76809" lon="4.70053">
        <ele>67</ele>
        <time>2019-05-22T08:19:44Z</time>
      </trkpt>
      <trkpt lat="43.7681" lon="4.70059">
        <ele>67</ele>
        <time>2019-05-22T08:19:48Z</time>
      </trkpt>
      <trkpt lat="43.76809" lon="4.70066">
        <ele>67</ele>
        <time>2019-05-22T08:19:51Z</time>
      </trkpt>
      <trkpt lat="43.76808" lon="4.70071">
        <ele>67</ele>
        <time>2019-05-22T08:19:55Z</time>
      </trkpt>
      <trkpt lat="43.76805" lon="4.70077">
        <ele>67</ele>
        <time>2019-05-22T08:20:00Z</time>
      </trkpt>
      <trkpt lat="43.76804" lon="4.7008">
        <ele>67</ele>
        <time>2019-05-22T08:20:04Z</time>
      </trkpt>
      <trkpt lat="43.76804" lon="4.70084">
        <ele>69</ele>
        <time>2019-05-22T08:20:08Z</time>
      </trkpt>
      <trkpt lat="43.76803" lon="4.70089">
        <ele>69</ele>
        <time>2019-05-22T08:20:12Z</time>
      </trkpt>
      <trkpt lat="43.76802" lon="4.70095">
        <ele>70</ele>
        <time>2019-05-22T08:20:16Z</time>
      </trkpt>
      <trkpt lat="43.76801" lon="4.70101">
        <ele>70</ele>
        <time>2019-05-22T08:20:20Z</time>
      </trkpt>
      <trkpt lat="43.76801" lon="4.70106">
        <ele>70</ele>
        <time>2019-05-22T08:20:25Z</time>
      </trkpt>
      <trkpt lat="43.76801" lon="4.70111">
        <ele>70</ele>
        <time>2019-05-22T08:20:29Z</time>
      </trkpt>
      <trkpt lat="43.76801" lon="4.70117">
        <ele>70</ele>
        <time>2019-05-22T08:20:33Z</time>
      </trkpt>
      <trkpt lat="43.76802" lon="4.70122">
        <ele>70</ele>
        <time>2019-05-22T08:20:37Z</time>
      </trkpt>
      <trkpt lat="43.76803" lon="4.70129">
        <ele>70</ele>
        <time>2019-05-22T08:20:41Z</time>
      </trkpt>
      <trkpt lat="43.76804" lon="4.70135">
        <ele>70</ele>
        <time>2019-05-22T08:20:44Z</time>
      </trkpt>
      <trkpt lat="43.76804" lon="4.7014">
        <ele>70</ele>
        <time>2019-05-22T08:20:48Z</time>
      </trkpt>
      <trkpt lat="43.76804" lon="4.70145">
        <ele>70</ele>
        <time>2019-05-22T08:20:52Z</time>
      </trkpt>
      <trkpt lat="43.76803" lon="4.70149">
        <ele>71</ele>
        <time>2019-05-22T08:20:56Z</time>
      </trkpt>
      <trkpt lat="43.76802" lon="4.70155">
        <ele>71</ele>
        <time>2019-05-22T08:21:00Z</time>
      </trkpt>
      <trkpt lat="43.76799" lon="4.70163">
        <ele>71</ele>
        <time>2019-05-22T08:21:05Z</time>
      </trkpt>
      <trkpt lat="43.76797" lon="4.70167">
        <ele>71</ele>
        <time>2019-05-22T08:21:08Z</time>
      </trkpt>
      <trkpt lat="43.76795" lon="4.7017">
        <ele>72</ele>
        <time>2019-05-22T08:21:12Z</time>
      </trkpt>
      <trkpt lat="43.76794" lon="4.70174">
        <ele>72</ele>
        <time>2019-05-22T08:21:16Z</time>
      </trkpt>
      <trkpt lat="43.76791" lon="4.7018">
        <ele>73</ele>
        <time>2019-05-22T08:21:21Z</time>
      </trkpt>
      <trkpt lat="43.76789" lon="4.70185">
        <ele>73</ele>
        <time>2019-05-22T08:21:25Z</time>
      </trkpt>
      <trkpt lat="43.76787" lon="4.70191">
        <ele>73</ele>
        <time>2019-05-22T08:21:30Z</time>
      </trkpt>
      <trkpt lat="43.76786" lon="4.70195">
        <ele>73</ele>
        <time>2019-05-22T08:21:33Z</time>
      </trkpt>
      <trkpt lat="43.76785" lon="4.70197">
        <ele>73</ele>
        <time>2019-05-22T08:21:36Z</time>
      </trkpt>
      <trkpt lat="43.76784" lon="4.70199">
        <ele>73</ele>
        <time>2019-05-22T08:21:41Z</time>
      </trkpt>
      <trkpt lat="43.76781" lon="4.70203">
        <ele>73</ele>
        <time>2019-05-22T08:21:45Z</time>
      </trkpt>
      <trkpt lat="43.76779" lon="4.70208">
        <ele>74</ele>
        <time>2019-05-22T08:21:50Z</time>
      </trkpt>
      <trkpt lat="43.76777" lon="4.70212">
        <ele>74</ele>
        <time>2019-05-22T08:21:54Z</time>
      </trkpt>
      <trkpt lat="43.76775" lon="4.70218">
        <ele>74</ele>
        <time>2019-05-22T08:21:58Z</time>
      </trkpt>
      <trkpt lat="43.76772" lon="4.70219">
        <ele>74</ele>
        <time>2019-05-22T08:22:02Z</time>
      </trkpt>
      <trkpt lat="43.76771" lon="4.7022">
        <ele>74</ele>
        <time>2019-05-22T08:22:07Z</time>
      </trkpt>
      <trkpt lat="43.76768" lon="4.70225">
        <ele>75</ele>
        <time>2019-05-22T08:22:12Z</time>
      </trkpt>
      <trkpt lat="43.76764" lon="4.70227">
        <ele>75</ele>
        <time>2019-05-22T08:22:15Z</time>
      </trkpt>
      <trkpt lat="43.76759" lon="4.70229">
        <ele>76</ele>
        <time>2019-05-22T08:22:19Z</time>
      </trkpt>
      <trkpt lat="43.76756" lon="4.70231">
        <ele>76</ele>
        <time>2019-05-22T08:22:24Z</time>
      </trkpt>
      <trkpt lat="43.76752" lon="4.70234">
        <ele>77</ele>
        <time>2019-05-22T08:22:29Z</time>
      </trkpt>
      <trkpt lat="43.76748" lon="4.70235">
        <ele>80</ele>
        <time>2019-05-22T08:22:33Z</time>
      </trkpt>
      <trkpt lat="43.76744" lon="4.70235">
        <ele>81</ele>
        <time>2019-05-22T08:22:38Z</time>
      </trkpt>
      <trkpt lat="43.76741" lon="4.70235">
        <ele>81</ele>
        <time>2019-05-22T08:22:42Z</time>
      </trkpt>
      <trkpt lat="43.76738" lon="4.70234">
        <ele>81</ele>
        <time>2019-05-22T08:22:46Z</time>
      </trkpt>
      <trkpt lat="43.76734" lon="4.70233">
        <ele>81</ele>
        <time>2019-05-22T08:22:50Z</time>
      </trkpt>
      <trkpt lat="43.76728" lon="4.70231">
        <ele>81</ele>
        <time>2019-05-22T08:22:55Z</time>
      </trkpt>
      <trkpt lat="43.76723" lon="4.7023">
        <ele>81</ele>
        <time>2019-05-22T08:23:00Z</time>
      </trkpt>
      <trkpt lat="43.76719" lon="4.70228">
        <ele>81</ele>
        <time>2019-05-22T08:23:04Z</time>
      </trkpt>
      <trkpt lat="43.76715" lon="4.70226">
        <ele>81</ele>
        <time>2019-05-22T08:23:08Z</time>
      </trkpt>
      <trkpt lat="43.76708" lon="4.70223">
        <ele>82</ele>
        <time>2019-05-22T08:23:13Z</time>
      </trkpt>
      <trkpt lat="43.76704" lon="4.70222">
        <ele>82</ele>
        <time>2019-05-22T08:23:18Z</time>
      </trkpt>
      <trkpt lat="43.76699" lon="4.70222">
        <ele>82</ele>
        <time>2019-05-22T08:23:22Z</time>
      </trkpt>
      <trkpt lat="43.76693" lon="4.70222">
        <ele>82</ele>
        <time>2019-05-22T08:23:27Z</time>
      </trkpt>
      <trkpt lat="43.7669" lon="4.70221">
        <ele>82</ele>
        <time>2019-05-22T08:23:31Z</time>
      </trkpt>
      <trkpt lat="43.76686" lon="4.7022">
        <ele>82</ele>
        <time>2019-05-22T08:23:35Z</time>
      </trkpt>
      <trkpt lat="43.76682" lon="4.7022">
        <ele>83</ele>
        <time>2019-05-22T08:23:39Z</time>
      </trkpt>
      <trkpt lat="43.76677" lon="4.7022">
        <ele>83</ele>
        <time>2019-05-22T08:23:43Z</time>
      </trkpt>
      <trkpt lat="43.7667" lon="4.70221">
        <ele>83</ele>
        <time>2019-05-22T08:23:48Z</time>
      </trkpt>
      <trkpt lat="43.76667" lon="4.70223">
        <ele>84</ele>
        <time>2019-05-22T08:23:52Z</time>
      </trkpt>
      <trkpt lat="43.76664" lon="4.70224">
        <ele>84</ele>
        <time>2019-05-22T08:23:55Z</time>
      </trkpt>
      <trkpt lat="43.76659" lon="4.70225">
        <ele>84</ele>
        <time>2019-05-22T08:23:59Z</time>
      </trkpt>
      <trkpt lat="43.76654" lon="4.70228">
        <ele>84</ele>
        <time>2019-05-22T08:24:03Z</time>
      </trkpt>
      <trkpt lat="43.7665" lon="4.70231">
        <ele>85</ele>
        <time>2019-05-22T08:24:08Z</time>
      </trkpt>
      <trkpt lat="43.76645" lon="4.70232">
        <ele>84</ele>
        <time>2019-05-22T08:24:12Z</time>
      </trkpt>
      <trkpt lat="43.76641" lon="4.70232">
        <ele>84</ele>
        <time>2019-05-22T08:24:16Z</time>
      </trkpt>
      <trkpt lat="43.76639" lon="4.70233">
        <ele>84</ele>
        <time>2019-05-22T08:24:19Z</time>
      </trkpt>
      <trkpt lat="43.76638" lon="4.70237">
        <ele>84</ele>
        <time>2019-05-22T08:24:23Z</time>
      </trkpt>
      <trkpt lat="43.76636" lon="4.7024">
        <ele>84</ele>
        <time>2019-05-22T08:24:27Z</time>
      </trkpt>
      <trkpt lat="43.76633" lon="4.70246">
        <ele>84</ele>
        <time>2019-05-22T08:24:32Z</time>
      </trkpt>
      <trkpt lat="43.76631" lon="4.70254">
        <ele>86</ele>
        <time>2019-05-22T08:24:36Z</time>
      </trkpt>
      <trkpt lat="43.76631" lon="4.70258">
        <ele>86</ele>
        <time>2019-05-22T08:24:39Z</time>
      </trkpt>
      <trkpt lat="43.7663" lon="4.70263">
        <ele>86</ele>
        <time>2019-05-22T08:24:43Z</time>
      </trkpt>
      <trkpt lat="43.7663" lon="4.70268">
        <ele>86</ele>
        <time>2019-05-22T08:24:47Z</time>
      </trkpt>
      <trkpt lat="43.7663" lon="4.70274">
        <ele>86</ele>
        <time>2019-05-22T08:24:51Z</time>
      </trkpt>
      <trkpt lat="43.76631" lon="4.70281">
        <ele>86</ele>
        <time>2019-05-22T08:24:56Z</time>
      </trkpt>
      <trkpt lat="43.76632" lon="4.70288">
        <ele>86</ele>
        <time>2019-05-22T08:25:00Z</time>
      </trkpt>
      <trkpt lat="43.76633" lon="4.70296">
        <ele>86</ele>
        <time>2019-05-22T08:25:04Z</time>
      </trkpt>
      <trkpt lat="43.76632" lon="4.70302">
        <ele>86</ele>
        <time>2019-05-22T08:25:08Z</time>
      </trkpt>
      <trkpt lat="43.76632" lon="4.70307">
        <ele>86</ele>
        <time>2019-05-22T08:25:11Z</time>
      </trkpt>
      <trkpt lat="43.76632" lon="4.70314">
        <ele>86</ele>
        <time>2019-05-22T08:25:15Z</time>
      </trkpt>
      <trkpt lat="43.76634" lon="4.70318">
        <ele>86</ele>
        <time>2019-05-22T08:25:19Z</time>
      </trkpt>
      <trkpt lat="43.76635" lon="4.70324">
        <ele>86</ele>
        <time>2019-05-22T08:25:23Z</time>
      </trkpt>
      <trkpt lat="43.76635" lon="4.70329">
        <ele>86</ele>
        <time>2019-05-22T08:25:27Z</time>
      </trkpt>
      <trkpt lat="43.76635" lon="4.70334">
        <ele>87</ele>
        <time>2019-05-22T08:25:31Z</time>
      </trkpt>
      <trkpt lat="43.76633" lon="4.70342">
        <ele>87</ele>
        <time>2019-05-22T08:25:36Z</time>
      </trkpt>
      <trkpt lat="43.76631" lon="4.70353">
        <ele>87</ele>
        <time>2019-05-22T08:25:41Z</time>
      </trkpt>
      <trkpt lat="43.7663" lon="4.7036">
        <ele>87</ele>
        <time>2019-05-22T08:25:45Z</time>
      </trkpt>
      <trkpt lat="43.76629" lon="4.70366">
        <ele>87</ele>
        <time>2019-05-22T08:25:48Z</time>
      </trkpt>
      <trkpt lat="43.76629" lon="4.70372">
        <ele>87</ele>
        <time>2019-05-22T08:25:52Z</time>
      </trkpt>
      <trkpt lat="43.7663" lon="4.70381">
        <ele>87</ele>
        <time>2019-05-22T08:25:57Z</time>
      </trkpt>
      <trkpt lat="43.76635" lon="4.70388">
        <ele>87</ele>
        <time>2019-05-22T08:26:02Z</time>
      </trkpt>
      <trkpt lat="43.76639" lon="4.70392">
        <ele>86</ele>
        <time>2019-05-22T08:26:06Z</time>
      </trkpt>
      <trkpt lat="43.76643" lon="4.70397">
        <ele>86</ele>
        <time>2019-05-22T08:26:10Z</time>
      </trkpt>
      <trkpt lat="43.76646" lon="4.70399">
        <ele>86</ele>
        <time>2019-05-22T08:26:14Z</time>
      </trkpt>
      <trkpt lat="43.76649" lon="4.70403">
        <ele>86</ele>
        <time>2019-05-22T08:26:19Z</time>
      </trkpt>
      <trkpt lat="43.76651" lon="4.70406">
        <ele>86</ele>
        <time>2019-05-22T08:26:22Z</time>
      </trkpt>
      <trkpt lat="43.76654" lon="4.70411">
        <ele>85</ele>
        <time>2019-05-22T08:26:26Z</time>
      </trkpt>
      <trkpt lat="43.76656" lon="4.70415">
        <ele>85</ele>
        <time>2019-05-22T08:26:29Z</time>
      </trkpt>
      <trkpt lat="43.76656" lon="4.70417">
        <ele>86</ele>
        <time>2019-05-22T08:26:33Z</time>
      </trkpt>
      <trkpt lat="43.76655" lon="4.70421">
        <ele>86</ele>
        <time>2019-05-22T08:26:37Z</time>
      </trkpt>
      <trkpt lat="43.76653" lon="4.70427">
        <ele>86</ele>
        <time>2019-05-22T08:26:41Z</time>
      </trkpt>
      <trkpt lat="43.76652" lon="4.70431">
        <ele>87</ele>
        <time>2019-05-22T08:26:45Z</time>
      </trkpt>
      <trkpt lat="43.7665" lon="4.70437">
        <ele>87</ele>
        <time>2019-05-22T08:26:49Z</time>
      </trkpt>
      <trkpt lat="43.76649" lon="4.70443">
        <ele>87</ele>
        <time>2019-05-22T08:26:53Z</time>
      </trkpt>
      <trkpt lat="43.76647" lon="4.70447">
        <ele>88</ele>
        <time>2019-05-22T08:26:57Z</time>
      </trkpt>
      <trkpt lat="43.76646" lon="4.7045">
        <ele>88</ele>
        <time>2019-05-22T08:27:01Z</time>
      </trkpt>
      <trkpt lat="43.76644" lon="4.70453">
        <ele>88</ele>
        <time>2019-05-22T08:27:04Z</time>
      </trkpt>
      <trkpt lat="43.76641" lon="4.70455">
        <ele>88</ele>
        <time>2019-05-22T08:27:08Z</time>
      </trkpt>
      <trkpt lat="43.76639" lon="4.70457">
        <ele>88</ele>
        <time>2019-05-22T08:27:11Z</time>
      </trkpt>
      <trkpt lat="43.76639" lon="4.70458">
        <ele>88</ele>
        <time>2019-05-22T08:27:20Z</time>
      </trkpt>
      <trkpt lat="43.76638" lon="4.70459">
        <ele>88</ele>
        <time>2019-05-22T08:27:25Z</time>
      </trkpt>
      <trkpt lat="43.76638" lon="4.7046">
        <ele>88</ele>
        <time>2019-05-22T08:27:30Z</time>
      </trkpt>
      <trkpt lat="43.76637" lon="4.7046">
        <ele>88</ele>
        <time>2019-05-22T08:27:33Z</time>
      </trkpt>
      <trkpt lat="43.76637" lon="4.70463">
        <ele>89</ele>
        <time>2019-05-22T08:27:37Z</time>
      </trkpt>
      <trkpt lat="43.76638" lon="4.70467">
        <ele>89</ele>
        <time>2019-05-22T08:27:41Z</time>
      </trkpt>
      <trkpt lat="43.76638" lon="4.70468">
        <ele>89</ele>
        <time>2019-05-22T08:27:45Z</time>
      </trkpt>
      <trkpt lat="43.76638" lon="4.7047">
        <ele>89</ele>
        <time>2019-05-22T08:27:52Z</time>
      </trkpt>
      <trkpt lat="43.76638" lon="4.70471">
        <ele>89</ele>
        <time>2019-05-22T08:27:56Z</time>
      </trkpt>
      <trkpt lat="43.76639" lon="4.70472">
        <ele>89</ele>
        <time>2019-05-22T08:28:01Z</time>
      </trkpt>
      <trkpt lat="43.76639" lon="4.70474">
        <ele>89</ele>
        <time>2019-05-22T08:28:05Z</time>
      </trkpt>
      <trkpt lat="43.76639" lon="4.70475">
        <ele>89</ele>
        <time>2019-05-22T08:28:17Z</time>
      </trkpt>
      <trkpt lat="43.76639" lon="4.70476">
        <ele>89</ele>
        <time>2019-05-22T08:28:33Z</time>
      </trkpt>
      <trkpt lat="43.76639" lon="4.70477">
        <ele>89</ele>
        <time>2019-05-22T08:28:39Z</time>
      </trkpt>
      <trkpt lat="43.76636" lon="4.70478">
        <ele>89</ele>
        <time>2019-05-22T08:28:44Z</time>
      </trkpt>
      <trkpt lat="43.76633" lon="4.70479">
        <ele>89</ele>
        <time>2019-05-22T08:28:49Z</time>
      </trkpt>
      <trkpt lat="43.76629" lon="4.70482">
        <ele>89</ele>
        <time>2019-05-22T08:28:54Z</time>
      </trkpt>
      <trkpt lat="43.76626" lon="4.70483">
        <ele>89</ele>
        <time>2019-05-22T08:28:58Z</time>
      </trkpt>
      <trkpt lat="43.76623" lon="4.70483">
        <ele>90</ele>
        <time>2019-05-22T08:29:01Z</time>
      </trkpt>
      <trkpt lat="43.76618" lon="4.70486">
        <ele>90</ele>
        <time>2019-05-22T08:29:06Z</time>
      </trkpt>
      <trkpt lat="43.76616" lon="4.70489">
        <ele>90</ele>
        <time>2019-05-22T08:29:09Z</time>
      </trkpt>
      <trkpt lat="43.76615" lon="4.70494">
        <ele>91</ele>
        <time>2019-05-22T08:29:14Z</time>
      </trkpt>
      <trkpt lat="43.76613" lon="4.70499">
        <ele>91</ele>
        <time>2019-05-22T08:29:19Z</time>
      </trkpt>
      <trkpt lat="43.76611" lon="4.70503">
        <ele>93</ele>
        <time>2019-05-22T08:29:24Z</time>
      </trkpt>
      <trkpt lat="43.76611" lon="4.70507">
        <ele>93</ele>
        <time>2019-05-22T08:29:28Z</time>
      </trkpt>
      <trkpt lat="43.76612" lon="4.70512">
        <ele>93</ele>
        <time>2019-05-22T08:29:32Z</time>
      </trkpt>
      <trkpt lat="43.76612" lon="4.70518">
        <ele>93</ele>
        <time>2019-05-22T08:29:36Z</time>
      </trkpt>
      <trkpt lat="43.76613" lon="4.70523">
        <ele>93</ele>
        <time>2019-05-22T08:29:40Z</time>
      </trkpt>
      <trkpt lat="43.76613" lon="4.70526">
        <ele>93</ele>
        <time>2019-05-22T08:29:43Z</time>
      </trkpt>
      <trkpt lat="43.76614" lon="4.70531">
        <ele>93</ele>
        <time>2019-05-22T08:29:48Z</time>
      </trkpt>
      <trkpt lat="43.76616" lon="4.70534">
        <ele>93</ele>
        <time>2019-05-22T08:29:51Z</time>
      </trkpt>
      <trkpt lat="43.76618" lon="4.70537">
        <ele>93</ele>
        <time>2019-05-22T08:29:55Z</time>
      </trkpt>
      <trkpt lat="43.76618" lon="4.70544">
        <ele>94</ele>
        <time>2019-05-22T08:29:59Z</time>
      </trkpt>
      <trkpt lat="43.76618" lon="4.70548">
        <ele>94</ele>
        <time>2019-05-22T08:30:02Z</time>
      </trkpt>
      <trkpt lat="43.76618" lon="4.70555">
        <ele>94</ele>
        <time>2019-05-22T08:30:07Z</time>
      </trkpt>
      <trkpt lat="43.76618" lon="4.7056">
        <ele>94</ele>
        <time>2019-05-22T08:30:11Z</time>
      </trkpt>
      <trkpt lat="43.76618" lon="4.70566">
        <ele>94</ele>
        <time>2019-05-22T08:30:16Z</time>
      </trkpt>
      <trkpt lat="43.76617" lon="4.7057">
        <ele>94</ele>
        <time>2019-05-22T08:30:20Z</time>
      </trkpt>
      <trkpt lat="43.76617" lon="4.70576">
        <ele>95</ele>
        <time>2019-05-22T08:30:25Z</time>
      </trkpt>
      <trkpt lat="43.76618" lon="4.70581">
        <ele>95</ele>
        <time>2019-05-22T08:30:28Z</time>
      </trkpt>
      <trkpt lat="43.76618" lon="4.70587">
        <ele>98</ele>
        <time>2019-05-22T08:30:32Z</time>
      </trkpt>
      <trkpt lat="43.76619" lon="4.70592">
        <ele>98</ele>
        <time>2019-05-22T08:30:36Z</time>
      </trkpt>
      <trkpt lat="43.7662" lon="4.70599">
        <ele>98</ele>
        <time>2019-05-22T08:30:41Z</time>
      </trkpt>
      <trkpt lat="43.76621" lon="4.70602">
        <ele>98</ele>
        <time>2019-05-22T08:30:46Z</time>
      </trkpt>
      <trkpt lat="43.76621" lon="4.70603">
        <ele>98</ele>
        <time>2019-05-22T08:30:57Z</time>
      </trkpt>
      <trkpt lat="43.76622" lon="4.70604">
        <ele>98</ele>
        <time>2019-05-22T08:31:14Z</time>
      </trkpt>
      <trkpt lat="43.76623" lon="4.70607">
        <ele>98</ele>
        <time>2019-05-22T08:31:18Z</time>
      </trkpt>
      <trkpt lat="43.76623" lon="4.70611">
        <ele>98</ele>
        <time>2019-05-22T08:31:21Z</time>
      </trkpt>
      <trkpt lat="43.76625" lon="4.70616">
        <ele>98</ele>
        <time>2019-05-22T08:31:25Z</time>
      </trkpt>
      <trkpt lat="43.76625" lon="4.70621">
        <ele>98</ele>
        <time>2019-05-22T08:31:30Z</time>
      </trkpt>
      <trkpt lat="43.76626" lon="4.70625">
        <ele>98</ele>
        <time>2019-05-22T08:31:34Z</time>
      </trkpt>
      <trkpt lat="43.76625" lon="4.7063">
        <ele>98</ele>
        <time>2019-05-22T08:31:38Z</time>
      </trkpt>
      <trkpt lat="43.76625" lon="4.70635">
        <ele>99</ele>
        <time>2019-05-22T08:31:42Z</time>
      </trkpt>
      <trkpt lat="43.76625" lon="4.7064">
        <ele>99</ele>
        <time>2019-05-22T08:31:47Z</time>
      </trkpt>
      <trkpt lat="43.76627" lon="4.70646">
        <ele>99</ele>
        <time>2019-05-22T08:31:51Z</time>
      </trkpt>
      <trkpt lat="43.76628" lon="4.70651">
        <ele>99</ele>
        <time>2019-05-22T08:31:55Z</time>
      </trkpt>
      <trkpt lat="43.7663" lon="4.70655">
        <ele>99</ele>
        <time>2019-05-22T08:31:59Z</time>
      </trkpt>
      <trkpt lat="43.76632" lon="4.70662">
        <ele>99</ele>
        <time>2019-05-22T08:32:04Z</time>
      </trkpt>
      <trkpt lat="43.76633" lon="4.70668">
        <ele>102</ele>
        <time>2019-05-22T08:32:09Z</time>
      </trkpt>
      <trkpt lat="43.76636" lon="4.70674">
        <ele>102</ele>
        <time>2019-05-22T08:32:14Z</time>
      </trkpt>
      <trkpt lat="43.76635" lon="4.70678">
        <ele>102</ele>
        <time>2019-05-22T08:32:19Z</time>
      </trkpt>
      <trkpt lat="43.76634" lon="4.70681">
        <ele>102</ele>
        <time>2019-05-22T08:32:23Z</time>
      </trkpt>
      <trkpt lat="43.76635" lon="4.70685">
        <ele>102</ele>
        <time>2019-05-22T08:32:27Z</time>
      </trkpt>
      <trkpt lat="43.76634" lon="4.70692">
        <ele>102</ele>
        <time>2019-05-22T08:32:31Z</time>
      </trkpt>
      <trkpt lat="43.76634" lon="4.70699">
        <ele>102</ele>
        <time>2019-05-22T08:32:36Z</time>
      </trkpt>
      <trkpt lat="43.76635" lon="4.70709">
        <ele>103</ele>
        <time>2019-05-22T08:32:41Z</time>
      </trkpt>
      <trkpt lat="43.76635" lon="4.70717">
        <ele>103</ele>
        <time>2019-05-22T08:32:45Z</time>
      </trkpt>
      <trkpt lat="43.76634" lon="4.7072">
        <ele>103</ele>
        <time>2019-05-22T08:32:48Z</time>
      </trkpt>
      <trkpt lat="43.76633" lon="4.70724">
        <ele>103</ele>
        <time>2019-05-22T08:32:52Z</time>
      </trkpt>
      <trkpt lat="43.76633" lon="4.70727">
        <ele>103</ele>
        <time>2019-05-22T08:32:56Z</time>
      </trkpt>
      <trkpt lat="43.76632" lon="4.70733">
        <ele>103</ele>
        <time>2019-05-22T08:33:01Z</time>
      </trkpt>
      <trkpt lat="43.76632" lon="4.70738">
        <ele>103</ele>
        <time>2019-05-22T08:33:05Z</time>
      </trkpt>
      <trkpt lat="43.76632" lon="4.70743">
        <ele>103</ele>
        <time>2019-05-22T08:33:08Z</time>
      </trkpt>
      <trkpt lat="43.76632" lon="4.70748">
        <ele>103</ele>
        <time>2019-05-22T08:33:12Z</time>
      </trkpt>
      <trkpt lat="43.76632" lon="4.70753">
        <ele>106</ele>
        <time>2019-05-22T08:33:17Z</time>
      </trkpt>
      <trkpt lat="43.76632" lon="4.70759">
        <ele>106</ele>
        <time>2019-05-22T08:33:22Z</time>
      </trkpt>
      <trkpt lat="43.76632" lon="4.70766">
        <ele>106</ele>
        <time>2019-05-22T08:33:26Z</time>
      </trkpt>
      <trkpt lat="43.76632" lon="4.70771">
        <ele>106</ele>
        <time>2019-05-22T08:33:29Z</time>
      </trkpt>
      <trkpt lat="43.76631" lon="4.70783">
        <ele>107</ele>
        <time>2019-05-22T08:33:34Z</time>
      </trkpt>
      <trkpt lat="43.76632" lon="4.70789">
        <ele>107</ele>
        <time>2019-05-22T08:33:39Z</time>
      </trkpt>
      <trkpt lat="43.76632" lon="4.70795">
        <ele>107</ele>
        <time>2019-05-22T08:33:43Z</time>
      </trkpt>
      <trkpt lat="43.76632" lon="4.70799">
        <ele>107</ele>
        <time>2019-05-22T08:33:46Z</time>
      </trkpt>
      <trkpt lat="43.76632" lon="4.70804">
        <ele>107</ele>
        <time>2019-05-22T08:33:50Z</time>
      </trkpt>
      <trkpt lat="43.76633" lon="4.70812">
        <ele>107</ele>
        <time>2019-05-22T08:33:55Z</time>
      </trkpt>
      <trkpt lat="43.76634" lon="4.70818">
        <ele>108</ele>
        <time>2019-05-22T08:33:59Z</time>
      </trkpt>
      <trkpt lat="43.76634" lon="4.70822">
        <ele>108</ele>
        <time>2019-05-22T08:34:02Z</time>
      </trkpt>
      <trkpt lat="43.76634" lon="4.70828">
        <ele>108</ele>
        <time>2019-05-22T08:34:07Z</time>
      </trkpt>
      <trkpt lat="43.76634" lon="4.70832">
        <ele>108</ele>
        <time>2019-05-22T08:34:11Z</time>
      </trkpt>
      <trkpt lat="43.76634" lon="4.70838">
        <ele>110</ele>
        <time>2019-05-22T08:34:15Z</time>
      </trkpt>
      <trkpt lat="43.76633" lon="4.70843">
        <ele>110</ele>
        <time>2019-05-22T08:34:19Z</time>
      </trkpt>
      <trkpt lat="43.76632" lon="4.7085">
        <ele>110</ele>
        <time>2019-05-22T08:34:24Z</time>
      </trkpt>
      <trkpt lat="43.76632" lon="4.70854">
        <ele>110</ele>
        <time>2019-05-22T08:34:27Z</time>
      </trkpt>
      <trkpt lat="43.76631" lon="4.70858">
        <ele>111</ele>
        <time>2019-05-22T08:34:31Z</time>
      </trkpt>
      <trkpt lat="43.7663" lon="4.70865">
        <ele>111</ele>
        <time>2019-05-22T08:34:36Z</time>
      </trkpt>
      <trkpt lat="43.76629" lon="4.70872">
        <ele>111</ele>
        <time>2019-05-22T08:34:40Z</time>
      </trkpt>
      <trkpt lat="43.76628" lon="4.70875">
        <ele>111</ele>
        <time>2019-05-22T08:34:44Z</time>
      </trkpt>
      <trkpt lat="43.76628" lon="4.70878">
        <ele>111</ele>
        <time>2019-05-22T08:34:48Z</time>
      </trkpt>
      <trkpt lat="43.76629" lon="4.70881">
        <ele>111</ele>
        <time>2019-05-22T08:34:53Z</time>
      </trkpt>
      <trkpt lat="43.76629" lon="4.70884">
        <ele>111</ele>
        <time>2019-05-22T08:34:58Z</time>
      </trkpt>
      <trkpt lat="43.76629" lon="4.70889">
        <ele>111</ele>
        <time>2019-05-22T08:35:02Z</time>
      </trkpt>
      <trkpt lat="43.76629" lon="4.70897">
        <ele>111</ele>
        <time>2019-05-22T08:35:07Z</time>
      </trkpt>
      <trkpt lat="43.76628" lon="4.70902">
        <ele>111</ele>
        <time>2019-05-22T08:35:11Z</time>
      </trkpt>
      <trkpt lat="43.76627" lon="4.70906">
        <ele>111</ele>
        <time>2019-05-22T08:35:15Z</time>
      </trkpt>
      <trkpt lat="43.76626" lon="4.70911">
        <ele>112</ele>
        <time>2019-05-22T08:35:19Z</time>
      </trkpt>
      <trkpt lat="43.76624" lon="4.70916">
        <ele>112</ele>
        <time>2019-05-22T08:35:24Z</time>
      </trkpt>
      <trkpt lat="43.76623" lon="4.70919">
        <ele>113</ele>
        <time>2019-05-22T08:35:27Z</time>
      </trkpt>
      <trkpt lat="43.76622" lon="4.70922">
        <ele>113</ele>
        <time>2019-05-22T08:35:31Z</time>
      </trkpt>
      <trkpt lat="43.76619" lon="4.70928">
        <ele>113</ele>
        <time>2019-05-22T08:35:35Z</time>
      </trkpt>
      <trkpt lat="43.76616" lon="4.70932">
        <ele>113</ele>
        <time>2019-05-22T08:35:39Z</time>
      </trkpt>
      <trkpt lat="43.76613" lon="4.70938">
        <ele>114</ele>
        <time>2019-05-22T08:35:44Z</time>
      </trkpt>
      <trkpt lat="43.76613" lon="4.70939">
        <ele>114</ele>
        <time>2019-05-22T08:35:48Z</time>
      </trkpt>
      <trkpt lat="43.76612" lon="4.7094">
        <ele>114</ele>
        <time>2019-05-22T08:35:52Z</time>
      </trkpt>
      <trkpt lat="43.7661" lon="4.70943">
        <ele>114</ele>
        <time>2019-05-22T08:35:56Z</time>
      </trkpt>
      <trkpt lat="43.76609" lon="4.70945">
        <ele>114</ele>
        <time>2019-05-22T08:36:00Z</time>
      </trkpt>
      <trkpt lat="43.76609" lon="4.70946">
        <ele>114</ele>
        <time>2019-05-22T08:36:05Z</time>
      </trkpt>
      <trkpt lat="43.76608" lon="4.70947">
        <ele>114</ele>
        <time>2019-05-22T08:36:08Z</time>
      </trkpt>
      <trkpt lat="43.76608" lon="4.70948">
        <ele>114</ele>
        <time>2019-05-22T08:36:13Z</time>
      </trkpt>
      <trkpt lat="43.76607" lon="4.70948">
        <ele>114</ele>
        <time>2019-05-22T08:36:21Z</time>
      </trkpt>
      <trkpt lat="43.76605" lon="4.70948">
        <ele>114</ele>
        <time>2019-05-22T08:36:26Z</time>
      </trkpt>
      <trkpt lat="43.76604" lon="4.70949">
        <ele>114</ele>
        <time>2019-05-22T08:36:31Z</time>
      </trkpt>
      <trkpt lat="43.76602" lon="4.70955">
        <ele>114</ele>
        <time>2019-05-22T08:36:35Z</time>
      </trkpt>
      <trkpt lat="43.766" lon="4.70963">
        <ele>115</ele>
        <time>2019-05-22T08:36:40Z</time>
      </trkpt>
      <trkpt lat="43.766" lon="4.70967">
        <ele>115</ele>
        <time>2019-05-22T08:36:43Z</time>
      </trkpt>
      <trkpt lat="43.76599" lon="4.70973">
        <ele>115</ele>
        <time>2019-05-22T08:36:48Z</time>
      </trkpt>
      <trkpt lat="43.76599" lon="4.70979">
        <ele>116</ele>
        <time>2019-05-22T08:36:52Z</time>
      </trkpt>
      <trkpt lat="43.76599" lon="4.70985">
        <ele>116</ele>
        <time>2019-05-22T08:36:57Z</time>
      </trkpt>
      <trkpt lat="43.76598" lon="4.70988">
        <ele>116</ele>
        <time>2019-05-22T08:37:00Z</time>
      </trkpt>
      <trkpt lat="43.76597" lon="4.70992">
        <ele>117</ele>
        <time>2019-05-22T08:37:04Z</time>
      </trkpt>
      <trkpt lat="43.76596" lon="4.70996">
        <ele>118</ele>
        <time>2019-05-22T08:37:07Z</time>
      </trkpt>
      <trkpt lat="43.76593" lon="4.71005">
        <ele>120</ele>
        <time>2019-05-22T08:37:11Z</time>
      </trkpt>
      <trkpt lat="43.7659" lon="4.71011">
        <ele>119</ele>
        <time>2019-05-22T08:37:16Z</time>
      </trkpt>
      <trkpt lat="43.76587" lon="4.71017">
        <ele>119</ele>
        <time>2019-05-22T08:37:20Z</time>
      </trkpt>
      <trkpt lat="43.76584" lon="4.71022">
        <ele>119</ele>
        <time>2019-05-22T08:37:24Z</time>
      </trkpt>
      <trkpt lat="43.76582" lon="4.7103">
        <ele>124</ele>
        <time>2019-05-22T08:37:29Z</time>
      </trkpt>
      <trkpt lat="43.76579" lon="4.71035">
        <ele>125</ele>
        <time>2019-05-22T08:37:34Z</time>
      </trkpt>
      <trkpt lat="43.76576" lon="4.71038">
        <ele>125</ele>
        <time>2019-05-22T08:37:38Z</time>
      </trkpt>
      <trkpt lat="43.76572" lon="4.71042">
        <ele>125</ele>
        <time>2019-05-22T08:37:42Z</time>
      </trkpt>
      <trkpt lat="43.76569" lon="4.71047">
        <ele>125</ele>
        <time>2019-05-22T08:37:46Z</time>
      </trkpt>
      <trkpt lat="43.76564" lon="4.71052">
        <ele>126</ele>
        <time>2019-05-22T08:37:51Z</time>
      </trkpt>
      <trkpt lat="43.76561" lon="4.71057">
        <ele>126</ele>
        <time>2019-05-22T08:37:55Z</time>
      </trkpt>
      <trkpt lat="43.7656" lon="4.71061">
        <ele>126</ele>
        <time>2019-05-22T08:37:59Z</time>
      </trkpt>
      <trkpt lat="43.76559" lon="4.71065">
        <ele>126</ele>
        <time>2019-05-22T08:38:04Z</time>
      </trkpt>
      <trkpt lat="43.76557" lon="4.71068">
        <ele>126</ele>
        <time>2019-05-22T08:38:08Z</time>
      </trkpt>
      <trkpt lat="43.76555" lon="4.71071">
        <ele>126</ele>
        <time>2019-05-22T08:38:12Z</time>
      </trkpt>
      <trkpt lat="43.76555" lon="4.71072">
        <ele>126</ele>
        <time>2019-05-22T08:38:16Z</time>
      </trkpt>
      <trkpt lat="43.76552" lon="4.71077">
        <ele>126</ele>
        <time>2019-05-22T08:38:21Z</time>
      </trkpt>
      <trkpt lat="43.7655" lon="4.71081">
        <ele>127</ele>
        <time>2019-05-22T08:38:25Z</time>
      </trkpt>
      <trkpt lat="43.76547" lon="4.71086">
        <ele>131</ele>
        <time>2019-05-22T08:38:30Z</time>
      </trkpt>
      <trkpt lat="43.76545" lon="4.71089">
        <ele>131</ele>
        <time>2019-05-22T08:38:33Z</time>
      </trkpt>
      <trkpt lat="43.7654" lon="4.71096">
        <ele>132</ele>
        <time>2019-05-22T08:38:38Z</time>
      </trkpt>
      <trkpt lat="43.76536" lon="4.711">
        <ele>132</ele>
        <time>2019-05-22T08:38:43Z</time>
      </trkpt>
      <trkpt lat="43.76534" lon="4.71104">
        <ele>132</ele>
        <time>2019-05-22T08:38:47Z</time>
      </trkpt>
      <trkpt lat="43.7653" lon="4.71107">
        <ele>132</ele>
        <time>2019-05-22T08:38:51Z</time>
      </trkpt>
      <trkpt lat="43.76526" lon="4.71111">
        <ele>132</ele>
        <time>2019-05-22T08:38:56Z</time>
      </trkpt>
      <trkpt lat="43.76523" lon="4.71114">
        <ele>133</ele>
        <time>2019-05-22T08:39:00Z</time>
      </trkpt>
      <trkpt lat="43.7652" lon="4.71116">
        <ele>133</ele>
        <time>2019-05-22T08:39:04Z</time>
      </trkpt>
      <trkpt lat="43.76519" lon="4.71118">
        <ele>133</ele>
        <time>2019-05-22T08:39:07Z</time>
      </trkpt>
      <trkpt lat="43.76517" lon="4.7112">
        <ele>133</ele>
        <time>2019-05-22T08:39:10Z</time>
      </trkpt>
      <trkpt lat="43.76515" lon="4.71124">
        <ele>133</ele>
        <time>2019-05-22T08:39:14Z</time>
      </trkpt>
      <trkpt lat="43.76512" lon="4.71125">
        <ele>133</ele>
        <time>2019-05-22T08:39:18Z</time>
      </trkpt>
      <trkpt lat="43.76509" lon="4.71127">
        <ele>133</ele>
        <time>2019-05-22T08:39:22Z</time>
      </trkpt>
      <trkpt lat="43.76505" lon="4.7113">
        <ele>134</ele>
        <time>2019-05-22T08:39:26Z</time>
      </trkpt>
      <trkpt lat="43.76502" lon="4.71135">
        <ele>134</ele>
        <time>2019-05-22T08:39:30Z</time>
      </trkpt>
      <trkpt lat="43.76499" lon="4.7114">
        <ele>135</ele>
        <time>2019-05-22T08:39:34Z</time>
      </trkpt>
      <trkpt lat="43.76497" lon="4.71143">
        <ele>136</ele>
        <time>2019-05-22T08:39:38Z</time>
      </trkpt>
      <trkpt lat="43.76495" lon="4.71147">
        <ele>136</ele>
        <time>2019-05-22T08:39:42Z</time>
      </trkpt>
      <trkpt lat="43.76492" lon="4.71153">
        <ele>136</ele>
        <time>2019-05-22T08:39:46Z</time>
      </trkpt>
      <trkpt lat="43.76489" lon="4.71158">
        <ele>136</ele>
        <time>2019-05-22T08:39:51Z</time>
      </trkpt>
      <trkpt lat="43.76486" lon="4.71164">
        <ele>136</ele>
        <time>2019-05-22T08:39:56Z</time>
      </trkpt>
      <trkpt lat="43.76483" lon="4.7117">
        <ele>139</ele>
        <time>2019-05-22T08:40:00Z</time>
      </trkpt>
      <trkpt lat="43.7648" lon="4.71175">
        <ele>139</ele>
        <time>2019-05-22T08:40:05Z</time>
      </trkpt>
      <trkpt lat="43.76476" lon="4.7118">
        <ele>139</ele>
        <time>2019-05-22T08:40:09Z</time>
      </trkpt>
      <trkpt lat="43.76472" lon="4.71185">
        <ele>139</ele>
        <time>2019-05-22T08:40:13Z</time>
      </trkpt>
      <trkpt lat="43.76468" lon="4.7119">
        <ele>139</ele>
        <time>2019-05-22T08:40:18Z</time>
      </trkpt>
      <trkpt lat="43.76466" lon="4.71193">
        <ele>139</ele>
        <time>2019-05-22T08:40:22Z</time>
      </trkpt>
      <trkpt lat="43.76464" lon="4.71197">
        <ele>139</ele>
        <time>2019-05-22T08:40:27Z</time>
      </trkpt>
      <trkpt lat="43.76462" lon="4.712">
        <ele>139</ele>
        <time>2019-05-22T08:40:31Z</time>
      </trkpt>
      <trkpt lat="43.76461" lon="4.71202">
        <ele>139</ele>
        <time>2019-05-22T08:40:34Z</time>
      </trkpt>
      <trkpt lat="43.7646" lon="4.71203">
        <ele>139</ele>
        <time>2019-05-22T08:40:38Z</time>
      </trkpt>
      <trkpt lat="43.7646" lon="4.71204">
        <ele>139</ele>
        <time>2019-05-22T08:40:48Z</time>
      </trkpt>
      <trkpt lat="43.76459" lon="4.71206">
        <ele>139</ele>
        <time>2019-05-22T08:40:52Z</time>
      </trkpt>
      <trkpt lat="43.76458" lon="4.71209">
        <ele>139</ele>
        <time>2019-05-22T08:40:57Z</time>
      </trkpt>
      <trkpt lat="43.76457" lon="4.71214">
        <ele>139</ele>
        <time>2019-05-22T08:41:01Z</time>
      </trkpt>
      <trkpt lat="43.76454" lon="4.71219">
        <ele>139</ele>
        <time>2019-05-22T08:41:05Z</time>
      </trkpt>
      <trkpt lat="43.76449" lon="4.71227">
        <ele>139</ele>
        <time>2019-05-22T08:41:10Z</time>
      </trkpt>
      <trkpt lat="43.76446" lon="4.71232">
        <ele>140</ele>
        <time>2019-05-22T08:41:15Z</time>
      </trkpt>
      <trkpt lat="43.76445" lon="4.71236">
        <ele>140</ele>
        <time>2019-05-22T08:41:18Z</time>
      </trkpt>
      <trkpt lat="43.76443" lon="4.71238">
        <ele>140</ele>
        <time>2019-05-22T08:41:21Z</time>
      </trkpt>
      <trkpt lat="43.76441" lon="4.71246">
        <ele>140</ele>
        <time>2019-05-22T08:41:26Z</time>
      </trkpt>
      <trkpt lat="43.7644" lon="4.71251">
        <ele>141</ele>
        <time>2019-05-22T08:41:30Z</time>
      </trkpt>
      <trkpt lat="43.76438" lon="4.71256">
        <ele>141</ele>
        <time>2019-05-22T08:41:34Z</time>
      </trkpt>
      <trkpt lat="43.76436" lon="4.71261">
        <ele>141</ele>
        <time>2019-05-22T08:41:39Z</time>
      </trkpt>
      <trkpt lat="43.76435" lon="4.71267">
        <ele>141</ele>
        <time>2019-05-22T08:41:43Z</time>
      </trkpt>
      <trkpt lat="43.76433" lon="4.71275">
        <ele>141</ele>
        <time>2019-05-22T08:41:47Z</time>
      </trkpt>
      <trkpt lat="43.76433" lon="4.71281">
        <ele>141</ele>
        <time>2019-05-22T08:41:50Z</time>
      </trkpt>
      <trkpt lat="43.76432" lon="4.71288">
        <ele>141</ele>
        <time>2019-05-22T08:41:54Z</time>
      </trkpt>
      <trkpt lat="43.76431" lon="4.71295">
        <ele>141</ele>
        <time>2019-05-22T08:41:59Z</time>
      </trkpt>
      <trkpt lat="43.7643" lon="4.71301">
        <ele>141</ele>
        <time>2019-05-22T08:42:03Z</time>
      </trkpt>
      <trkpt lat="43.76428" lon="4.7131">
        <ele>141</ele>
        <time>2019-05-22T08:42:08Z</time>
      </trkpt>
      <trkpt lat="43.76428" lon="4.71316">
        <ele>142</ele>
        <time>2019-05-22T08:42:11Z</time>
      </trkpt>
      <trkpt lat="43.76427" lon="4.71324">
        <ele>142</ele>
        <time>2019-05-22T08:42:15Z</time>
      </trkpt>
      <trkpt lat="43.76425" lon="4.7133">
        <ele>142</ele>
        <time>2019-05-22T08:42:20Z</time>
      </trkpt>
      <trkpt lat="43.76425" lon="4.71334">
        <ele>143</ele>
        <time>2019-05-22T08:42:23Z</time>
      </trkpt>
      <trkpt lat="43.76424" lon="4.71341">
        <ele>143</ele>
        <time>2019-05-22T08:42:28Z</time>
      </trkpt>
      <trkpt lat="43.76423" lon="4.71349">
        <ele>142</ele>
        <time>2019-05-22T08:42:32Z</time>
      </trkpt>
      <trkpt lat="43.76423" lon="4.71357">
        <ele>142</ele>
        <time>2019-05-22T08:42:37Z</time>
      </trkpt>
      <trkpt lat="43.76423" lon="4.71364">
        <ele>142</ele>
        <time>2019-05-22T08:42:41Z</time>
      </trkpt>
      <trkpt lat="43.76422" lon="4.71373">
        <ele>143</ele>
        <time>2019-05-22T08:42:46Z</time>
      </trkpt>
      <trkpt lat="43.76422" lon="4.71379">
        <ele>143</ele>
        <time>2019-05-22T08:42:50Z</time>
      </trkpt>
      <trkpt lat="43.76422" lon="4.71385">
        <ele>143</ele>
        <time>2019-05-22T08:42:55Z</time>
      </trkpt>
      <trkpt lat="43.76421" lon="4.7139">
        <ele>143</ele>
        <time>2019-05-22T08:42:59Z</time>
      </trkpt>
      <trkpt lat="43.76422" lon="4.71392">
        <ele>144</ele>
        <time>2019-05-22T08:43:02Z</time>
      </trkpt>
      <trkpt lat="43.76421" lon="4.71397">
        <ele>144</ele>
        <time>2019-05-22T08:43:07Z</time>
      </trkpt>
      <trkpt lat="43.76421" lon="4.71402">
        <ele>144</ele>
        <time>2019-05-22T08:43:11Z</time>
      </trkpt>
      <trkpt lat="43.76421" lon="4.71408">
        <ele>145</ele>
        <time>2019-05-22T08:43:15Z</time>
      </trkpt>
      <trkpt lat="43.7642" lon="4.71413">
        <ele>146</ele>
        <time>2019-05-22T08:43:19Z</time>
      </trkpt>
      <trkpt lat="43.76421" lon="4.71421">
        <ele>147</ele>
        <time>2019-05-22T08:43:24Z</time>
      </trkpt>
      <trkpt lat="43.7642" lon="4.71425">
        <ele>147</ele>
        <time>2019-05-22T08:43:27Z</time>
      </trkpt>
      <trkpt lat="43.76419" lon="4.71431">
        <ele>146</ele>
        <time>2019-05-22T08:43:31Z</time>
      </trkpt>
      <trkpt lat="43.76419" lon="4.71434">
        <ele>146</ele>
        <time>2019-05-22T08:43:35Z</time>
      </trkpt>
      <trkpt lat="43.76419" lon="4.71439">
        <ele>146</ele>
        <time>2019-05-22T08:43:39Z</time>
      </trkpt>
      <trkpt lat="43.7642" lon="4.71446">
        <ele>146</ele>
        <time>2019-05-22T08:43:44Z</time>
      </trkpt>
      <trkpt lat="43.76421" lon="4.7145">
        <ele>146</ele>
        <time>2019-05-22T08:43:48Z</time>
      </trkpt>
      <trkpt lat="43.7642" lon="4.71454">
        <ele>147</ele>
        <time>2019-05-22T08:43:52Z</time>
      </trkpt>
      <trkpt lat="43.76419" lon="4.7146">
        <ele>147</ele>
        <time>2019-05-22T08:43:56Z</time>
      </trkpt>
      <trkpt lat="43.76418" lon="4.71465">
        <ele>147</ele>
        <time>2019-05-22T08:43:59Z</time>
      </trkpt>
      <trkpt lat="43.76417" lon="4.71471">
        <ele>148</ele>
        <time>2019-05-22T08:44:03Z</time>
      </trkpt>
      <trkpt lat="43.76415" lon="4.71482">
        <ele>150</ele>
        <time>2019-05-22T08:44:08Z</time>
      </trkpt>
      <trkpt lat="43.76414" lon="4.71486">
        <ele>150</ele>
        <time>2019-05-22T08:44:11Z</time>
      </trkpt>
      <trkpt lat="43.76413" lon="4.7149">
        <ele>150</ele>
        <time>2019-05-22T08:44:15Z</time>
      </trkpt>
      <trkpt lat="43.76413" lon="4.71496">
        <ele>151</ele>
        <time>2019-05-22T08:44:20Z</time>
      </trkpt>
      <trkpt lat="43.76412" lon="4.71502">
        <ele>151</ele>
        <time>2019-05-22T08:44:25Z</time>
      </trkpt>
      <trkpt lat="43.76412" lon="4.71508">
        <ele>151</ele>
        <time>2019-05-22T08:44:29Z</time>
      </trkpt>
      <trkpt lat="43.76412" lon="4.71512">
        <ele>152</ele>
        <time>2019-05-22T08:44:33Z</time>
      </trkpt>
      <trkpt lat="43.76411" lon="4.71518">
        <ele>152</ele>
        <time>2019-05-22T08:44:38Z</time>
      </trkpt>
      <trkpt lat="43.76409" lon="4.71523">
        <ele>152</ele>
        <time>2019-05-22T08:44:43Z</time>
      </trkpt>
      <trkpt lat="43.76408" lon="4.71527">
        <ele>152</ele>
        <time>2019-05-22T08:44:47Z</time>
      </trkpt>
      <trkpt lat="43.76407" lon="4.71532">
        <ele>152</ele>
        <time>2019-05-22T08:44:52Z</time>
      </trkpt>
      <trkpt lat="43.76406" lon="4.71534">
        <ele>152</ele>
        <time>2019-05-22T08:44:56Z</time>
      </trkpt>
      <trkpt lat="43.76406" lon="4.71538">
        <ele>152</ele>
        <time>2019-05-22T08:45:01Z</time>
      </trkpt>
      <trkpt lat="43.76405" lon="4.7154">
        <ele>152</ele>
        <time>2019-05-22T08:45:06Z</time>
      </trkpt>
      <trkpt lat="43.76404" lon="4.71545">
        <ele>152</ele>
        <time>2019-05-22T08:45:10Z</time>
      </trkpt>
      <trkpt lat="43.76404" lon="4.71546">
        <ele>152</ele>
        <time>2019-05-22T08:45:13Z</time>
      </trkpt>
      <trkpt lat="43.76404" lon="4.71547">
        <ele>152</ele>
        <time>2019-05-22T08:45:18Z</time>
      </trkpt>
      <trkpt lat="43.76401" lon="4.71547">
        <ele>152</ele>
        <time>2019-05-22T08:45:22Z</time>
      </trkpt>
      <trkpt lat="43.76395" lon="4.71551">
        <ele>153</ele>
        <time>2019-05-22T08:45:27Z</time>
      </trkpt>
      <trkpt lat="43.76393" lon="4.71555">
        <ele>153</ele>
        <time>2019-05-22T08:45:31Z</time>
      </trkpt>
      <trkpt lat="43.76392" lon="4.71559">
        <ele>153</ele>
        <time>2019-05-22T08:45:35Z</time>
      </trkpt>
      <trkpt lat="43.76389" lon="4.71566">
        <ele>153</ele>
        <time>2019-05-22T08:45:39Z</time>
      </trkpt>
      <trkpt lat="43.76381" lon="4.71572">
        <ele>153</ele>
        <time>2019-05-22T08:45:44Z</time>
      </trkpt>
      <trkpt lat="43.76377" lon="4.71575">
        <ele>153</ele>
        <time>2019-05-22T08:45:47Z</time>
      </trkpt>
      <trkpt lat="43.76373" lon="4.7158">
        <ele>153</ele>
        <time>2019-05-22T08:45:51Z</time>
      </trkpt>
      <trkpt lat="43.76369" lon="4.71583">
        <ele>154</ele>
        <time>2019-05-22T08:45:55Z</time>
      </trkpt>
      <trkpt lat="43.76367" lon="4.71585">
        <ele>154</ele>
        <time>2019-05-22T08:45:58Z</time>
      </trkpt>
      <trkpt lat="43.76364" lon="4.71589">
        <ele>154</ele>
        <time>2019-05-22T08:46:03Z</time>
      </trkpt>
      <trkpt lat="43.76363" lon="4.71594">
        <ele>154</ele>
        <time>2019-05-22T08:46:07Z</time>
      </trkpt>
      <trkpt lat="43.76362" lon="4.71596">
        <ele>154</ele>
        <time>2019-05-22T08:46:10Z</time>
      </trkpt>
      <trkpt lat="43.7636" lon="4.71599">
        <ele>154</ele>
        <time>2019-05-22T08:46:15Z</time>
      </trkpt>
      <trkpt lat="43.76355" lon="4.71603">
        <ele>154</ele>
        <time>2019-05-22T08:46:19Z</time>
      </trkpt>
      <trkpt lat="43.76353" lon="4.71606">
        <ele>154</ele>
        <time>2019-05-22T08:46:23Z</time>
      </trkpt>
      <trkpt lat="43.76351" lon="4.71609">
        <ele>154</ele>
        <time>2019-05-22T08:46:28Z</time>
      </trkpt>
      <trkpt lat="43.76346" lon="4.71615">
        <ele>154</ele>
        <time>2019-05-22T08:46:32Z</time>
      </trkpt>
      <trkpt lat="43.76343" lon="4.71618">
        <ele>154</ele>
        <time>2019-05-22T08:46:37Z</time>
      </trkpt>
      <trkpt lat="43.76341" lon="4.71622">
        <ele>154</ele>
        <time>2019-05-22T08:46:41Z</time>
      </trkpt>
      <trkpt lat="43.76339" lon="4.71624">
        <ele>154</ele>
        <time>2019-05-22T08:46:45Z</time>
      </trkpt>
      <trkpt lat="43.76334" lon="4.71627">
        <ele>154</ele>
        <time>2019-05-22T08:46:50Z</time>
      </trkpt>
      <trkpt lat="43.7633" lon="4.71629">
        <ele>157</ele>
        <time>2019-05-22T08:46:54Z</time>
      </trkpt>
      <trkpt lat="43.76326" lon="4.71633">
        <ele>157</ele>
        <time>2019-05-22T08:46:58Z</time>
      </trkpt>
      <trkpt lat="43.76323" lon="4.7164">
        <ele>157</ele>
        <time>2019-05-22T08:47:03Z</time>
      </trkpt>
      <trkpt lat="43.76322" lon="4.71646">
        <ele>157</ele>
        <time>2019-05-22T08:47:06Z</time>
      </trkpt>
      <trkpt lat="43.76319" lon="4.71653">
        <ele>157</ele>
        <time>2019-05-22T08:47:11Z</time>
      </trkpt>
      <trkpt lat="43.76312" lon="4.71662">
        <ele>157</ele>
        <time>2019-05-22T08:47:15Z</time>
      </trkpt>
      <trkpt lat="43.76307" lon="4.71666">
        <ele>157</ele>
        <time>2019-05-22T08:47:19Z</time>
      </trkpt>
      <trkpt lat="43.76303" lon="4.7167">
        <ele>158</ele>
        <time>2019-05-22T08:47:23Z</time>
      </trkpt>
      <trkpt lat="43.763" lon="4.71673">
        <ele>159</ele>
        <time>2019-05-22T08:47:26Z</time>
      </trkpt>
      <trkpt lat="43.76297" lon="4.71679">
        <ele>159</ele>
        <time>2019-05-22T08:47:31Z</time>
      </trkpt>
      <trkpt lat="43.76295" lon="4.71684">
        <ele>159</ele>
        <time>2019-05-22T08:47:35Z</time>
      </trkpt>
      <trkpt lat="43.76291" lon="4.71687">
        <ele>159</ele>
        <time>2019-05-22T08:47:40Z</time>
      </trkpt>
      <trkpt lat="43.76289" lon="4.71692">
        <ele>159</ele>
        <time>2019-05-22T08:47:44Z</time>
      </trkpt>
      <trkpt lat="43.76287" lon="4.71696">
        <ele>159</ele>
        <time>2019-05-22T08:47:49Z</time>
      </trkpt>
      <trkpt lat="43.76285" lon="4.71702">
        <ele>159</ele>
        <time>2019-05-22T08:47:53Z</time>
      </trkpt>
      <trkpt lat="43.76284" lon="4.71708">
        <ele>159</ele>
        <time>2019-05-22T08:47:57Z</time>
      </trkpt>
      <trkpt lat="43.76283" lon="4.71716">
        <ele>159</ele>
        <time>2019-05-22T08:48:02Z</time>
      </trkpt>
      <trkpt lat="43.76283" lon="4.71721">
        <ele>159</ele>
        <time>2019-05-22T08:48:06Z</time>
      </trkpt>
      <trkpt lat="43.76279" lon="4.7173">
        <ele>160</ele>
        <time>2019-05-22T08:48:11Z</time>
      </trkpt>
      <trkpt lat="43.76278" lon="4.71735">
        <ele>160</ele>
        <time>2019-05-22T08:48:15Z</time>
      </trkpt>
      <trkpt lat="43.76276" lon="4.71743">
        <ele>160</ele>
        <time>2019-05-22T08:48:20Z</time>
      </trkpt>
      <trkpt lat="43.76274" lon="4.7175">
        <ele>160</ele>
        <time>2019-05-22T08:48:24Z</time>
      </trkpt>
      <trkpt lat="43.76274" lon="4.71754">
        <ele>161</ele>
        <time>2019-05-22T08:48:28Z</time>
      </trkpt>
      <trkpt lat="43.76275" lon="4.71756">
        <ele>161</ele>
        <time>2019-05-22T08:48:31Z</time>
      </trkpt>
      <trkpt lat="43.76275" lon="4.71761">
        <ele>161</ele>
        <time>2019-05-22T08:48:36Z</time>
      </trkpt>
      <trkpt lat="43.76275" lon="4.71767">
        <ele>161</ele>
        <time>2019-05-22T08:48:40Z</time>
      </trkpt>
      <trkpt lat="43.76274" lon="4.71773">
        <ele>161</ele>
        <time>2019-05-22T08:48:44Z</time>
      </trkpt>
      <trkpt lat="43.76273" lon="4.71778">
        <ele>161</ele>
        <time>2019-05-22T08:48:47Z</time>
      </trkpt>
      <trkpt lat="43.76271" lon="4.71785">
        <ele>161</ele>
        <time>2019-05-22T08:48:51Z</time>
      </trkpt>
      <trkpt lat="43.7627" lon="4.71787">
        <ele>161</ele>
        <time>2019-05-22T08:48:54Z</time>
      </trkpt>
      <trkpt lat="43.7627" lon="4.71791">
        <ele>161</ele>
        <time>2019-05-22T08:48:58Z</time>
      </trkpt>
      <trkpt lat="43.76268" lon="4.71798">
        <ele>162</ele>
        <time>2019-05-22T08:49:02Z</time>
      </trkpt>
      <trkpt lat="43.76267" lon="4.71803">
        <ele>162</ele>
        <time>2019-05-22T08:49:05Z</time>
      </trkpt>
      <trkpt lat="43.76266" lon="4.71811">
        <ele>162</ele>
        <time>2019-05-22T08:49:10Z</time>
      </trkpt>
      <trkpt lat="43.76267" lon="4.71817">
        <ele>162</ele>
        <time>2019-05-22T08:49:14Z</time>
      </trkpt>
      <trkpt lat="43.76266" lon="4.71829">
        <ele>163</ele>
        <time>2019-05-22T08:49:19Z</time>
      </trkpt>
      <trkpt lat="43.76266" lon="4.71838">
        <ele>163</ele>
        <time>2019-05-22T08:49:24Z</time>
      </trkpt>
      <trkpt lat="43.76265" lon="4.71845">
        <ele>163</ele>
        <time>2019-05-22T08:49:29Z</time>
      </trkpt>
      <trkpt lat="43.76264" lon="4.71849">
        <ele>163</ele>
        <time>2019-05-22T08:49:33Z</time>
      </trkpt>
      <trkpt lat="43.76262" lon="4.71852">
        <ele>163</ele>
        <time>2019-05-22T08:49:36Z</time>
      </trkpt>
      <trkpt lat="43.7626" lon="4.71855">
        <ele>163</ele>
        <time>2019-05-22T08:49:40Z</time>
      </trkpt>
      <trkpt lat="43.76258" lon="4.71863">
        <ele>163</ele>
        <time>2019-05-22T08:49:45Z</time>
      </trkpt>
      <trkpt lat="43.76257" lon="4.71868">
        <ele>162</ele>
        <time>2019-05-22T08:49:48Z</time>
      </trkpt>
      <trkpt lat="43.76256" lon="4.71873">
        <ele>162</ele>
        <time>2019-05-22T08:49:51Z</time>
      </trkpt>
      <trkpt lat="43.76255" lon="4.71878">
        <ele>163</ele>
        <time>2019-05-22T08:49:56Z</time>
      </trkpt>
      <trkpt lat="43.76253" lon="4.71884">
        <ele>163</ele>
        <time>2019-05-22T08:50:00Z</time>
      </trkpt>
      <trkpt lat="43.7625" lon="4.71889">
        <ele>163</ele>
        <time>2019-05-22T08:50:04Z</time>
      </trkpt>
      <trkpt lat="43.76249" lon="4.71892">
        <ele>167</ele>
        <time>2019-05-22T08:50:07Z</time>
      </trkpt>
      <trkpt lat="43.76249" lon="4.71895">
        <ele>167</ele>
        <time>2019-05-22T08:50:11Z</time>
      </trkpt>
      <trkpt lat="43.76249" lon="4.71899">
        <ele>167</ele>
        <time>2019-05-22T08:50:15Z</time>
      </trkpt>
      <trkpt lat="43.76248" lon="4.71907">
        <ele>168</ele>
        <time>2019-05-22T08:50:19Z</time>
      </trkpt>
      <trkpt lat="43.76248" lon="4.71913">
        <ele>168</ele>
        <time>2019-05-22T08:50:24Z</time>
      </trkpt>
      <trkpt lat="43.76247" lon="4.71917">
        <ele>168</ele>
        <time>2019-05-22T08:50:28Z</time>
      </trkpt>
      <trkpt lat="43.76247" lon="4.71921">
        <ele>168</ele>
        <time>2019-05-22T08:50:31Z</time>
      </trkpt>
      <trkpt lat="43.76245" lon="4.71929">
        <ele>169</ele>
        <time>2019-05-22T08:50:36Z</time>
      </trkpt>
      <trkpt lat="43.76244" lon="4.71937">
        <ele>169</ele>
        <time>2019-05-22T08:50:40Z</time>
      </trkpt>
      <trkpt lat="43.76244" lon="4.71943">
        <ele>170</ele>
        <time>2019-05-22T08:50:45Z</time>
      </trkpt>
      <trkpt lat="43.76244" lon="4.71949">
        <ele>170</ele>
        <time>2019-05-22T08:50:50Z</time>
      </trkpt>
      <trkpt lat="43.76241" lon="4.71956">
        <ele>170</ele>
        <time>2019-05-22T08:50:55Z</time>
      </trkpt>
      <trkpt lat="43.7624" lon="4.71961">
        <ele>170</ele>
        <time>2019-05-22T08:50:59Z</time>
      </trkpt>
      <trkpt lat="43.76239" lon="4.71965">
        <ele>171</ele>
        <time>2019-05-22T08:51:04Z</time>
      </trkpt>
      <trkpt lat="43.76237" lon="4.71967">
        <ele>171</ele>
        <time>2019-05-22T08:51:08Z</time>
      </trkpt>
      <trkpt lat="43.76236" lon="4.71967">
        <ele>171</ele>
        <time>2019-05-22T08:51:12Z</time>
      </trkpt>
      <trkpt lat="43.7623" lon="4.7197">
        <ele>171</ele>
        <time>2019-05-22T08:51:17Z</time>
      </trkpt>
      <trkpt lat="43.76224" lon="4.71973">
        <ele>171</ele>
        <time>2019-05-22T08:51:22Z</time>
      </trkpt>
      <trkpt lat="43.76221" lon="4.71977">
        <ele>171</ele>
        <time>2019-05-22T08:51:26Z</time>
      </trkpt>
      <trkpt lat="43.76218" lon="4.7198">
        <ele>171</ele>
        <time>2019-05-22T08:51:31Z</time>
      </trkpt>
      <trkpt lat="43.76215" lon="4.71982">
        <ele>171</ele>
        <time>2019-05-22T08:51:35Z</time>
      </trkpt>
      <trkpt lat="43.76211" lon="4.71985">
        <ele>171</ele>
        <time>2019-05-22T08:51:40Z</time>
      </trkpt>
      <trkpt lat="43.76208" lon="4.71987">
        <ele>171</ele>
        <time>2019-05-22T08:51:44Z</time>
      </trkpt>
      <trkpt lat="43.76204" lon="4.7199">
        <ele>171</ele>
        <time>2019-05-22T08:51:48Z</time>
      </trkpt>
      <trkpt lat="43.76201" lon="4.71993">
        <ele>172</ele>
        <time>2019-05-22T08:51:52Z</time>
      </trkpt>
      <trkpt lat="43.762" lon="4.71997">
        <ele>172</ele>
        <time>2019-05-22T08:51:56Z</time>
      </trkpt>
      <trkpt lat="43.76197" lon="4.72005">
        <ele>175</ele>
        <time>2019-05-22T08:52:01Z</time>
      </trkpt>
      <trkpt lat="43.76195" lon="4.72012">
        <ele>175</ele>
        <time>2019-05-22T08:52:06Z</time>
      </trkpt>
      <trkpt lat="43.76192" lon="4.72018">
        <ele>175</ele>
        <time>2019-05-22T08:52:11Z</time>
      </trkpt>
      <trkpt lat="43.7619" lon="4.72023">
        <ele>175</ele>
        <time>2019-05-22T08:52:14Z</time>
      </trkpt>
      <trkpt lat="43.76187" lon="4.72029">
        <ele>175</ele>
        <time>2019-05-22T08:52:19Z</time>
      </trkpt>
      <trkpt lat="43.76184" lon="4.72034">
        <ele>175</ele>
        <time>2019-05-22T08:52:23Z</time>
      </trkpt>
      <trkpt lat="43.76183" lon="4.72042">
        <ele>176</ele>
        <time>2019-05-22T08:52:28Z</time>
      </trkpt>
      <trkpt lat="43.76183" lon="4.72048">
        <ele>176</ele>
        <time>2019-05-22T08:52:32Z</time>
      </trkpt>
      <trkpt lat="43.76186" lon="4.72055">
        <ele>176</ele>
        <time>2019-05-22T08:52:37Z</time>
      </trkpt>
      <trkpt lat="43.76186" lon="4.72063">
        <ele>176</ele>
        <time>2019-05-22T08:52:41Z</time>
      </trkpt>
      <trkpt lat="43.76186" lon="4.72068">
        <ele>176</ele>
        <time>2019-05-22T08:52:45Z</time>
      </trkpt>
      <trkpt lat="43.76186" lon="4.72077">
        <ele>177</ele>
        <time>2019-05-22T08:52:50Z</time>
      </trkpt>
      <trkpt lat="43.76184" lon="4.72084">
        <ele>178</ele>
        <time>2019-05-22T08:52:54Z</time>
      </trkpt>
      <trkpt lat="43.76183" lon="4.72088">
        <ele>178</ele>
        <time>2019-05-22T08:52:58Z</time>
      </trkpt>
      <trkpt lat="43.76183" lon="4.72095">
        <ele>179</ele>
        <time>2019-05-22T08:53:02Z</time>
      </trkpt>
      <trkpt lat="43.76184" lon="4.72099">
        <ele>179</ele>
        <time>2019-05-22T08:53:07Z</time>
      </trkpt>
      <trkpt lat="43.76186" lon="4.72102">
        <ele>179</ele>
        <time>2019-05-22T08:53:12Z</time>
      </trkpt>
      <trkpt lat="43.76188" lon="4.72108">
        <ele>179</ele>
        <time>2019-05-22T08:53:16Z</time>
      </trkpt>
      <trkpt lat="43.76189" lon="4.72111">
        <ele>179</ele>
        <time>2019-05-22T08:53:19Z</time>
      </trkpt>
      <trkpt lat="43.76189" lon="4.72119">
        <ele>179</ele>
        <time>2019-05-22T08:53:24Z</time>
      </trkpt>
      <trkpt lat="43.76188" lon="4.72122">
        <ele>180</ele>
        <time>2019-05-22T08:53:27Z</time>
      </trkpt>
      <trkpt lat="43.76188" lon="4.72128">
        <ele>180</ele>
        <time>2019-05-22T08:53:31Z</time>
      </trkpt>
      <trkpt lat="43.76188" lon="4.72134">
        <ele>180</ele>
        <time>2019-05-22T08:53:34Z</time>
      </trkpt>
      <trkpt lat="43.76187" lon="4.72142">
        <ele>180</ele>
        <time>2019-05-22T08:53:39Z</time>
      </trkpt>
      <trkpt lat="43.76187" lon="4.72152">
        <ele>180</ele>
        <time>2019-05-22T08:53:44Z</time>
      </trkpt>
      <trkpt lat="43.76188" lon="4.72159">
        <ele>180</ele>
        <time>2019-05-22T08:53:49Z</time>
      </trkpt>
      <trkpt lat="43.76189" lon="4.72162">
        <ele>180</ele>
        <time>2019-05-22T08:53:52Z</time>
      </trkpt>
      <trkpt lat="43.76188" lon="4.72167">
        <ele>181</ele>
        <time>2019-05-22T08:53:56Z</time>
      </trkpt>
      <trkpt lat="43.76188" lon="4.72171">
        <ele>181</ele>
        <time>2019-05-22T08:54:00Z</time>
      </trkpt>
      <trkpt lat="43.76188" lon="4.72177">
        <ele>181</ele>
        <time>2019-05-22T08:54:05Z</time>
      </trkpt>
      <trkpt lat="43.76188" lon="4.72178">
        <ele>181</ele>
        <time>2019-05-22T08:54:10Z</time>
      </trkpt>
      <trkpt lat="43.76188" lon="4.72179">
        <ele>181</ele>
        <time>2019-05-22T08:54:16Z</time>
      </trkpt>
      <trkpt lat="43.76188" lon="4.72183">
        <ele>181</ele>
        <time>2019-05-22T08:54:20Z</time>
      </trkpt>
      <trkpt lat="43.76188" lon="4.72189">
        <ele>181</ele>
        <time>2019-05-22T08:54:24Z</time>
      </trkpt>
      <trkpt lat="43.76187" lon="4.72195">
        <ele>181</ele>
        <time>2019-05-22T08:54:28Z</time>
      </trkpt>
      <trkpt lat="43.76188" lon="4.72198">
        <ele>181</ele>
        <time>2019-05-22T08:54:32Z</time>
      </trkpt>
      <trkpt lat="43.76189" lon="4.722">
        <ele>181</ele>
        <time>2019-05-22T08:54:35Z</time>
      </trkpt>
      <trkpt lat="43.7619" lon="4.72204">
        <ele>181</ele>
        <time>2019-05-22T08:54:39Z</time>
      </trkpt>
      <trkpt lat="43.76191" lon="4.72207">
        <ele>181</ele>
        <time>2019-05-22T08:54:44Z</time>
      </trkpt>
      <trkpt lat="43.76192" lon="4.72211">
        <ele>181</ele>
        <time>2019-05-22T08:54:48Z</time>
      </trkpt>
      <trkpt lat="43.76192" lon="4.72214">
        <ele>181</ele>
        <time>2019-05-22T08:54:52Z</time>
      </trkpt>
      <trkpt lat="43.76192" lon="4.72215">
        <ele>181</ele>
        <time>2019-05-22T08:54:55Z</time>
      </trkpt>
      <trkpt lat="43.76193" lon="4.72217">
        <ele>181</ele>
        <time>2019-05-22T08:54:58Z</time>
      </trkpt>
      <trkpt lat="43.76193" lon="4.72218">
        <ele>181</ele>
        <time>2019-05-22T08:55:03Z</time>
      </trkpt>
      <trkpt lat="43.76193" lon="4.72219">
        <ele>181</ele>
        <time>2019-05-22T08:55:13Z</time>
      </trkpt>
      <trkpt lat="43.76193" lon="4.7222">
        <ele>181</ele>
        <time>2019-05-22T08:55:49Z</time>
      </trkpt>
      <trkpt lat="43.76193" lon="4.72221">
        <ele>182</ele>
        <time>2019-05-22T08:56:08Z</time>
      </trkpt>
      <trkpt lat="43.76194" lon="4.72222">
        <ele>181</ele>
        <time>2019-05-22T08:56:27Z</time>
      </trkpt>
      <trkpt lat="43.76194" lon="4.72222">
        <ele>181</ele>
        <time>2019-05-22T08:56:34Z</time>
      </trkpt>
      <trkpt lat="43.76195" lon="4.72223">
        <ele>181</ele>
        <time>2019-05-22T08:57:01Z</time>
      </trkpt>
      <trkpt lat="43.76196" lon="4.72224">
        <ele>181</ele>
        <time>2019-05-22T08:57:59Z</time>
      </trkpt>
      <trkpt lat="43.76196" lon="4.72224">
        <ele>181</ele>
        <time>2019-05-22T08:58:13Z</time>
      </trkpt>
      <trkpt lat="43.76197" lon="4.72225">
        <ele>181</ele>
        <time>2019-05-22T08:58:26Z</time>
      </trkpt>
      <trkpt lat="43.76197" lon="4.72226">
        <ele>181</ele>
        <time>2019-05-22T08:58:33Z</time>
      </trkpt>
      <trkpt lat="43.76196" lon="4.72229">
        <ele>181</ele>
        <time>2019-05-22T08:58:38Z</time>
      </trkpt>
      <trkpt lat="43.76196" lon="4.72228">
        <ele>181</ele>
        <time>2019-05-22T08:58:48Z</time>
      </trkpt>
      <trkpt lat="43.76196" lon="4.72227">
        <ele>181</ele>
        <time>2019-05-22T08:58:51Z</time>
      </trkpt>
      <trkpt lat="43.76195" lon="4.72226">
        <ele>181</ele>
        <time>2019-05-22T08:59:00Z</time>
      </trkpt>
      <trkpt lat="43.76195" lon="4.72225">
        <ele>181</ele>
        <time>2019-05-22T08:59:16Z</time>
      </trkpt>
      <trkpt lat="43.76196" lon="4.72224">
        <ele>181</ele>
        <time>2019-05-22T08:59:25Z</time>
      </trkpt>
      <trkpt lat="43.76198" lon="4.72227">
        <ele>181</ele>
        <time>2019-05-22T08:59:29Z</time>
      </trkpt>
      <trkpt lat="43.76199" lon="4.72228">
        <ele>181</ele>
        <time>2019-05-22T08:59:34Z</time>
      </trkpt>
      <trkpt lat="43.76199" lon="4.72227">
        <ele>181</ele>
        <time>2019-05-22T08:59:39Z</time>
      </trkpt>
      <trkpt lat="43.76198" lon="4.72226">
        <ele>181</ele>
        <time>2019-05-22T08:59:52Z</time>
      </trkpt>
      <trkpt lat="43.76198" lon="4.72225">
        <ele>181</ele>
        <time>2019-05-22T09:00:00Z</time>
      </trkpt>
      <trkpt lat="43.76199" lon="4.72223">
        <ele>181</ele>
        <time>2019-05-22T09:00:05Z</time>
      </trkpt>
      <trkpt lat="43.76199" lon="4.72222">
        <ele>181</ele>
        <time>2019-05-22T09:00:11Z</time>
      </trkpt>
      <trkpt lat="43.762" lon="4.72221">
        <ele>181</ele>
        <time>2019-05-22T09:00:16Z</time>
      </trkpt>
      <trkpt lat="43.762" lon="4.7222">
        <ele>181</ele>
        <time>2019-05-22T09:00:21Z</time>
      </trkpt>
      <trkpt lat="43.762" lon="4.72219">
        <ele>181</ele>
        <time>2019-05-22T09:00:30Z</time>
      </trkpt>
      <trkpt lat="43.76201" lon="4.72219">
        <ele>181</ele>
        <time>2019-05-22T09:00:34Z</time>
      </trkpt>
      <trkpt lat="43.76201" lon="4.72221">
        <ele>181</ele>
        <time>2019-05-22T09:00:38Z</time>
      </trkpt>
      <trkpt lat="43.76199" lon="4.72223">
        <ele>181</ele>
        <time>2019-05-22T09:00:41Z</time>
      </trkpt>
      <trkpt lat="43.76198" lon="4.72227">
        <ele>181</ele>
        <time>2019-05-22T09:00:45Z</time>
      </trkpt>
      <trkpt lat="43.76196" lon="4.72232">
        <ele>182</ele>
        <time>2019-05-22T09:00:49Z</time>
      </trkpt>
      <trkpt lat="43.76195" lon="4.72236">
        <ele>182</ele>
        <time>2019-05-22T09:00:54Z</time>
      </trkpt>
      <trkpt lat="43.76194" lon="4.72238">
        <ele>182</ele>
        <time>2019-05-22T09:00:58Z</time>
      </trkpt>
      <trkpt lat="43.76194" lon="4.7224">
        <ele>182</ele>
        <time>2019-05-22T09:01:03Z</time>
      </trkpt>
      <trkpt lat="43.76192" lon="4.72244">
        <ele>182</ele>
        <time>2019-05-22T09:01:07Z</time>
      </trkpt>
      <trkpt lat="43.7619" lon="4.72247">
        <ele>182</ele>
        <time>2019-05-22T09:01:10Z</time>
      </trkpt>
      <trkpt lat="43.76186" lon="4.72256">
        <ele>183</ele>
        <time>2019-05-22T09:01:15Z</time>
      </trkpt>
      <trkpt lat="43.76185" lon="4.72263">
        <ele>183</ele>
        <time>2019-05-22T09:01:19Z</time>
      </trkpt>
      <trkpt lat="43.76184" lon="4.72268">
        <ele>183</ele>
        <time>2019-05-22T09:01:22Z</time>
      </trkpt>
      <trkpt lat="43.76185" lon="4.72277">
        <ele>183</ele>
        <time>2019-05-22T09:01:27Z</time>
      </trkpt>
      <trkpt lat="43.76184" lon="4.72285">
        <ele>183</ele>
        <time>2019-05-22T09:01:31Z</time>
      </trkpt>
      <trkpt lat="43.76183" lon="4.72291">
        <ele>183</ele>
        <time>2019-05-22T09:01:36Z</time>
      </trkpt>
      <trkpt lat="43.76182" lon="4.72298">
        <ele>183</ele>
        <time>2019-05-22T09:01:41Z</time>
      </trkpt>
      <trkpt lat="43.76182" lon="4.72303">
        <ele>183</ele>
        <time>2019-05-22T09:01:46Z</time>
      </trkpt>
      <trkpt lat="43.76182" lon="4.72307">
        <ele>183</ele>
        <time>2019-05-22T09:01:50Z</time>
      </trkpt>
      <trkpt lat="43.76182" lon="4.7231">
        <ele>183</ele>
        <time>2019-05-22T09:01:53Z</time>
      </trkpt>
      <trkpt lat="43.76182" lon="4.72313">
        <ele>184</ele>
        <time>2019-05-22T09:01:56Z</time>
      </trkpt>
      <trkpt lat="43.76182" lon="4.72318">
        <ele>184</ele>
        <time>2019-05-22T09:02:00Z</time>
      </trkpt>
      <trkpt lat="43.76183" lon="4.72325">
        <ele>185</ele>
        <time>2019-05-22T09:02:05Z</time>
      </trkpt>
      <trkpt lat="43.76181" lon="4.72332">
        <ele>185</ele>
        <time>2019-05-22T09:02:09Z</time>
      </trkpt>
      <trkpt lat="43.76179" lon="4.72339">
        <ele>186</ele>
        <time>2019-05-22T09:02:13Z</time>
      </trkpt>
      <trkpt lat="43.76179" lon="4.72347">
        <ele>186</ele>
        <time>2019-05-22T09:02:17Z</time>
      </trkpt>
      <trkpt lat="43.76179" lon="4.72354">
        <ele>186</ele>
        <time>2019-05-22T09:02:21Z</time>
      </trkpt>
      <trkpt lat="43.76178" lon="4.72363">
        <ele>186</ele>
        <time>2019-05-22T09:02:26Z</time>
      </trkpt>
      <trkpt lat="43.7618" lon="4.72368">
        <ele>185</ele>
        <time>2019-05-22T09:02:30Z</time>
      </trkpt>
      <trkpt lat="43.76179" lon="4.72375">
        <ele>186</ele>
        <time>2019-05-22T09:02:35Z</time>
      </trkpt>
      <trkpt lat="43.76178" lon="4.72381">
        <ele>186</ele>
        <time>2019-05-22T09:02:39Z</time>
      </trkpt>
      <trkpt lat="43.76177" lon="4.72387">
        <ele>186</ele>
        <time>2019-05-22T09:02:43Z</time>
      </trkpt>
      <trkpt lat="43.76177" lon="4.72394">
        <ele>187</ele>
        <time>2019-05-22T09:02:47Z</time>
      </trkpt>
      <trkpt lat="43.76176" lon="4.72401">
        <ele>188</ele>
        <time>2019-05-22T09:02:51Z</time>
      </trkpt>
      <trkpt lat="43.76177" lon="4.72408">
        <ele>189</ele>
        <time>2019-05-22T09:02:55Z</time>
      </trkpt>
      <trkpt lat="43.76177" lon="4.72413">
        <ele>189</ele>
        <time>2019-05-22T09:02:58Z</time>
      </trkpt>
      <trkpt lat="43.76176" lon="4.72421">
        <ele>191</ele>
        <time>2019-05-22T09:03:02Z</time>
      </trkpt>
      <trkpt lat="43.76175" lon="4.72427">
        <ele>191</ele>
        <time>2019-05-22T09:03:06Z</time>
      </trkpt>
      <trkpt lat="43.76175" lon="4.72433">
        <ele>190</ele>
        <time>2019-05-22T09:03:10Z</time>
      </trkpt>
      <trkpt lat="43.76174" lon="4.72437">
        <ele>190</ele>
        <time>2019-05-22T09:03:13Z</time>
      </trkpt>
      <trkpt lat="43.76173" lon="4.72444">
        <ele>190</ele>
        <time>2019-05-22T09:03:17Z</time>
      </trkpt>
      <trkpt lat="43.76172" lon="4.72452">
        <ele>190</ele>
        <time>2019-05-22T09:03:22Z</time>
      </trkpt>
      <trkpt lat="43.76172" lon="4.72459">
        <ele>190</ele>
        <time>2019-05-22T09:03:27Z</time>
      </trkpt>
      <trkpt lat="43.76172" lon="4.72464">
        <ele>190</ele>
        <time>2019-05-22T09:03:30Z</time>
      </trkpt>
      <trkpt lat="43.76174" lon="4.72471">
        <ele>190</ele>
        <time>2019-05-22T09:03:34Z</time>
      </trkpt>
      <trkpt lat="43.76176" lon="4.72478">
        <ele>191</ele>
        <time>2019-05-22T09:03:39Z</time>
      </trkpt>
      <trkpt lat="43.76177" lon="4.72483">
        <ele>191</ele>
        <time>2019-05-22T09:03:43Z</time>
      </trkpt>
      <trkpt lat="43.76178" lon="4.72488">
        <ele>191</ele>
        <time>2019-05-22T09:03:46Z</time>
      </trkpt>
      <trkpt lat="43.76179" lon="4.72495">
        <ele>191</ele>
        <time>2019-05-22T09:03:50Z</time>
      </trkpt>
      <trkpt lat="43.76182" lon="4.725">
        <ele>191</ele>
        <time>2019-05-22T09:03:54Z</time>
      </trkpt>
      <trkpt lat="43.76185" lon="4.72507">
        <ele>192</ele>
        <time>2019-05-22T09:03:58Z</time>
      </trkpt>
      <trkpt lat="43.76185" lon="4.72516">
        <ele>192</ele>
        <time>2019-05-22T09:04:03Z</time>
      </trkpt>
      <trkpt lat="43.76185" lon="4.72523">
        <ele>192</ele>
        <time>2019-05-22T09:04:07Z</time>
      </trkpt>
      <trkpt lat="43.76185" lon="4.72527">
        <ele>192</ele>
        <time>2019-05-22T09:04:10Z</time>
      </trkpt>
      <trkpt lat="43.76186" lon="4.72535">
        <ele>192</ele>
        <time>2019-05-22T09:04:15Z</time>
      </trkpt>
      <trkpt lat="43.76187" lon="4.7254">
        <ele>192</ele>
        <time>2019-05-22T09:04:19Z</time>
      </trkpt>
      <trkpt lat="43.76186" lon="4.72547">
        <ele>192</ele>
        <time>2019-05-22T09:04:23Z</time>
      </trkpt>
      <trkpt lat="43.76184" lon="4.72552">
        <ele>192</ele>
        <time>2019-05-22T09:04:28Z</time>
      </trkpt>
      <trkpt lat="43.76184" lon="4.72555">
        <ele>192</ele>
        <time>2019-05-22T09:04:32Z</time>
      </trkpt>
      <trkpt lat="43.76187" lon="4.72562">
        <ele>192</ele>
        <time>2019-05-22T09:04:37Z</time>
      </trkpt>
      <trkpt lat="43.76186" lon="4.72565">
        <ele>192</ele>
        <time>2019-05-22T09:04:41Z</time>
      </trkpt>
      <trkpt lat="43.76182" lon="4.7257">
        <ele>192</ele>
        <time>2019-05-22T09:04:45Z</time>
      </trkpt>
      <trkpt lat="43.76179" lon="4.72575">
        <ele>193</ele>
        <time>2019-05-22T09:04:48Z</time>
      </trkpt>
      <trkpt lat="43.76177" lon="4.72581">
        <ele>193</ele>
        <time>2019-05-22T09:04:53Z</time>
      </trkpt>
      <trkpt lat="43.76176" lon="4.72585">
        <ele>193</ele>
        <time>2019-05-22T09:04:57Z</time>
      </trkpt>
      <trkpt lat="43.76172" lon="4.72591">
        <ele>193</ele>
        <time>2019-05-22T09:05:01Z</time>
      </trkpt>
      <trkpt lat="43.7617" lon="4.72597">
        <ele>193</ele>
        <time>2019-05-22T09:05:06Z</time>
      </trkpt>
      <trkpt lat="43.76169" lon="4.726">
        <ele>193</ele>
        <time>2019-05-22T09:05:10Z</time>
      </trkpt>
      <trkpt lat="43.76166" lon="4.72604">
        <ele>192</ele>
        <time>2019-05-22T09:05:14Z</time>
      </trkpt>
      <trkpt lat="43.76165" lon="4.72608">
        <ele>192</ele>
        <time>2019-05-22T09:05:18Z</time>
      </trkpt>
      <trkpt lat="43.76163" lon="4.72614">
        <ele>192</ele>
        <time>2019-05-22T09:05:23Z</time>
      </trkpt>
      <trkpt lat="43.7616" lon="4.72616">
        <ele>192</ele>
        <time>2019-05-22T09:05:27Z</time>
      </trkpt>
      <trkpt lat="43.76156" lon="4.72619">
        <ele>192</ele>
        <time>2019-05-22T09:05:32Z</time>
      </trkpt>
      <trkpt lat="43.76154" lon="4.72623">
        <ele>192</ele>
        <time>2019-05-22T09:05:35Z</time>
      </trkpt>
      <trkpt lat="43.76149" lon="4.72627">
        <ele>192</ele>
        <time>2019-05-22T09:05:39Z</time>
      </trkpt>
      <trkpt lat="43.76146" lon="4.7263">
        <ele>192</ele>
        <time>2019-05-22T09:05:42Z</time>
      </trkpt>
      <trkpt lat="43.76143" lon="4.72635">
        <ele>192</ele>
        <time>2019-05-22T09:05:46Z</time>
      </trkpt>
      <trkpt lat="43.76141" lon="4.72637">
        <ele>192</ele>
        <time>2019-05-22T09:05:49Z</time>
      </trkpt>
      <trkpt lat="43.76137" lon="4.7264">
        <ele>192</ele>
        <time>2019-05-22T09:05:54Z</time>
      </trkpt>
      <trkpt lat="43.76135" lon="4.72642">
        <ele>192</ele>
        <time>2019-05-22T09:05:58Z</time>
      </trkpt>
      <trkpt lat="43.76131" lon="4.72645">
        <ele>191</ele>
        <time>2019-05-22T09:06:02Z</time>
      </trkpt>
      <trkpt lat="43.76128" lon="4.72647">
        <ele>191</ele>
        <time>2019-05-22T09:06:05Z</time>
      </trkpt>
      <trkpt lat="43.76125" lon="4.72649">
        <ele>191</ele>
        <time>2019-05-22T09:06:09Z</time>
      </trkpt>
      <trkpt lat="43.76121" lon="4.72652">
        <ele>191</ele>
        <time>2019-05-22T09:06:13Z</time>
      </trkpt>
      <trkpt lat="43.76115" lon="4.72656">
        <ele>191</ele>
        <time>2019-05-22T09:06:17Z</time>
      </trkpt>
      <trkpt lat="43.76109" lon="4.72661">
        <ele>191</ele>
        <time>2019-05-22T09:06:21Z</time>
      </trkpt>
      <trkpt lat="43.76106" lon="4.72665">
        <ele>190</ele>
        <time>2019-05-22T09:06:26Z</time>
      </trkpt>
      <trkpt lat="43.76103" lon="4.72668">
        <ele>189</ele>
        <time>2019-05-22T09:06:30Z</time>
      </trkpt>
      <trkpt lat="43.76101" lon="4.7267">
        <ele>189</ele>
        <time>2019-05-22T09:06:33Z</time>
      </trkpt>
      <trkpt lat="43.76099" lon="4.72674">
        <ele>188</ele>
        <time>2019-05-22T09:06:37Z</time>
      </trkpt>
      <trkpt lat="43.76096" lon="4.7268">
        <ele>188</ele>
        <time>2019-05-22T09:06:41Z</time>
      </trkpt>
      <trkpt lat="43.76095" lon="4.72685">
        <ele>188</ele>
        <time>2019-05-22T09:06:46Z</time>
      </trkpt>
      <trkpt lat="43.76094" lon="4.72687">
        <ele>188</ele>
        <time>2019-05-22T09:06:50Z</time>
      </trkpt>
      <trkpt lat="43.76094" lon="4.72688">
        <ele>188</ele>
        <time>2019-05-22T09:06:58Z</time>
      </trkpt>
      <trkpt lat="43.76093" lon="4.72689">
        <ele>188</ele>
        <time>2019-05-22T09:07:03Z</time>
      </trkpt>
      <trkpt lat="43.76092" lon="4.7269">
        <ele>188</ele>
        <time>2019-05-22T09:07:07Z</time>
      </trkpt>
      <trkpt lat="43.76091" lon="4.72692">
        <ele>188</ele>
        <time>2019-05-22T09:07:11Z</time>
      </trkpt>
      <trkpt lat="43.7609" lon="4.72694">
        <ele>188</ele>
        <time>2019-05-22T09:07:15Z</time>
      </trkpt>
      <trkpt lat="43.76087" lon="4.72697">
        <ele>187</ele>
        <time>2019-05-22T09:07:19Z</time>
      </trkpt>
      <trkpt lat="43.76082" lon="4.72701">
        <ele>187</ele>
        <time>2019-05-22T09:07:23Z</time>
      </trkpt>
      <trkpt lat="43.76078" lon="4.72705">
        <ele>187</ele>
        <time>2019-05-22T09:07:27Z</time>
      </trkpt>
      <trkpt lat="43.76073" lon="4.72708">
        <ele>187</ele>
        <time>2019-05-22T09:07:32Z</time>
      </trkpt>
      <trkpt lat="43.7607" lon="4.72709">
        <ele>187</ele>
        <time>2019-05-22T09:07:35Z</time>
      </trkpt>
      <trkpt lat="43.76065" lon="4.72712">
        <ele>187</ele>
        <time>2019-05-22T09:07:40Z</time>
      </trkpt>
      <trkpt lat="43.76062" lon="4.72714">
        <ele>187</ele>
        <time>2019-05-22T09:07:43Z</time>
      </trkpt>
      <trkpt lat="43.76058" lon="4.72713">
        <ele>187</ele>
        <time>2019-05-22T09:07:48Z</time>
      </trkpt>
      <trkpt lat="43.76055" lon="4.72715">
        <ele>187</ele>
        <time>2019-05-22T09:07:53Z</time>
      </trkpt>
      <trkpt lat="43.76051" lon="4.72716">
        <ele>187</ele>
        <time>2019-05-22T09:07:57Z</time>
      </trkpt>
      <trkpt lat="43.76047" lon="4.72717">
        <ele>188</ele>
        <time>2019-05-22T09:08:01Z</time>
      </trkpt>
      <trkpt lat="43.76042" lon="4.7272">
        <ele>188</ele>
        <time>2019-05-22T09:08:06Z</time>
      </trkpt>
      <trkpt lat="43.76039" lon="4.72723">
        <ele>188</ele>
        <time>2019-05-22T09:08:10Z</time>
      </trkpt>
      <trkpt lat="43.76036" lon="4.72727">
        <ele>188</ele>
        <time>2019-05-22T09:08:14Z</time>
      </trkpt>
      <trkpt lat="43.76033" lon="4.7273">
        <ele>188</ele>
        <time>2019-05-22T09:08:17Z</time>
      </trkpt>
      <trkpt lat="43.76031" lon="4.72733">
        <ele>187</ele>
        <time>2019-05-22T09:08:20Z</time>
      </trkpt>
      <trkpt lat="43.76026" lon="4.72741">
        <ele>187</ele>
        <time>2019-05-22T09:08:25Z</time>
      </trkpt>
      <trkpt lat="43.76023" lon="4.72748">
        <ele>187</ele>
        <time>2019-05-22T09:08:29Z</time>
      </trkpt>
      <trkpt lat="43.76019" lon="4.72754">
        <ele>181</ele>
        <time>2019-05-22T09:08:33Z</time>
      </trkpt>
      <trkpt lat="43.76017" lon="4.72759">
        <ele>181</ele>
        <time>2019-05-22T09:08:37Z</time>
      </trkpt>
      <trkpt lat="43.76014" lon="4.72764">
        <ele>180</ele>
        <time>2019-05-22T09:08:41Z</time>
      </trkpt>
      <trkpt lat="43.76009" lon="4.72766">
        <ele>181</ele>
        <time>2019-05-22T09:08:46Z</time>
      </trkpt>
      <trkpt lat="43.76006" lon="4.72766">
        <ele>181</ele>
        <time>2019-05-22T09:08:50Z</time>
      </trkpt>
      <trkpt lat="43.76003" lon="4.72768">
        <ele>181</ele>
        <time>2019-05-22T09:08:53Z</time>
      </trkpt>
      <trkpt lat="43.75999" lon="4.72771">
        <ele>183</ele>
        <time>2019-05-22T09:08:57Z</time>
      </trkpt>
      <trkpt lat="43.75997" lon="4.72773">
        <ele>183</ele>
        <time>2019-05-22T09:09:01Z</time>
      </trkpt>
      <trkpt lat="43.75991" lon="4.72779">
        <ele>182</ele>
        <time>2019-05-22T09:09:06Z</time>
      </trkpt>
      <trkpt lat="43.75988" lon="4.72782">
        <ele>181</ele>
        <time>2019-05-22T09:09:10Z</time>
      </trkpt>
      <trkpt lat="43.75983" lon="4.72786">
        <ele>181</ele>
        <time>2019-05-22T09:09:14Z</time>
      </trkpt>
      <trkpt lat="43.75978" lon="4.72789">
        <ele>181</ele>
        <time>2019-05-22T09:09:19Z</time>
      </trkpt>
      <trkpt lat="43.75973" lon="4.72791">
        <ele>181</ele>
        <time>2019-05-22T09:09:23Z</time>
      </trkpt>
      <trkpt lat="43.75969" lon="4.72793">
        <ele>181</ele>
        <time>2019-05-22T09:09:28Z</time>
      </trkpt>
      <trkpt lat="43.75965" lon="4.72795">
        <ele>181</ele>
        <time>2019-05-22T09:09:32Z</time>
      </trkpt>
      <trkpt lat="43.75962" lon="4.72796">
        <ele>180</ele>
        <time>2019-05-22T09:09:35Z</time>
      </trkpt>
      <trkpt lat="43.75959" lon="4.72799">
        <ele>180</ele>
        <time>2019-05-22T09:09:39Z</time>
      </trkpt>
      <trkpt lat="43.75955" lon="4.728">
        <ele>180</ele>
        <time>2019-05-22T09:09:43Z</time>
      </trkpt>
      <trkpt lat="43.75949" lon="4.72804">
        <ele>180</ele>
        <time>2019-05-22T09:09:48Z</time>
      </trkpt>
      <trkpt lat="43.75946" lon="4.72806">
        <ele>180</ele>
        <time>2019-05-22T09:09:51Z</time>
      </trkpt>
      <trkpt lat="43.7594" lon="4.72811">
        <ele>180</ele>
        <time>2019-05-22T09:09:56Z</time>
      </trkpt>
      <trkpt lat="43.75937" lon="4.72812">
        <ele>179</ele>
        <time>2019-05-22T09:09:59Z</time>
      </trkpt>
      <trkpt lat="43.75933" lon="4.72814">
        <ele>179</ele>
        <time>2019-05-22T09:10:02Z</time>
      </trkpt>
      <trkpt lat="43.7593" lon="4.72817">
        <ele>179</ele>
        <time>2019-05-22T09:10:07Z</time>
      </trkpt>
      <trkpt lat="43.75926" lon="4.72818">
        <ele>178</ele>
        <time>2019-05-22T09:10:11Z</time>
      </trkpt>
      <trkpt lat="43.75922" lon="4.7282">
        <ele>178</ele>
        <time>2019-05-22T09:10:15Z</time>
      </trkpt>
      <trkpt lat="43.75918" lon="4.72823">
        <ele>177</ele>
        <time>2019-05-22T09:10:19Z</time>
      </trkpt>
      <trkpt lat="43.75914" lon="4.72826">
        <ele>179</ele>
        <time>2019-05-22T09:10:23Z</time>
      </trkpt>
      <trkpt lat="43.75908" lon="4.72827">
        <ele>180</ele>
        <time>2019-05-22T09:10:28Z</time>
      </trkpt>
      <trkpt lat="43.75903" lon="4.72828">
        <ele>181</ele>
        <time>2019-05-22T09:10:32Z</time>
      </trkpt>
      <trkpt lat="43.759" lon="4.7283">
        <ele>182</ele>
        <time>2019-05-22T09:10:37Z</time>
      </trkpt>
      <trkpt lat="43.75896" lon="4.72833">
        <ele>174</ele>
        <time>2019-05-22T09:10:41Z</time>
      </trkpt>
      <trkpt lat="43.7589" lon="4.72836">
        <ele>174</ele>
        <time>2019-05-22T09:10:46Z</time>
      </trkpt>
      <trkpt lat="43.75887" lon="4.7284">
        <ele>174</ele>
        <time>2019-05-22T09:10:50Z</time>
      </trkpt>
      <trkpt lat="43.75883" lon="4.72844">
        <ele>174</ele>
        <time>2019-05-22T09:10:54Z</time>
      </trkpt>
      <trkpt lat="43.7588" lon="4.7285">
        <ele>174</ele>
        <time>2019-05-22T09:10:59Z</time>
      </trkpt>
      <trkpt lat="43.75876" lon="4.72856">
        <ele>174</ele>
        <time>2019-05-22T09:11:03Z</time>
      </trkpt>
      <trkpt lat="43.75872" lon="4.72861">
        <ele>173</ele>
        <time>2019-05-22T09:11:07Z</time>
      </trkpt>
      <trkpt lat="43.75869" lon="4.72863">
        <ele>173</ele>
        <time>2019-05-22T09:11:10Z</time>
      </trkpt>
      <trkpt lat="43.75865" lon="4.72867">
        <ele>173</ele>
        <time>2019-05-22T09:11:14Z</time>
      </trkpt>
      <trkpt lat="43.75862" lon="4.72869">
        <ele>173</ele>
        <time>2019-05-22T09:11:17Z</time>
      </trkpt>
      <trkpt lat="43.75857" lon="4.72872">
        <ele>173</ele>
        <time>2019-05-22T09:11:21Z</time>
      </trkpt>
      <trkpt lat="43.75854" lon="4.72874">
        <ele>173</ele>
        <time>2019-05-22T09:11:24Z</time>
      </trkpt>
      <trkpt lat="43.7585" lon="4.72877">
        <ele>173</ele>
        <time>2019-05-22T09:11:29Z</time>
      </trkpt>
      <trkpt lat="43.75848" lon="4.72879">
        <ele>172</ele>
        <time>2019-05-22T09:11:32Z</time>
      </trkpt>
      <trkpt lat="43.75844" lon="4.72884">
        <ele>172</ele>
        <time>2019-05-22T09:11:36Z</time>
      </trkpt>
      <trkpt lat="43.75841" lon="4.72889">
        <ele>171</ele>
        <time>2019-05-22T09:11:40Z</time>
      </trkpt>
      <trkpt lat="43.75839" lon="4.72893">
        <ele>171</ele>
        <time>2019-05-22T09:11:45Z</time>
      </trkpt>
      <trkpt lat="43.75838" lon="4.72898">
        <ele>170</ele>
        <time>2019-05-22T09:11:50Z</time>
      </trkpt>
      <trkpt lat="43.75837" lon="4.72901">
        <ele>170</ele>
        <time>2019-05-22T09:11:54Z</time>
      </trkpt>
      <trkpt lat="43.75837" lon="4.72902">
        <ele>169</ele>
        <time>2019-05-22T09:12:06Z</time>
      </trkpt>
      <trkpt lat="43.75836" lon="4.72903">
        <ele>169</ele>
        <time>2019-05-22T09:12:23Z</time>
      </trkpt>
      <trkpt lat="43.75837" lon="4.72904">
        <ele>169</ele>
        <time>2019-05-22T09:12:30Z</time>
      </trkpt>
      <trkpt lat="43.75836" lon="4.72905">
        <ele>169</ele>
        <time>2019-05-22T09:12:34Z</time>
      </trkpt>
      <trkpt lat="43.75833" lon="4.72909">
        <ele>172</ele>
        <time>2019-05-22T09:12:38Z</time>
      </trkpt>
      <trkpt lat="43.75829" lon="4.72914">
        <ele>170</ele>
        <time>2019-05-22T09:12:42Z</time>
      </trkpt>
      <trkpt lat="43.75827" lon="4.72918">
        <ele>168</ele>
        <time>2019-05-22T09:12:46Z</time>
      </trkpt>
      <trkpt lat="43.75823" lon="4.72923">
        <ele>169</ele>
        <time>2019-05-22T09:12:51Z</time>
      </trkpt>
      <trkpt lat="43.75821" lon="4.72928">
        <ele>170</ele>
        <time>2019-05-22T09:12:55Z</time>
      </trkpt>
      <trkpt lat="43.75818" lon="4.72933">
        <ele>170</ele>
        <time>2019-05-22T09:13:00Z</time>
      </trkpt>
      <trkpt lat="43.75816" lon="4.72936">
        <ele>171</ele>
        <time>2019-05-22T09:13:04Z</time>
      </trkpt>
      <trkpt lat="43.75815" lon="4.72938">
        <ele>171</ele>
        <time>2019-05-22T09:13:07Z</time>
      </trkpt>
      <trkpt lat="43.75813" lon="4.72942">
        <ele>171</ele>
        <time>2019-05-22T09:13:11Z</time>
      </trkpt>
      <trkpt lat="43.75812" lon="4.72948">
        <ele>171</ele>
        <time>2019-05-22T09:13:15Z</time>
      </trkpt>
      <trkpt lat="43.75811" lon="4.72952">
        <ele>170</ele>
        <time>2019-05-22T09:13:18Z</time>
      </trkpt>
      <trkpt lat="43.75811" lon="4.72959">
        <ele>170</ele>
        <time>2019-05-22T09:13:23Z</time>
      </trkpt>
      <trkpt lat="43.7581" lon="4.72963">
        <ele>169</ele>
        <time>2019-05-22T09:13:26Z</time>
      </trkpt>
      <trkpt lat="43.75809" lon="4.72971">
        <ele>169</ele>
        <time>2019-05-22T09:13:31Z</time>
      </trkpt>
      <trkpt lat="43.75807" lon="4.72976">
        <ele>168</ele>
        <time>2019-05-22T09:13:35Z</time>
      </trkpt>
      <trkpt lat="43.75804" lon="4.72986">
        <ele>168</ele>
        <time>2019-05-22T09:13:40Z</time>
      </trkpt>
      <trkpt lat="43.75801" lon="4.72992">
        <ele>168</ele>
        <time>2019-05-22T09:13:45Z</time>
      </trkpt>
      <trkpt lat="43.758" lon="4.72995">
        <ele>168</ele>
        <time>2019-05-22T09:13:48Z</time>
      </trkpt>
      <trkpt lat="43.75798" lon="4.72999">
        <ele>168</ele>
        <time>2019-05-22T09:13:52Z</time>
      </trkpt>
      <trkpt lat="43.75795" lon="4.73004">
        <ele>160</ele>
        <time>2019-05-22T09:13:56Z</time>
      </trkpt>
      <trkpt lat="43.75792" lon="4.7301">
        <ele>161</ele>
        <time>2019-05-22T09:14:00Z</time>
      </trkpt>
      <trkpt lat="43.7579" lon="4.73017">
        <ele>161</ele>
        <time>2019-05-22T09:14:04Z</time>
      </trkpt>
      <trkpt lat="43.75789" lon="4.73021">
        <ele>161</ele>
        <time>2019-05-22T09:14:07Z</time>
      </trkpt>
      <trkpt lat="43.75786" lon="4.73025">
        <ele>161</ele>
        <time>2019-05-22T09:14:11Z</time>
      </trkpt>
      <trkpt lat="43.75785" lon="4.73029">
        <ele>160</ele>
        <time>2019-05-22T09:14:15Z</time>
      </trkpt>
      <trkpt lat="43.75783" lon="4.73033">
        <ele>160</ele>
        <time>2019-05-22T09:14:19Z</time>
      </trkpt>
      <trkpt lat="43.75781" lon="4.73035">
        <ele>160</ele>
        <time>2019-05-22T09:14:23Z</time>
      </trkpt>
      <trkpt lat="43.75778" lon="4.73042">
        <ele>160</ele>
        <time>2019-05-22T09:14:27Z</time>
      </trkpt>
      <trkpt lat="43.75774" lon="4.73048">
        <ele>160</ele>
        <time>2019-05-22T09:14:32Z</time>
      </trkpt>
      <trkpt lat="43.75773" lon="4.73053">
        <ele>159</ele>
        <time>2019-05-22T09:14:37Z</time>
      </trkpt>
      <trkpt lat="43.75772" lon="4.73058">
        <ele>159</ele>
        <time>2019-05-22T09:14:40Z</time>
      </trkpt>
      <trkpt lat="43.75768" lon="4.73061">
        <ele>159</ele>
        <time>2019-05-22T09:14:44Z</time>
      </trkpt>
      <trkpt lat="43.75764" lon="4.73064">
        <ele>159</ele>
        <time>2019-05-22T09:14:49Z</time>
      </trkpt>
      <trkpt lat="43.75762" lon="4.73066">
        <ele>159</ele>
        <time>2019-05-22T09:14:53Z</time>
      </trkpt>
      <trkpt lat="43.75759" lon="4.73068">
        <ele>159</ele>
        <time>2019-05-22T09:14:58Z</time>
      </trkpt>
      <trkpt lat="43.75756" lon="4.7307">
        <ele>159</ele>
        <time>2019-05-22T09:15:02Z</time>
      </trkpt>
      <trkpt lat="43.75752" lon="4.73071">
        <ele>159</ele>
        <time>2019-05-22T09:15:07Z</time>
      </trkpt>
      <trkpt lat="43.75745" lon="4.73075">
        <ele>162</ele>
        <time>2019-05-22T09:15:11Z</time>
      </trkpt>
      <trkpt lat="43.75736" lon="4.73077">
        <ele>163</ele>
        <time>2019-05-22T09:15:16Z</time>
      </trkpt>
      <trkpt lat="43.75735" lon="4.73082">
        <ele>163</ele>
        <time>2019-05-22T09:15:20Z</time>
      </trkpt>
      <trkpt lat="43.7573" lon="4.73084">
        <ele>156</ele>
        <time>2019-05-22T09:15:24Z</time>
      </trkpt>
      <trkpt lat="43.75723" lon="4.73087">
        <ele>155</ele>
        <time>2019-05-22T09:15:28Z</time>
      </trkpt>
      <trkpt lat="43.75717" lon="4.7309">
        <ele>155</ele>
        <time>2019-05-22T09:15:33Z</time>
      </trkpt>
      <trkpt lat="43.75713" lon="4.73094">
        <ele>155</ele>
        <time>2019-05-22T09:15:37Z</time>
      </trkpt>
      <trkpt lat="43.75708" lon="4.731">
        <ele>154</ele>
        <time>2019-05-22T09:15:42Z</time>
      </trkpt>
      <trkpt lat="43.75703" lon="4.73105">
        <ele>154</ele>
        <time>2019-05-22T09:15:46Z</time>
      </trkpt>
      <trkpt lat="43.75701" lon="4.73108">
        <ele>154</ele>
        <time>2019-05-22T09:15:49Z</time>
      </trkpt>
      <trkpt lat="43.75696" lon="4.73112">
        <ele>154</ele>
        <time>2019-05-22T09:15:54Z</time>
      </trkpt>
      <trkpt lat="43.7569" lon="4.73112">
        <ele>154</ele>
        <time>2019-05-22T09:15:58Z</time>
      </trkpt>
      <trkpt lat="43.75684" lon="4.73112">
        <ele>154</ele>
        <time>2019-05-22T09:16:03Z</time>
      </trkpt>
      <trkpt lat="43.75682" lon="4.73112">
        <ele>154</ele>
        <time>2019-05-22T09:16:06Z</time>
      </trkpt>
      <trkpt lat="43.75677" lon="4.73113">
        <ele>154</ele>
        <time>2019-05-22T09:16:10Z</time>
      </trkpt>
      <trkpt lat="43.75675" lon="4.73113">
        <ele>154</ele>
        <time>2019-05-22T09:16:13Z</time>
      </trkpt>
      <trkpt lat="43.75673" lon="4.73113">
        <ele>154</ele>
        <time>2019-05-22T09:16:16Z</time>
      </trkpt>
      <trkpt lat="43.75672" lon="4.73112">
        <ele>154</ele>
        <time>2019-05-22T09:16:20Z</time>
      </trkpt>
      <trkpt lat="43.75671" lon="4.73112">
        <ele>154</ele>
        <time>2019-05-22T09:16:24Z</time>
      </trkpt>
      <trkpt lat="43.7567" lon="4.73111">
        <ele>154</ele>
        <time>2019-05-22T09:16:28Z</time>
      </trkpt>
      <trkpt lat="43.75669" lon="4.7311">
        <ele>154</ele>
        <time>2019-05-22T09:16:31Z</time>
      </trkpt>
      <trkpt lat="43.75666" lon="4.73108">
        <ele>152</ele>
        <time>2019-05-22T09:16:36Z</time>
      </trkpt>
      <trkpt lat="43.75662" lon="4.73107">
        <ele>152</ele>
        <time>2019-05-22T09:16:40Z</time>
      </trkpt>
      <trkpt lat="43.75656" lon="4.73105">
        <ele>153</ele>
        <time>2019-05-22T09:16:44Z</time>
      </trkpt>
      <trkpt lat="43.75649" lon="4.73101">
        <ele>152</ele>
        <time>2019-05-22T09:16:48Z</time>
      </trkpt>
      <trkpt lat="43.75644" lon="4.73099">
        <ele>152</ele>
        <time>2019-05-22T09:16:52Z</time>
      </trkpt>
      <trkpt lat="43.75639" lon="4.73098">
        <ele>152</ele>
        <time>2019-05-22T09:16:56Z</time>
      </trkpt>
      <trkpt lat="43.75637" lon="4.73094">
        <ele>152</ele>
        <time>2019-05-22T09:17:01Z</time>
      </trkpt>
      <trkpt lat="43.75632" lon="4.73093">
        <ele>151</ele>
        <time>2019-05-22T09:17:06Z</time>
      </trkpt>
      <trkpt lat="43.75628" lon="4.73091">
        <ele>151</ele>
        <time>2019-05-22T09:17:10Z</time>
      </trkpt>
      <trkpt lat="43.75624" lon="4.73088">
        <ele>151</ele>
        <time>2019-05-22T09:17:14Z</time>
      </trkpt>
      <trkpt lat="43.7562" lon="4.73085">
        <ele>151</ele>
        <time>2019-05-22T09:17:18Z</time>
      </trkpt>
      <trkpt lat="43.75617" lon="4.73082">
        <ele>161</ele>
        <time>2019-05-22T09:17:22Z</time>
      </trkpt>
      <trkpt lat="43.75613" lon="4.73079">
        <ele>161</ele>
        <time>2019-05-22T09:17:26Z</time>
      </trkpt>
      <trkpt lat="43.75609" lon="4.73076">
        <ele>160</ele>
        <time>2019-05-22T09:17:30Z</time>
      </trkpt>
      <trkpt lat="43.75605" lon="4.73073">
        <ele>160</ele>
        <time>2019-05-22T09:17:34Z</time>
      </trkpt>
      <trkpt lat="43.756" lon="4.7307">
        <ele>160</ele>
        <time>2019-05-22T09:17:39Z</time>
      </trkpt>
      <trkpt lat="43.75594" lon="4.73067">
        <ele>159</ele>
        <time>2019-05-22T09:17:43Z</time>
      </trkpt>
      <trkpt lat="43.75589" lon="4.73065">
        <ele>159</ele>
        <time>2019-05-22T09:17:48Z</time>
      </trkpt>
      <trkpt lat="43.75584" lon="4.73063">
        <ele>159</ele>
        <time>2019-05-22T09:17:53Z</time>
      </trkpt>
      <trkpt lat="43.75581" lon="4.73064">
        <ele>155</ele>
        <time>2019-05-22T09:17:57Z</time>
      </trkpt>
      <trkpt lat="43.75581" lon="4.73064">
        <ele>155</ele>
        <time>2019-05-22T09:18:03Z</time>
      </trkpt>
      <trkpt lat="43.75578" lon="4.73062">
        <ele>155</ele>
        <time>2019-05-22T09:18:08Z</time>
      </trkpt>
      <trkpt lat="43.75577" lon="4.73062">
        <ele>155</ele>
        <time>2019-05-22T09:18:13Z</time>
      </trkpt>
      <trkpt lat="43.75576" lon="4.73061">
        <ele>155</ele>
        <time>2019-05-22T09:18:28Z</time>
      </trkpt>
      <trkpt lat="43.75576" lon="4.73061">
        <ele>155</ele>
        <time>2019-05-22T09:19:09Z</time>
      </trkpt>
      <trkpt lat="43.75575" lon="4.73062">
        <ele>155</ele>
        <time>2019-05-22T09:19:14Z</time>
      </trkpt>
      <trkpt lat="43.75573" lon="4.7306">
        <ele>155</ele>
        <time>2019-05-22T09:19:18Z</time>
      </trkpt>
      <trkpt lat="43.75567" lon="4.73059">
        <ele>155</ele>
        <time>2019-05-22T09:19:23Z</time>
      </trkpt>
      <trkpt lat="43.75561" lon="4.73055">
        <ele>155</ele>
        <time>2019-05-22T09:19:27Z</time>
      </trkpt>
      <trkpt lat="43.75555" lon="4.7305">
        <ele>156</ele>
        <time>2019-05-22T09:19:32Z</time>
      </trkpt>
      <trkpt lat="43.75548" lon="4.73043">
        <ele>156</ele>
        <time>2019-05-22T09:19:37Z</time>
      </trkpt>
      <trkpt lat="43.75544" lon="4.73039">
        <ele>156</ele>
        <time>2019-05-22T09:19:41Z</time>
      </trkpt>
      <trkpt lat="43.75538" lon="4.73036">
        <ele>156</ele>
        <time>2019-05-22T09:19:45Z</time>
      </trkpt>
      <trkpt lat="43.75532" lon="4.73034">
        <ele>156</ele>
        <time>2019-05-22T09:19:50Z</time>
      </trkpt>
      <trkpt lat="43.75526" lon="4.73032">
        <ele>156</ele>
        <time>2019-05-22T09:19:55Z</time>
      </trkpt>
      <trkpt lat="43.75522" lon="4.73031">
        <ele>156</ele>
        <time>2019-05-22T09:19:59Z</time>
      </trkpt>
      <trkpt lat="43.75519" lon="4.73031">
        <ele>156</ele>
        <time>2019-05-22T09:20:01Z</time>
      </trkpt>
      <trkpt lat="43.75516" lon="4.7303">
        <ele>156</ele>
        <time>2019-05-22T09:20:07Z</time>
      </trkpt>
      <trkpt lat="43.75511" lon="4.7303">
        <ele>156</ele>
        <time>2019-05-22T09:20:11Z</time>
      </trkpt>
      <trkpt lat="43.75507" lon="4.7303">
        <ele>156</ele>
        <time>2019-05-22T09:20:15Z</time>
      </trkpt>
      <trkpt lat="43.75501" lon="4.73029">
        <ele>156</ele>
        <time>2019-05-22T09:20:20Z</time>
      </trkpt>
      <trkpt lat="43.75497" lon="4.73029">
        <ele>148</ele>
        <time>2019-05-22T09:20:24Z</time>
      </trkpt>
      <trkpt lat="43.75494" lon="4.73028">
        <ele>148</ele>
        <time>2019-05-22T09:20:27Z</time>
      </trkpt>
      <trkpt lat="43.75488" lon="4.73024">
        <ele>148</ele>
        <time>2019-05-22T09:20:32Z</time>
      </trkpt>
      <trkpt lat="43.75483" lon="4.73021">
        <ele>148</ele>
        <time>2019-05-22T09:20:36Z</time>
      </trkpt>
      <trkpt lat="43.7548" lon="4.7302">
        <ele>148</ele>
        <time>2019-05-22T09:20:39Z</time>
      </trkpt>
      <trkpt lat="43.75476" lon="4.73016">
        <ele>148</ele>
        <time>2019-05-22T09:20:44Z</time>
      </trkpt>
      <trkpt lat="43.75472" lon="4.7301">
        <ele>148</ele>
        <time>2019-05-22T09:20:48Z</time>
      </trkpt>
      <trkpt lat="43.75466" lon="4.73006">
        <ele>147</ele>
        <time>2019-05-22T09:20:53Z</time>
      </trkpt>
      <trkpt lat="43.75459" lon="4.73004">
        <ele>146</ele>
        <time>2019-05-22T09:20:58Z</time>
      </trkpt>
      <trkpt lat="43.75453" lon="4.73001">
        <ele>145</ele>
        <time>2019-05-22T09:21:03Z</time>
      </trkpt>
      <trkpt lat="43.7545" lon="4.72998">
        <ele>157</ele>
        <time>2019-05-22T09:21:07Z</time>
      </trkpt>
      <trkpt lat="43.75446" lon="4.72994">
        <ele>156</ele>
        <time>2019-05-22T09:21:11Z</time>
      </trkpt>
      <trkpt lat="43.7544" lon="4.72991">
        <ele>155</ele>
        <time>2019-05-22T09:21:16Z</time>
      </trkpt>
      <trkpt lat="43.75438" lon="4.7299">
        <ele>154</ele>
        <time>2019-05-22T09:21:19Z</time>
      </trkpt>
      <trkpt lat="43.75432" lon="4.72988">
        <ele>153</ele>
        <time>2019-05-22T09:21:24Z</time>
      </trkpt>
      <trkpt lat="43.75427" lon="4.72987">
        <ele>152</ele>
        <time>2019-05-22T09:21:28Z</time>
      </trkpt>
      <trkpt lat="43.75421" lon="4.72985">
        <ele>151</ele>
        <time>2019-05-22T09:21:33Z</time>
      </trkpt>
      <trkpt lat="43.75415" lon="4.72985">
        <ele>144</ele>
        <time>2019-05-22T09:21:37Z</time>
      </trkpt>
      <trkpt lat="43.7541" lon="4.72984">
        <ele>144</ele>
        <time>2019-05-22T09:21:41Z</time>
      </trkpt>
      <trkpt lat="43.75406" lon="4.72981">
        <ele>144</ele>
        <time>2019-05-22T09:21:46Z</time>
      </trkpt>
      <trkpt lat="43.75403" lon="4.7298">
        <ele>145</ele>
        <time>2019-05-22T09:21:50Z</time>
      </trkpt>
      <trkpt lat="43.75398" lon="4.72976">
        <ele>145</ele>
        <time>2019-05-22T09:21:54Z</time>
      </trkpt>
      <trkpt lat="43.75391" lon="4.72974">
        <ele>145</ele>
        <time>2019-05-22T09:21:59Z</time>
      </trkpt>
      <trkpt lat="43.75385" lon="4.72973">
        <ele>144</ele>
        <time>2019-05-22T09:22:03Z</time>
      </trkpt>
      <trkpt lat="43.7538" lon="4.72971">
        <ele>144</ele>
        <time>2019-05-22T09:22:08Z</time>
      </trkpt>
      <trkpt lat="43.75377" lon="4.72971">
        <ele>144</ele>
        <time>2019-05-22T09:22:12Z</time>
      </trkpt>
      <trkpt lat="43.75368" lon="4.72972">
        <ele>143</ele>
        <time>2019-05-22T09:22:17Z</time>
      </trkpt>
      <trkpt lat="43.75361" lon="4.7297">
        <ele>142</ele>
        <time>2019-05-22T09:22:22Z</time>
      </trkpt>
      <trkpt lat="43.75356" lon="4.72969">
        <ele>141</ele>
        <time>2019-05-22T09:22:26Z</time>
      </trkpt>
      <trkpt lat="43.75351" lon="4.72967">
        <ele>141</ele>
        <time>2019-05-22T09:22:31Z</time>
      </trkpt>
      <trkpt lat="43.75347" lon="4.72966">
        <ele>141</ele>
        <time>2019-05-22T09:22:35Z</time>
      </trkpt>
      <trkpt lat="43.75341" lon="4.72963">
        <ele>141</ele>
        <time>2019-05-22T09:22:40Z</time>
      </trkpt>
      <trkpt lat="43.75339" lon="4.72958">
        <ele>142</ele>
        <time>2019-05-22T09:22:44Z</time>
      </trkpt>
      <trkpt lat="43.75338" lon="4.72956">
        <ele>142</ele>
        <time>2019-05-22T09:22:48Z</time>
      </trkpt>
      <trkpt lat="43.75335" lon="4.72954">
        <ele>142</ele>
        <time>2019-05-22T09:22:52Z</time>
      </trkpt>
      <trkpt lat="43.75332" lon="4.72953">
        <ele>129</ele>
        <time>2019-05-22T09:22:56Z</time>
      </trkpt>
      <trkpt lat="43.7533" lon="4.72954">
        <ele>128</ele>
        <time>2019-05-22T09:23:00Z</time>
      </trkpt>
      <trkpt lat="43.75328" lon="4.72954">
        <ele>128</ele>
        <time>2019-05-22T09:23:04Z</time>
      </trkpt>
      <trkpt lat="43.75325" lon="4.72956">
        <ele>127</ele>
        <time>2019-05-22T09:23:08Z</time>
      </trkpt>
      <trkpt lat="43.75324" lon="4.72957">
        <ele>127</ele>
        <time>2019-05-22T09:23:12Z</time>
      </trkpt>
      <trkpt lat="43.75322" lon="4.72958">
        <ele>127</ele>
        <time>2019-05-22T09:23:17Z</time>
      </trkpt>
      <trkpt lat="43.75318" lon="4.72957">
        <ele>127</ele>
        <time>2019-05-22T09:23:22Z</time>
      </trkpt>
      <trkpt lat="43.75316" lon="4.72955">
        <ele>127</ele>
        <time>2019-05-22T09:23:25Z</time>
      </trkpt>
      <trkpt lat="43.75314" lon="4.72951">
        <ele>127</ele>
        <time>2019-05-22T09:23:29Z</time>
      </trkpt>
      <trkpt lat="43.75311" lon="4.72945">
        <ele>128</ele>
        <time>2019-05-22T09:23:34Z</time>
      </trkpt>
      <trkpt lat="43.75308" lon="4.72941">
        <ele>128</ele>
        <time>2019-05-22T09:23:38Z</time>
      </trkpt>
      <trkpt lat="43.75304" lon="4.72937">
        <ele>128</ele>
        <time>2019-05-22T09:23:42Z</time>
      </trkpt>
      <trkpt lat="43.75302" lon="4.72936">
        <ele>127</ele>
        <time>2019-05-22T09:23:47Z</time>
      </trkpt>
      <trkpt lat="43.75299" lon="4.72934">
        <ele>127</ele>
        <time>2019-05-22T09:23:51Z</time>
      </trkpt>
      <trkpt lat="43.75297" lon="4.72932">
        <ele>127</ele>
        <time>2019-05-22T09:23:55Z</time>
      </trkpt>
      <trkpt lat="43.75295" lon="4.7293">
        <ele>126</ele>
        <time>2019-05-22T09:23:58Z</time>
      </trkpt>
      <trkpt lat="43.75292" lon="4.72927">
        <ele>126</ele>
        <time>2019-05-22T09:24:02Z</time>
      </trkpt>
      <trkpt lat="43.75291" lon="4.72924">
        <ele>126</ele>
        <time>2019-05-22T09:24:06Z</time>
      </trkpt>
      <trkpt lat="43.7529" lon="4.72923">
        <ele>126</ele>
        <time>2019-05-22T09:24:09Z</time>
      </trkpt>
      <trkpt lat="43.75287" lon="4.72921">
        <ele>125</ele>
        <time>2019-05-22T09:24:13Z</time>
      </trkpt>
      <trkpt lat="43.75284" lon="4.72919">
        <ele>125</ele>
        <time>2019-05-22T09:24:17Z</time>
      </trkpt>
      <trkpt lat="43.7528" lon="4.72918">
        <ele>124</ele>
        <time>2019-05-22T09:24:22Z</time>
      </trkpt>
      <trkpt lat="43.75278" lon="4.72918">
        <ele>124</ele>
        <time>2019-05-22T09:24:25Z</time>
      </trkpt>
      <trkpt lat="43.75276" lon="4.72918">
        <ele>123</ele>
        <time>2019-05-22T09:24:29Z</time>
      </trkpt>
      <trkpt lat="43.75274" lon="4.72918">
        <ele>123</ele>
        <time>2019-05-22T09:24:34Z</time>
      </trkpt>
      <trkpt lat="43.7527" lon="4.72916">
        <ele>132</ele>
        <time>2019-05-22T09:24:39Z</time>
      </trkpt>
      <trkpt lat="43.75269" lon="4.72915">
        <ele>131</ele>
        <time>2019-05-22T09:24:44Z</time>
      </trkpt>
      <trkpt lat="43.75268" lon="4.72915">
        <ele>131</ele>
        <time>2019-05-22T09:24:50Z</time>
      </trkpt>
      <trkpt lat="43.75267" lon="4.72915">
        <ele>130</ele>
        <time>2019-05-22T09:24:55Z</time>
      </trkpt>
      <trkpt lat="43.75266" lon="4.72915">
        <ele>130</ele>
        <time>2019-05-22T09:24:59Z</time>
      </trkpt>
      <trkpt lat="43.75264" lon="4.72912">
        <ele>129</ele>
        <time>2019-05-22T09:25:04Z</time>
      </trkpt>
      <trkpt lat="43.75261" lon="4.7291">
        <ele>128</ele>
        <time>2019-05-22T09:25:08Z</time>
      </trkpt>
      <trkpt lat="43.75259" lon="4.72908">
        <ele>128</ele>
        <time>2019-05-22T09:25:13Z</time>
      </trkpt>
      <trkpt lat="43.75256" lon="4.72905">
        <ele>128</ele>
        <time>2019-05-22T09:25:18Z</time>
      </trkpt>
      <trkpt lat="43.75254" lon="4.72903">
        <ele>129</ele>
        <time>2019-05-22T09:25:22Z</time>
      </trkpt>
      <trkpt lat="43.75253" lon="4.72901">
        <ele>130</ele>
        <time>2019-05-22T09:25:26Z</time>
      </trkpt>
      <trkpt lat="43.75251" lon="4.729">
        <ele>130</ele>
        <time>2019-05-22T09:25:31Z</time>
      </trkpt>
      <trkpt lat="43.7525" lon="4.729">
        <ele>119</ele>
        <time>2019-05-22T09:25:35Z</time>
      </trkpt>
      <trkpt lat="43.75248" lon="4.72899">
        <ele>119</ele>
        <time>2019-05-22T09:25:40Z</time>
      </trkpt>
      <trkpt lat="43.75246" lon="4.72898">
        <ele>119</ele>
        <time>2019-05-22T09:25:44Z</time>
      </trkpt>
      <trkpt lat="43.75245" lon="4.72898">
        <ele>119</ele>
        <time>2019-05-22T09:25:49Z</time>
      </trkpt>
      <trkpt lat="43.75245" lon="4.72897">
        <ele>119</ele>
        <time>2019-05-22T09:26:04Z</time>
      </trkpt>
      <trkpt lat="43.75243" lon="4.72898">
        <ele>119</ele>
        <time>2019-05-22T09:26:08Z</time>
      </trkpt>
      <trkpt lat="43.75243" lon="4.72896">
        <ele>119</ele>
        <time>2019-05-22T09:26:13Z</time>
      </trkpt>
      <trkpt lat="43.75241" lon="4.72893">
        <ele>119</ele>
        <time>2019-05-22T09:26:17Z</time>
      </trkpt>
      <trkpt lat="43.75241" lon="4.72892">
        <ele>119</ele>
        <time>2019-05-22T09:26:22Z</time>
      </trkpt>
      <trkpt lat="43.7524" lon="4.72891">
        <ele>119</ele>
        <time>2019-05-22T09:26:25Z</time>
      </trkpt>
      <trkpt lat="43.75237" lon="4.72889">
        <ele>119</ele>
        <time>2019-05-22T09:26:30Z</time>
      </trkpt>
      <trkpt lat="43.75235" lon="4.72886">
        <ele>119</ele>
        <time>2019-05-22T09:26:34Z</time>
      </trkpt>
      <trkpt lat="43.75232" lon="4.72884">
        <ele>119</ele>
        <time>2019-05-22T09:26:39Z</time>
      </trkpt>
      <trkpt lat="43.75229" lon="4.72882">
        <ele>119</ele>
        <time>2019-05-22T09:26:43Z</time>
      </trkpt>
      <trkpt lat="43.75226" lon="4.7288">
        <ele>119</ele>
        <time>2019-05-22T09:26:47Z</time>
      </trkpt>
      <trkpt lat="43.75224" lon="4.72877">
        <ele>119</ele>
        <time>2019-05-22T09:26:52Z</time>
      </trkpt>
      <trkpt lat="43.75222" lon="4.72874">
        <ele>119</ele>
        <time>2019-05-22T09:26:55Z</time>
      </trkpt>
      <trkpt lat="43.7522" lon="4.72871">
        <ele>119</ele>
        <time>2019-05-22T09:26:59Z</time>
      </trkpt>
      <trkpt lat="43.75217" lon="4.72868">
        <ele>119</ele>
        <time>2019-05-22T09:27:04Z</time>
      </trkpt>
      <trkpt lat="43.75214" lon="4.72866">
        <ele>119</ele>
        <time>2019-05-22T09:27:07Z</time>
      </trkpt>
      <trkpt lat="43.75212" lon="4.72862">
        <ele>119</ele>
        <time>2019-05-22T09:27:11Z</time>
      </trkpt>
      <trkpt lat="43.75211" lon="4.72861">
        <ele>119</ele>
        <time>2019-05-22T09:27:15Z</time>
      </trkpt>
      <trkpt lat="43.75209" lon="4.72859">
        <ele>118</ele>
        <time>2019-05-22T09:27:20Z</time>
      </trkpt>
      <trkpt lat="43.75206" lon="4.72858">
        <ele>118</ele>
        <time>2019-05-22T09:27:24Z</time>
      </trkpt>
      <trkpt lat="43.75199" lon="4.72858">
        <ele>117</ele>
        <time>2019-05-22T09:27:29Z</time>
      </trkpt>
      <trkpt lat="43.75195" lon="4.72858">
        <ele>116</ele>
        <time>2019-05-22T09:27:33Z</time>
      </trkpt>
      <trkpt lat="43.75191" lon="4.72853">
        <ele>116</ele>
        <time>2019-05-22T09:27:38Z</time>
      </trkpt>
      <trkpt lat="43.75188" lon="4.72847">
        <ele>115</ele>
        <time>2019-05-22T09:27:42Z</time>
      </trkpt>
      <trkpt lat="43.75187" lon="4.72844">
        <ele>115</ele>
        <time>2019-05-22T09:27:46Z</time>
      </trkpt>
      <trkpt lat="43.75186" lon="4.72843">
        <ele>115</ele>
        <time>2019-05-22T09:27:49Z</time>
      </trkpt>
      <trkpt lat="43.75187" lon="4.72841">
        <ele>115</ele>
        <time>2019-05-22T09:27:53Z</time>
      </trkpt>
      <trkpt lat="43.7519" lon="4.7284">
        <ele>116</ele>
        <time>2019-05-22T09:27:57Z</time>
      </trkpt>
      <trkpt lat="43.75193" lon="4.72838">
        <ele>116</ele>
        <time>2019-05-22T09:28:00Z</time>
      </trkpt>
      <trkpt lat="43.75197" lon="4.72837">
        <ele>117</ele>
        <time>2019-05-22T09:28:04Z</time>
      </trkpt>
      <trkpt lat="43.75199" lon="4.72836">
        <ele>118</ele>
        <time>2019-05-22T09:28:08Z</time>
      </trkpt>
      <trkpt lat="43.75199" lon="4.7284">
        <ele>118</ele>
        <time>2019-05-22T09:28:13Z</time>
      </trkpt>
      <trkpt lat="43.75198" lon="4.72839">
        <ele>117</ele>
        <time>2019-05-22T09:28:16Z</time>
      </trkpt>
      <trkpt lat="43.75196" lon="4.72836">
        <ele>117</ele>
        <time>2019-05-22T09:28:20Z</time>
      </trkpt>
      <trkpt lat="43.75193" lon="4.72834">
        <ele>117</ele>
        <time>2019-05-22T09:28:24Z</time>
      </trkpt>
      <trkpt lat="43.75191" lon="4.72835">
        <ele>116</ele>
        <time>2019-05-22T09:28:28Z</time>
      </trkpt>
      <trkpt lat="43.7519" lon="4.72837">
        <ele>116</ele>
        <time>2019-05-22T09:28:31Z</time>
      </trkpt>
      <trkpt lat="43.75189" lon="4.72838">
        <ele>116</ele>
        <time>2019-05-22T09:28:35Z</time>
      </trkpt>
      <trkpt lat="43.75189" lon="4.72838">
        <ele>116</ele>
        <time>2019-05-22T09:28:38Z</time>
      </trkpt>
      <trkpt lat="43.75189" lon="4.72837">
        <ele>116</ele>
        <time>2019-05-22T09:28:53Z</time>
      </trkpt>
      <trkpt lat="43.75187" lon="4.72835">
        <ele>115</ele>
        <time>2019-05-22T09:28:58Z</time>
      </trkpt>
      <trkpt lat="43.75187" lon="4.72835">
        <ele>115</ele>
        <time>2019-05-22T09:29:03Z</time>
      </trkpt>
      <trkpt lat="43.75184" lon="4.72836">
        <ele>115</ele>
        <time>2019-05-22T09:29:07Z</time>
      </trkpt>
      <trkpt lat="43.75183" lon="4.72836">
        <ele>114</ele>
        <time>2019-05-22T09:29:11Z</time>
      </trkpt>
      <trkpt lat="43.75181" lon="4.72834">
        <ele>114</ele>
        <time>2019-05-22T09:29:16Z</time>
      </trkpt>
      <trkpt lat="43.75178" lon="4.72831">
        <ele>118</ele>
        <time>2019-05-22T09:29:20Z</time>
      </trkpt>
      <trkpt lat="43.75174" lon="4.72825">
        <ele>118</ele>
        <time>2019-05-22T09:29:25Z</time>
      </trkpt>
      <trkpt lat="43.75171" lon="4.72824">
        <ele>117</ele>
        <time>2019-05-22T09:29:28Z</time>
      </trkpt>
      <trkpt lat="43.75169" lon="4.72824">
        <ele>117</ele>
        <time>2019-05-22T09:29:33Z</time>
      </trkpt>
      <trkpt lat="43.75168" lon="4.72823">
        <ele>117</ele>
        <time>2019-05-22T09:29:37Z</time>
      </trkpt>
      <trkpt lat="43.75165" lon="4.72824">
        <ele>110</ele>
        <time>2019-05-22T09:29:41Z</time>
      </trkpt>
      <trkpt lat="43.75163" lon="4.72824">
        <ele>110</ele>
        <time>2019-05-22T09:29:44Z</time>
      </trkpt>
      <trkpt lat="43.75161" lon="4.72822">
        <ele>110</ele>
        <time>2019-05-22T09:29:49Z</time>
      </trkpt>
      <trkpt lat="43.75159" lon="4.72817">
        <ele>110</ele>
        <time>2019-05-22T09:29:53Z</time>
      </trkpt>
      <trkpt lat="43.75158" lon="4.72813">
        <ele>110</ele>
        <time>2019-05-22T09:29:58Z</time>
      </trkpt>
      <trkpt lat="43.75157" lon="4.7281">
        <ele>110</ele>
        <time>2019-05-22T09:30:02Z</time>
      </trkpt>
      <trkpt lat="43.75154" lon="4.72808">
        <ele>109</ele>
        <time>2019-05-22T09:30:06Z</time>
      </trkpt>
      <trkpt lat="43.75151" lon="4.72805">
        <ele>109</ele>
        <time>2019-05-22T09:30:10Z</time>
      </trkpt>
      <trkpt lat="43.75149" lon="4.72801">
        <ele>109</ele>
        <time>2019-05-22T09:30:14Z</time>
      </trkpt>
      <trkpt lat="43.75146" lon="4.72797">
        <ele>110</ele>
        <time>2019-05-22T09:30:19Z</time>
      </trkpt>
      <trkpt lat="43.75142" lon="4.72791">
        <ele>110</ele>
        <time>2019-05-22T09:30:24Z</time>
      </trkpt>
      <trkpt lat="43.75139" lon="4.72787">
        <ele>110</ele>
        <time>2019-05-22T09:30:28Z</time>
      </trkpt>
      <trkpt lat="43.75137" lon="4.72782">
        <ele>110</ele>
        <time>2019-05-22T09:30:32Z</time>
      </trkpt>
      <trkpt lat="43.75135" lon="4.7278">
        <ele>110</ele>
        <time>2019-05-22T09:30:35Z</time>
      </trkpt>
      <trkpt lat="43.75133" lon="4.72777">
        <ele>110</ele>
        <time>2019-05-22T09:30:39Z</time>
      </trkpt>
      <trkpt lat="43.75131" lon="4.72774">
        <ele>110</ele>
        <time>2019-05-22T09:30:44Z</time>
      </trkpt>
      <trkpt lat="43.7513" lon="4.72771">
        <ele>109</ele>
        <time>2019-05-22T09:30:48Z</time>
      </trkpt>
      <trkpt lat="43.75129" lon="4.7277">
        <ele>109</ele>
        <time>2019-05-22T09:30:52Z</time>
      </trkpt>
      <trkpt lat="43.75127" lon="4.72769">
        <ele>109</ele>
        <time>2019-05-22T09:30:57Z</time>
      </trkpt>
      <trkpt lat="43.75123" lon="4.72769">
        <ele>108</ele>
        <time>2019-05-22T09:31:02Z</time>
      </trkpt>
      <trkpt lat="43.75121" lon="4.72767">
        <ele>108</ele>
        <time>2019-05-22T09:31:06Z</time>
      </trkpt>
      <trkpt lat="43.75119" lon="4.72763">
        <ele>108</ele>
        <time>2019-05-22T09:31:11Z</time>
      </trkpt>
      <trkpt lat="43.75118" lon="4.72759">
        <ele>108</ele>
        <time>2019-05-22T09:31:15Z</time>
      </trkpt>
      <trkpt lat="43.75116" lon="4.72755">
        <ele>107</ele>
        <time>2019-05-22T09:31:19Z</time>
      </trkpt>
      <trkpt lat="43.75115" lon="4.72749">
        <ele>112</ele>
        <time>2019-05-22T09:31:23Z</time>
      </trkpt>
      <trkpt lat="43.75115" lon="4.72743">
        <ele>112</ele>
        <time>2019-05-22T09:31:28Z</time>
      </trkpt>
      <trkpt lat="43.75115" lon="4.72739">
        <ele>112</ele>
        <time>2019-05-22T09:31:32Z</time>
      </trkpt>
      <trkpt lat="43.75114" lon="4.72732">
        <ele>112</ele>
        <time>2019-05-22T09:31:37Z</time>
      </trkpt>
      <trkpt lat="43.75114" lon="4.72729">
        <ele>113</ele>
        <time>2019-05-22T09:31:41Z</time>
      </trkpt>
      <trkpt lat="43.75113" lon="4.72727">
        <ele>113</ele>
        <time>2019-05-22T09:31:46Z</time>
      </trkpt>
      <trkpt lat="43.75112" lon="4.72724">
        <ele>113</ele>
        <time>2019-05-22T09:31:50Z</time>
      </trkpt>
      <trkpt lat="43.75111" lon="4.72721">
        <ele>113</ele>
        <time>2019-05-22T09:31:54Z</time>
      </trkpt>
      <trkpt lat="43.75109" lon="4.72717">
        <ele>113</ele>
        <time>2019-05-22T09:31:59Z</time>
      </trkpt>
      <trkpt lat="43.75108" lon="4.72715">
        <ele>113</ele>
        <time>2019-05-22T09:32:02Z</time>
      </trkpt>
      <trkpt lat="43.75107" lon="4.72713">
        <ele>113</ele>
        <time>2019-05-22T09:32:06Z</time>
      </trkpt>
      <trkpt lat="43.75106" lon="4.72712">
        <ele>113</ele>
        <time>2019-05-22T09:32:11Z</time>
      </trkpt>
      <trkpt lat="43.75106" lon="4.7271">
        <ele>113</ele>
        <time>2019-05-22T09:32:15Z</time>
      </trkpt>
      <trkpt lat="43.75104" lon="4.72708">
        <ele>113</ele>
        <time>2019-05-22T09:32:18Z</time>
      </trkpt>
      <trkpt lat="43.75103" lon="4.72704">
        <ele>113</ele>
        <time>2019-05-22T09:32:22Z</time>
      </trkpt>
      <trkpt lat="43.75101" lon="4.72701">
        <ele>113</ele>
        <time>2019-05-22T09:32:27Z</time>
      </trkpt>
      <trkpt lat="43.75101" lon="4.72698">
        <ele>113</ele>
        <time>2019-05-22T09:32:31Z</time>
      </trkpt>
      <trkpt lat="43.751" lon="4.72693">
        <ele>113</ele>
        <time>2019-05-22T09:32:35Z</time>
      </trkpt>
      <trkpt lat="43.75099" lon="4.72691">
        <ele>113</ele>
        <time>2019-05-22T09:32:39Z</time>
      </trkpt>
      <trkpt lat="43.75099" lon="4.72689">
        <ele>113</ele>
        <time>2019-05-22T09:32:43Z</time>
      </trkpt>
      <trkpt lat="43.75099" lon="4.72685">
        <ele>113</ele>
        <time>2019-05-22T09:32:47Z</time>
      </trkpt>
      <trkpt lat="43.75098" lon="4.72683">
        <ele>113</ele>
        <time>2019-05-22T09:32:51Z</time>
      </trkpt>
      <trkpt lat="43.75097" lon="4.7268">
        <ele>113</ele>
        <time>2019-05-22T09:32:55Z</time>
      </trkpt>
      <trkpt lat="43.75096" lon="4.72676">
        <ele>113</ele>
        <time>2019-05-22T09:33:00Z</time>
      </trkpt>
      <trkpt lat="43.75097" lon="4.72673">
        <ele>113</ele>
        <time>2019-05-22T09:33:04Z</time>
      </trkpt>
      <trkpt lat="43.75097" lon="4.72672">
        <ele>113</ele>
        <time>2019-05-22T09:33:07Z</time>
      </trkpt>
      <trkpt lat="43.75097" lon="4.72671">
        <ele>113</ele>
        <time>2019-05-22T09:33:10Z</time>
      </trkpt>
      <trkpt lat="43.75099" lon="4.72668">
        <ele>113</ele>
        <time>2019-05-22T09:33:15Z</time>
      </trkpt>
      <trkpt lat="43.751" lon="4.72664">
        <ele>113</ele>
        <time>2019-05-22T09:33:19Z</time>
      </trkpt>
      <trkpt lat="43.75101" lon="4.72662">
        <ele>113</ele>
        <time>2019-05-22T09:33:23Z</time>
      </trkpt>
      <trkpt lat="43.75103" lon="4.72658">
        <ele>113</ele>
        <time>2019-05-22T09:33:28Z</time>
      </trkpt>
      <trkpt lat="43.75103" lon="4.72657">
        <ele>113</ele>
        <time>2019-05-22T09:33:31Z</time>
      </trkpt>
      <trkpt lat="43.75103" lon="4.72655">
        <ele>113</ele>
        <time>2019-05-22T09:33:35Z</time>
      </trkpt>
      <trkpt lat="43.75103" lon="4.72653">
        <ele>113</ele>
        <time>2019-05-22T09:33:40Z</time>
      </trkpt>
      <trkpt lat="43.75104" lon="4.72652">
        <ele>113</ele>
        <time>2019-05-22T09:33:47Z</time>
      </trkpt>
      <trkpt lat="43.75104" lon="4.72651">
        <ele>113</ele>
        <time>2019-05-22T09:33:57Z</time>
      </trkpt>
      <trkpt lat="43.75104" lon="4.72648">
        <ele>113</ele>
        <time>2019-05-22T09:34:01Z</time>
      </trkpt>
      <trkpt lat="43.75104" lon="4.72645">
        <ele>113</ele>
        <time>2019-05-22T09:34:05Z</time>
      </trkpt>
      <trkpt lat="43.75105" lon="4.72643">
        <ele>113</ele>
        <time>2019-05-22T09:34:09Z</time>
      </trkpt>
      <trkpt lat="43.75105" lon="4.72641">
        <ele>113</ele>
        <time>2019-05-22T09:34:15Z</time>
      </trkpt>
      <trkpt lat="43.75106" lon="4.72641">
        <ele>113</ele>
        <time>2019-05-22T09:34:22Z</time>
      </trkpt>
      <trkpt lat="43.7511" lon="4.72639">
        <ele>113</ele>
        <time>2019-05-22T09:34:27Z</time>
      </trkpt>
      <trkpt lat="43.75111" lon="4.72638">
        <ele>113</ele>
        <time>2019-05-22T09:34:30Z</time>
      </trkpt>
      <trkpt lat="43.75115" lon="4.72638">
        <ele>113</ele>
        <time>2019-05-22T09:34:35Z</time>
      </trkpt>
      <trkpt lat="43.75119" lon="4.72639">
        <ele>113</ele>
        <time>2019-05-22T09:34:39Z</time>
      </trkpt>
      <trkpt lat="43.75123" lon="4.72642">
        <ele>114</ele>
        <time>2019-05-22T09:34:43Z</time>
      </trkpt>
      <trkpt lat="43.75127" lon="4.72644">
        <ele>114</ele>
        <time>2019-05-22T09:34:47Z</time>
      </trkpt>
      <trkpt lat="43.7513" lon="4.72646">
        <ele>114</ele>
        <time>2019-05-22T09:34:51Z</time>
      </trkpt>
      <trkpt lat="43.75133" lon="4.72647">
        <ele>115</ele>
        <time>2019-05-22T09:34:55Z</time>
      </trkpt>
      <trkpt lat="43.75137" lon="4.72647">
        <ele>115</ele>
        <time>2019-05-22T09:35:00Z</time>
      </trkpt>
      <trkpt lat="43.7514" lon="4.72647">
        <ele>115</ele>
        <time>2019-05-22T09:35:04Z</time>
      </trkpt>
      <trkpt lat="43.75143" lon="4.72648">
        <ele>116</ele>
        <time>2019-05-22T09:35:08Z</time>
      </trkpt>
      <trkpt lat="43.75144" lon="4.7265">
        <ele>116</ele>
        <time>2019-05-22T09:35:11Z</time>
      </trkpt>
      <trkpt lat="43.75147" lon="4.72651">
        <ele>116</ele>
        <time>2019-05-22T09:35:15Z</time>
      </trkpt>
      <trkpt lat="43.75149" lon="4.72652">
        <ele>117</ele>
        <time>2019-05-22T09:35:19Z</time>
      </trkpt>
      <trkpt lat="43.75153" lon="4.72653">
        <ele>117</ele>
        <time>2019-05-22T09:35:23Z</time>
      </trkpt>
      <trkpt lat="43.75157" lon="4.72656">
        <ele>119</ele>
        <time>2019-05-22T09:35:27Z</time>
      </trkpt>
      <trkpt lat="43.75162" lon="4.72661">
        <ele>120</ele>
        <time>2019-05-22T09:35:32Z</time>
      </trkpt>
      <trkpt lat="43.75165" lon="4.72665">
        <ele>122</ele>
        <time>2019-05-22T09:35:36Z</time>
      </trkpt>
      <trkpt lat="43.75167" lon="4.72667">
        <ele>123</ele>
        <time>2019-05-22T09:35:40Z</time>
      </trkpt>
      <trkpt lat="43.75169" lon="4.72671">
        <ele>124</ele>
        <time>2019-05-22T09:35:45Z</time>
      </trkpt>
      <trkpt lat="43.7517" lon="4.72674">
        <ele>124</ele>
        <time>2019-05-22T09:35:49Z</time>
      </trkpt>
      <trkpt lat="43.75172" lon="4.72676">
        <ele>125</ele>
        <time>2019-05-22T09:35:53Z</time>
      </trkpt>
      <trkpt lat="43.75172" lon="4.7268">
        <ele>125</ele>
        <time>2019-05-22T09:35:58Z</time>
      </trkpt>
      <trkpt lat="43.75173" lon="4.72682">
        <ele>125</ele>
        <time>2019-05-22T09:36:01Z</time>
      </trkpt>
      <trkpt lat="43.75175" lon="4.72684">
        <ele>126</ele>
        <time>2019-05-22T09:36:05Z</time>
      </trkpt>
      <trkpt lat="43.75176" lon="4.72688">
        <ele>126</ele>
        <time>2019-05-22T09:36:09Z</time>
      </trkpt>
      <trkpt lat="43.75178" lon="4.72689">
        <ele>126</ele>
        <time>2019-05-22T09:36:13Z</time>
      </trkpt>
      <trkpt lat="43.75179" lon="4.72692">
        <ele>126</ele>
        <time>2019-05-22T09:36:17Z</time>
      </trkpt>
      <trkpt lat="43.7518" lon="4.72694">
        <ele>126</ele>
        <time>2019-05-22T09:36:21Z</time>
      </trkpt>
      <trkpt lat="43.7518" lon="4.72697">
        <ele>127</ele>
        <time>2019-05-22T09:36:26Z</time>
      </trkpt>
      <trkpt lat="43.75182" lon="4.72699">
        <ele>127</ele>
        <time>2019-05-22T09:36:30Z</time>
      </trkpt>
      <trkpt lat="43.75184" lon="4.72702">
        <ele>127</ele>
        <time>2019-05-22T09:36:35Z</time>
      </trkpt>
      <trkpt lat="43.75185" lon="4.72704">
        <ele>127</ele>
        <time>2019-05-22T09:36:38Z</time>
      </trkpt>
      <trkpt lat="43.75186" lon="4.72706">
        <ele>127</ele>
        <time>2019-05-22T09:36:41Z</time>
      </trkpt>
      <trkpt lat="43.75188" lon="4.72709">
        <ele>127</ele>
        <time>2019-05-22T09:36:45Z</time>
      </trkpt>
      <trkpt lat="43.75188" lon="4.7271">
        <ele>127</ele>
        <time>2019-05-22T09:36:48Z</time>
      </trkpt>
      <trkpt lat="43.75189" lon="4.72711">
        <ele>127</ele>
        <time>2019-05-22T09:36:52Z</time>
      </trkpt>
      <trkpt lat="43.75189" lon="4.72712">
        <ele>127</ele>
        <time>2019-05-22T09:36:57Z</time>
      </trkpt>
      <trkpt lat="43.75191" lon="4.72715">
        <ele>128</ele>
        <time>2019-05-22T09:37:01Z</time>
      </trkpt>
      <trkpt lat="43.75192" lon="4.72717">
        <ele>128</ele>
        <time>2019-05-22T09:37:04Z</time>
      </trkpt>
      <trkpt lat="43.75194" lon="4.7272">
        <ele>128</ele>
        <time>2019-05-22T09:37:09Z</time>
      </trkpt>
      <trkpt lat="43.75195" lon="4.72724">
        <ele>128</ele>
        <time>2019-05-22T09:37:13Z</time>
      </trkpt>
      <trkpt lat="43.75195" lon="4.72725">
        <ele>128</ele>
        <time>2019-05-22T09:37:17Z</time>
      </trkpt>
      <trkpt lat="43.75196" lon="4.72726">
        <ele>128</ele>
        <time>2019-05-22T09:37:21Z</time>
      </trkpt>
      <trkpt lat="43.75197" lon="4.72731">
        <ele>128</ele>
        <time>2019-05-22T09:37:25Z</time>
      </trkpt>
      <trkpt lat="43.75198" lon="4.72735">
        <ele>128</ele>
        <time>2019-05-22T09:37:28Z</time>
      </trkpt>
      <trkpt lat="43.75199" lon="4.72738">
        <ele>128</ele>
        <time>2019-05-22T09:37:33Z</time>
      </trkpt>
      <trkpt lat="43.752" lon="4.72742">
        <ele>128</ele>
        <time>2019-05-22T09:37:37Z</time>
      </trkpt>
      <trkpt lat="43.752" lon="4.72744">
        <ele>128</ele>
        <time>2019-05-22T09:37:40Z</time>
      </trkpt>
      <trkpt lat="43.75201" lon="4.72746">
        <ele>128</ele>
        <time>2019-05-22T09:37:44Z</time>
      </trkpt>
      <trkpt lat="43.75201" lon="4.72747">
        <ele>128</ele>
        <time>2019-05-22T09:37:48Z</time>
      </trkpt>
      <trkpt lat="43.75201" lon="4.72748">
        <ele>129</ele>
        <time>2019-05-22T09:37:52Z</time>
      </trkpt>
      <trkpt lat="43.75202" lon="4.7275">
        <ele>129</ele>
        <time>2019-05-22T09:37:57Z</time>
      </trkpt>
      <trkpt lat="43.75204" lon="4.72752">
        <ele>129</ele>
        <time>2019-05-22T09:38:00Z</time>
      </trkpt>
      <trkpt lat="43.75205" lon="4.72754">
        <ele>129</ele>
        <time>2019-05-22T09:38:05Z</time>
      </trkpt>
      <trkpt lat="43.75207" lon="4.72758">
        <ele>129</ele>
        <time>2019-05-22T09:38:09Z</time>
      </trkpt>
      <trkpt lat="43.75209" lon="4.72761">
        <ele>129</ele>
        <time>2019-05-22T09:38:13Z</time>
      </trkpt>
      <trkpt lat="43.7521" lon="4.72762">
        <ele>129</ele>
        <time>2019-05-22T09:38:17Z</time>
      </trkpt>
      <trkpt lat="43.75212" lon="4.72764">
        <ele>129</ele>
        <time>2019-05-22T09:38:21Z</time>
      </trkpt>
      <trkpt lat="43.75213" lon="4.72765">
        <ele>129</ele>
        <time>2019-05-22T09:38:25Z</time>
      </trkpt>
      <trkpt lat="43.75214" lon="4.72766">
        <ele>130</ele>
        <time>2019-05-22T09:38:29Z</time>
      </trkpt>
      <trkpt lat="43.75217" lon="4.72768">
        <ele>130</ele>
        <time>2019-05-22T09:38:33Z</time>
      </trkpt>
      <trkpt lat="43.75219" lon="4.72771">
        <ele>130</ele>
        <time>2019-05-22T09:38:38Z</time>
      </trkpt>
      <trkpt lat="43.75221" lon="4.72775">
        <ele>130</ele>
        <time>2019-05-22T09:38:42Z</time>
      </trkpt>
      <trkpt lat="43.75223" lon="4.72778">
        <ele>130</ele>
        <time>2019-05-22T09:38:47Z</time>
      </trkpt>
      <trkpt lat="43.75224" lon="4.72781">
        <ele>130</ele>
        <time>2019-05-22T09:38:52Z</time>
      </trkpt>
      <trkpt lat="43.75226" lon="4.72784">
        <ele>130</ele>
        <time>2019-05-22T09:38:56Z</time>
      </trkpt>
      <trkpt lat="43.75228" lon="4.72786">
        <ele>131</ele>
        <time>2019-05-22T09:39:00Z</time>
      </trkpt>
      <trkpt lat="43.75231" lon="4.72786">
        <ele>131</ele>
        <time>2019-05-22T09:39:05Z</time>
      </trkpt>
      <trkpt lat="43.75233" lon="4.72787">
        <ele>131</ele>
        <time>2019-05-22T09:39:09Z</time>
      </trkpt>
      <trkpt lat="43.75236" lon="4.72788">
        <ele>131</ele>
        <time>2019-05-22T09:39:12Z</time>
      </trkpt>
      <trkpt lat="43.75238" lon="4.72789">
        <ele>131</ele>
        <time>2019-05-22T09:39:16Z</time>
      </trkpt>
      <trkpt lat="43.7524" lon="4.72792">
        <ele>132</ele>
        <time>2019-05-22T09:39:20Z</time>
      </trkpt>
      <trkpt lat="43.75243" lon="4.72797">
        <ele>132</ele>
        <time>2019-05-22T09:39:25Z</time>
      </trkpt>
      <trkpt lat="43.75245" lon="4.728">
        <ele>132</ele>
        <time>2019-05-22T09:39:28Z</time>
      </trkpt>
      <trkpt lat="43.75245" lon="4.72802">
        <ele>133</ele>
        <time>2019-05-22T09:39:32Z</time>
      </trkpt>
      <trkpt lat="43.75246" lon="4.72803">
        <ele>133</ele>
        <time>2019-05-22T09:39:37Z</time>
      </trkpt>
      <trkpt lat="43.75246" lon="4.72805">
        <ele>133</ele>
        <time>2019-05-22T09:39:42Z</time>
      </trkpt>
      <trkpt lat="43.75247" lon="4.72807">
        <ele>133</ele>
        <time>2019-05-22T09:39:47Z</time>
      </trkpt>
      <trkpt lat="43.75248" lon="4.72809">
        <ele>134</ele>
        <time>2019-05-22T09:39:52Z</time>
      </trkpt>
      <trkpt lat="43.7525" lon="4.7281">
        <ele>143</ele>
        <time>2019-05-22T09:39:56Z</time>
      </trkpt>
      <trkpt lat="43.75252" lon="4.72811">
        <ele>143</ele>
        <time>2019-05-22T09:40:01Z</time>
      </trkpt>
      <trkpt lat="43.75254" lon="4.72812">
        <ele>143</ele>
        <time>2019-05-22T09:40:04Z</time>
      </trkpt>
      <trkpt lat="43.75258" lon="4.72813">
        <ele>143</ele>
        <time>2019-05-22T09:40:09Z</time>
      </trkpt>
      <trkpt lat="43.7526" lon="4.72814">
        <ele>143</ele>
        <time>2019-05-22T09:40:13Z</time>
      </trkpt>
      <trkpt lat="43.75263" lon="4.72814">
        <ele>144</ele>
        <time>2019-05-22T09:40:18Z</time>
      </trkpt>
      <trkpt lat="43.75264" lon="4.72815">
        <ele>144</ele>
        <time>2019-05-22T09:40:21Z</time>
      </trkpt>
      <trkpt lat="43.75268" lon="4.72817">
        <ele>144</ele>
        <time>2019-05-22T09:40:26Z</time>
      </trkpt>
      <trkpt lat="43.7527" lon="4.72816">
        <ele>144</ele>
        <time>2019-05-22T09:40:31Z</time>
      </trkpt>
      <trkpt lat="43.75271" lon="4.72817">
        <ele>144</ele>
        <time>2019-05-22T09:40:35Z</time>
      </trkpt>
      <trkpt lat="43.75274" lon="4.7282">
        <ele>145</ele>
        <time>2019-05-22T09:40:40Z</time>
      </trkpt>
      <trkpt lat="43.75277" lon="4.72821">
        <ele>145</ele>
        <time>2019-05-22T09:40:44Z</time>
      </trkpt>
      <trkpt lat="43.75279" lon="4.72822">
        <ele>145</ele>
        <time>2019-05-22T09:40:48Z</time>
      </trkpt>
      <trkpt lat="43.75281" lon="4.72823">
        <ele>145</ele>
        <time>2019-05-22T09:40:52Z</time>
      </trkpt>
      <trkpt lat="43.75284" lon="4.72823">
        <ele>146</ele>
        <time>2019-05-22T09:40:56Z</time>
      </trkpt>
      <trkpt lat="43.75286" lon="4.72824">
        <ele>146</ele>
        <time>2019-05-22T09:41:00Z</time>
      </trkpt>
      <trkpt lat="43.75288" lon="4.72824">
        <ele>146</ele>
        <time>2019-05-22T09:41:05Z</time>
      </trkpt>
      <trkpt lat="43.7529" lon="4.72825">
        <ele>147</ele>
        <time>2019-05-22T09:41:09Z</time>
      </trkpt>
      <trkpt lat="43.75293" lon="4.72824">
        <ele>147</ele>
        <time>2019-05-22T09:41:13Z</time>
      </trkpt>
      <trkpt lat="43.75295" lon="4.72825">
        <ele>148</ele>
        <time>2019-05-22T09:41:18Z</time>
      </trkpt>
      <trkpt lat="43.75299" lon="4.72826">
        <ele>148</ele>
        <time>2019-05-22T09:41:22Z</time>
      </trkpt>
      <trkpt lat="43.75303" lon="4.72827">
        <ele>149</ele>
        <time>2019-05-22T09:41:27Z</time>
      </trkpt>
      <trkpt lat="43.75305" lon="4.72827">
        <ele>150</ele>
        <time>2019-05-22T09:41:31Z</time>
      </trkpt>
      <trkpt lat="43.75308" lon="4.72828">
        <ele>150</ele>
        <time>2019-05-22T09:41:35Z</time>
      </trkpt>
      <trkpt lat="43.75311" lon="4.72827">
        <ele>151</ele>
        <time>2019-05-22T09:41:40Z</time>
      </trkpt>
      <trkpt lat="43.75314" lon="4.72827">
        <ele>152</ele>
        <time>2019-05-22T09:41:44Z</time>
      </trkpt>
      <trkpt lat="43.75316" lon="4.72827">
        <ele>152</ele>
        <time>2019-05-22T09:41:48Z</time>
      </trkpt>
      <trkpt lat="43.75319" lon="4.72829">
        <ele>153</ele>
        <time>2019-05-22T09:41:53Z</time>
      </trkpt>
      <trkpt lat="43.75322" lon="4.72832">
        <ele>155</ele>
        <time>2019-05-22T09:41:58Z</time>
      </trkpt>
      <trkpt lat="43.75324" lon="4.72835">
        <ele>155</ele>
        <time>2019-05-22T09:42:03Z</time>
      </trkpt>
      <trkpt lat="43.75326" lon="4.72838">
        <ele>156</ele>
        <time>2019-05-22T09:42:08Z</time>
      </trkpt>
      <trkpt lat="43.75329" lon="4.7284">
        <ele>156</ele>
        <time>2019-05-22T09:42:13Z</time>
      </trkpt>
      <trkpt lat="43.7533" lon="4.7284">
        <ele>156</ele>
        <time>2019-05-22T09:42:17Z</time>
      </trkpt>
      <trkpt lat="43.75332" lon="4.7284">
        <ele>157</ele>
        <time>2019-05-22T09:42:21Z</time>
      </trkpt>
      <trkpt lat="43.75335" lon="4.7284">
        <ele>161</ele>
        <time>2019-05-22T09:42:25Z</time>
      </trkpt>
      <trkpt lat="43.7534" lon="4.7284">
        <ele>161</ele>
        <time>2019-05-22T09:42:29Z</time>
      </trkpt>
      <trkpt lat="43.75342" lon="4.7284">
        <ele>161</ele>
        <time>2019-05-22T09:42:33Z</time>
      </trkpt>
      <trkpt lat="43.75343" lon="4.72841">
        <ele>161</ele>
        <time>2019-05-22T09:42:37Z</time>
      </trkpt>
      <trkpt lat="43.75345" lon="4.72842">
        <ele>161</ele>
        <time>2019-05-22T09:42:41Z</time>
      </trkpt>
      <trkpt lat="43.75347" lon="4.72842">
        <ele>161</ele>
        <time>2019-05-22T09:42:44Z</time>
      </trkpt>
      <trkpt lat="43.7535" lon="4.72842">
        <ele>162</ele>
        <time>2019-05-22T09:42:48Z</time>
      </trkpt>
      <trkpt lat="43.75353" lon="4.72845">
        <ele>162</ele>
        <time>2019-05-22T09:42:52Z</time>
      </trkpt>
      <trkpt lat="43.75355" lon="4.72847">
        <ele>162</ele>
        <time>2019-05-22T09:42:57Z</time>
      </trkpt>
      <trkpt lat="43.75357" lon="4.72848">
        <ele>162</ele>
        <time>2019-05-22T09:43:01Z</time>
      </trkpt>
      <trkpt lat="43.7536" lon="4.72849">
        <ele>162</ele>
        <time>2019-05-22T09:43:06Z</time>
      </trkpt>
      <trkpt lat="43.75363" lon="4.72849">
        <ele>162</ele>
        <time>2019-05-22T09:43:11Z</time>
      </trkpt>
      <trkpt lat="43.75365" lon="4.7285">
        <ele>162</ele>
        <time>2019-05-22T09:43:15Z</time>
      </trkpt>
      <trkpt lat="43.75368" lon="4.7285">
        <ele>163</ele>
        <time>2019-05-22T09:43:18Z</time>
      </trkpt>
      <trkpt lat="43.75372" lon="4.72851">
        <ele>163</ele>
        <time>2019-05-22T09:43:22Z</time>
      </trkpt>
      <trkpt lat="43.75373" lon="4.72851">
        <ele>163</ele>
        <time>2019-05-22T09:43:25Z</time>
      </trkpt>
      <trkpt lat="43.75377" lon="4.72851">
        <ele>163</ele>
        <time>2019-05-22T09:43:29Z</time>
      </trkpt>
      <trkpt lat="43.75379" lon="4.72851">
        <ele>164</ele>
        <time>2019-05-22T09:43:33Z</time>
      </trkpt>
      <trkpt lat="43.7538" lon="4.72853">
        <ele>164</ele>
        <time>2019-05-22T09:43:36Z</time>
      </trkpt>
      <trkpt lat="43.75383" lon="4.72853">
        <ele>164</ele>
        <time>2019-05-22T09:43:41Z</time>
      </trkpt>
      <trkpt lat="43.75385" lon="4.72853">
        <ele>164</ele>
        <time>2019-05-22T09:43:44Z</time>
      </trkpt>
      <trkpt lat="43.75388" lon="4.72854">
        <ele>164</ele>
        <time>2019-05-22T09:43:48Z</time>
      </trkpt>
      <trkpt lat="43.75391" lon="4.72855">
        <ele>165</ele>
        <time>2019-05-22T09:43:52Z</time>
      </trkpt>
      <trkpt lat="43.75395" lon="4.72856">
        <ele>165</ele>
        <time>2019-05-22T09:43:56Z</time>
      </trkpt>
      <trkpt lat="43.75397" lon="4.72857">
        <ele>165</ele>
        <time>2019-05-22T09:43:59Z</time>
      </trkpt>
      <trkpt lat="43.75401" lon="4.72861">
        <ele>165</ele>
        <time>2019-05-22T09:44:04Z</time>
      </trkpt>
      <trkpt lat="43.75404" lon="4.72862">
        <ele>165</ele>
        <time>2019-05-22T09:44:08Z</time>
      </trkpt>
      <trkpt lat="43.75408" lon="4.72864">
        <ele>166</ele>
        <time>2019-05-22T09:44:13Z</time>
      </trkpt>
      <trkpt lat="43.75413" lon="4.72866">
        <ele>166</ele>
        <time>2019-05-22T09:44:18Z</time>
      </trkpt>
      <trkpt lat="43.75414" lon="4.72867">
        <ele>166</ele>
        <time>2019-05-22T09:44:23Z</time>
      </trkpt>
      <trkpt lat="43.75415" lon="4.72867">
        <ele>166</ele>
        <time>2019-05-22T09:44:26Z</time>
      </trkpt>
      <trkpt lat="43.75417" lon="4.72868">
        <ele>173</ele>
        <time>2019-05-22T09:44:30Z</time>
      </trkpt>
      <trkpt lat="43.75421" lon="4.72869">
        <ele>173</ele>
        <time>2019-05-22T09:44:34Z</time>
      </trkpt>
      <trkpt lat="43.75426" lon="4.72869">
        <ele>173</ele>
        <time>2019-05-22T09:44:39Z</time>
      </trkpt>
      <trkpt lat="43.75431" lon="4.72873">
        <ele>174</ele>
        <time>2019-05-22T09:44:44Z</time>
      </trkpt>
      <trkpt lat="43.75434" lon="4.72874">
        <ele>174</ele>
        <time>2019-05-22T09:44:48Z</time>
      </trkpt>
      <trkpt lat="43.75436" lon="4.72874">
        <ele>174</ele>
        <time>2019-05-22T09:44:52Z</time>
      </trkpt>
      <trkpt lat="43.75439" lon="4.72874">
        <ele>174</ele>
        <time>2019-05-22T09:44:57Z</time>
      </trkpt>
      <trkpt lat="43.7544" lon="4.72874">
        <ele>174</ele>
        <time>2019-05-22T09:45:01Z</time>
      </trkpt>
      <trkpt lat="43.75442" lon="4.72875">
        <ele>174</ele>
        <time>2019-05-22T09:45:06Z</time>
      </trkpt>
      <trkpt lat="43.75443" lon="4.72874">
        <ele>174</ele>
        <time>2019-05-22T09:45:09Z</time>
      </trkpt>
      <trkpt lat="43.75446" lon="4.72874">
        <ele>174</ele>
        <time>2019-05-22T09:45:12Z</time>
      </trkpt>
      <trkpt lat="43.75451" lon="4.72876">
        <ele>174</ele>
        <time>2019-05-22T09:45:17Z</time>
      </trkpt>
      <trkpt lat="43.75457" lon="4.72877">
        <ele>175</ele>
        <time>2019-05-22T09:45:21Z</time>
      </trkpt>
      <trkpt lat="43.75459" lon="4.72876">
        <ele>175</ele>
        <time>2019-05-22T09:45:25Z</time>
      </trkpt>
      <trkpt lat="43.7546" lon="4.72876">
        <ele>175</ele>
        <time>2019-05-22T09:45:34Z</time>
      </trkpt>
      <trkpt lat="43.7546" lon="4.72875">
        <ele>175</ele>
        <time>2019-05-22T09:45:37Z</time>
      </trkpt>
      <trkpt lat="43.75461" lon="4.72875">
        <ele>175</ele>
        <time>2019-05-22T09:45:40Z</time>
      </trkpt>
      <trkpt lat="43.75462" lon="4.72875">
        <ele>175</ele>
        <time>2019-05-22T09:45:45Z</time>
      </trkpt>
      <trkpt lat="43.75463" lon="4.72875">
        <ele>175</ele>
        <time>2019-05-22T09:45:49Z</time>
      </trkpt>
      <trkpt lat="43.75464" lon="4.72876">
        <ele>175</ele>
        <time>2019-05-22T09:45:54Z</time>
      </trkpt>
      <trkpt lat="43.75466" lon="4.72879">
        <ele>175</ele>
        <time>2019-05-22T09:45:58Z</time>
      </trkpt>
      <trkpt lat="43.75469" lon="4.72881">
        <ele>175</ele>
        <time>2019-05-22T09:46:02Z</time>
      </trkpt>
      <trkpt lat="43.75471" lon="4.72882">
        <ele>175</ele>
        <time>2019-05-22T09:46:05Z</time>
      </trkpt>
      <trkpt lat="43.75475" lon="4.72883">
        <ele>176</ele>
        <time>2019-05-22T09:46:10Z</time>
      </trkpt>
      <trkpt lat="43.75476" lon="4.72884">
        <ele>176</ele>
        <time>2019-05-22T09:46:13Z</time>
      </trkpt>
      <trkpt lat="43.75477" lon="4.72884">
        <ele>176</ele>
        <time>2019-05-22T09:46:17Z</time>
      </trkpt>
      <trkpt lat="43.75479" lon="4.72885">
        <ele>176</ele>
        <time>2019-05-22T09:46:22Z</time>
      </trkpt>
      <trkpt lat="43.7548" lon="4.72887">
        <ele>176</ele>
        <time>2019-05-22T09:46:27Z</time>
      </trkpt>
      <trkpt lat="43.75483" lon="4.72888">
        <ele>176</ele>
        <time>2019-05-22T09:46:31Z</time>
      </trkpt>
      <trkpt lat="43.75485" lon="4.72895">
        <ele>177</ele>
        <time>2019-05-22T09:46:36Z</time>
      </trkpt>
      <trkpt lat="43.75486" lon="4.72897">
        <ele>177</ele>
        <time>2019-05-22T09:46:39Z</time>
      </trkpt>
      <trkpt lat="43.75492" lon="4.72899">
        <ele>177</ele>
        <time>2019-05-22T09:46:44Z</time>
      </trkpt>
      <trkpt lat="43.75493" lon="4.729">
        <ele>177</ele>
        <time>2019-05-22T09:46:48Z</time>
      </trkpt>
      <trkpt lat="43.75495" lon="4.72902">
        <ele>178</ele>
        <time>2019-05-22T09:46:52Z</time>
      </trkpt>
      <trkpt lat="43.75497" lon="4.72905">
        <ele>178</ele>
        <time>2019-05-22T09:46:56Z</time>
      </trkpt>
      <trkpt lat="43.755" lon="4.72909">
        <ele>179</ele>
        <time>2019-05-22T09:47:01Z</time>
      </trkpt>
      <trkpt lat="43.75502" lon="4.72911">
        <ele>180</ele>
        <time>2019-05-22T09:47:05Z</time>
      </trkpt>
      <trkpt lat="43.75503" lon="4.72911">
        <ele>180</ele>
        <time>2019-05-22T09:47:08Z</time>
      </trkpt>
      <trkpt lat="43.75506" lon="4.72912">
        <ele>181</ele>
        <time>2019-05-22T09:47:12Z</time>
      </trkpt>
      <trkpt lat="43.7551" lon="4.72915">
        <ele>181</ele>
        <time>2019-05-22T09:47:17Z</time>
      </trkpt>
      <trkpt lat="43.75512" lon="4.72916">
        <ele>181</ele>
        <time>2019-05-22T09:47:21Z</time>
      </trkpt>
      <trkpt lat="43.75515" lon="4.72917">
        <ele>177</ele>
        <time>2019-05-22T09:47:25Z</time>
      </trkpt>
      <trkpt lat="43.75518" lon="4.72916">
        <ele>181</ele>
        <time>2019-05-22T09:47:30Z</time>
      </trkpt>
      <trkpt lat="43.75519" lon="4.72916">
        <ele>181</ele>
        <time>2019-05-22T09:47:35Z</time>
      </trkpt>
      <trkpt lat="43.7552" lon="4.72916">
        <ele>181</ele>
        <time>2019-05-22T09:47:43Z</time>
      </trkpt>
      <trkpt lat="43.75521" lon="4.72917">
        <ele>181</ele>
        <time>2019-05-22T09:47:57Z</time>
      </trkpt>
      <trkpt lat="43.75521" lon="4.72917">
        <ele>177</ele>
        <time>2019-05-22T09:48:04Z</time>
      </trkpt>
      <trkpt lat="43.75522" lon="4.72917">
        <ele>177</ele>
        <time>2019-05-22T09:48:19Z</time>
      </trkpt>
      <trkpt lat="43.75523" lon="4.72917">
        <ele>177</ele>
        <time>2019-05-22T09:48:30Z</time>
      </trkpt>
      <trkpt lat="43.75524" lon="4.72917">
        <ele>177</ele>
        <time>2019-05-22T09:48:34Z</time>
      </trkpt>
      <trkpt lat="43.75525" lon="4.72916">
        <ele>182</ele>
        <time>2019-05-22T09:48:39Z</time>
      </trkpt>
      <trkpt lat="43.75527" lon="4.72916">
        <ele>182</ele>
        <time>2019-05-22T09:48:43Z</time>
      </trkpt>
      <trkpt lat="43.75528" lon="4.72917">
        <ele>182</ele>
        <time>2019-05-22T09:48:47Z</time>
      </trkpt>
      <trkpt lat="43.75528" lon="4.72917">
        <ele>177</ele>
        <time>2019-05-22T09:49:13Z</time>
      </trkpt>
      <trkpt lat="43.7553" lon="4.72917">
        <ele>177</ele>
        <time>2019-05-22T09:49:17Z</time>
      </trkpt>
      <trkpt lat="43.75532" lon="4.72917">
        <ele>182</ele>
        <time>2019-05-22T09:49:21Z</time>
      </trkpt>
      <trkpt lat="43.75532" lon="4.72917">
        <ele>177</ele>
        <time>2019-05-22T09:49:29Z</time>
      </trkpt>
      <trkpt lat="43.75528" lon="4.72917">
        <ele>177</ele>
        <time>2019-05-22T09:49:33Z</time>
      </trkpt>
      <trkpt lat="43.75526" lon="4.72917">
        <ele>177</ele>
        <time>2019-05-22T09:49:37Z</time>
      </trkpt>
      <trkpt lat="43.75526" lon="4.72916">
        <ele>182</ele>
        <time>2019-05-22T09:49:43Z</time>
      </trkpt>
      <trkpt lat="43.75528" lon="4.72916">
        <ele>182</ele>
        <time>2019-05-22T09:49:47Z</time>
      </trkpt>
      <trkpt lat="43.75533" lon="4.72916">
        <ele>182</ele>
        <time>2019-05-22T09:49:51Z</time>
      </trkpt>
      <trkpt lat="43.75535" lon="4.72916">
        <ele>182</ele>
        <time>2019-05-22T09:49:55Z</time>
      </trkpt>
      <trkpt lat="43.75546" lon="4.72922">
        <ele>177</ele>
        <time>2019-05-22T09:50:00Z</time>
      </trkpt>
      <trkpt lat="43.75547" lon="4.7292">
        <ele>177</ele>
        <time>2019-05-22T09:50:05Z</time>
      </trkpt>
      <trkpt lat="43.75547" lon="4.72919">
        <ele>177</ele>
        <time>2019-05-22T09:50:08Z</time>
      </trkpt>
      <trkpt lat="43.75547" lon="4.72919">
        <ele>177</ele>
        <time>2019-05-22T09:50:12Z</time>
      </trkpt>
      <trkpt lat="43.75548" lon="4.72918">
        <ele>178</ele>
        <time>2019-05-22T09:50:18Z</time>
      </trkpt>
      <trkpt lat="43.75549" lon="4.72917">
        <ele>178</ele>
        <time>2019-05-22T09:50:23Z</time>
      </trkpt>
      <trkpt lat="43.75549" lon="4.72916">
        <ele>183</ele>
        <time>2019-05-22T09:50:30Z</time>
      </trkpt>
      <trkpt lat="43.75549" lon="4.72916">
        <ele>183</ele>
        <time>2019-05-22T09:50:53Z</time>
      </trkpt>
      <trkpt lat="43.75551" lon="4.72915">
        <ele>183</ele>
        <time>2019-05-22T09:50:57Z</time>
      </trkpt>
      <trkpt lat="43.75553" lon="4.72913">
        <ele>183</ele>
        <time>2019-05-22T09:51:00Z</time>
      </trkpt>
      <trkpt lat="43.75556" lon="4.7291">
        <ele>183</ele>
        <time>2019-05-22T09:51:05Z</time>
      </trkpt>
      <trkpt lat="43.75558" lon="4.72907">
        <ele>183</ele>
        <time>2019-05-22T09:51:09Z</time>
      </trkpt>
      <trkpt lat="43.7556" lon="4.72906">
        <ele>184</ele>
        <time>2019-05-22T09:51:13Z</time>
      </trkpt>
      <trkpt lat="43.75563" lon="4.72903">
        <ele>184</ele>
        <time>2019-05-22T09:51:17Z</time>
      </trkpt>
      <trkpt lat="43.75567" lon="4.729">
        <ele>184</ele>
        <time>2019-05-22T09:51:21Z</time>
      </trkpt>
      <trkpt lat="43.7557" lon="4.72899">
        <ele>184</ele>
        <time>2019-05-22T09:51:25Z</time>
      </trkpt>
      <trkpt lat="43.75572" lon="4.72899">
        <ele>184</ele>
        <time>2019-05-22T09:51:30Z</time>
      </trkpt>
      <trkpt lat="43.75577" lon="4.72898">
        <ele>184</ele>
        <time>2019-05-22T09:51:34Z</time>
      </trkpt>
      <trkpt lat="43.75579" lon="4.72897">
        <ele>184</ele>
        <time>2019-05-22T09:51:38Z</time>
      </trkpt>
      <trkpt lat="43.75582" lon="4.72895">
        <ele>184</ele>
        <time>2019-05-22T09:51:42Z</time>
      </trkpt>
      <trkpt lat="43.75584" lon="4.72893">
        <ele>189</ele>
        <time>2019-05-22T09:51:46Z</time>
      </trkpt>
      <trkpt lat="43.75588" lon="4.72891">
        <ele>189</ele>
        <time>2019-05-22T09:51:50Z</time>
      </trkpt>
      <trkpt lat="43.75591" lon="4.72891">
        <ele>189</ele>
        <time>2019-05-22T09:51:54Z</time>
      </trkpt>
      <trkpt lat="43.75596" lon="4.72889">
        <ele>189</ele>
        <time>2019-05-22T09:51:58Z</time>
      </trkpt>
      <trkpt lat="43.75599" lon="4.72888">
        <ele>190</ele>
        <time>2019-05-22T09:52:03Z</time>
      </trkpt>
      <trkpt lat="43.75603" lon="4.72887">
        <ele>190</ele>
        <time>2019-05-22T09:52:07Z</time>
      </trkpt>
      <trkpt lat="43.75607" lon="4.72885">
        <ele>190</ele>
        <time>2019-05-22T09:52:11Z</time>
      </trkpt>
      <trkpt lat="43.75609" lon="4.72885">
        <ele>190</ele>
        <time>2019-05-22T09:52:14Z</time>
      </trkpt>
      <trkpt lat="43.75613" lon="4.72884">
        <ele>190</ele>
        <time>2019-05-22T09:52:18Z</time>
      </trkpt>
      <trkpt lat="43.75618" lon="4.72882">
        <ele>191</ele>
        <time>2019-05-22T09:52:23Z</time>
      </trkpt>
      <trkpt lat="43.7562" lon="4.72882">
        <ele>191</ele>
        <time>2019-05-22T09:52:26Z</time>
      </trkpt>
      <trkpt lat="43.75624" lon="4.7288">
        <ele>191</ele>
        <time>2019-05-22T09:52:30Z</time>
      </trkpt>
      <trkpt lat="43.75631" lon="4.72878">
        <ele>192</ele>
        <time>2019-05-22T09:52:35Z</time>
      </trkpt>
      <trkpt lat="43.75636" lon="4.72876">
        <ele>192</ele>
        <time>2019-05-22T09:52:38Z</time>
      </trkpt>
      <trkpt lat="43.75641" lon="4.72875">
        <ele>192</ele>
        <time>2019-05-22T09:52:43Z</time>
      </trkpt>
      <trkpt lat="43.75641" lon="4.72875">
        <ele>192</ele>
        <time>2019-05-22T09:52:47Z</time>
      </trkpt>
      <trkpt lat="43.75645" lon="4.72874">
        <ele>192</ele>
        <time>2019-05-22T09:52:51Z</time>
      </trkpt>
      <trkpt lat="43.75648" lon="4.72873">
        <ele>193</ele>
        <time>2019-05-22T09:52:54Z</time>
      </trkpt>
      <trkpt lat="43.75654" lon="4.72873">
        <ele>193</ele>
        <time>2019-05-22T09:52:59Z</time>
      </trkpt>
      <trkpt lat="43.75657" lon="4.72872">
        <ele>193</ele>
        <time>2019-05-22T09:53:03Z</time>
      </trkpt>
      <trkpt lat="43.7566" lon="4.72871">
        <ele>193</ele>
        <time>2019-05-22T09:53:07Z</time>
      </trkpt>
      <trkpt lat="43.75665" lon="4.7287">
        <ele>193</ele>
        <time>2019-05-22T09:53:12Z</time>
      </trkpt>
      <trkpt lat="43.75669" lon="4.72867">
        <ele>196</ele>
        <time>2019-05-22T09:53:16Z</time>
      </trkpt>
      <trkpt lat="43.75673" lon="4.72865">
        <ele>196</ele>
        <time>2019-05-22T09:53:20Z</time>
      </trkpt>
      <trkpt lat="43.75677" lon="4.72862">
        <ele>196</ele>
        <time>2019-05-22T09:53:24Z</time>
      </trkpt>
      <trkpt lat="43.75682" lon="4.72861">
        <ele>196</ele>
        <time>2019-05-22T09:53:28Z</time>
      </trkpt>
      <trkpt lat="43.75686" lon="4.7286">
        <ele>196</ele>
        <time>2019-05-22T09:53:32Z</time>
      </trkpt>
      <trkpt lat="43.75692" lon="4.72858">
        <ele>196</ele>
        <time>2019-05-22T09:53:37Z</time>
      </trkpt>
      <trkpt lat="43.75696" lon="4.72856">
        <ele>196</ele>
        <time>2019-05-22T09:53:40Z</time>
      </trkpt>
      <trkpt lat="43.75701" lon="4.72854">
        <ele>196</ele>
        <time>2019-05-22T09:53:45Z</time>
      </trkpt>
      <trkpt lat="43.75705" lon="4.72854">
        <ele>196</ele>
        <time>2019-05-22T09:53:49Z</time>
      </trkpt>
      <trkpt lat="43.75708" lon="4.7285">
        <ele>196</ele>
        <time>2019-05-22T09:53:52Z</time>
      </trkpt>
      <trkpt lat="43.75713" lon="4.72846">
        <ele>196</ele>
        <time>2019-05-22T09:53:56Z</time>
      </trkpt>
      <trkpt lat="43.75717" lon="4.72845">
        <ele>196</ele>
        <time>2019-05-22T09:54:00Z</time>
      </trkpt>
      <trkpt lat="43.75721" lon="4.72844">
        <ele>196</ele>
        <time>2019-05-22T09:54:04Z</time>
      </trkpt>
      <trkpt lat="43.75722" lon="4.72842">
        <ele>197</ele>
        <time>2019-05-22T09:54:07Z</time>
      </trkpt>
      <trkpt lat="43.75728" lon="4.7284">
        <ele>197</ele>
        <time>2019-05-22T09:54:11Z</time>
      </trkpt>
      <trkpt lat="43.75733" lon="4.72837">
        <ele>197</ele>
        <time>2019-05-22T09:54:16Z</time>
      </trkpt>
      <trkpt lat="43.75736" lon="4.72835">
        <ele>197</ele>
        <time>2019-05-22T09:54:20Z</time>
      </trkpt>
      <trkpt lat="43.75739" lon="4.72832">
        <ele>198</ele>
        <time>2019-05-22T09:54:23Z</time>
      </trkpt>
      <trkpt lat="43.75741" lon="4.72826">
        <ele>198</ele>
        <time>2019-05-22T09:54:27Z</time>
      </trkpt>
      <trkpt lat="43.75742" lon="4.72821">
        <ele>198</ele>
        <time>2019-05-22T09:54:32Z</time>
      </trkpt>
      <trkpt lat="43.7574" lon="4.72816">
        <ele>198</ele>
        <time>2019-05-22T09:54:36Z</time>
      </trkpt>
      <trkpt lat="43.75734" lon="4.72812">
        <ele>198</ele>
        <time>2019-05-22T09:54:41Z</time>
      </trkpt>
      <trkpt lat="43.75729" lon="4.72811">
        <ele>198</ele>
        <time>2019-05-22T09:54:45Z</time>
      </trkpt>
      <trkpt lat="43.75726" lon="4.7281">
        <ele>198</ele>
        <time>2019-05-22T09:54:48Z</time>
      </trkpt>
      <trkpt lat="43.75721" lon="4.72807">
        <ele>198</ele>
        <time>2019-05-22T09:54:52Z</time>
      </trkpt>
      <trkpt lat="43.75716" lon="4.72805">
        <ele>198</ele>
        <time>2019-05-22T09:54:56Z</time>
      </trkpt>
      <trkpt lat="43.75712" lon="4.72805">
        <ele>198</ele>
        <time>2019-05-22T09:54:59Z</time>
      </trkpt>
      <trkpt lat="43.75708" lon="4.72805">
        <ele>198</ele>
        <time>2019-05-22T09:55:03Z</time>
      </trkpt>
      <trkpt lat="43.75705" lon="4.72805">
        <ele>198</ele>
        <time>2019-05-22T09:55:07Z</time>
      </trkpt>
      <trkpt lat="43.75699" lon="4.72803">
        <ele>198</ele>
        <time>2019-05-22T09:55:12Z</time>
      </trkpt>
      <trkpt lat="43.75696" lon="4.72802">
        <ele>197</ele>
        <time>2019-05-22T09:55:15Z</time>
      </trkpt>
      <trkpt lat="43.75691" lon="4.728">
        <ele>197</ele>
        <time>2019-05-22T09:55:19Z</time>
      </trkpt>
      <trkpt lat="43.75689" lon="4.72798">
        <ele>197</ele>
        <time>2019-05-22T09:55:23Z</time>
      </trkpt>
      <trkpt lat="43.75684" lon="4.72793">
        <ele>197</ele>
        <time>2019-05-22T09:55:28Z</time>
      </trkpt>
      <trkpt lat="43.75681" lon="4.72791">
        <ele>197</ele>
        <time>2019-05-22T09:55:31Z</time>
      </trkpt>
      <trkpt lat="43.75676" lon="4.72788">
        <ele>197</ele>
        <time>2019-05-22T09:55:36Z</time>
      </trkpt>
      <trkpt lat="43.75674" lon="4.72785">
        <ele>197</ele>
        <time>2019-05-22T09:55:40Z</time>
      </trkpt>
      <trkpt lat="43.75669" lon="4.72781">
        <ele>197</ele>
        <time>2019-05-22T09:55:44Z</time>
      </trkpt>
      <trkpt lat="43.75666" lon="4.72779">
        <ele>194</ele>
        <time>2019-05-22T09:55:47Z</time>
      </trkpt>
      <trkpt lat="43.75662" lon="4.72776">
        <ele>194</ele>
        <time>2019-05-22T09:55:51Z</time>
      </trkpt>
      <trkpt lat="43.75659" lon="4.72773">
        <ele>194</ele>
        <time>2019-05-22T09:55:54Z</time>
      </trkpt>
      <trkpt lat="43.75654" lon="4.7277">
        <ele>194</ele>
        <time>2019-05-22T09:55:59Z</time>
      </trkpt>
      <trkpt lat="43.75651" lon="4.72769">
        <ele>194</ele>
        <time>2019-05-22T09:56:02Z</time>
      </trkpt>
      <trkpt lat="43.75647" lon="4.72766">
        <ele>193</ele>
        <time>2019-05-22T09:56:07Z</time>
      </trkpt>
      <trkpt lat="43.75644" lon="4.72764">
        <ele>193</ele>
        <time>2019-05-22T09:56:11Z</time>
      </trkpt>
      <trkpt lat="43.75639" lon="4.72758">
        <ele>193</ele>
        <time>2019-05-22T09:56:16Z</time>
      </trkpt>
      <trkpt lat="43.75634" lon="4.72755">
        <ele>193</ele>
        <time>2019-05-22T09:56:21Z</time>
      </trkpt>
      <trkpt lat="43.75632" lon="4.72752">
        <ele>192</ele>
        <time>2019-05-22T09:56:24Z</time>
      </trkpt>
      <trkpt lat="43.7563" lon="4.7275">
        <ele>194</ele>
        <time>2019-05-22T09:56:28Z</time>
      </trkpt>
      <trkpt lat="43.75627" lon="4.72748">
        <ele>194</ele>
        <time>2019-05-22T09:56:32Z</time>
      </trkpt>
      <trkpt lat="43.75623" lon="4.72746">
        <ele>193</ele>
        <time>2019-05-22T09:56:37Z</time>
      </trkpt>
      <trkpt lat="43.7562" lon="4.72742">
        <ele>193</ele>
        <time>2019-05-22T09:56:41Z</time>
      </trkpt>
      <trkpt lat="43.75617" lon="4.72739">
        <ele>193</ele>
        <time>2019-05-22T09:56:44Z</time>
      </trkpt>
      <trkpt lat="43.75613" lon="4.72734">
        <ele>193</ele>
        <time>2019-05-22T09:56:48Z</time>
      </trkpt>
      <trkpt lat="43.7561" lon="4.72729">
        <ele>193</ele>
        <time>2019-05-22T09:56:52Z</time>
      </trkpt>
      <trkpt lat="43.75604" lon="4.72724">
        <ele>193</ele>
        <time>2019-05-22T09:56:57Z</time>
      </trkpt>
      <trkpt lat="43.756" lon="4.72719">
        <ele>193</ele>
        <time>2019-05-22T09:57:01Z</time>
      </trkpt>
      <trkpt lat="43.75595" lon="4.72714">
        <ele>193</ele>
        <time>2019-05-22T09:57:05Z</time>
      </trkpt>
      <trkpt lat="43.75592" lon="4.72712">
        <ele>193</ele>
        <time>2019-05-22T09:57:09Z</time>
      </trkpt>
      <trkpt lat="43.7559" lon="4.7271">
        <ele>193</ele>
        <time>2019-05-22T09:57:12Z</time>
      </trkpt>
      <trkpt lat="43.75586" lon="4.72707">
        <ele>193</ele>
        <time>2019-05-22T09:57:16Z</time>
      </trkpt>
      <trkpt lat="43.75581" lon="4.72703">
        <ele>187</ele>
        <time>2019-05-22T09:57:21Z</time>
      </trkpt>
      <trkpt lat="43.75578" lon="4.727">
        <ele>187</ele>
        <time>2019-05-22T09:57:25Z</time>
      </trkpt>
      <trkpt lat="43.75575" lon="4.72697">
        <ele>188</ele>
        <time>2019-05-22T09:57:29Z</time>
      </trkpt>
      <trkpt lat="43.7557" lon="4.72693">
        <ele>188</ele>
        <time>2019-05-22T09:57:34Z</time>
      </trkpt>
      <trkpt lat="43.75566" lon="4.72688">
        <ele>188</ele>
        <time>2019-05-22T09:57:38Z</time>
      </trkpt>
      <trkpt lat="43.75562" lon="4.72683">
        <ele>188</ele>
        <time>2019-05-22T09:57:43Z</time>
      </trkpt>
      <trkpt lat="43.75559" lon="4.7268">
        <ele>188</ele>
        <time>2019-05-22T09:57:46Z</time>
      </trkpt>
      <trkpt lat="43.75556" lon="4.72676">
        <ele>188</ele>
        <time>2019-05-22T09:57:50Z</time>
      </trkpt>
      <trkpt lat="43.75553" lon="4.72674">
        <ele>187</ele>
        <time>2019-05-22T09:57:53Z</time>
      </trkpt>
      <trkpt lat="43.75548" lon="4.7267">
        <ele>187</ele>
        <time>2019-05-22T09:57:58Z</time>
      </trkpt>
      <trkpt lat="43.75544" lon="4.72665">
        <ele>191</ele>
        <time>2019-05-22T09:58:02Z</time>
      </trkpt>
      <trkpt lat="43.75541" lon="4.72661">
        <ele>190</ele>
        <time>2019-05-22T09:58:06Z</time>
      </trkpt>
      <trkpt lat="43.75537" lon="4.72658">
        <ele>190</ele>
        <time>2019-05-22T09:58:10Z</time>
      </trkpt>
      <trkpt lat="43.75534" lon="4.72653">
        <ele>190</ele>
        <time>2019-05-22T09:58:14Z</time>
      </trkpt>
      <trkpt lat="43.7553" lon="4.72648">
        <ele>190</ele>
        <time>2019-05-22T09:58:18Z</time>
      </trkpt>
      <trkpt lat="43.75525" lon="4.72644">
        <ele>190</ele>
        <time>2019-05-22T09:58:23Z</time>
      </trkpt>
      <trkpt lat="43.7552" lon="4.72643">
        <ele>189</ele>
        <time>2019-05-22T09:58:27Z</time>
      </trkpt>
      <trkpt lat="43.75514" lon="4.7264">
        <ele>189</ele>
        <time>2019-05-22T09:58:32Z</time>
      </trkpt>
      <trkpt lat="43.7551" lon="4.72638">
        <ele>189</ele>
        <time>2019-05-22T09:58:36Z</time>
      </trkpt>
      <trkpt lat="43.75506" lon="4.72636">
        <ele>189</ele>
        <time>2019-05-22T09:58:40Z</time>
      </trkpt>
      <trkpt lat="43.75501" lon="4.72634">
        <ele>189</ele>
        <time>2019-05-22T09:58:44Z</time>
      </trkpt>
      <trkpt lat="43.75495" lon="4.72633">
        <ele>183</ele>
        <time>2019-05-22T09:58:48Z</time>
      </trkpt>
      <trkpt lat="43.7549" lon="4.72631">
        <ele>183</ele>
        <time>2019-05-22T09:58:52Z</time>
      </trkpt>
      <trkpt lat="43.75485" lon="4.72631">
        <ele>183</ele>
        <time>2019-05-22T09:58:57Z</time>
      </trkpt>
      <trkpt lat="43.75481" lon="4.7263">
        <ele>182</ele>
        <time>2019-05-22T09:59:01Z</time>
      </trkpt>
      <trkpt lat="43.75476" lon="4.72629">
        <ele>182</ele>
        <time>2019-05-22T09:59:05Z</time>
      </trkpt>
      <trkpt lat="43.75471" lon="4.72626">
        <ele>182</ele>
        <time>2019-05-22T09:59:10Z</time>
      </trkpt>
      <trkpt lat="43.75466" lon="4.72623">
        <ele>182</ele>
        <time>2019-05-22T09:59:15Z</time>
      </trkpt>
      <trkpt lat="43.75463" lon="4.72621">
        <ele>182</ele>
        <time>2019-05-22T09:59:18Z</time>
      </trkpt>
      <trkpt lat="43.75459" lon="4.72618">
        <ele>181</ele>
        <time>2019-05-22T09:59:22Z</time>
      </trkpt>
      <trkpt lat="43.75455" lon="4.72616">
        <ele>181</ele>
        <time>2019-05-22T09:59:26Z</time>
      </trkpt>
      <trkpt lat="43.75452" lon="4.72614">
        <ele>181</ele>
        <time>2019-05-22T09:59:30Z</time>
      </trkpt>
      <trkpt lat="43.75448" lon="4.72612">
        <ele>181</ele>
        <time>2019-05-22T09:59:34Z</time>
      </trkpt>
      <trkpt lat="43.75444" lon="4.72611">
        <ele>181</ele>
        <time>2019-05-22T09:59:38Z</time>
      </trkpt>
      <trkpt lat="43.7544" lon="4.72607">
        <ele>181</ele>
        <time>2019-05-22T09:59:42Z</time>
      </trkpt>
      <trkpt lat="43.75436" lon="4.72602">
        <ele>181</ele>
        <time>2019-05-22T09:59:47Z</time>
      </trkpt>
      <trkpt lat="43.75433" lon="4.72598">
        <ele>181</ele>
        <time>2019-05-22T09:59:52Z</time>
      </trkpt>
      <trkpt lat="43.75432" lon="4.72593">
        <ele>181</ele>
        <time>2019-05-22T09:59:55Z</time>
      </trkpt>
      <trkpt lat="43.75431" lon="4.72588">
        <ele>181</ele>
        <time>2019-05-22T09:59:59Z</time>
      </trkpt>
      <trkpt lat="43.75429" lon="4.72582">
        <ele>181</ele>
        <time>2019-05-22T10:00:04Z</time>
      </trkpt>
      <trkpt lat="43.75428" lon="4.72576">
        <ele>181</ele>
        <time>2019-05-22T10:00:08Z</time>
      </trkpt>
      <trkpt lat="43.75427" lon="4.72572">
        <ele>181</ele>
        <time>2019-05-22T10:00:11Z</time>
      </trkpt>
      <trkpt lat="43.75427" lon="4.72568">
        <ele>181</ele>
        <time>2019-05-22T10:00:14Z</time>
      </trkpt>
      <trkpt lat="43.75427" lon="4.72559">
        <ele>182</ele>
        <time>2019-05-22T10:00:19Z</time>
      </trkpt>
      <trkpt lat="43.75426" lon="4.72553">
        <ele>182</ele>
        <time>2019-05-22T10:00:24Z</time>
      </trkpt>
      <trkpt lat="43.75426" lon="4.72547">
        <ele>182</ele>
        <time>2019-05-22T10:00:28Z</time>
      </trkpt>
      <trkpt lat="43.75426" lon="4.72541">
        <ele>181</ele>
        <time>2019-05-22T10:00:32Z</time>
      </trkpt>
      <trkpt lat="43.75427" lon="4.72536">
        <ele>181</ele>
        <time>2019-05-22T10:00:36Z</time>
      </trkpt>
      <trkpt lat="43.75428" lon="4.7253">
        <ele>181</ele>
        <time>2019-05-22T10:00:41Z</time>
      </trkpt>
      <trkpt lat="43.75431" lon="4.72523">
        <ele>181</ele>
        <time>2019-05-22T10:00:46Z</time>
      </trkpt>
      <trkpt lat="43.75432" lon="4.72518">
        <ele>180</ele>
        <time>2019-05-22T10:00:50Z</time>
      </trkpt>
      <trkpt lat="43.75434" lon="4.72513">
        <ele>180</ele>
        <time>2019-05-22T10:00:54Z</time>
      </trkpt>
      <trkpt lat="43.75435" lon="4.72509">
        <ele>180</ele>
        <time>2019-05-22T10:00:57Z</time>
      </trkpt>
      <trkpt lat="43.75438" lon="4.72502">
        <ele>180</ele>
        <time>2019-05-22T10:01:02Z</time>
      </trkpt>
      <trkpt lat="43.7544" lon="4.72498">
        <ele>177</ele>
        <time>2019-05-22T10:01:06Z</time>
      </trkpt>
      <trkpt lat="43.75443" lon="4.72492">
        <ele>177</ele>
        <time>2019-05-22T10:01:11Z</time>
      </trkpt>
      <trkpt lat="43.75446" lon="4.72488">
        <ele>177</ele>
        <time>2019-05-22T10:01:15Z</time>
      </trkpt>
      <trkpt lat="43.75449" lon="4.72484">
        <ele>177</ele>
        <time>2019-05-22T10:01:20Z</time>
      </trkpt>
      <trkpt lat="43.75451" lon="4.7248">
        <ele>177</ele>
        <time>2019-05-22T10:01:23Z</time>
      </trkpt>
      <trkpt lat="43.75453" lon="4.72476">
        <ele>177</ele>
        <time>2019-05-22T10:01:26Z</time>
      </trkpt>
      <trkpt lat="43.75456" lon="4.72471">
        <ele>177</ele>
        <time>2019-05-22T10:01:31Z</time>
      </trkpt>
      <trkpt lat="43.75458" lon="4.72467">
        <ele>177</ele>
        <time>2019-05-22T10:01:34Z</time>
      </trkpt>
      <trkpt lat="43.75462" lon="4.7246">
        <ele>177</ele>
        <time>2019-05-22T10:01:39Z</time>
      </trkpt>
      <trkpt lat="43.75465" lon="4.72456">
        <ele>177</ele>
        <time>2019-05-22T10:01:44Z</time>
      </trkpt>
      <trkpt lat="43.75469" lon="4.72452">
        <ele>177</ele>
        <time>2019-05-22T10:01:48Z</time>
      </trkpt>
      <trkpt lat="43.75471" lon="4.72449">
        <ele>177</ele>
        <time>2019-05-22T10:01:53Z</time>
      </trkpt>
      <trkpt lat="43.7547" lon="4.72449">
        <ele>177</ele>
        <time>2019-05-22T10:02:15Z</time>
      </trkpt>
      <trkpt lat="43.75469" lon="4.7245">
        <ele>177</ele>
        <time>2019-05-22T10:02:19Z</time>
      </trkpt>
      <trkpt lat="43.75468" lon="4.72451">
        <ele>177</ele>
        <time>2019-05-22T10:02:23Z</time>
      </trkpt>
      <trkpt lat="43.75464" lon="4.72452">
        <ele>177</ele>
        <time>2019-05-22T10:02:27Z</time>
      </trkpt>
      <trkpt lat="43.75459" lon="4.72456">
        <ele>177</ele>
        <time>2019-05-22T10:02:31Z</time>
      </trkpt>
      <trkpt lat="43.75455" lon="4.72459">
        <ele>177</ele>
        <time>2019-05-22T10:02:34Z</time>
      </trkpt>
      <trkpt lat="43.75451" lon="4.72462">
        <ele>176</ele>
        <time>2019-05-22T10:02:39Z</time>
      </trkpt>
      <trkpt lat="43.7545" lon="4.72464">
        <ele>176</ele>
        <time>2019-05-22T10:02:42Z</time>
      </trkpt>
      <trkpt lat="43.75448" lon="4.72465">
        <ele>176</ele>
        <time>2019-05-22T10:02:47Z</time>
      </trkpt>
      <trkpt lat="43.75446" lon="4.72466">
        <ele>176</ele>
        <time>2019-05-22T10:02:52Z</time>
      </trkpt>
      <trkpt lat="43.75441" lon="4.72465">
        <ele>176</ele>
        <time>2019-05-22T10:02:57Z</time>
      </trkpt>
      <trkpt lat="43.75438" lon="4.72465">
        <ele>176</ele>
        <time>2019-05-22T10:03:01Z</time>
      </trkpt>
      <trkpt lat="43.75436" lon="4.72464">
        <ele>176</ele>
        <time>2019-05-22T10:03:05Z</time>
      </trkpt>
      <trkpt lat="43.75433" lon="4.72464">
        <ele>176</ele>
        <time>2019-05-22T10:03:10Z</time>
      </trkpt>
      <trkpt lat="43.75428" lon="4.72465">
        <ele>175</ele>
        <time>2019-05-22T10:03:15Z</time>
      </trkpt>
      <trkpt lat="43.75424" lon="4.72466">
        <ele>175</ele>
        <time>2019-05-22T10:03:19Z</time>
      </trkpt>
      <trkpt lat="43.75421" lon="4.72467">
        <ele>175</ele>
        <time>2019-05-22T10:03:23Z</time>
      </trkpt>
      <trkpt lat="43.75418" lon="4.72469">
        <ele>175</ele>
        <time>2019-05-22T10:03:28Z</time>
      </trkpt>
      <trkpt lat="43.75415" lon="4.7247">
        <ele>168</ele>
        <time>2019-05-22T10:03:33Z</time>
      </trkpt>
      <trkpt lat="43.75412" lon="4.72471">
        <ele>168</ele>
        <time>2019-05-22T10:03:37Z</time>
      </trkpt>
      <trkpt lat="43.7541" lon="4.72472">
        <ele>168</ele>
        <time>2019-05-22T10:03:40Z</time>
      </trkpt>
      <trkpt lat="43.75408" lon="4.72474">
        <ele>168</ele>
        <time>2019-05-22T10:03:43Z</time>
      </trkpt>
      <trkpt lat="43.75404" lon="4.72476">
        <ele>168</ele>
        <time>2019-05-22T10:03:48Z</time>
      </trkpt>
      <trkpt lat="43.75401" lon="4.72476">
        <ele>168</ele>
        <time>2019-05-22T10:03:52Z</time>
      </trkpt>
      <trkpt lat="43.75397" lon="4.72476">
        <ele>168</ele>
        <time>2019-05-22T10:03:56Z</time>
      </trkpt>
      <trkpt lat="43.7539" lon="4.72475">
        <ele>167</ele>
        <time>2019-05-22T10:04:01Z</time>
      </trkpt>
      <trkpt lat="43.75384" lon="4.72475">
        <ele>166</ele>
        <time>2019-05-22T10:04:05Z</time>
      </trkpt>
      <trkpt lat="43.75379" lon="4.72475">
        <ele>166</ele>
        <time>2019-05-22T10:04:10Z</time>
      </trkpt>
      <trkpt lat="43.75375" lon="4.72475">
        <ele>165</ele>
        <time>2019-05-22T10:04:13Z</time>
      </trkpt>
      <trkpt lat="43.7537" lon="4.72476">
        <ele>165</ele>
        <time>2019-05-22T10:04:18Z</time>
      </trkpt>
      <trkpt lat="43.75365" lon="4.72477">
        <ele>165</ele>
        <time>2019-05-22T10:04:23Z</time>
      </trkpt>
      <trkpt lat="43.75362" lon="4.72478">
        <ele>164</ele>
        <time>2019-05-22T10:04:27Z</time>
      </trkpt>
      <trkpt lat="43.75361" lon="4.72479">
        <ele>164</ele>
        <time>2019-05-22T10:04:30Z</time>
      </trkpt>
      <trkpt lat="43.75358" lon="4.7248">
        <ele>164</ele>
        <time>2019-05-22T10:04:34Z</time>
      </trkpt>
      <trkpt lat="43.75353" lon="4.72481">
        <ele>164</ele>
        <time>2019-05-22T10:04:39Z</time>
      </trkpt>
      <trkpt lat="43.75348" lon="4.72483">
        <ele>163</ele>
        <time>2019-05-22T10:04:43Z</time>
      </trkpt>
      <trkpt lat="43.75345" lon="4.72483">
        <ele>163</ele>
        <time>2019-05-22T10:04:46Z</time>
      </trkpt>
      <trkpt lat="43.75342" lon="4.72482">
        <ele>163</ele>
        <time>2019-05-22T10:04:50Z</time>
      </trkpt>
      <trkpt lat="43.75338" lon="4.72481">
        <ele>163</ele>
        <time>2019-05-22T10:04:54Z</time>
      </trkpt>
      <trkpt lat="43.75336" lon="4.72479">
        <ele>163</ele>
        <time>2019-05-22T10:04:58Z</time>
      </trkpt>
      <trkpt lat="43.75334" lon="4.72478">
        <ele>163</ele>
        <time>2019-05-22T10:05:01Z</time>
      </trkpt>
      <trkpt lat="43.75332" lon="4.72476">
        <ele>154</ele>
        <time>2019-05-22T10:05:05Z</time>
      </trkpt>
      <trkpt lat="43.75331" lon="4.72473">
        <ele>154</ele>
        <time>2019-05-22T10:05:09Z</time>
      </trkpt>
      <trkpt lat="43.7533" lon="4.72468">
        <ele>153</ele>
        <time>2019-05-22T10:05:13Z</time>
      </trkpt>
      <trkpt lat="43.75328" lon="4.72464">
        <ele>153</ele>
        <time>2019-05-22T10:05:17Z</time>
      </trkpt>
      <trkpt lat="43.75328" lon="4.72461">
        <ele>153</ele>
        <time>2019-05-22T10:05:22Z</time>
      </trkpt>
      <trkpt lat="43.75328" lon="4.72459">
        <ele>153</ele>
        <time>2019-05-22T10:05:26Z</time>
      </trkpt>
      <trkpt lat="43.75328" lon="4.72458">
        <ele>153</ele>
        <time>2019-05-22T10:05:29Z</time>
      </trkpt>
      <trkpt lat="43.75329" lon="4.72457">
        <ele>153</ele>
        <time>2019-05-22T10:05:34Z</time>
      </trkpt>
      <trkpt lat="43.75329" lon="4.72458">
        <ele>153</ele>
        <time>2019-05-22T10:06:06Z</time>
      </trkpt>
      <trkpt lat="43.7533" lon="4.72457">
        <ele>153</ele>
        <time>2019-05-22T10:06:27Z</time>
      </trkpt>
      <trkpt lat="43.7533" lon="4.72456">
        <ele>153</ele>
        <time>2019-05-22T10:06:33Z</time>
      </trkpt>
      <trkpt lat="43.75329" lon="4.72453">
        <ele>153</ele>
        <time>2019-05-22T10:06:37Z</time>
      </trkpt>
      <trkpt lat="43.75326" lon="4.72447">
        <ele>152</ele>
        <time>2019-05-22T10:06:42Z</time>
      </trkpt>
      <trkpt lat="43.75323" lon="4.7244">
        <ele>152</ele>
        <time>2019-05-22T10:06:46Z</time>
      </trkpt>
      <trkpt lat="43.75321" lon="4.72434">
        <ele>153</ele>
        <time>2019-05-22T10:06:50Z</time>
      </trkpt>
      <trkpt lat="43.75321" lon="4.72429">
        <ele>153</ele>
        <time>2019-05-22T10:06:54Z</time>
      </trkpt>
      <trkpt lat="43.75319" lon="4.72422">
        <ele>153</ele>
        <time>2019-05-22T10:06:59Z</time>
      </trkpt>
      <trkpt lat="43.75317" lon="4.72416">
        <ele>151</ele>
        <time>2019-05-22T10:07:04Z</time>
      </trkpt>
      <trkpt lat="43.75317" lon="4.72411">
        <ele>151</ele>
        <time>2019-05-22T10:07:08Z</time>
      </trkpt>
      <trkpt lat="43.75318" lon="4.72404">
        <ele>151</ele>
        <time>2019-05-22T10:07:12Z</time>
      </trkpt>
      <trkpt lat="43.75318" lon="4.72398">
        <ele>150</ele>
        <time>2019-05-22T10:07:16Z</time>
      </trkpt>
      <trkpt lat="43.75315" lon="4.72393">
        <ele>149</ele>
        <time>2019-05-22T10:07:20Z</time>
      </trkpt>
      <trkpt lat="43.75313" lon="4.72389">
        <ele>149</ele>
        <time>2019-05-22T10:07:24Z</time>
      </trkpt>
      <trkpt lat="43.75311" lon="4.72385">
        <ele>148</ele>
        <time>2019-05-22T10:07:28Z</time>
      </trkpt>
      <trkpt lat="43.75309" lon="4.72382">
        <ele>148</ele>
        <time>2019-05-22T10:07:33Z</time>
      </trkpt>
      <trkpt lat="43.75306" lon="4.72378">
        <ele>148</ele>
        <time>2019-05-22T10:07:38Z</time>
      </trkpt>
      <trkpt lat="43.75304" lon="4.72376">
        <ele>147</ele>
        <time>2019-05-22T10:07:41Z</time>
      </trkpt>
      <trkpt lat="43.75302" lon="4.72373">
        <ele>147</ele>
        <time>2019-05-22T10:07:45Z</time>
      </trkpt>
      <trkpt lat="43.75298" lon="4.7237">
        <ele>147</ele>
        <time>2019-05-22T10:07:50Z</time>
      </trkpt>
      <trkpt lat="43.75295" lon="4.72367">
        <ele>147</ele>
        <time>2019-05-22T10:07:53Z</time>
      </trkpt>
      <trkpt lat="43.7529" lon="4.72365">
        <ele>146</ele>
        <time>2019-05-22T10:07:57Z</time>
      </trkpt>
      <trkpt lat="43.75285" lon="4.72364">
        <ele>146</ele>
        <time>2019-05-22T10:08:02Z</time>
      </trkpt>
      <trkpt lat="43.75283" lon="4.72364">
        <ele>146</ele>
        <time>2019-05-22T10:08:05Z</time>
      </trkpt>
      <trkpt lat="43.75278" lon="4.72365">
        <ele>145</ele>
        <time>2019-05-22T10:08:09Z</time>
      </trkpt>
      <trkpt lat="43.75274" lon="4.72367">
        <ele>145</ele>
        <time>2019-05-22T10:08:12Z</time>
      </trkpt>
      <trkpt lat="43.75269" lon="4.72374">
        <ele>145</ele>
        <time>2019-05-22T10:08:17Z</time>
      </trkpt>
      <trkpt lat="43.75265" lon="4.72379">
        <ele>145</ele>
        <time>2019-05-22T10:08:21Z</time>
      </trkpt>
      <trkpt lat="43.75261" lon="4.72383">
        <ele>145</ele>
        <time>2019-05-22T10:08:25Z</time>
      </trkpt>
      <trkpt lat="43.75256" lon="4.72386">
        <ele>144</ele>
        <time>2019-05-22T10:08:29Z</time>
      </trkpt>
      <trkpt lat="43.75252" lon="4.72385">
        <ele>144</ele>
        <time>2019-05-22T10:08:33Z</time>
      </trkpt>
      <trkpt lat="43.75248" lon="4.72382">
        <ele>135</ele>
        <time>2019-05-22T10:08:37Z</time>
      </trkpt>
      <trkpt lat="43.75247" lon="4.72381">
        <ele>135</ele>
        <time>2019-05-22T10:08:41Z</time>
      </trkpt>
      <trkpt lat="43.75245" lon="4.72381">
        <ele>135</ele>
        <time>2019-05-22T10:08:46Z</time>
      </trkpt>
      <trkpt lat="43.75242" lon="4.7238">
        <ele>135</ele>
        <time>2019-05-22T10:08:50Z</time>
      </trkpt>
      <trkpt lat="43.75239" lon="4.7238">
        <ele>135</ele>
        <time>2019-05-22T10:08:55Z</time>
      </trkpt>
      <trkpt lat="43.75238" lon="4.7238">
        <ele>135</ele>
        <time>2019-05-22T10:08:59Z</time>
      </trkpt>
      <trkpt lat="43.75235" lon="4.72379">
        <ele>135</ele>
        <time>2019-05-22T10:09:04Z</time>
      </trkpt>
      <trkpt lat="43.75229" lon="4.72377">
        <ele>134</ele>
        <time>2019-05-22T10:09:08Z</time>
      </trkpt>
      <trkpt lat="43.75225" lon="4.72376">
        <ele>134</ele>
        <time>2019-05-22T10:09:11Z</time>
      </trkpt>
      <trkpt lat="43.7522" lon="4.72375">
        <ele>133</ele>
        <time>2019-05-22T10:09:15Z</time>
      </trkpt>
      <trkpt lat="43.75214" lon="4.72375">
        <ele>133</ele>
        <time>2019-05-22T10:09:19Z</time>
      </trkpt>
      <trkpt lat="43.7521" lon="4.72375">
        <ele>132</ele>
        <time>2019-05-22T10:09:24Z</time>
      </trkpt>
      <trkpt lat="43.75207" lon="4.72375">
        <ele>132</ele>
        <time>2019-05-22T10:09:28Z</time>
      </trkpt>
      <trkpt lat="43.75204" lon="4.72375">
        <ele>132</ele>
        <time>2019-05-22T10:09:32Z</time>
      </trkpt>
      <trkpt lat="43.75202" lon="4.72373">
        <ele>131</ele>
        <time>2019-05-22T10:09:36Z</time>
      </trkpt>
      <trkpt lat="43.75198" lon="4.72373">
        <ele>131</ele>
        <time>2019-05-22T10:09:40Z</time>
      </trkpt>
      <trkpt lat="43.75193" lon="4.72373">
        <ele>131</ele>
        <time>2019-05-22T10:09:45Z</time>
      </trkpt>
      <trkpt lat="43.75186" lon="4.72372">
        <ele>130</ele>
        <time>2019-05-22T10:09:50Z</time>
      </trkpt>
      <trkpt lat="43.75184" lon="4.72372">
        <ele>130</ele>
        <time>2019-05-22T10:09:54Z</time>
      </trkpt>
      <trkpt lat="43.7518" lon="4.72373">
        <ele>129</ele>
        <time>2019-05-22T10:09:59Z</time>
      </trkpt>
      <trkpt lat="43.75178" lon="4.72373">
        <ele>129</ele>
        <time>2019-05-22T10:10:03Z</time>
      </trkpt>
      <trkpt lat="43.75176" lon="4.72373">
        <ele>129</ele>
        <time>2019-05-22T10:10:07Z</time>
      </trkpt>
      <trkpt lat="43.75172" lon="4.72375">
        <ele>129</ele>
        <time>2019-05-22T10:10:12Z</time>
      </trkpt>
      <trkpt lat="43.75167" lon="4.72377">
        <ele>129</ele>
        <time>2019-05-22T10:10:17Z</time>
      </trkpt>
      <trkpt lat="43.75164" lon="4.72377">
        <ele>117</ele>
        <time>2019-05-22T10:10:21Z</time>
      </trkpt>
      <trkpt lat="43.75163" lon="4.72377">
        <ele>117</ele>
        <time>2019-05-22T10:10:24Z</time>
      </trkpt>
      <trkpt lat="43.75162" lon="4.72377">
        <ele>117</ele>
        <time>2019-05-22T10:10:28Z</time>
      </trkpt>
      <trkpt lat="43.7516" lon="4.72377">
        <ele>117</ele>
        <time>2019-05-22T10:10:31Z</time>
      </trkpt>
      <trkpt lat="43.75159" lon="4.72377">
        <ele>117</ele>
        <time>2019-05-22T10:10:34Z</time>
      </trkpt>
      <trkpt lat="43.75155" lon="4.72379">
        <ele>116</ele>
        <time>2019-05-22T10:10:39Z</time>
      </trkpt>
      <trkpt lat="43.7515" lon="4.72382">
        <ele>116</ele>
        <time>2019-05-22T10:10:44Z</time>
      </trkpt>
      <trkpt lat="43.75146" lon="4.72384">
        <ele>116</ele>
        <time>2019-05-22T10:10:48Z</time>
      </trkpt>
      <trkpt lat="43.75143" lon="4.72385">
        <ele>115</ele>
        <time>2019-05-22T10:10:51Z</time>
      </trkpt>
      <trkpt lat="43.75141" lon="4.72387">
        <ele>115</ele>
        <time>2019-05-22T10:10:55Z</time>
      </trkpt>
      <trkpt lat="43.75139" lon="4.72387">
        <ele>115</ele>
        <time>2019-05-22T10:10:58Z</time>
      </trkpt>
      <trkpt lat="43.75135" lon="4.72388">
        <ele>114</ele>
        <time>2019-05-22T10:11:02Z</time>
      </trkpt>
      <trkpt lat="43.75131" lon="4.7239">
        <ele>114</ele>
        <time>2019-05-22T10:11:05Z</time>
      </trkpt>
      <trkpt lat="43.7513" lon="4.7239">
        <ele>114</ele>
        <time>2019-05-22T10:11:08Z</time>
      </trkpt>
      <trkpt lat="43.75128" lon="4.72392">
        <ele>113</ele>
        <time>2019-05-22T10:11:12Z</time>
      </trkpt>
      <trkpt lat="43.75124" lon="4.72393">
        <ele>113</ele>
        <time>2019-05-22T10:11:17Z</time>
      </trkpt>
      <trkpt lat="43.75121" lon="4.72395">
        <ele>112</ele>
        <time>2019-05-22T10:11:22Z</time>
      </trkpt>
      <trkpt lat="43.7512" lon="4.72393">
        <ele>112</ele>
        <time>2019-05-22T10:11:26Z</time>
      </trkpt>
      <trkpt lat="43.75119" lon="4.72387">
        <ele>112</ele>
        <time>2019-05-22T10:11:31Z</time>
      </trkpt>
      <trkpt lat="43.75117" lon="4.7238">
        <ele>112</ele>
        <time>2019-05-22T10:11:36Z</time>
      </trkpt>
      <trkpt lat="43.75116" lon="4.72375">
        <ele>112</ele>
        <time>2019-05-22T10:11:40Z</time>
      </trkpt>
      <trkpt lat="43.75113" lon="4.7237">
        <ele>112</ele>
        <time>2019-05-22T10:11:44Z</time>
      </trkpt>
      <trkpt lat="43.75113" lon="4.72369">
        <ele>112</ele>
        <time>2019-05-22T10:11:48Z</time>
      </trkpt>
      <trkpt lat="43.75112" lon="4.72367">
        <ele>112</ele>
        <time>2019-05-22T10:11:53Z</time>
      </trkpt>
      <trkpt lat="43.75111" lon="4.72365">
        <ele>112</ele>
        <time>2019-05-22T10:11:56Z</time>
      </trkpt>
      <trkpt lat="43.75111" lon="4.72362">
        <ele>112</ele>
        <time>2019-05-22T10:11:59Z</time>
      </trkpt>
      <trkpt lat="43.75109" lon="4.72357">
        <ele>111</ele>
        <time>2019-05-22T10:12:03Z</time>
      </trkpt>
      <trkpt lat="43.75106" lon="4.72352">
        <ele>111</ele>
        <time>2019-05-22T10:12:07Z</time>
      </trkpt>
      <trkpt lat="43.75106" lon="4.72348">
        <ele>111</ele>
        <time>2019-05-22T10:12:11Z</time>
      </trkpt>
      <trkpt lat="43.75106" lon="4.72345">
        <ele>111</ele>
        <time>2019-05-22T10:12:15Z</time>
      </trkpt>
      <trkpt lat="43.75105" lon="4.72342">
        <ele>110</ele>
        <time>2019-05-22T10:12:19Z</time>
      </trkpt>
      <trkpt lat="43.75102" lon="4.72337">
        <ele>110</ele>
        <time>2019-05-22T10:12:24Z</time>
      </trkpt>
      <trkpt lat="43.751" lon="4.72334">
        <ele>109</ele>
        <time>2019-05-22T10:12:28Z</time>
      </trkpt>
      <trkpt lat="43.75097" lon="4.7233">
        <ele>108</ele>
        <time>2019-05-22T10:12:33Z</time>
      </trkpt>
      <trkpt lat="43.75093" lon="4.72324">
        <ele>108</ele>
        <time>2019-05-22T10:12:37Z</time>
      </trkpt>
      <trkpt lat="43.7509" lon="4.7232">
        <ele>108</ele>
        <time>2019-05-22T10:12:42Z</time>
      </trkpt>
      <trkpt lat="43.75087" lon="4.72312">
        <ele>109</ele>
        <time>2019-05-22T10:12:47Z</time>
      </trkpt>
      <trkpt lat="43.75086" lon="4.72308">
        <ele>109</ele>
        <time>2019-05-22T10:12:51Z</time>
      </trkpt>
      <trkpt lat="43.75084" lon="4.72303">
        <ele>109</ele>
        <time>2019-05-22T10:12:55Z</time>
      </trkpt>
      <trkpt lat="43.7508" lon="4.72298">
        <ele>97</ele>
        <time>2019-05-22T10:12:59Z</time>
      </trkpt>
      <trkpt lat="43.75076" lon="4.72292">
        <ele>97</ele>
        <time>2019-05-22T10:13:03Z</time>
      </trkpt>
      <trkpt lat="43.75074" lon="4.72286">
        <ele>97</ele>
        <time>2019-05-22T10:13:08Z</time>
      </trkpt>
      <trkpt lat="43.7507" lon="4.72282">
        <ele>96</ele>
        <time>2019-05-22T10:13:13Z</time>
      </trkpt>
      <trkpt lat="43.75067" lon="4.72279">
        <ele>96</ele>
        <time>2019-05-22T10:13:17Z</time>
      </trkpt>
      <trkpt lat="43.75066" lon="4.72277">
        <ele>96</ele>
        <time>2019-05-22T10:13:20Z</time>
      </trkpt>
      <trkpt lat="43.75066" lon="4.72276">
        <ele>96</ele>
        <time>2019-05-22T10:13:24Z</time>
      </trkpt>
      <trkpt lat="43.75065" lon="4.72276">
        <ele>96</ele>
        <time>2019-05-22T10:13:31Z</time>
      </trkpt>
      <trkpt lat="43.75064" lon="4.72274">
        <ele>96</ele>
        <time>2019-05-22T10:13:36Z</time>
      </trkpt>
      <trkpt lat="43.75063" lon="4.72273">
        <ele>96</ele>
        <time>2019-05-22T10:13:41Z</time>
      </trkpt>
      <trkpt lat="43.75063" lon="4.72272">
        <ele>96</ele>
        <time>2019-05-22T10:13:52Z</time>
      </trkpt>
      <trkpt lat="43.75063" lon="4.72271">
        <ele>96</ele>
        <time>2019-05-22T10:13:58Z</time>
      </trkpt>
      <trkpt lat="43.75062" lon="4.7227">
        <ele>96</ele>
        <time>2019-05-22T10:14:04Z</time>
      </trkpt>
      <trkpt lat="43.75062" lon="4.72268">
        <ele>96</ele>
        <time>2019-05-22T10:14:08Z</time>
      </trkpt>
      <trkpt lat="43.75062" lon="4.72264">
        <ele>96</ele>
        <time>2019-05-22T10:14:13Z</time>
      </trkpt>
      <trkpt lat="43.75062" lon="4.72258">
        <ele>96</ele>
        <time>2019-05-22T10:14:17Z</time>
      </trkpt>
      <trkpt lat="43.75063" lon="4.72253">
        <ele>97</ele>
        <time>2019-05-22T10:14:21Z</time>
      </trkpt>
      <trkpt lat="43.75064" lon="4.72247">
        <ele>95</ele>
        <time>2019-05-22T10:14:25Z</time>
      </trkpt>
      <trkpt lat="43.75064" lon="4.72242">
        <ele>94</ele>
        <time>2019-05-22T10:14:29Z</time>
      </trkpt>
      <trkpt lat="43.75066" lon="4.72239">
        <ele>94</ele>
        <time>2019-05-22T10:14:32Z</time>
      </trkpt>
      <trkpt lat="43.75068" lon="4.72235">
        <ele>94</ele>
        <time>2019-05-22T10:14:36Z</time>
      </trkpt>
      <trkpt lat="43.75069" lon="4.72232">
        <ele>94</ele>
        <time>2019-05-22T10:14:40Z</time>
      </trkpt>
      <trkpt lat="43.7507" lon="4.72226">
        <ele>93</ele>
        <time>2019-05-22T10:14:45Z</time>
      </trkpt>
      <trkpt lat="43.7507" lon="4.72221">
        <ele>93</ele>
        <time>2019-05-22T10:14:48Z</time>
      </trkpt>
      <trkpt lat="43.7507" lon="4.72216">
        <ele>92</ele>
        <time>2019-05-22T10:14:52Z</time>
      </trkpt>
      <trkpt lat="43.75072" lon="4.7221">
        <ele>92</ele>
        <time>2019-05-22T10:14:57Z</time>
      </trkpt>
      <trkpt lat="43.75074" lon="4.72205">
        <ele>92</ele>
        <time>2019-05-22T10:15:01Z</time>
      </trkpt>
      <trkpt lat="43.75076" lon="4.72202">
        <ele>92</ele>
        <time>2019-05-22T10:15:05Z</time>
      </trkpt>
      <trkpt lat="43.75078" lon="4.722">
        <ele>92</ele>
        <time>2019-05-22T10:15:09Z</time>
      </trkpt>
      <trkpt lat="43.7508" lon="4.72197">
        <ele>92</ele>
        <time>2019-05-22T10:15:13Z</time>
      </trkpt>
      <trkpt lat="43.75082" lon="4.72194">
        <ele>93</ele>
        <time>2019-05-22T10:15:17Z</time>
      </trkpt>
      <trkpt lat="43.75085" lon="4.72192">
        <ele>102</ele>
        <time>2019-05-22T10:15:22Z</time>
      </trkpt>
      <trkpt lat="43.75087" lon="4.72191">
        <ele>102</ele>
        <time>2019-05-22T10:15:25Z</time>
      </trkpt>
      <trkpt lat="43.75089" lon="4.7219">
        <ele>102</ele>
        <time>2019-05-22T10:15:30Z</time>
      </trkpt>
      <trkpt lat="43.75092" lon="4.7219">
        <ele>102</ele>
        <time>2019-05-22T10:15:34Z</time>
      </trkpt>
      <trkpt lat="43.75094" lon="4.72191">
        <ele>103</ele>
        <time>2019-05-22T10:15:38Z</time>
      </trkpt>
      <trkpt lat="43.75098" lon="4.7219">
        <ele>103</ele>
        <time>2019-05-22T10:15:42Z</time>
      </trkpt>
      <trkpt lat="43.75103" lon="4.72191">
        <ele>103</ele>
        <time>2019-05-22T10:15:47Z</time>
      </trkpt>
      <trkpt lat="43.75105" lon="4.7219">
        <ele>104</ele>
        <time>2019-05-22T10:15:50Z</time>
      </trkpt>
      <trkpt lat="43.75108" lon="4.7219">
        <ele>104</ele>
        <time>2019-05-22T10:15:54Z</time>
      </trkpt>
      <trkpt lat="43.75111" lon="4.7219">
        <ele>104</ele>
        <time>2019-05-22T10:15:57Z</time>
      </trkpt>
      <trkpt lat="43.75114" lon="4.72191">
        <ele>105</ele>
        <time>2019-05-22T10:16:01Z</time>
      </trkpt>
      <trkpt lat="43.75119" lon="4.72191">
        <ele>105</ele>
        <time>2019-05-22T10:16:06Z</time>
      </trkpt>
      <trkpt lat="43.75122" lon="4.7219">
        <ele>105</ele>
        <time>2019-05-22T10:16:10Z</time>
      </trkpt>
      <trkpt lat="43.75125" lon="4.7219">
        <ele>106</ele>
        <time>2019-05-22T10:16:15Z</time>
      </trkpt>
      <trkpt lat="43.75128" lon="4.72189">
        <ele>106</ele>
        <time>2019-05-22T10:16:20Z</time>
      </trkpt>
      <trkpt lat="43.7513" lon="4.72187">
        <ele>106</ele>
        <time>2019-05-22T10:16:25Z</time>
      </trkpt>
      <trkpt lat="43.75131" lon="4.72187">
        <ele>106</ele>
        <time>2019-05-22T10:16:29Z</time>
      </trkpt>
      <trkpt lat="43.75133" lon="4.72187">
        <ele>106</ele>
        <time>2019-05-22T10:16:32Z</time>
      </trkpt>
      <trkpt lat="43.75137" lon="4.72184">
        <ele>107</ele>
        <time>2019-05-22T10:16:36Z</time>
      </trkpt>
      <trkpt lat="43.75141" lon="4.72184">
        <ele>107</ele>
        <time>2019-05-22T10:16:40Z</time>
      </trkpt>
      <trkpt lat="43.75152" lon="4.72188">
        <ele>108</ele>
        <time>2019-05-22T10:16:45Z</time>
      </trkpt>
      <trkpt lat="43.75157" lon="4.72188">
        <ele>108</ele>
        <time>2019-05-22T10:16:49Z</time>
      </trkpt>
      <trkpt lat="43.7516" lon="4.72188">
        <ele>108</ele>
        <time>2019-05-22T10:16:52Z</time>
      </trkpt>
      <trkpt lat="43.75167" lon="4.72186">
        <ele>115</ele>
        <time>2019-05-22T10:16:56Z</time>
      </trkpt>
      <trkpt lat="43.75171" lon="4.72184">
        <ele>115</ele>
        <time>2019-05-22T10:16:59Z</time>
      </trkpt>
      <trkpt lat="43.75175" lon="4.72183">
        <ele>115</ele>
        <time>2019-05-22T10:17:03Z</time>
      </trkpt>
      <trkpt lat="43.75179" lon="4.72179">
        <ele>114</ele>
        <time>2019-05-22T10:17:08Z</time>
      </trkpt>
      <trkpt lat="43.75179" lon="4.72174">
        <ele>114</ele>
        <time>2019-05-22T10:17:11Z</time>
      </trkpt>
      <trkpt lat="43.75178" lon="4.72172">
        <ele>113</ele>
        <time>2019-05-22T10:17:15Z</time>
      </trkpt>
      <trkpt lat="43.75178" lon="4.72167">
        <ele>113</ele>
        <time>2019-05-22T10:17:19Z</time>
      </trkpt>
      <trkpt lat="43.75176" lon="4.72162">
        <ele>112</ele>
        <time>2019-05-22T10:17:24Z</time>
      </trkpt>
      <trkpt lat="43.75175" lon="4.72157">
        <ele>113</ele>
        <time>2019-05-22T10:17:27Z</time>
      </trkpt>
      <trkpt lat="43.75174" lon="4.72152">
        <ele>113</ele>
        <time>2019-05-22T10:17:31Z</time>
      </trkpt>
      <trkpt lat="43.75172" lon="4.72148">
        <ele>114</ele>
        <time>2019-05-22T10:17:35Z</time>
      </trkpt>
      <trkpt lat="43.7517" lon="4.72142">
        <ele>114</ele>
        <time>2019-05-22T10:17:40Z</time>
      </trkpt>
      <trkpt lat="43.75166" lon="4.72136">
        <ele>107</ele>
        <time>2019-05-22T10:17:45Z</time>
      </trkpt>
      <trkpt lat="43.75161" lon="4.72128">
        <ele>107</ele>
        <time>2019-05-22T10:17:50Z</time>
      </trkpt>
      <trkpt lat="43.75158" lon="4.72125">
        <ele>107</ele>
        <time>2019-05-22T10:17:54Z</time>
      </trkpt>
      <trkpt lat="43.75154" lon="4.7212">
        <ele>107</ele>
        <time>2019-05-22T10:17:59Z</time>
      </trkpt>
      <trkpt lat="43.75152" lon="4.72116">
        <ele>107</ele>
        <time>2019-05-22T10:18:03Z</time>
      </trkpt>
      <trkpt lat="43.75149" lon="4.72112">
        <ele>107</ele>
        <time>2019-05-22T10:18:07Z</time>
      </trkpt>
      <trkpt lat="43.75144" lon="4.72107">
        <ele>107</ele>
        <time>2019-05-22T10:18:12Z</time>
      </trkpt>
      <trkpt lat="43.7514" lon="4.72102">
        <ele>107</ele>
        <time>2019-05-22T10:18:17Z</time>
      </trkpt>
      <trkpt lat="43.75138" lon="4.72099">
        <ele>106</ele>
        <time>2019-05-22T10:18:21Z</time>
      </trkpt>
      <trkpt lat="43.75133" lon="4.72095">
        <ele>106</ele>
        <time>2019-05-22T10:18:26Z</time>
      </trkpt>
      <trkpt lat="43.75129" lon="4.72092">
        <ele>106</ele>
        <time>2019-05-22T10:18:29Z</time>
      </trkpt>
      <trkpt lat="43.75125" lon="4.72088">
        <ele>105</ele>
        <time>2019-05-22T10:18:33Z</time>
      </trkpt>
      <trkpt lat="43.75122" lon="4.72084">
        <ele>105</ele>
        <time>2019-05-22T10:18:37Z</time>
      </trkpt>
      <trkpt lat="43.75117" lon="4.7208">
        <ele>107</ele>
        <time>2019-05-22T10:18:42Z</time>
      </trkpt>
      <trkpt lat="43.75114" lon="4.72075">
        <ele>106</ele>
        <time>2019-05-22T10:18:46Z</time>
      </trkpt>
      <trkpt lat="43.75112" lon="4.72072">
        <ele>106</ele>
        <time>2019-05-22T10:18:49Z</time>
      </trkpt>
      <trkpt lat="43.75109" lon="4.72068">
        <ele>106</ele>
        <time>2019-05-22T10:18:54Z</time>
      </trkpt>
      <trkpt lat="43.75105" lon="4.72061">
        <ele>106</ele>
        <time>2019-05-22T10:18:59Z</time>
      </trkpt>
      <trkpt lat="43.75103" lon="4.72058">
        <ele>106</ele>
        <time>2019-05-22T10:19:02Z</time>
      </trkpt>
      <trkpt lat="43.751" lon="4.72055">
        <ele>106</ele>
        <time>2019-05-22T10:19:06Z</time>
      </trkpt>
      <trkpt lat="43.75095" lon="4.72052">
        <ele>106</ele>
        <time>2019-05-22T10:19:11Z</time>
      </trkpt>
      <trkpt lat="43.75092" lon="4.7205">
        <ele>106</ele>
        <time>2019-05-22T10:19:15Z</time>
      </trkpt>
      <trkpt lat="43.75089" lon="4.72048">
        <ele>106</ele>
        <time>2019-05-22T10:19:19Z</time>
      </trkpt>
      <trkpt lat="43.75085" lon="4.72044">
        <ele>106</ele>
        <time>2019-05-22T10:19:24Z</time>
      </trkpt>
      <trkpt lat="43.75081" lon="4.7204">
        <ele>95</ele>
        <time>2019-05-22T10:19:28Z</time>
      </trkpt>
      <trkpt lat="43.75079" lon="4.72036">
        <ele>95</ele>
        <time>2019-05-22T10:19:33Z</time>
      </trkpt>
      <trkpt lat="43.75076" lon="4.72032">
        <ele>95</ele>
        <time>2019-05-22T10:19:37Z</time>
      </trkpt>
      <trkpt lat="43.75075" lon="4.72028">
        <ele>95</ele>
        <time>2019-05-22T10:19:41Z</time>
      </trkpt>
      <trkpt lat="43.75073" lon="4.72021">
        <ele>96</ele>
        <time>2019-05-22T10:19:46Z</time>
      </trkpt>
      <trkpt lat="43.75071" lon="4.72017">
        <ele>96</ele>
        <time>2019-05-22T10:19:50Z</time>
      </trkpt>
      <trkpt lat="43.7507" lon="4.72013">
        <ele>97</ele>
        <time>2019-05-22T10:19:54Z</time>
      </trkpt>
      <trkpt lat="43.75067" lon="4.7201">
        <ele>96</ele>
        <time>2019-05-22T10:19:58Z</time>
      </trkpt>
      <trkpt lat="43.75064" lon="4.72003">
        <ele>96</ele>
        <time>2019-05-22T10:20:03Z</time>
      </trkpt>
      <trkpt lat="43.75063" lon="4.71999">
        <ele>96</ele>
        <time>2019-05-22T10:20:06Z</time>
      </trkpt>
      <trkpt lat="43.75061" lon="4.71994">
        <ele>95</ele>
        <time>2019-05-22T10:20:10Z</time>
      </trkpt>
      <trkpt lat="43.75058" lon="4.71986">
        <ele>94</ele>
        <time>2019-05-22T10:20:15Z</time>
      </trkpt>
      <trkpt lat="43.75057" lon="4.71982">
        <ele>93</ele>
        <time>2019-05-22T10:20:18Z</time>
      </trkpt>
      <trkpt lat="43.75055" lon="4.71975">
        <ele>92</ele>
        <time>2019-05-22T10:20:22Z</time>
      </trkpt>
      <trkpt lat="43.75054" lon="4.71968">
        <ele>92</ele>
        <time>2019-05-22T10:20:26Z</time>
      </trkpt>
      <trkpt lat="43.75053" lon="4.71965">
        <ele>92</ele>
        <time>2019-05-22T10:20:30Z</time>
      </trkpt>
      <trkpt lat="43.75052" lon="4.71961">
        <ele>91</ele>
        <time>2019-05-22T10:20:35Z</time>
      </trkpt>
      <trkpt lat="43.75052" lon="4.71958">
        <ele>91</ele>
        <time>2019-05-22T10:20:38Z</time>
      </trkpt>
      <trkpt lat="43.75051" lon="4.71954">
        <ele>91</ele>
        <time>2019-05-22T10:20:42Z</time>
      </trkpt>
      <trkpt lat="43.7505" lon="4.71952">
        <ele>91</ele>
        <time>2019-05-22T10:20:47Z</time>
      </trkpt>
      <trkpt lat="43.7505" lon="4.71951">
        <ele>91</ele>
        <time>2019-05-22T10:20:52Z</time>
      </trkpt>
      <trkpt lat="43.7505" lon="4.71949">
        <ele>91</ele>
        <time>2019-05-22T10:21:02Z</time>
      </trkpt>
      <trkpt lat="43.7505" lon="4.71948">
        <ele>91</ele>
        <time>2019-05-22T10:21:19Z</time>
      </trkpt>
      <trkpt lat="43.7505" lon="4.71944">
        <ele>91</ele>
        <time>2019-05-22T10:21:24Z</time>
      </trkpt>
      <trkpt lat="43.75052" lon="4.71937">
        <ele>91</ele>
        <time>2019-05-22T10:21:29Z</time>
      </trkpt>
      <trkpt lat="43.75052" lon="4.71933">
        <ele>91</ele>
        <time>2019-05-22T10:21:34Z</time>
      </trkpt>
      <trkpt lat="43.75053" lon="4.71931">
        <ele>91</ele>
        <time>2019-05-22T10:21:38Z</time>
      </trkpt>
      <trkpt lat="43.75053" lon="4.71928">
        <ele>92</ele>
        <time>2019-05-22T10:21:43Z</time>
      </trkpt>
      <trkpt lat="43.75053" lon="4.71925">
        <ele>92</ele>
        <time>2019-05-22T10:21:48Z</time>
      </trkpt>
      <trkpt lat="43.75052" lon="4.71923">
        <ele>91</ele>
        <time>2019-05-22T10:21:53Z</time>
      </trkpt>
      <trkpt lat="43.75051" lon="4.71922">
        <ele>91</ele>
        <time>2019-05-22T10:21:57Z</time>
      </trkpt>
      <trkpt lat="43.75051" lon="4.71921">
        <ele>91</ele>
        <time>2019-05-22T10:22:09Z</time>
      </trkpt>
      <trkpt lat="43.7505" lon="4.7192">
        <ele>91</ele>
        <time>2019-05-22T10:22:38Z</time>
      </trkpt>
      <trkpt lat="43.7505" lon="4.71919">
        <ele>91</ele>
        <time>2019-05-22T10:22:44Z</time>
      </trkpt>
      <trkpt lat="43.75049" lon="4.71915">
        <ele>87</ele>
        <time>2019-05-22T10:22:49Z</time>
      </trkpt>
      <trkpt lat="43.75049" lon="4.71912">
        <ele>86</ele>
        <time>2019-05-22T10:22:52Z</time>
      </trkpt>
      <trkpt lat="43.75048" lon="4.71908">
        <ele>86</ele>
        <time>2019-05-22T10:22:56Z</time>
      </trkpt>
      <trkpt lat="43.75048" lon="4.71905">
        <ele>86</ele>
        <time>2019-05-22T10:23:01Z</time>
      </trkpt>
      <trkpt lat="43.75048" lon="4.71904">
        <ele>86</ele>
        <time>2019-05-22T10:23:04Z</time>
      </trkpt>
      <trkpt lat="43.75048" lon="4.719">
        <ele>86</ele>
        <time>2019-05-22T10:23:08Z</time>
      </trkpt>
      <trkpt lat="43.75048" lon="4.71896">
        <ele>85</ele>
        <time>2019-05-22T10:23:12Z</time>
      </trkpt>
      <trkpt lat="43.75048" lon="4.71894">
        <ele>85</ele>
        <time>2019-05-22T10:23:16Z</time>
      </trkpt>
      <trkpt lat="43.75048" lon="4.71893">
        <ele>85</ele>
        <time>2019-05-22T10:23:23Z</time>
      </trkpt>
      <trkpt lat="43.75047" lon="4.71892">
        <ele>85</ele>
        <time>2019-05-22T10:23:28Z</time>
      </trkpt>
      <trkpt lat="43.75047" lon="4.71891">
        <ele>85</ele>
        <time>2019-05-22T10:23:38Z</time>
      </trkpt>
      <trkpt lat="43.75047" lon="4.71888">
        <ele>85</ele>
        <time>2019-05-22T10:23:42Z</time>
      </trkpt>
      <trkpt lat="43.75047" lon="4.71883">
        <ele>84</ele>
        <time>2019-05-22T10:23:47Z</time>
      </trkpt>
      <trkpt lat="43.75047" lon="4.71877">
        <ele>84</ele>
        <time>2019-05-22T10:23:52Z</time>
      </trkpt>
      <trkpt lat="43.75047" lon="4.71873">
        <ele>84</ele>
        <time>2019-05-22T10:23:55Z</time>
      </trkpt>
      <trkpt lat="43.75048" lon="4.71869">
        <ele>83</ele>
        <time>2019-05-22T10:24:00Z</time>
      </trkpt>
      <trkpt lat="43.75048" lon="4.71866">
        <ele>83</ele>
        <time>2019-05-22T10:24:04Z</time>
      </trkpt>
      <trkpt lat="43.75049" lon="4.71862">
        <ele>83</ele>
        <time>2019-05-22T10:24:09Z</time>
      </trkpt>
      <trkpt lat="43.75049" lon="4.71856">
        <ele>83</ele>
        <time>2019-05-22T10:24:13Z</time>
      </trkpt>
      <trkpt lat="43.75049" lon="4.71852">
        <ele>83</ele>
        <time>2019-05-22T10:24:17Z</time>
      </trkpt>
      <trkpt lat="43.7505" lon="4.71847">
        <ele>83</ele>
        <time>2019-05-22T10:24:22Z</time>
      </trkpt>
      <trkpt lat="43.7505" lon="4.71843">
        <ele>83</ele>
        <time>2019-05-22T10:24:26Z</time>
      </trkpt>
      <trkpt lat="43.75052" lon="4.71838">
        <ele>83</ele>
        <time>2019-05-22T10:24:31Z</time>
      </trkpt>
      <trkpt lat="43.75054" lon="4.71833">
        <ele>78</ele>
        <time>2019-05-22T10:24:36Z</time>
      </trkpt>
      <trkpt lat="43.75056" lon="4.71829">
        <ele>78</ele>
        <time>2019-05-22T10:24:40Z</time>
      </trkpt>
      <trkpt lat="43.75059" lon="4.71826">
        <ele>78</ele>
        <time>2019-05-22T10:24:45Z</time>
      </trkpt>
      <trkpt lat="43.75062" lon="4.71824">
        <ele>79</ele>
        <time>2019-05-22T10:24:49Z</time>
      </trkpt>
      <trkpt lat="43.75065" lon="4.71823">
        <ele>80</ele>
        <time>2019-05-22T10:24:53Z</time>
      </trkpt>
      <trkpt lat="43.75071" lon="4.71823">
        <ele>81</ele>
        <time>2019-05-22T10:24:58Z</time>
      </trkpt>
      <trkpt lat="43.75075" lon="4.71821">
        <ele>81</ele>
        <time>2019-05-22T10:25:03Z</time>
      </trkpt>
      <trkpt lat="43.75077" lon="4.7182">
        <ele>81</ele>
        <time>2019-05-22T10:25:06Z</time>
      </trkpt>
      <trkpt lat="43.75081" lon="4.71818">
        <ele>81</ele>
        <time>2019-05-22T10:25:11Z</time>
      </trkpt>
      <trkpt lat="43.75084" lon="4.71817">
        <ele>87</ele>
        <time>2019-05-22T10:25:15Z</time>
      </trkpt>
      <trkpt lat="43.75087" lon="4.71815">
        <ele>87</ele>
        <time>2019-05-22T10:25:20Z</time>
      </trkpt>
      <trkpt lat="43.75089" lon="4.71813">
        <ele>87</ele>
        <time>2019-05-22T10:25:24Z</time>
      </trkpt>
      <trkpt lat="43.75091" lon="4.71811">
        <ele>87</ele>
        <time>2019-05-22T10:25:28Z</time>
      </trkpt>
      <trkpt lat="43.75093" lon="4.71809">
        <ele>87</ele>
        <time>2019-05-22T10:25:32Z</time>
      </trkpt>
      <trkpt lat="43.75095" lon="4.71808">
        <ele>87</ele>
        <time>2019-05-22T10:25:36Z</time>
      </trkpt>
      <trkpt lat="43.751" lon="4.71806">
        <ele>88</ele>
        <time>2019-05-22T10:25:41Z</time>
      </trkpt>
      <trkpt lat="43.75105" lon="4.71806">
        <ele>88</ele>
        <time>2019-05-22T10:25:46Z</time>
      </trkpt>
      <trkpt lat="43.75111" lon="4.71806">
        <ele>88</ele>
        <time>2019-05-22T10:25:50Z</time>
      </trkpt>
      <trkpt lat="43.75115" lon="4.71805">
        <ele>88</ele>
        <time>2019-05-22T10:25:54Z</time>
      </trkpt>
      <trkpt lat="43.75119" lon="4.71805">
        <ele>89</ele>
        <time>2019-05-22T10:25:59Z</time>
      </trkpt>
      <trkpt lat="43.75123" lon="4.71805">
        <ele>89</ele>
        <time>2019-05-22T10:26:02Z</time>
      </trkpt>
      <trkpt lat="43.75127" lon="4.71805">
        <ele>89</ele>
        <time>2019-05-22T10:26:06Z</time>
      </trkpt>
      <trkpt lat="43.75133" lon="4.71807">
        <ele>90</ele>
        <time>2019-05-22T10:26:11Z</time>
      </trkpt>
      <trkpt lat="43.75136" lon="4.71808">
        <ele>90</ele>
        <time>2019-05-22T10:26:14Z</time>
      </trkpt>
      <trkpt lat="43.75139" lon="4.7181">
        <ele>90</ele>
        <time>2019-05-22T10:26:18Z</time>
      </trkpt>
      <trkpt lat="43.75142" lon="4.71812">
        <ele>90</ele>
        <time>2019-05-22T10:26:22Z</time>
      </trkpt>
      <trkpt lat="43.75145" lon="4.71814">
        <ele>91</ele>
        <time>2019-05-22T10:26:25Z</time>
      </trkpt>
      <trkpt lat="43.75149" lon="4.71816">
        <ele>91</ele>
        <time>2019-05-22T10:26:29Z</time>
      </trkpt>
      <trkpt lat="43.75152" lon="4.71819">
        <ele>92</ele>
        <time>2019-05-22T10:26:33Z</time>
      </trkpt>
      <trkpt lat="43.75156" lon="4.71822">
        <ele>92</ele>
        <time>2019-05-22T10:26:37Z</time>
      </trkpt>
      <trkpt lat="43.75161" lon="4.71826">
        <ele>93</ele>
        <time>2019-05-22T10:26:42Z</time>
      </trkpt>
      <trkpt lat="43.75166" lon="4.7183">
        <ele>94</ele>
        <time>2019-05-22T10:26:47Z</time>
      </trkpt>
      <trkpt lat="43.75168" lon="4.71832">
        <ele>95</ele>
        <time>2019-05-22T10:26:51Z</time>
      </trkpt>
      <trkpt lat="43.75171" lon="4.71835">
        <ele>97</ele>
        <time>2019-05-22T10:26:56Z</time>
      </trkpt>
      <trkpt lat="43.75172" lon="4.71838">
        <ele>98</ele>
        <time>2019-05-22T10:27:00Z</time>
      </trkpt>
      <trkpt lat="43.75172" lon="4.7184">
        <ele>99</ele>
        <time>2019-05-22T10:27:04Z</time>
      </trkpt>
      <trkpt lat="43.75173" lon="4.71843">
        <ele>99</ele>
        <time>2019-05-22T10:27:08Z</time>
      </trkpt>
      <trkpt lat="43.75174" lon="4.71845">
        <ele>100</ele>
        <time>2019-05-22T10:27:11Z</time>
      </trkpt>
      <trkpt lat="43.75175" lon="4.71848">
        <ele>101</ele>
        <time>2019-05-22T10:27:16Z</time>
      </trkpt>
      <trkpt lat="43.75176" lon="4.7185">
        <ele>101</ele>
        <time>2019-05-22T10:27:21Z</time>
      </trkpt>
      <trkpt lat="43.75178" lon="4.71854">
        <ele>102</ele>
        <time>2019-05-22T10:27:26Z</time>
      </trkpt>
      <trkpt lat="43.75181" lon="4.71858">
        <ele>103</ele>
        <time>2019-05-22T10:27:31Z</time>
      </trkpt>
      <trkpt lat="43.75182" lon="4.7186">
        <ele>104</ele>
        <time>2019-05-22T10:27:34Z</time>
      </trkpt>
      <trkpt lat="43.75185" lon="4.71864">
        <ele>104</ele>
        <time>2019-05-22T10:27:38Z</time>
      </trkpt>
      <trkpt lat="43.7519" lon="4.71866">
        <ele>105</ele>
        <time>2019-05-22T10:27:43Z</time>
      </trkpt>
      <trkpt lat="43.75192" lon="4.7187">
        <ele>106</ele>
        <time>2019-05-22T10:27:48Z</time>
      </trkpt>
      <trkpt lat="43.75192" lon="4.71871">
        <ele>106</ele>
        <time>2019-05-22T10:27:52Z</time>
      </trkpt>
      <trkpt lat="43.75196" lon="4.71867">
        <ele>106</ele>
        <time>2019-05-22T10:27:57Z</time>
      </trkpt>
      <trkpt lat="43.75198" lon="4.71865">
        <ele>106</ele>
        <time>2019-05-22T10:28:00Z</time>
      </trkpt>
      <trkpt lat="43.75201" lon="4.71862">
        <ele>106</ele>
        <time>2019-05-22T10:28:05Z</time>
      </trkpt>
      <trkpt lat="43.75201" lon="4.71859">
        <ele>105</ele>
        <time>2019-05-22T10:28:10Z</time>
      </trkpt>
      <trkpt lat="43.75201" lon="4.71855">
        <ele>105</ele>
        <time>2019-05-22T10:28:14Z</time>
      </trkpt>
      <trkpt lat="43.75201" lon="4.7185">
        <ele>105</ele>
        <time>2019-05-22T10:28:18Z</time>
      </trkpt>
      <trkpt lat="43.752" lon="4.71843">
        <ele>104</ele>
        <time>2019-05-22T10:28:23Z</time>
      </trkpt>
      <trkpt lat="43.75198" lon="4.71837">
        <ele>104</ele>
        <time>2019-05-22T10:28:27Z</time>
      </trkpt>
      <trkpt lat="43.75198" lon="4.71831">
        <ele>100</ele>
        <time>2019-05-22T10:28:31Z</time>
      </trkpt>
      <trkpt lat="43.75198" lon="4.71824">
        <ele>100</ele>
        <time>2019-05-22T10:28:36Z</time>
      </trkpt>
      <trkpt lat="43.75197" lon="4.7182">
        <ele>100</ele>
        <time>2019-05-22T10:28:40Z</time>
      </trkpt>
      <trkpt lat="43.75197" lon="4.71816">
        <ele>100</ele>
        <time>2019-05-22T10:28:44Z</time>
      </trkpt>
      <trkpt lat="43.75198" lon="4.7181">
        <ele>100</ele>
        <time>2019-05-22T10:28:48Z</time>
      </trkpt>
      <trkpt lat="43.75197" lon="4.71805">
        <ele>100</ele>
        <time>2019-05-22T10:28:52Z</time>
      </trkpt>
      <trkpt lat="43.75195" lon="4.71799">
        <ele>100</ele>
        <time>2019-05-22T10:28:57Z</time>
      </trkpt>
      <trkpt lat="43.75193" lon="4.71793">
        <ele>100</ele>
        <time>2019-05-22T10:29:01Z</time>
      </trkpt>
      <trkpt lat="43.75191" lon="4.71789">
        <ele>100</ele>
        <time>2019-05-22T10:29:04Z</time>
      </trkpt>
      <trkpt lat="43.75188" lon="4.71786">
        <ele>99</ele>
        <time>2019-05-22T10:29:07Z</time>
      </trkpt>
      <trkpt lat="43.75186" lon="4.7178">
        <ele>99</ele>
        <time>2019-05-22T10:29:11Z</time>
      </trkpt>
      <trkpt lat="43.75182" lon="4.71772">
        <ele>98</ele>
        <time>2019-05-22T10:29:16Z</time>
      </trkpt>
      <trkpt lat="43.7518" lon="4.71767">
        <ele>98</ele>
        <time>2019-05-22T10:29:20Z</time>
      </trkpt>
      <trkpt lat="43.75179" lon="4.7176">
        <ele>97</ele>
        <time>2019-05-22T10:29:24Z</time>
      </trkpt>
      <trkpt lat="43.75176" lon="4.71754">
        <ele>96</ele>
        <time>2019-05-22T10:29:29Z</time>
      </trkpt>
      <trkpt lat="43.75174" lon="4.71749">
        <ele>94</ele>
        <time>2019-05-22T10:29:33Z</time>
      </trkpt>
      <trkpt lat="43.75173" lon="4.71744">
        <ele>94</ele>
        <time>2019-05-22T10:29:38Z</time>
      </trkpt>
      <trkpt lat="43.75173" lon="4.7174">
        <ele>94</ele>
        <time>2019-05-22T10:29:42Z</time>
      </trkpt>
      <trkpt lat="43.75173" lon="4.71735">
        <ele>94</ele>
        <time>2019-05-22T10:29:47Z</time>
      </trkpt>
      <trkpt lat="43.75174" lon="4.7173">
        <ele>94</ele>
        <time>2019-05-22T10:29:52Z</time>
      </trkpt>
      <trkpt lat="43.75177" lon="4.71727">
        <ele>94</ele>
        <time>2019-05-22T10:29:56Z</time>
      </trkpt>
      <trkpt lat="43.75179" lon="4.71726">
        <ele>94</ele>
        <time>2019-05-22T10:30:00Z</time>
      </trkpt>
      <trkpt lat="43.75182" lon="4.71726">
        <ele>94</ele>
        <time>2019-05-22T10:30:05Z</time>
      </trkpt>
      <trkpt lat="43.75185" lon="4.71727">
        <ele>94</ele>
        <time>2019-05-22T10:30:09Z</time>
      </trkpt>
      <trkpt lat="43.75188" lon="4.71728">
        <ele>94</ele>
        <time>2019-05-22T10:30:13Z</time>
      </trkpt>
      <trkpt lat="43.75191" lon="4.7173">
        <ele>95</ele>
        <time>2019-05-22T10:30:18Z</time>
      </trkpt>
      <trkpt lat="43.75193" lon="4.71731">
        <ele>95</ele>
        <time>2019-05-22T10:30:22Z</time>
      </trkpt>
      <trkpt lat="43.75194" lon="4.71734">
        <ele>95</ele>
        <time>2019-05-22T10:30:26Z</time>
      </trkpt>
      <trkpt lat="43.75196" lon="4.71735">
        <ele>95</ele>
        <time>2019-05-22T10:30:29Z</time>
      </trkpt>
      <trkpt lat="43.75198" lon="4.71736">
        <ele>95</ele>
        <time>2019-05-22T10:30:33Z</time>
      </trkpt>
      <trkpt lat="43.75199" lon="4.71737">
        <ele>95</ele>
        <time>2019-05-22T10:30:37Z</time>
      </trkpt>
      <trkpt lat="43.75201" lon="4.71739">
        <ele>95</ele>
        <time>2019-05-22T10:30:42Z</time>
      </trkpt>
      <trkpt lat="43.75203" lon="4.71742">
        <ele>96</ele>
        <time>2019-05-22T10:30:46Z</time>
      </trkpt>
      <trkpt lat="43.75204" lon="4.71744">
        <ele>96</ele>
        <time>2019-05-22T10:30:49Z</time>
      </trkpt>
      <trkpt lat="43.75206" lon="4.71744">
        <ele>96</ele>
        <time>2019-05-22T10:30:53Z</time>
      </trkpt>
      <trkpt lat="43.75208" lon="4.71746">
        <ele>96</ele>
        <time>2019-05-22T10:30:58Z</time>
      </trkpt>
      <trkpt lat="43.75209" lon="4.71747">
        <ele>96</ele>
        <time>2019-05-22T10:31:01Z</time>
      </trkpt>
      <trkpt lat="43.75213" lon="4.71748">
        <ele>97</ele>
        <time>2019-05-22T10:31:06Z</time>
      </trkpt>
      <trkpt lat="43.75215" lon="4.71752">
        <ele>101</ele>
        <time>2019-05-22T10:31:11Z</time>
      </trkpt>
      <trkpt lat="43.75218" lon="4.71754">
        <ele>101</ele>
        <time>2019-05-22T10:31:15Z</time>
      </trkpt>
      <trkpt lat="43.75223" lon="4.71758">
        <ele>102</ele>
        <time>2019-05-22T10:31:20Z</time>
      </trkpt>
      <trkpt lat="43.75226" lon="4.7176">
        <ele>102</ele>
        <time>2019-05-22T10:31:24Z</time>
      </trkpt>
      <trkpt lat="43.75229" lon="4.71762">
        <ele>102</ele>
        <time>2019-05-22T10:31:29Z</time>
      </trkpt>
      <trkpt lat="43.7523" lon="4.71763">
        <ele>102</ele>
        <time>2019-05-22T10:31:33Z</time>
      </trkpt>
      <trkpt lat="43.75232" lon="4.71764">
        <ele>102</ele>
        <time>2019-05-22T10:31:37Z</time>
      </trkpt>
      <trkpt lat="43.75234" lon="4.71767">
        <ele>102</ele>
        <time>2019-05-22T10:31:42Z</time>
      </trkpt>
      <trkpt lat="43.75236" lon="4.71771">
        <ele>102</ele>
        <time>2019-05-22T10:31:47Z</time>
      </trkpt>
      <trkpt lat="43.75239" lon="4.71774">
        <ele>103</ele>
        <time>2019-05-22T10:31:51Z</time>
      </trkpt>
      <trkpt lat="43.7524" lon="4.71778">
        <ele>103</ele>
        <time>2019-05-22T10:31:56Z</time>
      </trkpt>
      <trkpt lat="43.7524" lon="4.71778">
        <ele>103</ele>
        <time>2019-05-22T10:31:59Z</time>
      </trkpt>
      <trkpt lat="43.75241" lon="4.71779">
        <ele>103</ele>
        <time>2019-05-22T10:32:03Z</time>
      </trkpt>
      <trkpt lat="43.75242" lon="4.71783">
        <ele>103</ele>
        <time>2019-05-22T10:32:08Z</time>
      </trkpt>
      <trkpt lat="43.75243" lon="4.71787">
        <ele>103</ele>
        <time>2019-05-22T10:32:12Z</time>
      </trkpt>
      <trkpt lat="43.75244" lon="4.71792">
        <ele>103</ele>
        <time>2019-05-22T10:32:16Z</time>
      </trkpt>
      <trkpt lat="43.75246" lon="4.71796">
        <ele>104</ele>
        <time>2019-05-22T10:32:20Z</time>
      </trkpt>
      <trkpt lat="43.75248" lon="4.71797">
        <ele>104</ele>
        <time>2019-05-22T10:32:25Z</time>
      </trkpt>
      <trkpt lat="43.75249" lon="4.718">
        <ele>104</ele>
        <time>2019-05-22T10:32:29Z</time>
      </trkpt>
      <trkpt lat="43.7525" lon="4.71805">
        <ele>111</ele>
        <time>2019-05-22T10:32:34Z</time>
      </trkpt>
      <trkpt lat="43.75251" lon="4.71808">
        <ele>111</ele>
        <time>2019-05-22T10:32:38Z</time>
      </trkpt>
      <trkpt lat="43.75252" lon="4.7181">
        <ele>111</ele>
        <time>2019-05-22T10:32:42Z</time>
      </trkpt>
      <trkpt lat="43.75254" lon="4.71814">
        <ele>111</ele>
        <time>2019-05-22T10:32:47Z</time>
      </trkpt>
      <trkpt lat="43.75255" lon="4.71816">
        <ele>112</ele>
        <time>2019-05-22T10:32:51Z</time>
      </trkpt>
      <trkpt lat="43.75257" lon="4.71819">
        <ele>112</ele>
        <time>2019-05-22T10:32:55Z</time>
      </trkpt>
      <trkpt lat="43.75259" lon="4.71824">
        <ele>112</ele>
        <time>2019-05-22T10:32:59Z</time>
      </trkpt>
      <trkpt lat="43.75261" lon="4.71828">
        <ele>112</ele>
        <time>2019-05-22T10:33:03Z</time>
      </trkpt>
      <trkpt lat="43.75261" lon="4.71829">
        <ele>112</ele>
        <time>2019-05-22T10:33:10Z</time>
      </trkpt>
      <trkpt lat="43.7526" lon="4.71829">
        <ele>112</ele>
        <time>2019-05-22T10:33:14Z</time>
      </trkpt>
      <trkpt lat="43.75259" lon="4.71833">
        <ele>112</ele>
        <time>2019-05-22T10:33:18Z</time>
      </trkpt>
      <trkpt lat="43.7526" lon="4.71836">
        <ele>113</ele>
        <time>2019-05-22T10:33:22Z</time>
      </trkpt>
      <trkpt lat="43.75261" lon="4.71841">
        <ele>114</ele>
        <time>2019-05-22T10:33:26Z</time>
      </trkpt>
      <trkpt lat="43.75265" lon="4.71845">
        <ele>115</ele>
        <time>2019-05-22T10:33:30Z</time>
      </trkpt>
      <trkpt lat="43.75271" lon="4.71845">
        <ele>115</ele>
        <time>2019-05-22T10:33:33Z</time>
      </trkpt>
      <trkpt lat="43.75277" lon="4.71842">
        <ele>116</ele>
        <time>2019-05-22T10:33:38Z</time>
      </trkpt>
      <trkpt lat="43.7528" lon="4.7184">
        <ele>116</ele>
        <time>2019-05-22T10:33:42Z</time>
      </trkpt>
      <trkpt lat="43.75283" lon="4.71841">
        <ele>117</ele>
        <time>2019-05-22T10:33:47Z</time>
      </trkpt>
      <trkpt lat="43.75286" lon="4.71841">
        <ele>117</ele>
        <time>2019-05-22T10:33:52Z</time>
      </trkpt>
      <trkpt lat="43.75289" lon="4.71839">
        <ele>118</ele>
        <time>2019-05-22T10:33:56Z</time>
      </trkpt>
      <trkpt lat="43.75293" lon="4.71836">
        <ele>118</ele>
        <time>2019-05-22T10:34:01Z</time>
      </trkpt>
      <trkpt lat="43.75296" lon="4.71835">
        <ele>118</ele>
        <time>2019-05-22T10:34:05Z</time>
      </trkpt>
      <trkpt lat="43.75299" lon="4.71834">
        <ele>119</ele>
        <time>2019-05-22T10:34:09Z</time>
      </trkpt>
      <trkpt lat="43.753" lon="4.71833">
        <ele>115</ele>
        <time>2019-05-22T10:34:12Z</time>
      </trkpt>
      <trkpt lat="43.75303" lon="4.71833">
        <ele>116</ele>
        <time>2019-05-22T10:34:16Z</time>
      </trkpt>
      <trkpt lat="43.75306" lon="4.71834">
        <ele>120</ele>
        <time>2019-05-22T10:34:20Z</time>
      </trkpt>
      <trkpt lat="43.75309" lon="4.71835">
        <ele>120</ele>
        <time>2019-05-22T10:34:24Z</time>
      </trkpt>
      <trkpt lat="43.7531" lon="4.71834">
        <ele>120</ele>
        <time>2019-05-22T10:34:28Z</time>
      </trkpt>
      <trkpt lat="43.75311" lon="4.71835">
        <ele>120</ele>
        <time>2019-05-22T10:34:32Z</time>
      </trkpt>
      <trkpt lat="43.75312" lon="4.71837">
        <ele>120</ele>
        <time>2019-05-22T10:34:36Z</time>
      </trkpt>
      <trkpt lat="43.75315" lon="4.7184">
        <ele>121</ele>
        <time>2019-05-22T10:34:41Z</time>
      </trkpt>
      <trkpt lat="43.75316" lon="4.71841">
        <ele>121</ele>
        <time>2019-05-22T10:34:44Z</time>
      </trkpt>
      <trkpt lat="43.75317" lon="4.71842">
        <ele>121</ele>
        <time>2019-05-22T10:34:49Z</time>
      </trkpt>
      <trkpt lat="43.75318" lon="4.71844">
        <ele>121</ele>
        <time>2019-05-22T10:34:52Z</time>
      </trkpt>
      <trkpt lat="43.75319" lon="4.71846">
        <ele>121</ele>
        <time>2019-05-22T10:34:56Z</time>
      </trkpt>
      <trkpt lat="43.75321" lon="4.71848">
        <ele>121</ele>
        <time>2019-05-22T10:35:01Z</time>
      </trkpt>
      <trkpt lat="43.75323" lon="4.7185">
        <ele>121</ele>
        <time>2019-05-22T10:35:05Z</time>
      </trkpt>
      <trkpt lat="43.75325" lon="4.71853">
        <ele>121</ele>
        <time>2019-05-22T10:35:09Z</time>
      </trkpt>
      <trkpt lat="43.75329" lon="4.71858">
        <ele>121</ele>
        <time>2019-05-22T10:35:14Z</time>
      </trkpt>
      <trkpt lat="43.7533" lon="4.7186">
        <ele>121</ele>
        <time>2019-05-22T10:35:17Z</time>
      </trkpt>
      <trkpt lat="43.75331" lon="4.71862">
        <ele>121</ele>
        <time>2019-05-22T10:35:21Z</time>
      </trkpt>
      <trkpt lat="43.75332" lon="4.71866">
        <ele>121</ele>
        <time>2019-05-22T10:35:25Z</time>
      </trkpt>
      <trkpt lat="43.75333" lon="4.71869">
        <ele>121</ele>
        <time>2019-05-22T10:35:28Z</time>
      </trkpt>
      <trkpt lat="43.75335" lon="4.71871">
        <ele>127</ele>
        <time>2019-05-22T10:35:33Z</time>
      </trkpt>
      <trkpt lat="43.75337" lon="4.71871">
        <ele>127</ele>
        <time>2019-05-22T10:35:38Z</time>
      </trkpt>
      <trkpt lat="43.75338" lon="4.71873">
        <ele>127</ele>
        <time>2019-05-22T10:35:42Z</time>
      </trkpt>
      <trkpt lat="43.75341" lon="4.71874">
        <ele>127</ele>
        <time>2019-05-22T10:35:46Z</time>
      </trkpt>
      <trkpt lat="43.75342" lon="4.71874">
        <ele>127</ele>
        <time>2019-05-22T10:35:50Z</time>
      </trkpt>
      <trkpt lat="43.75343" lon="4.71875">
        <ele>127</ele>
        <time>2019-05-22T10:35:54Z</time>
      </trkpt>
      <trkpt lat="43.75344" lon="4.71876">
        <ele>127</ele>
        <time>2019-05-22T10:35:59Z</time>
      </trkpt>
      <trkpt lat="43.75345" lon="4.71878">
        <ele>127</ele>
        <time>2019-05-22T10:36:02Z</time>
      </trkpt>
      <trkpt lat="43.75346" lon="4.71881">
        <ele>127</ele>
        <time>2019-05-22T10:36:06Z</time>
      </trkpt>
      <trkpt lat="43.75348" lon="4.71883">
        <ele>127</ele>
        <time>2019-05-22T10:36:11Z</time>
      </trkpt>
      <trkpt lat="43.75351" lon="4.71887">
        <ele>128</ele>
        <time>2019-05-22T10:36:15Z</time>
      </trkpt>
      <trkpt lat="43.75359" lon="4.719">
        <ele>128</ele>
        <time>2019-05-22T10:36:20Z</time>
      </trkpt>
      <trkpt lat="43.75359" lon="4.71896">
        <ele>128</ele>
        <time>2019-05-22T10:36:24Z</time>
      </trkpt>
      <trkpt lat="43.75359" lon="4.71894">
        <ele>128</ele>
        <time>2019-05-22T10:36:31Z</time>
      </trkpt>
      <trkpt lat="43.75359" lon="4.71894">
        <ele>128</ele>
        <time>2019-05-22T10:36:35Z</time>
      </trkpt>
      <trkpt lat="43.7536" lon="4.71895">
        <ele>128</ele>
        <time>2019-05-22T10:36:41Z</time>
      </trkpt>
      <trkpt lat="43.75361" lon="4.71896">
        <ele>128</ele>
        <time>2019-05-22T10:36:44Z</time>
      </trkpt>
      <trkpt lat="43.75366" lon="4.71899">
        <ele>128</ele>
        <time>2019-05-22T10:36:48Z</time>
      </trkpt>
      <trkpt lat="43.75371" lon="4.71902">
        <ele>129</ele>
        <time>2019-05-22T10:36:52Z</time>
      </trkpt>
      <trkpt lat="43.75374" lon="4.71907">
        <ele>129</ele>
        <time>2019-05-22T10:36:56Z</time>
      </trkpt>
      <trkpt lat="43.75377" lon="4.71912">
        <ele>130</ele>
        <time>2019-05-22T10:37:01Z</time>
      </trkpt>
      <trkpt lat="43.7538" lon="4.71916">
        <ele>130</ele>
        <time>2019-05-22T10:37:05Z</time>
      </trkpt>
      <trkpt lat="43.75386" lon="4.71918">
        <ele>132</ele>
        <time>2019-05-22T10:37:09Z</time>
      </trkpt>
      <trkpt lat="43.75391" lon="4.71922">
        <ele>133</ele>
        <time>2019-05-22T10:37:14Z</time>
      </trkpt>
      <trkpt lat="43.75396" lon="4.71925">
        <ele>133</ele>
        <time>2019-05-22T10:37:19Z</time>
      </trkpt>
      <trkpt lat="43.754" lon="4.71926">
        <ele>134</ele>
        <time>2019-05-22T10:37:23Z</time>
      </trkpt>
      <trkpt lat="43.75401" lon="4.71928">
        <ele>134</ele>
        <time>2019-05-22T10:37:28Z</time>
      </trkpt>
      <trkpt lat="43.75402" lon="4.71929">
        <ele>134</ele>
        <time>2019-05-22T10:37:32Z</time>
      </trkpt>
      <trkpt lat="43.75403" lon="4.71932">
        <ele>134</ele>
        <time>2019-05-22T10:37:36Z</time>
      </trkpt>
      <trkpt lat="43.75404" lon="4.71936">
        <ele>133</ele>
        <time>2019-05-22T10:37:41Z</time>
      </trkpt>
      <trkpt lat="43.75406" lon="4.71938">
        <ele>133</ele>
        <time>2019-05-22T10:37:45Z</time>
      </trkpt>
      <trkpt lat="43.75409" lon="4.71943">
        <ele>133</ele>
        <time>2019-05-22T10:37:50Z</time>
      </trkpt>
      <trkpt lat="43.75418" lon="4.71952">
        <ele>138</ele>
        <time>2019-05-22T10:37:55Z</time>
      </trkpt>
      <trkpt lat="43.75426" lon="4.71959">
        <ele>139</ele>
        <time>2019-05-22T10:37:59Z</time>
      </trkpt>
      <trkpt lat="43.75433" lon="4.71961">
        <ele>139</ele>
        <time>2019-05-22T10:38:04Z</time>
      </trkpt>
      <trkpt lat="43.75436" lon="4.71963">
        <ele>139</ele>
        <time>2019-05-22T10:38:08Z</time>
      </trkpt>
      <trkpt lat="43.7544" lon="4.71964">
        <ele>139</ele>
        <time>2019-05-22T10:38:12Z</time>
      </trkpt>
      <trkpt lat="43.75442" lon="4.71967">
        <ele>139</ele>
        <time>2019-05-22T10:38:16Z</time>
      </trkpt>
      <trkpt lat="43.75444" lon="4.71969">
        <ele>139</ele>
        <time>2019-05-22T10:38:20Z</time>
      </trkpt>
      <trkpt lat="43.75447" lon="4.7197">
        <ele>139</ele>
        <time>2019-05-22T10:38:23Z</time>
      </trkpt>
      <trkpt lat="43.7545" lon="4.71969">
        <ele>139</ele>
        <time>2019-05-22T10:38:27Z</time>
      </trkpt>
      <trkpt lat="43.7545" lon="4.7197">
        <ele>139</ele>
        <time>2019-05-22T10:38:30Z</time>
      </trkpt>
      <trkpt lat="43.75451" lon="4.71971">
        <ele>139</ele>
        <time>2019-05-22T10:38:34Z</time>
      </trkpt>
      <trkpt lat="43.75452" lon="4.71972">
        <ele>139</ele>
        <time>2019-05-22T10:38:38Z</time>
      </trkpt>
      <trkpt lat="43.75454" lon="4.71972">
        <ele>139</ele>
        <time>2019-05-22T10:38:42Z</time>
      </trkpt>
      <trkpt lat="43.75457" lon="4.71975">
        <ele>140</ele>
        <time>2019-05-22T10:38:46Z</time>
      </trkpt>
      <trkpt lat="43.75459" lon="4.7198">
        <ele>140</ele>
        <time>2019-05-22T10:38:50Z</time>
      </trkpt>
      <trkpt lat="43.75462" lon="4.71986">
        <ele>140</ele>
        <time>2019-05-22T10:38:55Z</time>
      </trkpt>
      <trkpt lat="43.75466" lon="4.71992">
        <ele>140</ele>
        <time>2019-05-22T10:39:00Z</time>
      </trkpt>
      <trkpt lat="43.75468" lon="4.71996">
        <ele>141</ele>
        <time>2019-05-22T10:39:04Z</time>
      </trkpt>
      <trkpt lat="43.7547" lon="4.72">
        <ele>144</ele>
        <time>2019-05-22T10:39:08Z</time>
      </trkpt>
      <trkpt lat="43.75477" lon="4.72007">
        <ele>145</ele>
        <time>2019-05-22T10:39:12Z</time>
      </trkpt>
      <trkpt lat="43.75484" lon="4.72009">
        <ele>145</ele>
        <time>2019-05-22T10:39:17Z</time>
      </trkpt>
      <trkpt lat="43.75487" lon="4.72011">
        <ele>145</ele>
        <time>2019-05-22T10:39:20Z</time>
      </trkpt>
      <trkpt lat="43.7549" lon="4.72012">
        <ele>145</ele>
        <time>2019-05-22T10:39:23Z</time>
      </trkpt>
      <trkpt lat="43.75493" lon="4.72014">
        <ele>145</ele>
        <time>2019-05-22T10:39:27Z</time>
      </trkpt>
      <trkpt lat="43.75499" lon="4.72016">
        <ele>145</ele>
        <time>2019-05-22T10:39:31Z</time>
      </trkpt>
      <trkpt lat="43.75499" lon="4.72016">
        <ele>145</ele>
        <time>2019-05-22T10:39:40Z</time>
      </trkpt>
      <trkpt lat="43.75501" lon="4.72019">
        <ele>147</ele>
        <time>2019-05-22T10:39:45Z</time>
      </trkpt>
      <trkpt lat="43.75502" lon="4.7202">
        <ele>147</ele>
        <time>2019-05-22T10:39:49Z</time>
      </trkpt>
      <trkpt lat="43.75508" lon="4.72024">
        <ele>148</ele>
        <time>2019-05-22T10:39:54Z</time>
      </trkpt>
      <trkpt lat="43.75511" lon="4.72026">
        <ele>148</ele>
        <time>2019-05-22T10:39:57Z</time>
      </trkpt>
      <trkpt lat="43.7551" lon="4.72024">
        <ele>148</ele>
        <time>2019-05-22T10:40:00Z</time>
      </trkpt>
      <trkpt lat="43.75509" lon="4.72022">
        <ele>148</ele>
        <time>2019-05-22T10:40:04Z</time>
      </trkpt>
      <trkpt lat="43.75508" lon="4.72021">
        <ele>148</ele>
        <time>2019-05-22T10:40:08Z</time>
      </trkpt>
      <trkpt lat="43.75508" lon="4.7202">
        <ele>148</ele>
        <time>2019-05-22T10:40:12Z</time>
      </trkpt>
      <trkpt lat="43.75507" lon="4.7202">
        <ele>147</ele>
        <time>2019-05-22T10:40:16Z</time>
      </trkpt>
      <trkpt lat="43.75507" lon="4.7202">
        <ele>147</ele>
        <time>2019-05-22T10:40:32Z</time>
      </trkpt>
      <trkpt lat="43.75507" lon="4.72022">
        <ele>148</ele>
        <time>2019-05-22T10:40:36Z</time>
      </trkpt>
      <trkpt lat="43.75508" lon="4.72023">
        <ele>148</ele>
        <time>2019-05-22T10:40:50Z</time>
      </trkpt>
      <trkpt lat="43.75508" lon="4.72024">
        <ele>148</ele>
        <time>2019-05-22T10:41:36Z</time>
      </trkpt>
      <trkpt lat="43.75509" lon="4.72025">
        <ele>148</ele>
        <time>2019-05-22T10:41:54Z</time>
      </trkpt>
      <trkpt lat="43.7551" lon="4.72026">
        <ele>148</ele>
        <time>2019-05-22T10:41:58Z</time>
      </trkpt>
      <trkpt lat="43.75515" lon="4.7203">
        <ele>148</ele>
        <time>2019-05-22T10:42:02Z</time>
      </trkpt>
      <trkpt lat="43.75517" lon="4.72032">
        <ele>148</ele>
        <time>2019-05-22T10:42:05Z</time>
      </trkpt>
      <trkpt lat="43.7552" lon="4.72034">
        <ele>149</ele>
        <time>2019-05-22T10:42:10Z</time>
      </trkpt>
      <trkpt lat="43.75522" lon="4.72036">
        <ele>149</ele>
        <time>2019-05-22T10:42:15Z</time>
      </trkpt>
      <trkpt lat="43.75524" lon="4.72038">
        <ele>149</ele>
        <time>2019-05-22T10:42:19Z</time>
      </trkpt>
      <trkpt lat="43.75525" lon="4.72038">
        <ele>149</ele>
        <time>2019-05-22T10:42:24Z</time>
      </trkpt>
      <trkpt lat="43.75528" lon="4.72041">
        <ele>149</ele>
        <time>2019-05-22T10:42:29Z</time>
      </trkpt>
      <trkpt lat="43.75534" lon="4.72046">
        <ele>149</ele>
        <time>2019-05-22T10:42:34Z</time>
      </trkpt>
      <trkpt lat="43.75537" lon="4.72049">
        <ele>149</ele>
        <time>2019-05-22T10:42:38Z</time>
      </trkpt>
      <trkpt lat="43.75541" lon="4.72053">
        <ele>150</ele>
        <time>2019-05-22T10:42:42Z</time>
      </trkpt>
      <trkpt lat="43.75545" lon="4.72057">
        <ele>150</ele>
        <time>2019-05-22T10:42:46Z</time>
      </trkpt>
      <trkpt lat="43.75551" lon="4.72061">
        <ele>150</ele>
        <time>2019-05-22T10:42:51Z</time>
      </trkpt>
      <trkpt lat="43.75557" lon="4.72064">
        <ele>150</ele>
        <time>2019-05-22T10:42:56Z</time>
      </trkpt>
      <trkpt lat="43.7556" lon="4.72067">
        <ele>151</ele>
        <time>2019-05-22T10:43:00Z</time>
      </trkpt>
      <trkpt lat="43.75561" lon="4.72068">
        <ele>151</ele>
        <time>2019-05-22T10:43:04Z</time>
      </trkpt>
      <trkpt lat="43.75564" lon="4.72071">
        <ele>151</ele>
        <time>2019-05-22T10:43:08Z</time>
      </trkpt>
      <trkpt lat="43.75566" lon="4.72074">
        <ele>151</ele>
        <time>2019-05-22T10:43:12Z</time>
      </trkpt>
      <trkpt lat="43.75568" lon="4.72076">
        <ele>152</ele>
        <time>2019-05-22T10:43:16Z</time>
      </trkpt>
      <trkpt lat="43.7557" lon="4.72079">
        <ele>152</ele>
        <time>2019-05-22T10:43:20Z</time>
      </trkpt>
      <trkpt lat="43.75573" lon="4.72082">
        <ele>152</ele>
        <time>2019-05-22T10:43:25Z</time>
      </trkpt>
      <trkpt lat="43.75577" lon="4.72084">
        <ele>155</ele>
        <time>2019-05-22T10:43:28Z</time>
      </trkpt>
      <trkpt lat="43.75581" lon="4.72087">
        <ele>155</ele>
        <time>2019-05-22T10:43:33Z</time>
      </trkpt>
      <trkpt lat="43.75583" lon="4.72089">
        <ele>155</ele>
        <time>2019-05-22T10:43:37Z</time>
      </trkpt>
      <trkpt lat="43.75586" lon="4.72091">
        <ele>155</ele>
        <time>2019-05-22T10:43:40Z</time>
      </trkpt>
      <trkpt lat="43.75591" lon="4.72095">
        <ele>156</ele>
        <time>2019-05-22T10:43:45Z</time>
      </trkpt>
      <trkpt lat="43.75594" lon="4.72097">
        <ele>156</ele>
        <time>2019-05-22T10:43:49Z</time>
      </trkpt>
      <trkpt lat="43.75598" lon="4.721">
        <ele>156</ele>
        <time>2019-05-22T10:43:54Z</time>
      </trkpt>
      <trkpt lat="43.75601" lon="4.72102">
        <ele>157</ele>
        <time>2019-05-22T10:43:57Z</time>
      </trkpt>
      <trkpt lat="43.75607" lon="4.72104">
        <ele>157</ele>
        <time>2019-05-22T10:44:01Z</time>
      </trkpt>
      <trkpt lat="43.7561" lon="4.72106">
        <ele>157</ele>
        <time>2019-05-22T10:44:05Z</time>
      </trkpt>
      <trkpt lat="43.75613" lon="4.72108">
        <ele>157</ele>
        <time>2019-05-22T10:44:10Z</time>
      </trkpt>
      <trkpt lat="43.75617" lon="4.72108">
        <ele>157</ele>
        <time>2019-05-22T10:44:14Z</time>
      </trkpt>
      <trkpt lat="43.75621" lon="4.72107">
        <ele>157</ele>
        <time>2019-05-22T10:44:18Z</time>
      </trkpt>
      <trkpt lat="43.75625" lon="4.72107">
        <ele>157</ele>
        <time>2019-05-22T10:44:22Z</time>
      </trkpt>
      <trkpt lat="43.7563" lon="4.72108">
        <ele>157</ele>
        <time>2019-05-22T10:44:26Z</time>
      </trkpt>
      <trkpt lat="43.75633" lon="4.72109">
        <ele>157</ele>
        <time>2019-05-22T10:44:29Z</time>
      </trkpt>
      <trkpt lat="43.75636" lon="4.7211">
        <ele>157</ele>
        <time>2019-05-22T10:44:32Z</time>
      </trkpt>
      <trkpt lat="43.75639" lon="4.72111">
        <ele>157</ele>
        <time>2019-05-22T10:44:37Z</time>
      </trkpt>
      <trkpt lat="43.75643" lon="4.72112">
        <ele>157</ele>
        <time>2019-05-22T10:44:42Z</time>
      </trkpt>
      <trkpt lat="43.75647" lon="4.72113">
        <ele>157</ele>
        <time>2019-05-22T10:44:47Z</time>
      </trkpt>
      <trkpt lat="43.75648" lon="4.72113">
        <ele>157</ele>
        <time>2019-05-22T10:44:50Z</time>
      </trkpt>
      <trkpt lat="43.75651" lon="4.72114">
        <ele>157</ele>
        <time>2019-05-22T10:44:55Z</time>
      </trkpt>
      <trkpt lat="43.75655" lon="4.72116">
        <ele>157</ele>
        <time>2019-05-22T10:44:59Z</time>
      </trkpt>
      <trkpt lat="43.75658" lon="4.72117">
        <ele>157</ele>
        <time>2019-05-22T10:45:02Z</time>
      </trkpt>
      <trkpt lat="43.75662" lon="4.72116">
        <ele>157</ele>
        <time>2019-05-22T10:45:07Z</time>
      </trkpt>
      <trkpt lat="43.75667" lon="4.72115">
        <ele>154</ele>
        <time>2019-05-22T10:45:12Z</time>
      </trkpt>
      <trkpt lat="43.75668" lon="4.72115">
        <ele>154</ele>
        <time>2019-05-22T10:45:18Z</time>
      </trkpt>
      <trkpt lat="43.75668" lon="4.72121">
        <ele>154</ele>
        <time>2019-05-22T10:45:23Z</time>
      </trkpt>
      <trkpt lat="43.75668" lon="4.72126">
        <ele>155</ele>
        <time>2019-05-22T10:45:27Z</time>
      </trkpt>
      <trkpt lat="43.75668" lon="4.72129">
        <ele>155</ele>
        <time>2019-05-22T10:45:31Z</time>
      </trkpt>
      <trkpt lat="43.75668" lon="4.7213">
        <ele>155</ele>
        <time>2019-05-22T10:45:35Z</time>
      </trkpt>
      <trkpt lat="43.75669" lon="4.72131">
        <ele>155</ele>
        <time>2019-05-22T10:45:39Z</time>
      </trkpt>
      <trkpt lat="43.7567" lon="4.72132">
        <ele>155</ele>
        <time>2019-05-22T10:45:44Z</time>
      </trkpt>
      <trkpt lat="43.75671" lon="4.72133">
        <ele>155</ele>
        <time>2019-05-22T10:45:47Z</time>
      </trkpt>
      <trkpt lat="43.75672" lon="4.72133">
        <ele>155</ele>
        <time>2019-05-22T10:45:53Z</time>
      </trkpt>
      <trkpt lat="43.75672" lon="4.72134">
        <ele>155</ele>
        <time>2019-05-22T10:46:04Z</time>
      </trkpt>
      <trkpt lat="43.75673" lon="4.72135">
        <ele>155</ele>
        <time>2019-05-22T10:46:08Z</time>
      </trkpt>
      <trkpt lat="43.75673" lon="4.72135">
        <ele>156</ele>
        <time>2019-05-22T10:46:25Z</time>
      </trkpt>
      <trkpt lat="43.75674" lon="4.72135">
        <ele>156</ele>
        <time>2019-05-22T10:46:34Z</time>
      </trkpt>
      <trkpt lat="43.75675" lon="4.72135">
        <ele>156</ele>
        <time>2019-05-22T10:47:01Z</time>
      </trkpt>
      <trkpt lat="43.75676" lon="4.72135">
        <ele>155</ele>
        <time>2019-05-22T10:47:18Z</time>
      </trkpt>
      <trkpt lat="43.75676" lon="4.72134">
        <ele>155</ele>
        <time>2019-05-22T10:47:58Z</time>
      </trkpt>
      <trkpt lat="43.75677" lon="4.72134">
        <ele>155</ele>
        <time>2019-05-22T10:48:03Z</time>
      </trkpt>
      <trkpt lat="43.75675" lon="4.72133">
        <ele>155</ele>
        <time>2019-05-22T10:48:07Z</time>
      </trkpt>
      <trkpt lat="43.75671" lon="4.72135">
        <ele>156</ele>
        <time>2019-05-22T10:48:12Z</time>
      </trkpt>
      <trkpt lat="43.75668" lon="4.72137">
        <ele>156</ele>
        <time>2019-05-22T10:48:16Z</time>
      </trkpt>
      <trkpt lat="43.75667" lon="4.72137">
        <ele>156</ele>
        <time>2019-05-22T10:48:21Z</time>
      </trkpt>
      <trkpt lat="43.75666" lon="4.72136">
        <ele>159</ele>
        <time>2019-05-22T10:48:25Z</time>
      </trkpt>
      <trkpt lat="43.75666" lon="4.72137">
        <ele>159</ele>
        <time>2019-05-22T10:49:26Z</time>
      </trkpt>
      <trkpt lat="43.75667" lon="4.72137">
        <ele>156</ele>
        <time>2019-05-22T10:49:30Z</time>
      </trkpt>
      <trkpt lat="43.75668" lon="4.72138">
        <ele>156</ele>
        <time>2019-05-22T10:49:37Z</time>
      </trkpt>
      <trkpt lat="43.75668" lon="4.7214">
        <ele>156</ele>
        <time>2019-05-22T10:49:47Z</time>
      </trkpt>
      <trkpt lat="43.75668" lon="4.72141">
        <ele>156</ele>
        <time>2019-05-22T10:50:03Z</time>
      </trkpt>
      <trkpt lat="43.75668" lon="4.72142">
        <ele>157</ele>
        <time>2019-05-22T10:50:12Z</time>
      </trkpt>
      <trkpt lat="43.75667" lon="4.72143">
        <ele>157</ele>
        <time>2019-05-22T10:50:22Z</time>
      </trkpt>
      <trkpt lat="43.75667" lon="4.72144">
        <ele>159</ele>
        <time>2019-05-22T10:50:27Z</time>
      </trkpt>
      <trkpt lat="43.75666" lon="4.72144">
        <ele>159</ele>
        <time>2019-05-22T10:50:33Z</time>
      </trkpt>
      <trkpt lat="43.75666" lon="4.72146">
        <ele>160</ele>
        <time>2019-05-22T10:50:45Z</time>
      </trkpt>
      <trkpt lat="43.75667" lon="4.72145">
        <ele>159</ele>
        <time>2019-05-22T10:51:50Z</time>
      </trkpt>
      <trkpt lat="43.75666" lon="4.72143">
        <ele>159</ele>
        <time>2019-05-22T10:52:25Z</time>
      </trkpt>
      <trkpt lat="43.75666" lon="4.72142">
        <ele>159</ele>
        <time>2019-05-22T10:52:49Z</time>
      </trkpt>
      <trkpt lat="43.75666" lon="4.72141">
        <ele>159</ele>
        <time>2019-05-22T10:53:08Z</time>
      </trkpt>
      <trkpt lat="43.75667" lon="4.72141">
        <ele>156</ele>
        <time>2019-05-22T10:53:18Z</time>
      </trkpt>
      <trkpt lat="43.75667" lon="4.72141">
        <ele>159</ele>
        <time>2019-05-22T10:53:53Z</time>
      </trkpt>
      <trkpt lat="43.75666" lon="4.72142">
        <ele>159</ele>
        <time>2019-05-22T10:53:58Z</time>
      </trkpt>
      <trkpt lat="43.75667" lon="4.72143">
        <ele>159</ele>
        <time>2019-05-22T10:54:30Z</time>
      </trkpt>
      <trkpt lat="43.75667" lon="4.72143">
        <ele>157</ele>
        <time>2019-05-22T10:54:50Z</time>
      </trkpt>
      <trkpt lat="43.75667" lon="4.72142">
        <ele>157</ele>
        <time>2019-05-22T10:55:08Z</time>
      </trkpt>
      <trkpt lat="43.75667" lon="4.72141">
        <ele>156</ele>
        <time>2019-05-22T10:55:14Z</time>
      </trkpt>
      <trkpt lat="43.75667" lon="4.72142">
        <ele>157</ele>
        <time>2019-05-22T10:55:54Z</time>
      </trkpt>
      <trkpt lat="43.75668" lon="4.72141">
        <ele>156</ele>
        <time>2019-05-22T10:56:13Z</time>
      </trkpt>
      <trkpt lat="43.75668" lon="4.7214">
        <ele>156</ele>
        <time>2019-05-22T10:56:16Z</time>
      </trkpt>
      <trkpt lat="43.75668" lon="4.72141">
        <ele>156</ele>
        <time>2019-05-22T10:56:52Z</time>
      </trkpt>
      <trkpt lat="43.75667" lon="4.72142">
        <ele>157</ele>
        <time>2019-05-22T10:56:56Z</time>
      </trkpt>
      <trkpt lat="43.75666" lon="4.72142">
        <ele>159</ele>
        <time>2019-05-22T10:57:08Z</time>
      </trkpt>
      <trkpt lat="43.75666" lon="4.72142">
        <ele>159</ele>
        <time>2019-05-22T10:57:24Z</time>
      </trkpt>
      <trkpt lat="43.75666" lon="4.7214">
        <ele>159</ele>
        <time>2019-05-22T10:57:29Z</time>
      </trkpt>
      <trkpt lat="43.75666" lon="4.7214">
        <ele>159</ele>
        <time>2019-05-22T10:57:39Z</time>
      </trkpt>
      <trkpt lat="43.75667" lon="4.72142">
        <ele>159</ele>
        <time>2019-05-22T10:57:43Z</time>
      </trkpt>
      <trkpt lat="43.75667" lon="4.72143">
        <ele>157</ele>
        <time>2019-05-22T10:57:47Z</time>
      </trkpt>
      <trkpt lat="43.75667" lon="4.72144">
        <ele>157</ele>
        <time>2019-05-22T10:57:58Z</time>
      </trkpt>
      <trkpt lat="43.75669" lon="4.72144">
        <ele>157</ele>
        <time>2019-05-22T10:58:03Z</time>
      </trkpt>
      <trkpt lat="43.75669" lon="4.72145">
        <ele>157</ele>
        <time>2019-05-22T10:58:09Z</time>
      </trkpt>
      <trkpt lat="43.7567" lon="4.72145">
        <ele>157</ele>
        <time>2019-05-22T10:58:13Z</time>
      </trkpt>
      <trkpt lat="43.7567" lon="4.72146">
        <ele>157</ele>
        <time>2019-05-22T10:58:17Z</time>
      </trkpt>
      <trkpt lat="43.7567" lon="4.72148">
        <ele>157</ele>
        <time>2019-05-22T10:58:21Z</time>
      </trkpt>
      <trkpt lat="43.7567" lon="4.72147">
        <ele>157</ele>
        <time>2019-05-22T10:58:34Z</time>
      </trkpt>
      <trkpt lat="43.7567" lon="4.72147">
        <ele>157</ele>
        <time>2019-05-22T10:58:41Z</time>
      </trkpt>
      <trkpt lat="43.75667" lon="4.72148">
        <ele>157</ele>
        <time>2019-05-22T10:58:45Z</time>
      </trkpt>
      <trkpt lat="43.75667" lon="4.72148">
        <ele>160</ele>
        <time>2019-05-22T10:58:51Z</time>
      </trkpt>
      <trkpt lat="43.75666" lon="4.72146">
        <ele>160</ele>
        <time>2019-05-22T10:58:55Z</time>
      </trkpt>
      <trkpt lat="43.75666" lon="4.72144">
        <ele>159</ele>
        <time>2019-05-22T10:59:00Z</time>
      </trkpt>
      <trkpt lat="43.75665" lon="4.72142">
        <ele>159</ele>
        <time>2019-05-22T10:59:05Z</time>
      </trkpt>
      <trkpt lat="43.75665" lon="4.72143">
        <ele>159</ele>
        <time>2019-05-22T10:59:10Z</time>
      </trkpt>
      <trkpt lat="43.75666" lon="4.72144">
        <ele>159</ele>
        <time>2019-05-22T10:59:15Z</time>
      </trkpt>
      <trkpt lat="43.75667" lon="4.72146">
        <ele>157</ele>
        <time>2019-05-22T10:59:20Z</time>
      </trkpt>
      <trkpt lat="43.75668" lon="4.72147">
        <ele>157</ele>
        <time>2019-05-22T10:59:26Z</time>
      </trkpt>
      <trkpt lat="43.75668" lon="4.72147">
        <ele>157</ele>
        <time>2019-05-22T10:59:32Z</time>
      </trkpt>
      <trkpt lat="43.75669" lon="4.72147">
        <ele>157</ele>
        <time>2019-05-22T10:59:47Z</time>
      </trkpt>
      <trkpt lat="43.75669" lon="4.72146">
        <ele>157</ele>
        <time>2019-05-22T10:59:51Z</time>
      </trkpt>
      <trkpt lat="43.75668" lon="4.72145">
        <ele>157</ele>
        <time>2019-05-22T10:59:56Z</time>
      </trkpt>
      <trkpt lat="43.75669" lon="4.72144">
        <ele>157</ele>
        <time>2019-05-22T11:00:24Z</time>
      </trkpt>
      <trkpt lat="43.75669" lon="4.72145">
        <ele>157</ele>
        <time>2019-05-22T11:00:40Z</time>
      </trkpt>
      <trkpt lat="43.75669" lon="4.72146">
        <ele>157</ele>
        <time>2019-05-22T11:01:03Z</time>
      </trkpt>
      <trkpt lat="43.75668" lon="4.72146">
        <ele>157</ele>
        <time>2019-05-22T11:01:07Z</time>
      </trkpt>
      <trkpt lat="43.75667" lon="4.72147">
        <ele>157</ele>
        <time>2019-05-22T11:01:11Z</time>
      </trkpt>
      <trkpt lat="43.75666" lon="4.72148">
        <ele>160</ele>
        <time>2019-05-22T11:01:15Z</time>
      </trkpt>
      <trkpt lat="43.75667" lon="4.7215">
        <ele>158</ele>
        <time>2019-05-22T11:01:20Z</time>
      </trkpt>
      <trkpt lat="43.75665" lon="4.72146">
        <ele>160</ele>
        <time>2019-05-22T11:01:24Z</time>
      </trkpt>
      <trkpt lat="43.75665" lon="4.72147">
        <ele>160</ele>
        <time>2019-05-22T11:01:32Z</time>
      </trkpt>
      <trkpt lat="43.75665" lon="4.72148">
        <ele>160</ele>
        <time>2019-05-22T11:01:35Z</time>
      </trkpt>
      <trkpt lat="43.75665" lon="4.72148">
        <ele>160</ele>
        <time>2019-05-22T11:01:44Z</time>
      </trkpt>
      <trkpt lat="43.75666" lon="4.72146">
        <ele>160</ele>
        <time>2019-05-22T11:01:49Z</time>
      </trkpt>
      <trkpt lat="43.75666" lon="4.72145">
        <ele>159</ele>
        <time>2019-05-22T11:01:52Z</time>
      </trkpt>
      <trkpt lat="43.75667" lon="4.72144">
        <ele>157</ele>
        <time>2019-05-22T11:02:12Z</time>
      </trkpt>
      <trkpt lat="43.75667" lon="4.72144">
        <ele>157</ele>
        <time>2019-05-22T11:02:42Z</time>
      </trkpt>
      <trkpt lat="43.75667" lon="4.72143">
        <ele>157</ele>
        <time>2019-05-22T11:02:47Z</time>
      </trkpt>
      <trkpt lat="43.75668" lon="4.72143">
        <ele>157</ele>
        <time>2019-05-22T11:03:40Z</time>
      </trkpt>
      <trkpt lat="43.75666" lon="4.72145">
        <ele>159</ele>
        <time>2019-05-22T11:03:45Z</time>
      </trkpt>
      <trkpt lat="43.75666" lon="4.72147">
        <ele>160</ele>
        <time>2019-05-22T11:03:49Z</time>
      </trkpt>
      <trkpt lat="43.75667" lon="4.72148">
        <ele>160</ele>
        <time>2019-05-22T11:03:59Z</time>
      </trkpt>
      <trkpt lat="43.75667" lon="4.7215">
        <ele>158</ele>
        <time>2019-05-22T11:04:03Z</time>
      </trkpt>
      <trkpt lat="43.75667" lon="4.72151">
        <ele>158</ele>
        <time>2019-05-22T11:04:08Z</time>
      </trkpt>
      <trkpt lat="43.75667" lon="4.72151">
        <ele>160</ele>
        <time>2019-05-22T11:04:19Z</time>
      </trkpt>
      <trkpt lat="43.75666" lon="4.7215">
        <ele>160</ele>
        <time>2019-05-22T11:04:25Z</time>
      </trkpt>
      <trkpt lat="43.75667" lon="4.72149">
        <ele>158</ele>
        <time>2019-05-22T11:04:32Z</time>
      </trkpt>
      <trkpt lat="43.75667" lon="4.72148">
        <ele>158</ele>
        <time>2019-05-22T11:04:40Z</time>
      </trkpt>
      <trkpt lat="43.75667" lon="4.72147">
        <ele>157</ele>
        <time>2019-05-22T11:04:46Z</time>
      </trkpt>
      <trkpt lat="43.75668" lon="4.72147">
        <ele>157</ele>
        <time>2019-05-22T11:04:51Z</time>
      </trkpt>
      <trkpt lat="43.75669" lon="4.72147">
        <ele>157</ele>
        <time>2019-05-22T11:05:01Z</time>
      </trkpt>
      <trkpt lat="43.75669" lon="4.72147">
        <ele>157</ele>
        <time>2019-05-22T11:05:15Z</time>
      </trkpt>
      <trkpt lat="43.75668" lon="4.72145">
        <ele>157</ele>
        <time>2019-05-22T11:05:20Z</time>
      </trkpt>
      <trkpt lat="43.75668" lon="4.72144">
        <ele>157</ele>
        <time>2019-05-22T11:05:24Z</time>
      </trkpt>
      <trkpt lat="43.75669" lon="4.72145">
        <ele>157</ele>
        <time>2019-05-22T11:05:51Z</time>
      </trkpt>
      <trkpt lat="43.75669" lon="4.72145">
        <ele>157</ele>
        <time>2019-05-22T11:06:02Z</time>
      </trkpt>
      <trkpt lat="43.7567" lon="4.72145">
        <ele>157</ele>
        <time>2019-05-22T11:06:08Z</time>
      </trkpt>
      <trkpt lat="43.7567" lon="4.72144">
        <ele>157</ele>
        <time>2019-05-22T11:06:18Z</time>
      </trkpt>
      <trkpt lat="43.7567" lon="4.72144">
        <ele>157</ele>
        <time>2019-05-22T11:06:35Z</time>
      </trkpt>
      <trkpt lat="43.7567" lon="4.72142">
        <ele>156</ele>
        <time>2019-05-22T11:06:39Z</time>
      </trkpt>
      <trkpt lat="43.75669" lon="4.72142">
        <ele>157</ele>
        <time>2019-05-22T11:07:07Z</time>
      </trkpt>
      <trkpt lat="43.75668" lon="4.72143">
        <ele>157</ele>
        <time>2019-05-22T11:07:12Z</time>
      </trkpt>
      <trkpt lat="43.75667" lon="4.72143">
        <ele>157</ele>
        <time>2019-05-22T11:07:16Z</time>
      </trkpt>
      <trkpt lat="43.75667" lon="4.72143">
        <ele>157</ele>
        <time>2019-05-22T11:07:20Z</time>
      </trkpt>
      <trkpt lat="43.75667" lon="4.7214">
        <ele>159</ele>
        <time>2019-05-22T11:07:25Z</time>
      </trkpt>
      <trkpt lat="43.75667" lon="4.72138">
        <ele>159</ele>
        <time>2019-05-22T11:07:30Z</time>
      </trkpt>
      <trkpt lat="43.75666" lon="4.72139">
        <ele>159</ele>
        <time>2019-05-22T11:07:45Z</time>
      </trkpt>
      <trkpt lat="43.75666" lon="4.72138">
        <ele>159</ele>
        <time>2019-05-22T11:08:11Z</time>
      </trkpt>
      <trkpt lat="43.75665" lon="4.72139">
        <ele>159</ele>
        <time>2019-05-22T11:08:33Z</time>
      </trkpt>
      <trkpt lat="43.75665" lon="4.7214">
        <ele>159</ele>
        <time>2019-05-22T11:08:37Z</time>
      </trkpt>
      <trkpt lat="43.75664" lon="4.72141">
        <ele>159</ele>
        <time>2019-05-22T11:08:41Z</time>
      </trkpt>
      <trkpt lat="43.75663" lon="4.72141">
        <ele>159</ele>
        <time>2019-05-22T11:09:23Z</time>
      </trkpt>
      <trkpt lat="43.75664" lon="4.72142">
        <ele>159</ele>
        <time>2019-05-22T11:10:08Z</time>
      </trkpt>
      <trkpt lat="43.75665" lon="4.72141">
        <ele>159</ele>
        <time>2019-05-22T11:10:21Z</time>
      </trkpt>
      <trkpt lat="43.75665" lon="4.72141">
        <ele>159</ele>
        <time>2019-05-22T11:10:40Z</time>
      </trkpt>
      <trkpt lat="43.75666" lon="4.7214">
        <ele>159</ele>
        <time>2019-05-22T11:11:14Z</time>
      </trkpt>
      <trkpt lat="43.75665" lon="4.72139">
        <ele>159</ele>
        <time>2019-05-22T11:11:26Z</time>
      </trkpt>
      <trkpt lat="43.75665" lon="4.7214">
        <ele>159</ele>
        <time>2019-05-22T11:11:59Z</time>
      </trkpt>
      <trkpt lat="43.75665" lon="4.72141">
        <ele>159</ele>
        <time>2019-05-22T11:12:05Z</time>
      </trkpt>
      <trkpt lat="43.75666" lon="4.72141">
        <ele>159</ele>
        <time>2019-05-22T11:12:09Z</time>
      </trkpt>
      <trkpt lat="43.75665" lon="4.7214">
        <ele>159</ele>
        <time>2019-05-22T11:12:23Z</time>
      </trkpt>
      <trkpt lat="43.75666" lon="4.72139">
        <ele>159</ele>
        <time>2019-05-22T11:12:29Z</time>
      </trkpt>
      <trkpt lat="43.75666" lon="4.72138">
        <ele>159</ele>
        <time>2019-05-22T11:12:37Z</time>
      </trkpt>
      <trkpt lat="43.75666" lon="4.72137">
        <ele>159</ele>
        <time>2019-05-22T11:12:46Z</time>
      </trkpt>
      <trkpt lat="43.75666" lon="4.72136">
        <ele>159</ele>
        <time>2019-05-22T11:12:58Z</time>
      </trkpt>
      <trkpt lat="43.75667" lon="4.72137">
        <ele>156</ele>
        <time>2019-05-22T11:13:16Z</time>
      </trkpt>
      <trkpt lat="43.75668" lon="4.72136">
        <ele>156</ele>
        <time>2019-05-22T11:13:26Z</time>
      </trkpt>
      <trkpt lat="43.75668" lon="4.72136">
        <ele>156</ele>
        <time>2019-05-22T11:13:37Z</time>
      </trkpt>
      <trkpt lat="43.75667" lon="4.72132">
        <ele>155</ele>
        <time>2019-05-22T11:13:40Z</time>
      </trkpt>
      <trkpt lat="43.75665" lon="4.72129">
        <ele>158</ele>
        <time>2019-05-22T11:13:44Z</time>
      </trkpt>
      <trkpt lat="43.75666" lon="4.7213">
        <ele>158</ele>
        <time>2019-05-22T11:13:57Z</time>
      </trkpt>
      <trkpt lat="43.75666" lon="4.7213">
        <ele>158</ele>
        <time>2019-05-22T11:14:02Z</time>
      </trkpt>
      <trkpt lat="43.75666" lon="4.72131">
        <ele>158</ele>
        <time>2019-05-22T11:14:05Z</time>
      </trkpt>
      <trkpt lat="43.75667" lon="4.72132">
        <ele>155</ele>
        <time>2019-05-22T11:14:09Z</time>
      </trkpt>
      <trkpt lat="43.75667" lon="4.72133">
        <ele>155</ele>
        <time>2019-05-22T11:14:15Z</time>
      </trkpt>
      <trkpt lat="43.75668" lon="4.72134">
        <ele>156</ele>
        <time>2019-05-22T11:14:22Z</time>
      </trkpt>
      <trkpt lat="43.75668" lon="4.72135">
        <ele>156</ele>
        <time>2019-05-22T11:14:26Z</time>
      </trkpt>
      <trkpt lat="43.75669" lon="4.72136">
        <ele>156</ele>
        <time>2019-05-22T11:14:30Z</time>
      </trkpt>
      <trkpt lat="43.7567" lon="4.72137">
        <ele>156</ele>
        <time>2019-05-22T11:14:35Z</time>
      </trkpt>
      <trkpt lat="43.75671" lon="4.72137">
        <ele>156</ele>
        <time>2019-05-22T11:14:38Z</time>
      </trkpt>
      <trkpt lat="43.75672" lon="4.72137">
        <ele>156</ele>
        <time>2019-05-22T11:14:44Z</time>
      </trkpt>
      <trkpt lat="43.75673" lon="4.72137">
        <ele>156</ele>
        <time>2019-05-22T11:14:59Z</time>
      </trkpt>
      <trkpt lat="43.75673" lon="4.72137">
        <ele>156</ele>
        <time>2019-05-22T11:15:09Z</time>
      </trkpt>
      <trkpt lat="43.75674" lon="4.72136">
        <ele>156</ele>
        <time>2019-05-22T11:15:24Z</time>
      </trkpt>
      <trkpt lat="43.75674" lon="4.72135">
        <ele>156</ele>
        <time>2019-05-22T11:15:35Z</time>
      </trkpt>
      <trkpt lat="43.75673" lon="4.72136">
        <ele>156</ele>
        <time>2019-05-22T11:15:46Z</time>
      </trkpt>
      <trkpt lat="43.75673" lon="4.72135">
        <ele>156</ele>
        <time>2019-05-22T11:15:52Z</time>
      </trkpt>
      <trkpt lat="43.75673" lon="4.72133">
        <ele>155</ele>
        <time>2019-05-22T11:15:57Z</time>
      </trkpt>
      <trkpt lat="43.75673" lon="4.72131">
        <ele>155</ele>
        <time>2019-05-22T11:16:02Z</time>
      </trkpt>
      <trkpt lat="43.75672" lon="4.72131">
        <ele>155</ele>
        <time>2019-05-22T11:16:48Z</time>
      </trkpt>
      <trkpt lat="43.75672" lon="4.7213">
        <ele>155</ele>
        <time>2019-05-22T11:17:14Z</time>
      </trkpt>
      <trkpt lat="43.75671" lon="4.7213">
        <ele>155</ele>
        <time>2019-05-22T11:17:31Z</time>
      </trkpt>
      <trkpt lat="43.75671" lon="4.72131">
        <ele>155</ele>
        <time>2019-05-22T11:17:39Z</time>
      </trkpt>
      <trkpt lat="43.75671" lon="4.72132">
        <ele>155</ele>
        <time>2019-05-22T11:17:52Z</time>
      </trkpt>
      <trkpt lat="43.75671" lon="4.72133">
        <ele>155</ele>
        <time>2019-05-22T11:17:59Z</time>
      </trkpt>
      <trkpt lat="43.75671" lon="4.72135">
        <ele>156</ele>
        <time>2019-05-22T11:18:08Z</time>
      </trkpt>
      <trkpt lat="43.75671" lon="4.72135">
        <ele>156</ele>
        <time>2019-05-22T11:18:19Z</time>
      </trkpt>
      <trkpt lat="43.7567" lon="4.72135">
        <ele>156</ele>
        <time>2019-05-22T11:18:42Z</time>
      </trkpt>
      <trkpt lat="43.7567" lon="4.72134">
        <ele>155</ele>
        <time>2019-05-22T11:18:53Z</time>
      </trkpt>
      <trkpt lat="43.7567" lon="4.72132">
        <ele>155</ele>
        <time>2019-05-22T11:18:59Z</time>
      </trkpt>
      <trkpt lat="43.75671" lon="4.72131">
        <ele>155</ele>
        <time>2019-05-22T11:19:11Z</time>
      </trkpt>
      <trkpt lat="43.75671" lon="4.72131">
        <ele>155</ele>
        <time>2019-05-22T11:19:26Z</time>
      </trkpt>
      <trkpt lat="43.75672" lon="4.72132">
        <ele>155</ele>
        <time>2019-05-22T11:19:48Z</time>
      </trkpt>
      <trkpt lat="43.75672" lon="4.72133">
        <ele>155</ele>
        <time>2019-05-22T11:20:03Z</time>
      </trkpt>
      <trkpt lat="43.75672" lon="4.72132">
        <ele>155</ele>
        <time>2019-05-22T11:20:30Z</time>
      </trkpt>
      <trkpt lat="43.75671" lon="4.72132">
        <ele>155</ele>
        <time>2019-05-22T11:21:21Z</time>
      </trkpt>
      <trkpt lat="43.7567" lon="4.72132">
        <ele>155</ele>
        <time>2019-05-22T11:21:40Z</time>
      </trkpt>
      <trkpt lat="43.75669" lon="4.72133">
        <ele>155</ele>
        <time>2019-05-22T11:21:54Z</time>
      </trkpt>
      <trkpt lat="43.75669" lon="4.72134">
        <ele>155</ele>
        <time>2019-05-22T11:22:13Z</time>
      </trkpt>
      <trkpt lat="43.75669" lon="4.72134">
        <ele>156</ele>
        <time>2019-05-22T11:22:35Z</time>
      </trkpt>
      <trkpt lat="43.7567" lon="4.72134">
        <ele>156</ele>
        <time>2019-05-22T11:22:49Z</time>
      </trkpt>
      <trkpt lat="43.7567" lon="4.72135">
        <ele>156</ele>
        <time>2019-05-22T11:23:27Z</time>
      </trkpt>
      <trkpt lat="43.75671" lon="4.72135">
        <ele>156</ele>
        <time>2019-05-22T11:23:56Z</time>
      </trkpt>
      <trkpt lat="43.75672" lon="4.72135">
        <ele>156</ele>
        <time>2019-05-22T11:24:22Z</time>
      </trkpt>
      <trkpt lat="43.75672" lon="4.72134">
        <ele>155</ele>
        <time>2019-05-22T11:24:40Z</time>
      </trkpt>
      <trkpt lat="43.75672" lon="4.72133">
        <ele>155</ele>
        <time>2019-05-22T11:25:15Z</time>
      </trkpt>
      <trkpt lat="43.75671" lon="4.72132">
        <ele>155</ele>
        <time>2019-05-22T11:25:24Z</time>
      </trkpt>
      <trkpt lat="43.75672" lon="4.72132">
        <ele>155</ele>
        <time>2019-05-22T11:25:28Z</time>
      </trkpt>
      <trkpt lat="43.75673" lon="4.72132">
        <ele>155</ele>
        <time>2019-05-22T11:26:03Z</time>
      </trkpt>
      <trkpt lat="43.75673" lon="4.72134">
        <ele>155</ele>
        <time>2019-05-22T11:26:07Z</time>
      </trkpt>
      <trkpt lat="43.75672" lon="4.72133">
        <ele>155</ele>
        <time>2019-05-22T11:26:34Z</time>
      </trkpt>
      <trkpt lat="43.75671" lon="4.72133">
        <ele>155</ele>
        <time>2019-05-22T11:26:48Z</time>
      </trkpt>
      <trkpt lat="43.7567" lon="4.72133">
        <ele>155</ele>
        <time>2019-05-22T11:26:56Z</time>
      </trkpt>
      <trkpt lat="43.75671" lon="4.72132">
        <ele>155</ele>
        <time>2019-05-22T11:27:04Z</time>
      </trkpt>
      <trkpt lat="43.75671" lon="4.72133">
        <ele>155</ele>
        <time>2019-05-22T11:28:10Z</time>
      </trkpt>
      <trkpt lat="43.75672" lon="4.72133">
        <ele>155</ele>
        <time>2019-05-22T11:28:35Z</time>
      </trkpt>
      <trkpt lat="43.75672" lon="4.72134">
        <ele>155</ele>
        <time>2019-05-22T11:29:39Z</time>
      </trkpt>
      <trkpt lat="43.75671" lon="4.72135">
        <ele>156</ele>
        <time>2019-05-22T11:29:46Z</time>
      </trkpt>
      <trkpt lat="43.75671" lon="4.72136">
        <ele>156</ele>
        <time>2019-05-22T11:30:01Z</time>
      </trkpt>
      <trkpt lat="43.75671" lon="4.72136">
        <ele>156</ele>
        <time>2019-05-22T11:30:17Z</time>
      </trkpt>
      <trkpt lat="43.75672" lon="4.72135">
        <ele>156</ele>
        <time>2019-05-22T11:30:37Z</time>
      </trkpt>
      <trkpt lat="43.75673" lon="4.72135">
        <ele>156</ele>
        <time>2019-05-22T11:30:44Z</time>
      </trkpt>
      <trkpt lat="43.75674" lon="4.72135">
        <ele>156</ele>
        <time>2019-05-22T11:30:51Z</time>
      </trkpt>
      <trkpt lat="43.75674" lon="4.72137">
        <ele>156</ele>
        <time>2019-05-22T11:30:55Z</time>
      </trkpt>
      <trkpt lat="43.75674" lon="4.72138">
        <ele>156</ele>
        <time>2019-05-22T11:30:59Z</time>
      </trkpt>
      <trkpt lat="43.75675" lon="4.72137">
        <ele>156</ele>
        <time>2019-05-22T11:32:18Z</time>
      </trkpt>
      <trkpt lat="43.75675" lon="4.72138">
        <ele>156</ele>
        <time>2019-05-22T11:32:42Z</time>
      </trkpt>
      <trkpt lat="43.75674" lon="4.72139">
        <ele>156</ele>
        <time>2019-05-22T11:32:51Z</time>
      </trkpt>
      <trkpt lat="43.75673" lon="4.72139">
        <ele>156</ele>
        <time>2019-05-22T11:33:10Z</time>
      </trkpt>
      <trkpt lat="43.75672" lon="4.72139">
        <ele>156</ele>
        <time>2019-05-22T11:33:14Z</time>
      </trkpt>
      <trkpt lat="43.75672" lon="4.7214">
        <ele>156</ele>
        <time>2019-05-22T11:33:23Z</time>
      </trkpt>
      <trkpt lat="43.75673" lon="4.72141">
        <ele>156</ele>
        <time>2019-05-22T11:33:28Z</time>
      </trkpt>
      <trkpt lat="43.75673" lon="4.72142">
        <ele>156</ele>
        <time>2019-05-22T11:33:38Z</time>
      </trkpt>
      <trkpt lat="43.75673" lon="4.72143">
        <ele>156</ele>
        <time>2019-05-22T11:33:53Z</time>
      </trkpt>
      <trkpt lat="43.75673" lon="4.72142">
        <ele>156</ele>
        <time>2019-05-22T11:34:11Z</time>
      </trkpt>
      <trkpt lat="43.75673" lon="4.72139">
        <ele>156</ele>
        <time>2019-05-22T11:34:16Z</time>
      </trkpt>
      <trkpt lat="43.75673" lon="4.72138">
        <ele>156</ele>
        <time>2019-05-22T11:35:11Z</time>
      </trkpt>
      <trkpt lat="43.75672" lon="4.72137">
        <ele>156</ele>
        <time>2019-05-22T11:35:31Z</time>
      </trkpt>
      <trkpt lat="43.75672" lon="4.72137">
        <ele>156</ele>
        <time>2019-05-22T11:35:35Z</time>
      </trkpt>
      <trkpt lat="43.75671" lon="4.72137">
        <ele>156</ele>
        <time>2019-05-22T11:35:51Z</time>
      </trkpt>
      <trkpt lat="43.7567" lon="4.72137">
        <ele>156</ele>
        <time>2019-05-22T11:36:19Z</time>
      </trkpt>
      <trkpt lat="43.75669" lon="4.72137">
        <ele>156</ele>
        <time>2019-05-22T11:36:30Z</time>
      </trkpt>
      <trkpt lat="43.7567" lon="4.72136">
        <ele>156</ele>
        <time>2019-05-22T11:37:05Z</time>
      </trkpt>
      <trkpt lat="43.7567" lon="4.72137">
        <ele>156</ele>
        <time>2019-05-22T11:37:15Z</time>
      </trkpt>
      <trkpt lat="43.75669" lon="4.72138">
        <ele>156</ele>
        <time>2019-05-22T11:37:24Z</time>
      </trkpt>
      <trkpt lat="43.75669" lon="4.72139">
        <ele>156</ele>
        <time>2019-05-22T11:37:31Z</time>
      </trkpt>
      <trkpt lat="43.75669" lon="4.72137">
        <ele>156</ele>
        <time>2019-05-22T11:37:53Z</time>
      </trkpt>
      <trkpt lat="43.7567" lon="4.72137">
        <ele>156</ele>
        <time>2019-05-22T11:38:39Z</time>
      </trkpt>
      <trkpt lat="43.7567" lon="4.72136">
        <ele>156</ele>
        <time>2019-05-22T11:39:04Z</time>
      </trkpt>
      <trkpt lat="43.75671" lon="4.72135">
        <ele>156</ele>
        <time>2019-05-22T11:39:09Z</time>
      </trkpt>
      <trkpt lat="43.75671" lon="4.72134">
        <ele>155</ele>
        <time>2019-05-22T11:39:12Z</time>
      </trkpt>
      <trkpt lat="43.75671" lon="4.72135">
        <ele>156</ele>
        <time>2019-05-22T11:39:33Z</time>
      </trkpt>
      <trkpt lat="43.75671" lon="4.72136">
        <ele>156</ele>
        <time>2019-05-22T11:39:49Z</time>
      </trkpt>
      <trkpt lat="43.7567" lon="4.72136">
        <ele>156</ele>
        <time>2019-05-22T11:40:14Z</time>
      </trkpt>
      <trkpt lat="43.7567" lon="4.72135">
        <ele>156</ele>
        <time>2019-05-22T11:40:43Z</time>
      </trkpt>
      <trkpt lat="43.75671" lon="4.72134">
        <ele>155</ele>
        <time>2019-05-22T11:40:48Z</time>
      </trkpt>
      <trkpt lat="43.75672" lon="4.72133">
        <ele>155</ele>
        <time>2019-05-22T11:41:05Z</time>
      </trkpt>
      <trkpt lat="43.75672" lon="4.72134">
        <ele>155</ele>
        <time>2019-05-22T11:41:28Z</time>
      </trkpt>
      <trkpt lat="43.75673" lon="4.72134">
        <ele>155</ele>
        <time>2019-05-22T11:41:33Z</time>
      </trkpt>
      <trkpt lat="43.75672" lon="4.72134">
        <ele>155</ele>
        <time>2019-05-22T11:42:40Z</time>
      </trkpt>
      <trkpt lat="43.75673" lon="4.72135">
        <ele>155</ele>
        <time>2019-05-22T11:43:27Z</time>
      </trkpt>
      <trkpt lat="43.75674" lon="4.72135">
        <ele>155</ele>
        <time>2019-05-22T11:43:32Z</time>
      </trkpt>
      <trkpt lat="43.75673" lon="4.72135">
        <ele>156</ele>
        <time>2019-05-22T11:44:04Z</time>
      </trkpt>
      <trkpt lat="43.75673" lon="4.72136">
        <ele>156</ele>
        <time>2019-05-22T11:44:08Z</time>
      </trkpt>
      <trkpt lat="43.75672" lon="4.72137">
        <ele>156</ele>
        <time>2019-05-22T11:44:11Z</time>
      </trkpt>
      <trkpt lat="43.75673" lon="4.72137">
        <ele>156</ele>
        <time>2019-05-22T11:44:31Z</time>
      </trkpt>
      <trkpt lat="43.75674" lon="4.72136">
        <ele>156</ele>
        <time>2019-05-22T11:44:36Z</time>
      </trkpt>
      <trkpt lat="43.75674" lon="4.72135">
        <ele>156</ele>
        <time>2019-05-22T11:44:40Z</time>
      </trkpt>
      <trkpt lat="43.75675" lon="4.7213">
        <ele>155</ele>
        <time>2019-05-22T11:44:45Z</time>
      </trkpt>
      <trkpt lat="43.75676" lon="4.72127">
        <ele>155</ele>
        <time>2019-05-22T11:44:49Z</time>
      </trkpt>
      <trkpt lat="43.75677" lon="4.72123">
        <ele>154</ele>
        <time>2019-05-22T11:44:53Z</time>
      </trkpt>
      <trkpt lat="43.75679" lon="4.7212">
        <ele>154</ele>
        <time>2019-05-22T11:44:57Z</time>
      </trkpt>
      <trkpt lat="43.7568" lon="4.72118">
        <ele>154</ele>
        <time>2019-05-22T11:45:02Z</time>
      </trkpt>
      <trkpt lat="43.75681" lon="4.72117">
        <ele>154</ele>
        <time>2019-05-22T11:45:09Z</time>
      </trkpt>
      <trkpt lat="43.75681" lon="4.72117">
        <ele>154</ele>
        <time>2019-05-22T11:45:14Z</time>
      </trkpt>
      <trkpt lat="43.75681" lon="4.72115">
        <ele>154</ele>
        <time>2019-05-22T11:45:20Z</time>
      </trkpt>
      <trkpt lat="43.75681" lon="4.72114">
        <ele>154</ele>
        <time>2019-05-22T11:45:31Z</time>
      </trkpt>
      <trkpt lat="43.75682" lon="4.72113">
        <ele>153</ele>
        <time>2019-05-22T11:45:36Z</time>
      </trkpt>
      <trkpt lat="43.75682" lon="4.72112">
        <ele>153</ele>
        <time>2019-05-22T11:45:51Z</time>
      </trkpt>
      <trkpt lat="43.75682" lon="4.7211">
        <ele>153</ele>
        <time>2019-05-22T11:45:55Z</time>
      </trkpt>
      <trkpt lat="43.75683" lon="4.72108">
        <ele>153</ele>
        <time>2019-05-22T11:45:58Z</time>
      </trkpt>
      <trkpt lat="43.75683" lon="4.72107">
        <ele>153</ele>
        <time>2019-05-22T11:46:02Z</time>
      </trkpt>
      <trkpt lat="43.75683" lon="4.72106">
        <ele>153</ele>
        <time>2019-05-22T11:46:05Z</time>
      </trkpt>
      <trkpt lat="43.75683" lon="4.72104">
        <ele>153</ele>
        <time>2019-05-22T11:46:09Z</time>
      </trkpt>
      <trkpt lat="43.75682" lon="4.72103">
        <ele>153</ele>
        <time>2019-05-22T11:46:12Z</time>
      </trkpt>
      <trkpt lat="43.75682" lon="4.72102">
        <ele>153</ele>
        <time>2019-05-22T11:46:25Z</time>
      </trkpt>
      <trkpt lat="43.75682" lon="4.72101">
        <ele>153</ele>
        <time>2019-05-22T11:46:51Z</time>
      </trkpt>
      <trkpt lat="43.75681" lon="4.721">
        <ele>153</ele>
        <time>2019-05-22T11:47:10Z</time>
      </trkpt>
      <trkpt lat="43.75681" lon="4.72098">
        <ele>153</ele>
        <time>2019-05-22T11:47:13Z</time>
      </trkpt>
      <trkpt lat="43.75682" lon="4.72095">
        <ele>153</ele>
        <time>2019-05-22T11:47:17Z</time>
      </trkpt>
      <trkpt lat="43.75682" lon="4.72094">
        <ele>153</ele>
        <time>2019-05-22T11:47:20Z</time>
      </trkpt>
      <trkpt lat="43.75682" lon="4.72092">
        <ele>153</ele>
        <time>2019-05-22T11:47:25Z</time>
      </trkpt>
      <trkpt lat="43.75683" lon="4.72089">
        <ele>153</ele>
        <time>2019-05-22T11:47:28Z</time>
      </trkpt>
      <trkpt lat="43.75684" lon="4.72083">
        <ele>148</ele>
        <time>2019-05-22T11:47:33Z</time>
      </trkpt>
      <trkpt lat="43.75685" lon="4.72079">
        <ele>148</ele>
        <time>2019-05-22T11:47:37Z</time>
      </trkpt>
      <trkpt lat="43.75685" lon="4.72076">
        <ele>148</ele>
        <time>2019-05-22T11:47:42Z</time>
      </trkpt>
      <trkpt lat="43.75686" lon="4.72074">
        <ele>148</ele>
        <time>2019-05-22T11:47:46Z</time>
      </trkpt>
      <trkpt lat="43.75687" lon="4.7207">
        <ele>147</ele>
        <time>2019-05-22T11:47:51Z</time>
      </trkpt>
      <trkpt lat="43.75688" lon="4.72065">
        <ele>147</ele>
        <time>2019-05-22T11:47:56Z</time>
      </trkpt>
      <trkpt lat="43.75689" lon="4.72062">
        <ele>146</ele>
        <time>2019-05-22T11:47:59Z</time>
      </trkpt>
      <trkpt lat="43.75689" lon="4.72057">
        <ele>146</ele>
        <time>2019-05-22T11:48:04Z</time>
      </trkpt>
      <trkpt lat="43.75689" lon="4.72052">
        <ele>146</ele>
        <time>2019-05-22T11:48:08Z</time>
      </trkpt>
      <trkpt lat="43.75688" lon="4.72047">
        <ele>145</ele>
        <time>2019-05-22T11:48:13Z</time>
      </trkpt>
      <trkpt lat="43.75687" lon="4.72042">
        <ele>145</ele>
        <time>2019-05-22T11:48:17Z</time>
      </trkpt>
      <trkpt lat="43.75686" lon="4.72033">
        <ele>145</ele>
        <time>2019-05-22T11:48:22Z</time>
      </trkpt>
      <trkpt lat="43.75686" lon="4.72028">
        <ele>145</ele>
        <time>2019-05-22T11:48:27Z</time>
      </trkpt>
      <trkpt lat="43.75687" lon="4.72023">
        <ele>145</ele>
        <time>2019-05-22T11:48:31Z</time>
      </trkpt>
      <trkpt lat="43.75687" lon="4.72018">
        <ele>145</ele>
        <time>2019-05-22T11:48:35Z</time>
      </trkpt>
      <trkpt lat="43.75687" lon="4.72012">
        <ele>145</ele>
        <time>2019-05-22T11:48:39Z</time>
      </trkpt>
      <trkpt lat="43.75687" lon="4.72006">
        <ele>145</ele>
        <time>2019-05-22T11:48:43Z</time>
      </trkpt>
      <trkpt lat="43.75686" lon="4.71999">
        <ele>143</ele>
        <time>2019-05-22T11:48:47Z</time>
      </trkpt>
      <trkpt lat="43.75685" lon="4.71993">
        <ele>142</ele>
        <time>2019-05-22T11:48:52Z</time>
      </trkpt>
      <trkpt lat="43.75683" lon="4.71985">
        <ele>142</ele>
        <time>2019-05-22T11:48:57Z</time>
      </trkpt>
      <trkpt lat="43.75683" lon="4.7198">
        <ele>142</ele>
        <time>2019-05-22T11:49:01Z</time>
      </trkpt>
      <trkpt lat="43.75682" lon="4.71973">
        <ele>141</ele>
        <time>2019-05-22T11:49:06Z</time>
      </trkpt>
      <trkpt lat="43.75681" lon="4.71968">
        <ele>141</ele>
        <time>2019-05-22T11:49:10Z</time>
      </trkpt>
      <trkpt lat="43.75681" lon="4.71964">
        <ele>140</ele>
        <time>2019-05-22T11:49:14Z</time>
      </trkpt>
      <trkpt lat="43.7568" lon="4.71957">
        <ele>140</ele>
        <time>2019-05-22T11:49:19Z</time>
      </trkpt>
      <trkpt lat="43.75679" lon="4.71953">
        <ele>140</ele>
        <time>2019-05-22T11:49:22Z</time>
      </trkpt>
      <trkpt lat="43.75678" lon="4.71944">
        <ele>140</ele>
        <time>2019-05-22T11:49:27Z</time>
      </trkpt>
      <trkpt lat="43.75677" lon="4.71936">
        <ele>141</ele>
        <time>2019-05-22T11:49:31Z</time>
      </trkpt>
      <trkpt lat="43.75674" lon="4.71925">
        <ele>142</ele>
        <time>2019-05-22T11:49:36Z</time>
      </trkpt>
      <trkpt lat="43.75673" lon="4.71918">
        <ele>143</ele>
        <time>2019-05-22T11:49:41Z</time>
      </trkpt>
      <trkpt lat="43.75671" lon="4.71911">
        <ele>142</ele>
        <time>2019-05-22T11:49:45Z</time>
      </trkpt>
      <trkpt lat="43.7567" lon="4.71907">
        <ele>141</ele>
        <time>2019-05-22T11:49:48Z</time>
      </trkpt>
      <trkpt lat="43.75669" lon="4.71901">
        <ele>139</ele>
        <time>2019-05-22T11:49:52Z</time>
      </trkpt>
      <trkpt lat="43.75667" lon="4.71897">
        <ele>138</ele>
        <time>2019-05-22T11:49:55Z</time>
      </trkpt>
      <trkpt lat="43.75666" lon="4.71892">
        <ele>143</ele>
        <time>2019-05-22T11:49:59Z</time>
      </trkpt>
      <trkpt lat="43.75665" lon="4.71887">
        <ele>143</ele>
        <time>2019-05-22T11:50:03Z</time>
      </trkpt>
      <trkpt lat="43.75662" lon="4.71881">
        <ele>143</ele>
        <time>2019-05-22T11:50:08Z</time>
      </trkpt>
      <trkpt lat="43.7566" lon="4.71876">
        <ele>142</ele>
        <time>2019-05-22T11:50:12Z</time>
      </trkpt>
      <trkpt lat="43.75658" lon="4.7187">
        <ele>142</ele>
        <time>2019-05-22T11:50:16Z</time>
      </trkpt>
      <trkpt lat="43.75657" lon="4.71866">
        <ele>142</ele>
        <time>2019-05-22T11:50:19Z</time>
      </trkpt>
      <trkpt lat="43.75656" lon="4.71859">
        <ele>141</ele>
        <time>2019-05-22T11:50:24Z</time>
      </trkpt>
      <trkpt lat="43.75654" lon="4.71854">
        <ele>141</ele>
        <time>2019-05-22T11:50:28Z</time>
      </trkpt>
      <trkpt lat="43.75652" lon="4.7185">
        <ele>141</ele>
        <time>2019-05-22T11:50:31Z</time>
      </trkpt>
      <trkpt lat="43.75649" lon="4.71844">
        <ele>141</ele>
        <time>2019-05-22T11:50:36Z</time>
      </trkpt>
      <trkpt lat="43.75648" lon="4.71839">
        <ele>141</ele>
        <time>2019-05-22T11:50:40Z</time>
      </trkpt>
      <trkpt lat="43.75646" lon="4.71835">
        <ele>141</ele>
        <time>2019-05-22T11:50:44Z</time>
      </trkpt>
      <trkpt lat="43.75645" lon="4.71831">
        <ele>138</ele>
        <time>2019-05-22T11:50:49Z</time>
      </trkpt>
      <trkpt lat="43.75644" lon="4.71829">
        <ele>138</ele>
        <time>2019-05-22T11:50:53Z</time>
      </trkpt>
      <trkpt lat="43.75643" lon="4.71829">
        <ele>138</ele>
        <time>2019-05-22T11:50:56Z</time>
      </trkpt>
      <trkpt lat="43.7564" lon="4.71826">
        <ele>138</ele>
        <time>2019-05-22T11:51:01Z</time>
      </trkpt>
      <trkpt lat="43.75637" lon="4.71823">
        <ele>138</ele>
        <time>2019-05-22T11:51:04Z</time>
      </trkpt>
      <trkpt lat="43.75633" lon="4.71819">
        <ele>138</ele>
        <time>2019-05-22T11:51:08Z</time>
      </trkpt>
      <trkpt lat="43.75628" lon="4.71816">
        <ele>138</ele>
        <time>2019-05-22T11:51:13Z</time>
      </trkpt>
      <trkpt lat="43.75623" lon="4.71813">
        <ele>138</ele>
        <time>2019-05-22T11:51:18Z</time>
      </trkpt>
      <trkpt lat="43.75617" lon="4.71808">
        <ele>138</ele>
        <time>2019-05-22T11:51:23Z</time>
      </trkpt>
      <trkpt lat="43.75612" lon="4.71805">
        <ele>138</ele>
        <time>2019-05-22T11:51:27Z</time>
      </trkpt>
      <trkpt lat="43.75606" lon="4.71802">
        <ele>138</ele>
        <time>2019-05-22T11:51:32Z</time>
      </trkpt>
      <trkpt lat="43.75602" lon="4.718">
        <ele>139</ele>
        <time>2019-05-22T11:51:36Z</time>
      </trkpt>
      <trkpt lat="43.75599" lon="4.71798">
        <ele>139</ele>
        <time>2019-05-22T11:51:40Z</time>
      </trkpt>
      <trkpt lat="43.75596" lon="4.71795">
        <ele>139</ele>
        <time>2019-05-22T11:51:43Z</time>
      </trkpt>
      <trkpt lat="43.75594" lon="4.71793">
        <ele>139</ele>
        <time>2019-05-22T11:51:47Z</time>
      </trkpt>
      <trkpt lat="43.75593" lon="4.71791">
        <ele>138</ele>
        <time>2019-05-22T11:51:52Z</time>
      </trkpt>
      <trkpt lat="43.75592" lon="4.7179">
        <ele>138</ele>
        <time>2019-05-22T11:51:55Z</time>
      </trkpt>
      <trkpt lat="43.75589" lon="4.71785">
        <ele>138</ele>
        <time>2019-05-22T11:52:00Z</time>
      </trkpt>
      <trkpt lat="43.75586" lon="4.71781">
        <ele>138</ele>
        <time>2019-05-22T11:52:04Z</time>
      </trkpt>
      <trkpt lat="43.75585" lon="4.71778">
        <ele>138</ele>
        <time>2019-05-22T11:52:07Z</time>
      </trkpt>
      <trkpt lat="43.75583" lon="4.71774">
        <ele>139</ele>
        <time>2019-05-22T11:52:11Z</time>
      </trkpt>
      <trkpt lat="43.75582" lon="4.71771">
        <ele>139</ele>
        <time>2019-05-22T11:52:16Z</time>
      </trkpt>
      <trkpt lat="43.75581" lon="4.71769">
        <ele>139</ele>
        <time>2019-05-22T11:52:19Z</time>
      </trkpt>
      <trkpt lat="43.75579" lon="4.71764">
        <ele>139</ele>
        <time>2019-05-22T11:52:23Z</time>
      </trkpt>
      <trkpt lat="43.75578" lon="4.71756">
        <ele>139</ele>
        <time>2019-05-22T11:52:28Z</time>
      </trkpt>
      <trkpt lat="43.75577" lon="4.71752">
        <ele>140</ele>
        <time>2019-05-22T11:52:32Z</time>
      </trkpt>
      <trkpt lat="43.75577" lon="4.71746">
        <ele>139</ele>
        <time>2019-05-22T11:52:36Z</time>
      </trkpt>
      <trkpt lat="43.75575" lon="4.7174">
        <ele>138</ele>
        <time>2019-05-22T11:52:41Z</time>
      </trkpt>
      <trkpt lat="43.75575" lon="4.71737">
        <ele>137</ele>
        <time>2019-05-22T11:52:45Z</time>
      </trkpt>
      <trkpt lat="43.75575" lon="4.71734">
        <ele>137</ele>
        <time>2019-05-22T11:52:48Z</time>
      </trkpt>
      <trkpt lat="43.75575" lon="4.7173">
        <ele>137</ele>
        <time>2019-05-22T11:52:52Z</time>
      </trkpt>
      <trkpt lat="43.75574" lon="4.71723">
        <ele>136</ele>
        <time>2019-05-22T11:52:57Z</time>
      </trkpt>
      <trkpt lat="43.75573" lon="4.71717">
        <ele>136</ele>
        <time>2019-05-22T11:53:01Z</time>
      </trkpt>
      <trkpt lat="43.75573" lon="4.7171">
        <ele>135</ele>
        <time>2019-05-22T11:53:06Z</time>
      </trkpt>
      <trkpt lat="43.75575" lon="4.71706">
        <ele>135</ele>
        <time>2019-05-22T11:53:10Z</time>
      </trkpt>
      <trkpt lat="43.75578" lon="4.717">
        <ele>134</ele>
        <time>2019-05-22T11:53:15Z</time>
      </trkpt>
      <trkpt lat="43.7558" lon="4.71698">
        <ele>134</ele>
        <time>2019-05-22T11:53:19Z</time>
      </trkpt>
      <trkpt lat="43.75582" lon="4.71697">
        <ele>134</ele>
        <time>2019-05-22T11:53:23Z</time>
      </trkpt>
      <trkpt lat="43.75585" lon="4.71694">
        <ele>129</ele>
        <time>2019-05-22T11:53:27Z</time>
      </trkpt>
      <trkpt lat="43.75591" lon="4.71691">
        <ele>128</ele>
        <time>2019-05-22T11:53:32Z</time>
      </trkpt>
      <trkpt lat="43.75595" lon="4.71687">
        <ele>128</ele>
        <time>2019-05-22T11:53:36Z</time>
      </trkpt>
      <trkpt lat="43.756" lon="4.71684">
        <ele>128</ele>
        <time>2019-05-22T11:53:41Z</time>
      </trkpt>
      <trkpt lat="43.75603" lon="4.71683">
        <ele>127</ele>
        <time>2019-05-22T11:53:44Z</time>
      </trkpt>
      <trkpt lat="43.75606" lon="4.71682">
        <ele>127</ele>
        <time>2019-05-22T11:53:49Z</time>
      </trkpt>
      <trkpt lat="43.75609" lon="4.71681">
        <ele>127</ele>
        <time>2019-05-22T11:53:53Z</time>
      </trkpt>
      <trkpt lat="43.75615" lon="4.71681">
        <ele>126</ele>
        <time>2019-05-22T11:53:58Z</time>
      </trkpt>
      <trkpt lat="43.75618" lon="4.71683">
        <ele>126</ele>
        <time>2019-05-22T11:54:02Z</time>
      </trkpt>
      <trkpt lat="43.75621" lon="4.71685">
        <ele>125</ele>
        <time>2019-05-22T11:54:07Z</time>
      </trkpt>
      <trkpt lat="43.75624" lon="4.71687">
        <ele>125</ele>
        <time>2019-05-22T11:54:11Z</time>
      </trkpt>
      <trkpt lat="43.75627" lon="4.7169">
        <ele>125</ele>
        <time>2019-05-22T11:54:15Z</time>
      </trkpt>
      <trkpt lat="43.75629" lon="4.71694">
        <ele>125</ele>
        <time>2019-05-22T11:54:19Z</time>
      </trkpt>
      <trkpt lat="43.7563" lon="4.71697">
        <ele>125</ele>
        <time>2019-05-22T11:54:23Z</time>
      </trkpt>
      <trkpt lat="43.75631" lon="4.71698">
        <ele>125</ele>
        <time>2019-05-22T11:54:27Z</time>
      </trkpt>
      <trkpt lat="43.75632" lon="4.71702">
        <ele>125</ele>
        <time>2019-05-22T11:54:31Z</time>
      </trkpt>
      <trkpt lat="43.75633" lon="4.71705">
        <ele>125</ele>
        <time>2019-05-22T11:54:36Z</time>
      </trkpt>
      <trkpt lat="43.75635" lon="4.71707">
        <ele>125</ele>
        <time>2019-05-22T11:54:39Z</time>
      </trkpt>
      <trkpt lat="43.75636" lon="4.71709">
        <ele>125</ele>
        <time>2019-05-22T11:54:43Z</time>
      </trkpt>
      <trkpt lat="43.75638" lon="4.71712">
        <ele>126</ele>
        <time>2019-05-22T11:54:47Z</time>
      </trkpt>
      <trkpt lat="43.7564" lon="4.71716">
        <ele>126</ele>
        <time>2019-05-22T11:54:52Z</time>
      </trkpt>
      <trkpt lat="43.7564" lon="4.7172">
        <ele>126</ele>
        <time>2019-05-22T11:54:57Z</time>
      </trkpt>
      <trkpt lat="43.75641" lon="4.71722">
        <ele>126</ele>
        <time>2019-05-22T11:55:01Z</time>
      </trkpt>
      <trkpt lat="43.75643" lon="4.71723">
        <ele>126</ele>
        <time>2019-05-22T11:55:05Z</time>
      </trkpt>
      <trkpt lat="43.75646" lon="4.71727">
        <ele>126</ele>
        <time>2019-05-22T11:55:09Z</time>
      </trkpt>
      <trkpt lat="43.7565" lon="4.71733">
        <ele>126</ele>
        <time>2019-05-22T11:55:13Z</time>
      </trkpt>
      <trkpt lat="43.75658" lon="4.71742">
        <ele>126</ele>
        <time>2019-05-22T11:55:18Z</time>
      </trkpt>
      <trkpt lat="43.75664" lon="4.71749">
        <ele>125</ele>
        <time>2019-05-22T11:55:22Z</time>
      </trkpt>
      <trkpt lat="43.75668" lon="4.71755">
        <ele>125</ele>
        <time>2019-05-22T11:55:26Z</time>
      </trkpt>
      <trkpt lat="43.7567" lon="4.7176">
        <ele>125</ele>
        <time>2019-05-22T11:55:30Z</time>
      </trkpt>
      <trkpt lat="43.75671" lon="4.71768">
        <ele>125</ele>
        <time>2019-05-22T11:55:35Z</time>
      </trkpt>
      <trkpt lat="43.75672" lon="4.71772">
        <ele>126</ele>
        <time>2019-05-22T11:55:38Z</time>
      </trkpt>
      <trkpt lat="43.75675" lon="4.71776">
        <ele>126</ele>
        <time>2019-05-22T11:55:43Z</time>
      </trkpt>
      <trkpt lat="43.75678" lon="4.71778">
        <ele>126</ele>
        <time>2019-05-22T11:55:48Z</time>
      </trkpt>
      <trkpt lat="43.75681" lon="4.7178">
        <ele>126</ele>
        <time>2019-05-22T11:55:51Z</time>
      </trkpt>
      <trkpt lat="43.75685" lon="4.71787">
        <ele>126</ele>
        <time>2019-05-22T11:55:56Z</time>
      </trkpt>
      <trkpt lat="43.75687" lon="4.7179">
        <ele>126</ele>
        <time>2019-05-22T11:56:00Z</time>
      </trkpt>
      <trkpt lat="43.75689" lon="4.71795">
        <ele>126</ele>
        <time>2019-05-22T11:56:04Z</time>
      </trkpt>
      <trkpt lat="43.7569" lon="4.718">
        <ele>127</ele>
        <time>2019-05-22T11:56:08Z</time>
      </trkpt>
      <trkpt lat="43.75692" lon="4.71805">
        <ele>127</ele>
        <time>2019-05-22T11:56:12Z</time>
      </trkpt>
      <trkpt lat="43.75695" lon="4.71813">
        <ele>127</ele>
        <time>2019-05-22T11:56:16Z</time>
      </trkpt>
      <trkpt lat="43.75696" lon="4.71816">
        <ele>127</ele>
        <time>2019-05-22T11:56:20Z</time>
      </trkpt>
      <trkpt lat="43.75698" lon="4.71821">
        <ele>127</ele>
        <time>2019-05-22T11:56:24Z</time>
      </trkpt>
      <trkpt lat="43.75701" lon="4.71825">
        <ele>127</ele>
        <time>2019-05-22T11:56:29Z</time>
      </trkpt>
      <trkpt lat="43.75702" lon="4.71826">
        <ele>127</ele>
        <time>2019-05-22T11:56:32Z</time>
      </trkpt>
      <trkpt lat="43.75705" lon="4.7183">
        <ele>126</ele>
        <time>2019-05-22T11:56:37Z</time>
      </trkpt>
      <trkpt lat="43.75707" lon="4.71835">
        <ele>130</ele>
        <time>2019-05-22T11:56:42Z</time>
      </trkpt>
      <trkpt lat="43.75709" lon="4.7184">
        <ele>130</ele>
        <time>2019-05-22T11:56:46Z</time>
      </trkpt>
      <trkpt lat="43.75711" lon="4.71842">
        <ele>130</ele>
        <time>2019-05-22T11:56:50Z</time>
      </trkpt>
      <trkpt lat="43.75713" lon="4.71848">
        <ele>129</ele>
        <time>2019-05-22T11:56:55Z</time>
      </trkpt>
      <trkpt lat="43.75714" lon="4.71851">
        <ele>129</ele>
        <time>2019-05-22T11:56:58Z</time>
      </trkpt>
      <trkpt lat="43.75717" lon="4.71857">
        <ele>129</ele>
        <time>2019-05-22T11:57:03Z</time>
      </trkpt>
      <trkpt lat="43.75719" lon="4.71862">
        <ele>129</ele>
        <time>2019-05-22T11:57:07Z</time>
      </trkpt>
      <trkpt lat="43.7572" lon="4.71866">
        <ele>129</ele>
        <time>2019-05-22T11:57:10Z</time>
      </trkpt>
      <trkpt lat="43.75722" lon="4.71869">
        <ele>129</ele>
        <time>2019-05-22T11:57:14Z</time>
      </trkpt>
      <trkpt lat="43.75725" lon="4.71876">
        <ele>129</ele>
        <time>2019-05-22T11:57:18Z</time>
      </trkpt>
      <trkpt lat="43.75726" lon="4.71881">
        <ele>129</ele>
        <time>2019-05-22T11:57:21Z</time>
      </trkpt>
      <trkpt lat="43.75729" lon="4.71886">
        <ele>129</ele>
        <time>2019-05-22T11:57:25Z</time>
      </trkpt>
      <trkpt lat="43.75731" lon="4.71892">
        <ele>129</ele>
        <time>2019-05-22T11:57:29Z</time>
      </trkpt>
      <trkpt lat="43.75733" lon="4.71894">
        <ele>129</ele>
        <time>2019-05-22T11:57:33Z</time>
      </trkpt>
      <trkpt lat="43.75735" lon="4.71899">
        <ele>128</ele>
        <time>2019-05-22T11:57:37Z</time>
      </trkpt>
      <trkpt lat="43.75736" lon="4.71906">
        <ele>128</ele>
        <time>2019-05-22T11:57:42Z</time>
      </trkpt>
      <trkpt lat="43.75737" lon="4.7191">
        <ele>127</ele>
        <time>2019-05-22T11:57:45Z</time>
      </trkpt>
      <trkpt lat="43.7574" lon="4.71915">
        <ele>127</ele>
        <time>2019-05-22T11:57:48Z</time>
      </trkpt>
      <trkpt lat="43.75744" lon="4.71922">
        <ele>128</ele>
        <time>2019-05-22T11:57:53Z</time>
      </trkpt>
      <trkpt lat="43.75745" lon="4.71925">
        <ele>128</ele>
        <time>2019-05-22T11:57:56Z</time>
      </trkpt>
      <trkpt lat="43.75747" lon="4.71931">
        <ele>130</ele>
        <time>2019-05-22T11:58:01Z</time>
      </trkpt>
      <trkpt lat="43.75748" lon="4.71935">
        <ele>131</ele>
        <time>2019-05-22T11:58:04Z</time>
      </trkpt>
      <trkpt lat="43.75749" lon="4.71939">
        <ele>131</ele>
        <time>2019-05-22T11:58:08Z</time>
      </trkpt>
      <trkpt lat="43.75751" lon="4.71943">
        <ele>132</ele>
        <time>2019-05-22T11:58:12Z</time>
      </trkpt>
      <trkpt lat="43.75751" lon="4.71947">
        <ele>133</ele>
        <time>2019-05-22T11:58:16Z</time>
      </trkpt>
      <trkpt lat="43.75752" lon="4.71956">
        <ele>133</ele>
        <time>2019-05-22T11:58:21Z</time>
      </trkpt>
      <trkpt lat="43.75753" lon="4.71959">
        <ele>134</ele>
        <time>2019-05-22T11:58:24Z</time>
      </trkpt>
      <trkpt lat="43.75752" lon="4.71964">
        <ele>134</ele>
        <time>2019-05-22T11:58:28Z</time>
      </trkpt>
      <trkpt lat="43.7575" lon="4.7197">
        <ele>134</ele>
        <time>2019-05-22T11:58:33Z</time>
      </trkpt>
      <trkpt lat="43.7575" lon="4.71975">
        <ele>134</ele>
        <time>2019-05-22T11:58:37Z</time>
      </trkpt>
      <trkpt lat="43.75753" lon="4.71978">
        <ele>134</ele>
        <time>2019-05-22T11:58:41Z</time>
      </trkpt>
      <trkpt lat="43.75754" lon="4.71981">
        <ele>134</ele>
        <time>2019-05-22T11:58:45Z</time>
      </trkpt>
      <trkpt lat="43.75757" lon="4.71983">
        <ele>134</ele>
        <time>2019-05-22T11:58:50Z</time>
      </trkpt>
      <trkpt lat="43.75763" lon="4.7198">
        <ele>135</ele>
        <time>2019-05-22T11:58:55Z</time>
      </trkpt>
      <trkpt lat="43.75766" lon="4.71977">
        <ele>135</ele>
        <time>2019-05-22T11:58:59Z</time>
      </trkpt>
      <trkpt lat="43.75766" lon="4.71974">
        <ele>135</ele>
        <time>2019-05-22T11:59:02Z</time>
      </trkpt>
      <trkpt lat="43.75766" lon="4.7197">
        <ele>135</ele>
        <time>2019-05-22T11:59:07Z</time>
      </trkpt>
      <trkpt lat="43.75767" lon="4.71964">
        <ele>135</ele>
        <time>2019-05-22T11:59:12Z</time>
      </trkpt>
      <trkpt lat="43.75767" lon="4.71956">
        <ele>134</ele>
        <time>2019-05-22T11:59:16Z</time>
      </trkpt>
      <trkpt lat="43.75766" lon="4.71947">
        <ele>134</ele>
        <time>2019-05-22T11:59:21Z</time>
      </trkpt>
      <trkpt lat="43.75766" lon="4.71942">
        <ele>133</ele>
        <time>2019-05-22T11:59:25Z</time>
      </trkpt>
      <trkpt lat="43.75768" lon="4.71934">
        <ele>132</ele>
        <time>2019-05-22T11:59:30Z</time>
      </trkpt>
      <trkpt lat="43.7577" lon="4.71928">
        <ele>132</ele>
        <time>2019-05-22T11:59:35Z</time>
      </trkpt>
      <trkpt lat="43.75773" lon="4.71921">
        <ele>132</ele>
        <time>2019-05-22T11:59:40Z</time>
      </trkpt>
      <trkpt lat="43.75777" lon="4.71916">
        <ele>130</ele>
        <time>2019-05-22T11:59:44Z</time>
      </trkpt>
      <trkpt lat="43.75781" lon="4.7191">
        <ele>131</ele>
        <time>2019-05-22T11:59:49Z</time>
      </trkpt>
      <trkpt lat="43.75783" lon="4.71907">
        <ele>131</ele>
        <time>2019-05-22T11:59:52Z</time>
      </trkpt>
      <trkpt lat="43.75786" lon="4.71901">
        <ele>131</ele>
        <time>2019-05-22T11:59:57Z</time>
      </trkpt>
      <trkpt lat="43.75788" lon="4.71893">
        <ele>132</ele>
        <time>2019-05-22T12:00:01Z</time>
      </trkpt>
      <trkpt lat="43.75789" lon="4.71885">
        <ele>132</ele>
        <time>2019-05-22T12:00:06Z</time>
      </trkpt>
      <trkpt lat="43.75791" lon="4.71878">
        <ele>132</ele>
        <time>2019-05-22T12:00:10Z</time>
      </trkpt>
      <trkpt lat="43.75792" lon="4.71872">
        <ele>132</ele>
        <time>2019-05-22T12:00:14Z</time>
      </trkpt>
      <trkpt lat="43.75792" lon="4.71868">
        <ele>132</ele>
        <time>2019-05-22T12:00:18Z</time>
      </trkpt>
      <trkpt lat="43.75791" lon="4.71866">
        <ele>131</ele>
        <time>2019-05-22T12:00:23Z</time>
      </trkpt>
      <trkpt lat="43.7579" lon="4.71864">
        <ele>131</ele>
        <time>2019-05-22T12:00:27Z</time>
      </trkpt>
      <trkpt lat="43.75791" lon="4.71856">
        <ele>131</ele>
        <time>2019-05-22T12:00:32Z</time>
      </trkpt>
      <trkpt lat="43.75792" lon="4.71852">
        <ele>131</ele>
        <time>2019-05-22T12:00:35Z</time>
      </trkpt>
      <trkpt lat="43.75792" lon="4.71849">
        <ele>131</ele>
        <time>2019-05-22T12:00:38Z</time>
      </trkpt>
      <trkpt lat="43.75794" lon="4.71845">
        <ele>131</ele>
        <time>2019-05-22T12:00:42Z</time>
      </trkpt>
      <trkpt lat="43.75793" lon="4.71838">
        <ele>131</ele>
        <time>2019-05-22T12:00:46Z</time>
      </trkpt>
      <trkpt lat="43.75792" lon="4.71833">
        <ele>130</ele>
        <time>2019-05-22T12:00:50Z</time>
      </trkpt>
      <trkpt lat="43.75792" lon="4.71831">
        <ele>130</ele>
        <time>2019-05-22T12:00:53Z</time>
      </trkpt>
      <trkpt lat="43.75791" lon="4.71828">
        <ele>130</ele>
        <time>2019-05-22T12:00:58Z</time>
      </trkpt>
      <trkpt lat="43.75791" lon="4.71825">
        <ele>130</ele>
        <time>2019-05-22T12:01:01Z</time>
      </trkpt>
      <trkpt lat="43.75792" lon="4.71818">
        <ele>130</ele>
        <time>2019-05-22T12:01:06Z</time>
      </trkpt>
      <trkpt lat="43.75791" lon="4.71812">
        <ele>130</ele>
        <time>2019-05-22T12:01:10Z</time>
      </trkpt>
      <trkpt lat="43.75792" lon="4.71802">
        <ele>130</ele>
        <time>2019-05-22T12:01:15Z</time>
      </trkpt>
      <trkpt lat="43.75792" lon="4.71797">
        <ele>130</ele>
        <time>2019-05-22T12:01:19Z</time>
      </trkpt>
      <trkpt lat="43.75794" lon="4.71791">
        <ele>130</ele>
        <time>2019-05-22T12:01:24Z</time>
      </trkpt>
      <trkpt lat="43.75795" lon="4.71789">
        <ele>130</ele>
        <time>2019-05-22T12:01:29Z</time>
      </trkpt>
      <trkpt lat="43.75794" lon="4.71788">
        <ele>130</ele>
        <time>2019-05-22T12:01:33Z</time>
      </trkpt>
      <trkpt lat="43.75793" lon="4.71783">
        <ele>130</ele>
        <time>2019-05-22T12:01:38Z</time>
      </trkpt>
      <trkpt lat="43.75792" lon="4.71776">
        <ele>130</ele>
        <time>2019-05-22T12:01:42Z</time>
      </trkpt>
      <trkpt lat="43.75792" lon="4.71769">
        <ele>130</ele>
        <time>2019-05-22T12:01:46Z</time>
      </trkpt>
      <trkpt lat="43.75791" lon="4.71764">
        <ele>130</ele>
        <time>2019-05-22T12:01:50Z</time>
      </trkpt>
      <trkpt lat="43.75791" lon="4.71759">
        <ele>130</ele>
        <time>2019-05-22T12:01:54Z</time>
      </trkpt>
      <trkpt lat="43.75792" lon="4.71754">
        <ele>130</ele>
        <time>2019-05-22T12:01:59Z</time>
      </trkpt>
      <trkpt lat="43.75793" lon="4.71752">
        <ele>130</ele>
        <time>2019-05-22T12:02:03Z</time>
      </trkpt>
      <trkpt lat="43.75791" lon="4.71748">
        <ele>130</ele>
        <time>2019-05-22T12:02:08Z</time>
      </trkpt>
      <trkpt lat="43.75789" lon="4.7174">
        <ele>130</ele>
        <time>2019-05-22T12:02:13Z</time>
      </trkpt>
      <trkpt lat="43.75787" lon="4.71731">
        <ele>130</ele>
        <time>2019-05-22T12:02:17Z</time>
      </trkpt>
      <trkpt lat="43.75786" lon="4.71727">
        <ele>130</ele>
        <time>2019-05-22T12:02:20Z</time>
      </trkpt>
      <trkpt lat="43.75787" lon="4.71722">
        <ele>130</ele>
        <time>2019-05-22T12:02:24Z</time>
      </trkpt>
      <trkpt lat="43.75787" lon="4.71717">
        <ele>130</ele>
        <time>2019-05-22T12:02:28Z</time>
      </trkpt>
      <trkpt lat="43.75786" lon="4.71714">
        <ele>130</ele>
        <time>2019-05-22T12:02:32Z</time>
      </trkpt>
      <trkpt lat="43.75787" lon="4.71709">
        <ele>130</ele>
        <time>2019-05-22T12:02:36Z</time>
      </trkpt>
      <trkpt lat="43.75787" lon="4.71703">
        <ele>130</ele>
        <time>2019-05-22T12:02:41Z</time>
      </trkpt>
      <trkpt lat="43.75787" lon="4.71699">
        <ele>130</ele>
        <time>2019-05-22T12:02:44Z</time>
      </trkpt>
      <trkpt lat="43.75786" lon="4.71695">
        <ele>130</ele>
        <time>2019-05-22T12:02:47Z</time>
      </trkpt>
      <trkpt lat="43.75786" lon="4.71692">
        <ele>130</ele>
        <time>2019-05-22T12:02:51Z</time>
      </trkpt>
      <trkpt lat="43.75786" lon="4.71688">
        <ele>130</ele>
        <time>2019-05-22T12:02:56Z</time>
      </trkpt>
      <trkpt lat="43.75786" lon="4.71685">
        <ele>130</ele>
        <time>2019-05-22T12:03:00Z</time>
      </trkpt>
      <trkpt lat="43.75785" lon="4.71682">
        <ele>130</ele>
        <time>2019-05-22T12:03:05Z</time>
      </trkpt>
      <trkpt lat="43.75787" lon="4.71677">
        <ele>130</ele>
        <time>2019-05-22T12:03:10Z</time>
      </trkpt>
      <trkpt lat="43.75787" lon="4.71671">
        <ele>130</ele>
        <time>2019-05-22T12:03:14Z</time>
      </trkpt>
      <trkpt lat="43.75785" lon="4.71666">
        <ele>130</ele>
        <time>2019-05-22T12:03:18Z</time>
      </trkpt>
      <trkpt lat="43.75783" lon="4.71658">
        <ele>130</ele>
        <time>2019-05-22T12:03:23Z</time>
      </trkpt>
      <trkpt lat="43.75782" lon="4.71652">
        <ele>130</ele>
        <time>2019-05-22T12:03:26Z</time>
      </trkpt>
      <trkpt lat="43.7578" lon="4.71648">
        <ele>129</ele>
        <time>2019-05-22T12:03:29Z</time>
      </trkpt>
      <trkpt lat="43.75779" lon="4.71642">
        <ele>130</ele>
        <time>2019-05-22T12:03:33Z</time>
      </trkpt>
      <trkpt lat="43.75779" lon="4.71639">
        <ele>130</ele>
        <time>2019-05-22T12:03:37Z</time>
      </trkpt>
      <trkpt lat="43.7578" lon="4.71637">
        <ele>130</ele>
        <time>2019-05-22T12:03:41Z</time>
      </trkpt>
      <trkpt lat="43.7578" lon="4.71633">
        <ele>130</ele>
        <time>2019-05-22T12:03:46Z</time>
      </trkpt>
      <trkpt lat="43.7578" lon="4.71629">
        <ele>130</ele>
        <time>2019-05-22T12:03:50Z</time>
      </trkpt>
      <trkpt lat="43.75779" lon="4.71624">
        <ele>130</ele>
        <time>2019-05-22T12:03:54Z</time>
      </trkpt>
      <trkpt lat="43.75778" lon="4.71621">
        <ele>130</ele>
        <time>2019-05-22T12:03:58Z</time>
      </trkpt>
      <trkpt lat="43.75776" lon="4.71616">
        <ele>130</ele>
        <time>2019-05-22T12:04:02Z</time>
      </trkpt>
      <trkpt lat="43.75775" lon="4.71607">
        <ele>129</ele>
        <time>2019-05-22T12:04:07Z</time>
      </trkpt>
      <trkpt lat="43.75775" lon="4.71603">
        <ele>129</ele>
        <time>2019-05-22T12:04:10Z</time>
      </trkpt>
      <trkpt lat="43.75775" lon="4.71599">
        <ele>129</ele>
        <time>2019-05-22T12:04:14Z</time>
      </trkpt>
      <trkpt lat="43.75775" lon="4.71597">
        <ele>129</ele>
        <time>2019-05-22T12:04:19Z</time>
      </trkpt>
      <trkpt lat="43.75775" lon="4.71594">
        <ele>129</ele>
        <time>2019-05-22T12:04:22Z</time>
      </trkpt>
      <trkpt lat="43.75776" lon="4.71592">
        <ele>129</ele>
        <time>2019-05-22T12:04:26Z</time>
      </trkpt>
      <trkpt lat="43.75777" lon="4.71587">
        <ele>129</ele>
        <time>2019-05-22T12:04:30Z</time>
      </trkpt>
      <trkpt lat="43.75777" lon="4.71584">
        <ele>129</ele>
        <time>2019-05-22T12:04:33Z</time>
      </trkpt>
      <trkpt lat="43.75777" lon="4.71581">
        <ele>129</ele>
        <time>2019-05-22T12:04:37Z</time>
      </trkpt>
      <trkpt lat="43.75779" lon="4.71577">
        <ele>130</ele>
        <time>2019-05-22T12:04:41Z</time>
      </trkpt>
      <trkpt lat="43.75779" lon="4.71575">
        <ele>130</ele>
        <time>2019-05-22T12:04:44Z</time>
      </trkpt>
      <trkpt lat="43.7578" lon="4.71573">
        <ele>130</ele>
        <time>2019-05-22T12:04:48Z</time>
      </trkpt>
      <trkpt lat="43.75781" lon="4.7157">
        <ele>130</ele>
        <time>2019-05-22T12:04:53Z</time>
      </trkpt>
      <trkpt lat="43.75782" lon="4.71568">
        <ele>130</ele>
        <time>2019-05-22T12:04:56Z</time>
      </trkpt>
      <trkpt lat="43.75781" lon="4.71562">
        <ele>130</ele>
        <time>2019-05-22T12:05:01Z</time>
      </trkpt>
      <trkpt lat="43.7578" lon="4.71558">
        <ele>130</ele>
        <time>2019-05-22T12:05:05Z</time>
      </trkpt>
      <trkpt lat="43.75781" lon="4.71553">
        <ele>131</ele>
        <time>2019-05-22T12:05:09Z</time>
      </trkpt>
      <trkpt lat="43.75782" lon="4.71547">
        <ele>131</ele>
        <time>2019-05-22T12:05:13Z</time>
      </trkpt>
      <trkpt lat="43.75781" lon="4.71541">
        <ele>131</ele>
        <time>2019-05-22T12:05:18Z</time>
      </trkpt>
      <trkpt lat="43.75781" lon="4.71539">
        <ele>131</ele>
        <time>2019-05-22T12:05:21Z</time>
      </trkpt>
      <trkpt lat="43.75779" lon="4.71537">
        <ele>131</ele>
        <time>2019-05-22T12:05:25Z</time>
      </trkpt>
      <trkpt lat="43.75777" lon="4.71536">
        <ele>131</ele>
        <time>2019-05-22T12:05:30Z</time>
      </trkpt>
      <trkpt lat="43.75776" lon="4.71534">
        <ele>131</ele>
        <time>2019-05-22T12:05:34Z</time>
      </trkpt>
      <trkpt lat="43.75774" lon="4.71533">
        <ele>131</ele>
        <time>2019-05-22T12:05:37Z</time>
      </trkpt>
      <trkpt lat="43.75774" lon="4.71531">
        <ele>131</ele>
        <time>2019-05-22T12:05:42Z</time>
      </trkpt>
      <trkpt lat="43.75773" lon="4.7153">
        <ele>131</ele>
        <time>2019-05-22T12:06:11Z</time>
      </trkpt>
      <trkpt lat="43.75773" lon="4.71529">
        <ele>131</ele>
        <time>2019-05-22T12:06:38Z</time>
      </trkpt>
      <trkpt lat="43.75773" lon="4.71528">
        <ele>131</ele>
        <time>2019-05-22T12:06:42Z</time>
      </trkpt>
      <trkpt lat="43.75773" lon="4.71527">
        <ele>131</ele>
        <time>2019-05-22T12:06:57Z</time>
      </trkpt>
      <trkpt lat="43.75774" lon="4.71527">
        <ele>131</ele>
        <time>2019-05-22T12:07:02Z</time>
      </trkpt>
      <trkpt lat="43.75773" lon="4.71526">
        <ele>131</ele>
        <time>2019-05-22T12:07:07Z</time>
      </trkpt>
      <trkpt lat="43.75773" lon="4.71525">
        <ele>131</ele>
        <time>2019-05-22T12:07:11Z</time>
      </trkpt>
      <trkpt lat="43.75773" lon="4.71524">
        <ele>131</ele>
        <time>2019-05-22T12:07:15Z</time>
      </trkpt>
      <trkpt lat="43.75772" lon="4.71523">
        <ele>131</ele>
        <time>2019-05-22T12:07:19Z</time>
      </trkpt>
      <trkpt lat="43.75771" lon="4.71522">
        <ele>131</ele>
        <time>2019-05-22T12:07:25Z</time>
      </trkpt>
      <trkpt lat="43.75771" lon="4.71522">
        <ele>131</ele>
        <time>2019-05-22T12:07:30Z</time>
      </trkpt>
      <trkpt lat="43.75771" lon="4.71521">
        <ele>131</ele>
        <time>2019-05-22T12:07:58Z</time>
      </trkpt>
      <trkpt lat="43.75773" lon="4.71519">
        <ele>131</ele>
        <time>2019-05-22T12:08:02Z</time>
      </trkpt>
      <trkpt lat="43.75775" lon="4.71515">
        <ele>131</ele>
        <time>2019-05-22T12:08:06Z</time>
      </trkpt>
      <trkpt lat="43.75776" lon="4.71513">
        <ele>131</ele>
        <time>2019-05-22T12:08:11Z</time>
      </trkpt>
      <trkpt lat="43.75776" lon="4.71513">
        <ele>131</ele>
        <time>2019-05-22T12:08:15Z</time>
      </trkpt>
      <trkpt lat="43.75777" lon="4.71511">
        <ele>131</ele>
        <time>2019-05-22T12:08:19Z</time>
      </trkpt>
      <trkpt lat="43.75778" lon="4.71508">
        <ele>131</ele>
        <time>2019-05-22T12:08:22Z</time>
      </trkpt>
      <trkpt lat="43.75779" lon="4.71504">
        <ele>131</ele>
        <time>2019-05-22T12:08:26Z</time>
      </trkpt>
      <trkpt lat="43.7578" lon="4.71499">
        <ele>131</ele>
        <time>2019-05-22T12:08:30Z</time>
      </trkpt>
      <trkpt lat="43.75781" lon="4.71496">
        <ele>131</ele>
        <time>2019-05-22T12:08:34Z</time>
      </trkpt>
      <trkpt lat="43.75782" lon="4.71492">
        <ele>131</ele>
        <time>2019-05-22T12:08:39Z</time>
      </trkpt>
      <trkpt lat="43.75784" lon="4.71487">
        <ele>130</ele>
        <time>2019-05-22T12:08:43Z</time>
      </trkpt>
      <trkpt lat="43.75785" lon="4.7148">
        <ele>130</ele>
        <time>2019-05-22T12:08:48Z</time>
      </trkpt>
      <trkpt lat="43.75786" lon="4.71474">
        <ele>130</ele>
        <time>2019-05-22T12:08:52Z</time>
      </trkpt>
      <trkpt lat="43.75786" lon="4.71469">
        <ele>130</ele>
        <time>2019-05-22T12:08:56Z</time>
      </trkpt>
      <trkpt lat="43.75786" lon="4.71466">
        <ele>130</ele>
        <time>2019-05-22T12:09:00Z</time>
      </trkpt>
      <trkpt lat="43.75787" lon="4.71465">
        <ele>130</ele>
        <time>2019-05-22T12:09:07Z</time>
      </trkpt>
      <trkpt lat="43.75787" lon="4.71462">
        <ele>130</ele>
        <time>2019-05-22T12:09:12Z</time>
      </trkpt>
      <trkpt lat="43.75788" lon="4.71456">
        <ele>130</ele>
        <time>2019-05-22T12:09:17Z</time>
      </trkpt>
      <trkpt lat="43.75789" lon="4.71453">
        <ele>130</ele>
        <time>2019-05-22T12:09:21Z</time>
      </trkpt>
      <trkpt lat="43.7579" lon="4.71449">
        <ele>130</ele>
        <time>2019-05-22T12:09:25Z</time>
      </trkpt>
      <trkpt lat="43.75791" lon="4.71445">
        <ele>130</ele>
        <time>2019-05-22T12:09:29Z</time>
      </trkpt>
      <trkpt lat="43.75792" lon="4.71439">
        <ele>130</ele>
        <time>2019-05-22T12:09:34Z</time>
      </trkpt>
      <trkpt lat="43.75792" lon="4.71436">
        <ele>130</ele>
        <time>2019-05-22T12:09:38Z</time>
      </trkpt>
      <trkpt lat="43.75793" lon="4.71433">
        <ele>130</ele>
        <time>2019-05-22T12:09:43Z</time>
      </trkpt>
      <trkpt lat="43.75794" lon="4.71427">
        <ele>129</ele>
        <time>2019-05-22T12:09:47Z</time>
      </trkpt>
      <trkpt lat="43.75795" lon="4.71423">
        <ele>129</ele>
        <time>2019-05-22T12:09:51Z</time>
      </trkpt>
      <trkpt lat="43.75795" lon="4.7142">
        <ele>129</ele>
        <time>2019-05-22T12:09:55Z</time>
      </trkpt>
      <trkpt lat="43.75796" lon="4.71418">
        <ele>129</ele>
        <time>2019-05-22T12:09:58Z</time>
      </trkpt>
      <trkpt lat="43.75796" lon="4.71415">
        <ele>126</ele>
        <time>2019-05-22T12:10:03Z</time>
      </trkpt>
      <trkpt lat="43.75797" lon="4.71411">
        <ele>126</ele>
        <time>2019-05-22T12:10:06Z</time>
      </trkpt>
      <trkpt lat="43.75796" lon="4.71406">
        <ele>126</ele>
        <time>2019-05-22T12:10:11Z</time>
      </trkpt>
      <trkpt lat="43.75796" lon="4.71402">
        <ele>126</ele>
        <time>2019-05-22T12:10:15Z</time>
      </trkpt>
      <trkpt lat="43.75797" lon="4.71395">
        <ele>126</ele>
        <time>2019-05-22T12:10:20Z</time>
      </trkpt>
      <trkpt lat="43.75799" lon="4.7139">
        <ele>126</ele>
        <time>2019-05-22T12:10:23Z</time>
      </trkpt>
      <trkpt lat="43.758" lon="4.71385">
        <ele>126</ele>
        <time>2019-05-22T12:10:27Z</time>
      </trkpt>
      <trkpt lat="43.75801" lon="4.71379">
        <ele>125</ele>
        <time>2019-05-22T12:10:31Z</time>
      </trkpt>
      <trkpt lat="43.75802" lon="4.71375">
        <ele>125</ele>
        <time>2019-05-22T12:10:34Z</time>
      </trkpt>
      <trkpt lat="43.75803" lon="4.71373">
        <ele>125</ele>
        <time>2019-05-22T12:10:38Z</time>
      </trkpt>
      <trkpt lat="43.75803" lon="4.7137">
        <ele>125</ele>
        <time>2019-05-22T12:10:41Z</time>
      </trkpt>
      <trkpt lat="43.75803" lon="4.71367">
        <ele>125</ele>
        <time>2019-05-22T12:10:45Z</time>
      </trkpt>
      <trkpt lat="43.75804" lon="4.71363">
        <ele>124</ele>
        <time>2019-05-22T12:10:50Z</time>
      </trkpt>
      <trkpt lat="43.75804" lon="4.71358">
        <ele>124</ele>
        <time>2019-05-22T12:10:54Z</time>
      </trkpt>
      <trkpt lat="43.75805" lon="4.71353">
        <ele>124</ele>
        <time>2019-05-22T12:10:59Z</time>
      </trkpt>
      <trkpt lat="43.75806" lon="4.71351">
        <ele>124</ele>
        <time>2019-05-22T12:11:02Z</time>
      </trkpt>
      <trkpt lat="43.75806" lon="4.71347">
        <ele>123</ele>
        <time>2019-05-22T12:11:07Z</time>
      </trkpt>
      <trkpt lat="43.75807" lon="4.71344">
        <ele>123</ele>
        <time>2019-05-22T12:11:11Z</time>
      </trkpt>
      <trkpt lat="43.75809" lon="4.71341">
        <ele>123</ele>
        <time>2019-05-22T12:11:15Z</time>
      </trkpt>
      <trkpt lat="43.7581" lon="4.71338">
        <ele>122</ele>
        <time>2019-05-22T12:11:20Z</time>
      </trkpt>
      <trkpt lat="43.7581" lon="4.71337">
        <ele>122</ele>
        <time>2019-05-22T12:11:23Z</time>
      </trkpt>
      <trkpt lat="43.75807" lon="4.71335">
        <ele>123</ele>
        <time>2019-05-22T12:11:27Z</time>
      </trkpt>
      <trkpt lat="43.75807" lon="4.71332">
        <ele>119</ele>
        <time>2019-05-22T12:11:31Z</time>
      </trkpt>
      <trkpt lat="43.75807" lon="4.71329">
        <ele>119</ele>
        <time>2019-05-22T12:11:36Z</time>
      </trkpt>
      <trkpt lat="43.75808" lon="4.71326">
        <ele>119</ele>
        <time>2019-05-22T12:11:40Z</time>
      </trkpt>
      <trkpt lat="43.75808" lon="4.71323">
        <ele>119</ele>
        <time>2019-05-22T12:11:45Z</time>
      </trkpt>
      <trkpt lat="43.75808" lon="4.71322">
        <ele>119</ele>
        <time>2019-05-22T12:11:48Z</time>
      </trkpt>
      <trkpt lat="43.7581" lon="4.71319">
        <ele>119</ele>
        <time>2019-05-22T12:11:52Z</time>
      </trkpt>
      <trkpt lat="43.7581" lon="4.71317">
        <ele>119</ele>
        <time>2019-05-22T12:11:56Z</time>
      </trkpt>
      <trkpt lat="43.75812" lon="4.71312">
        <ele>119</ele>
        <time>2019-05-22T12:12:00Z</time>
      </trkpt>
      <trkpt lat="43.75814" lon="4.71308">
        <ele>118</ele>
        <time>2019-05-22T12:12:03Z</time>
      </trkpt>
      <trkpt lat="43.75815" lon="4.71304">
        <ele>118</ele>
        <time>2019-05-22T12:12:07Z</time>
      </trkpt>
      <trkpt lat="43.75816" lon="4.71301">
        <ele>118</ele>
        <time>2019-05-22T12:12:10Z</time>
      </trkpt>
      <trkpt lat="43.75817" lon="4.713">
        <ele>118</ele>
        <time>2019-05-22T12:12:15Z</time>
      </trkpt>
      <trkpt lat="43.75817" lon="4.71298">
        <ele>118</ele>
        <time>2019-05-22T12:12:19Z</time>
      </trkpt>
      <trkpt lat="43.75817" lon="4.71296">
        <ele>118</ele>
        <time>2019-05-22T12:12:23Z</time>
      </trkpt>
      <trkpt lat="43.75817" lon="4.71295">
        <ele>118</ele>
        <time>2019-05-22T12:12:28Z</time>
      </trkpt>
      <trkpt lat="43.75817" lon="4.71294">
        <ele>118</ele>
        <time>2019-05-22T12:12:32Z</time>
      </trkpt>
      <trkpt lat="43.75818" lon="4.71293">
        <ele>118</ele>
        <time>2019-05-22T12:12:36Z</time>
      </trkpt>
      <trkpt lat="43.75819" lon="4.71292">
        <ele>118</ele>
        <time>2019-05-22T12:12:40Z</time>
      </trkpt>
      <trkpt lat="43.75817" lon="4.71285">
        <ele>118</ele>
        <time>2019-05-22T12:12:45Z</time>
      </trkpt>
      <trkpt lat="43.75817" lon="4.71281">
        <ele>117</ele>
        <time>2019-05-22T12:12:49Z</time>
      </trkpt>
      <trkpt lat="43.75818" lon="4.71279">
        <ele>117</ele>
        <time>2019-05-22T12:12:53Z</time>
      </trkpt>
      <trkpt lat="43.75819" lon="4.71276">
        <ele>117</ele>
        <time>2019-05-22T12:12:57Z</time>
      </trkpt>
      <trkpt lat="43.75819" lon="4.71276">
        <ele>117</ele>
        <time>2019-05-22T12:13:01Z</time>
      </trkpt>
      <trkpt lat="43.75821" lon="4.71276">
        <ele>117</ele>
        <time>2019-05-22T12:13:05Z</time>
      </trkpt>
      <trkpt lat="43.75822" lon="4.71275">
        <ele>117</ele>
        <time>2019-05-22T12:13:09Z</time>
      </trkpt>
      <trkpt lat="43.75821" lon="4.71273">
        <ele>117</ele>
        <time>2019-05-22T12:13:13Z</time>
      </trkpt>
      <trkpt lat="43.75821" lon="4.7127">
        <ele>116</ele>
        <time>2019-05-22T12:13:16Z</time>
      </trkpt>
      <trkpt lat="43.75822" lon="4.71262">
        <ele>116</ele>
        <time>2019-05-22T12:13:20Z</time>
      </trkpt>
      <trkpt lat="43.75822" lon="4.71258">
        <ele>115</ele>
        <time>2019-05-22T12:13:24Z</time>
      </trkpt>
      <trkpt lat="43.75822" lon="4.71251">
        <ele>115</ele>
        <time>2019-05-22T12:13:28Z</time>
      </trkpt>
      <trkpt lat="43.75821" lon="4.71248">
        <ele>113</ele>
        <time>2019-05-22T12:13:31Z</time>
      </trkpt>
      <trkpt lat="43.75822" lon="4.71244">
        <ele>113</ele>
        <time>2019-05-22T12:13:36Z</time>
      </trkpt>
      <trkpt lat="43.75822" lon="4.71241">
        <ele>113</ele>
        <time>2019-05-22T12:13:39Z</time>
      </trkpt>
      <trkpt lat="43.75822" lon="4.71236">
        <ele>113</ele>
        <time>2019-05-22T12:13:44Z</time>
      </trkpt>
      <trkpt lat="43.75821" lon="4.71231">
        <ele>113</ele>
        <time>2019-05-22T12:13:48Z</time>
      </trkpt>
      <trkpt lat="43.75821" lon="4.71225">
        <ele>112</ele>
        <time>2019-05-22T12:13:52Z</time>
      </trkpt>
      <trkpt lat="43.75823" lon="4.71221">
        <ele>112</ele>
        <time>2019-05-22T12:13:55Z</time>
      </trkpt>
      <trkpt lat="43.75824" lon="4.71218">
        <ele>112</ele>
        <time>2019-05-22T12:13:59Z</time>
      </trkpt>
      <trkpt lat="43.75826" lon="4.71215">
        <ele>112</ele>
        <time>2019-05-22T12:14:02Z</time>
      </trkpt>
      <trkpt lat="43.75827" lon="4.71212">
        <ele>112</ele>
        <time>2019-05-22T12:14:07Z</time>
      </trkpt>
      <trkpt lat="43.75827" lon="4.7121">
        <ele>112</ele>
        <time>2019-05-22T12:14:11Z</time>
      </trkpt>
      <trkpt lat="43.75827" lon="4.71207">
        <ele>112</ele>
        <time>2019-05-22T12:14:15Z</time>
      </trkpt>
      <trkpt lat="43.75826" lon="4.71205">
        <ele>112</ele>
        <time>2019-05-22T12:14:20Z</time>
      </trkpt>
      <trkpt lat="43.75826" lon="4.71201">
        <ele>112</ele>
        <time>2019-05-22T12:14:25Z</time>
      </trkpt>
      <trkpt lat="43.75826" lon="4.71198">
        <ele>112</ele>
        <time>2019-05-22T12:14:29Z</time>
      </trkpt>
      <trkpt lat="43.75827" lon="4.71194">
        <ele>112</ele>
        <time>2019-05-22T12:14:34Z</time>
      </trkpt>
      <trkpt lat="43.75828" lon="4.71191">
        <ele>112</ele>
        <time>2019-05-22T12:14:37Z</time>
      </trkpt>
      <trkpt lat="43.75828" lon="4.71189">
        <ele>112</ele>
        <time>2019-05-22T12:14:40Z</time>
      </trkpt>
      <trkpt lat="43.75829" lon="4.71187">
        <ele>112</ele>
        <time>2019-05-22T12:14:44Z</time>
      </trkpt>
      <trkpt lat="43.75831" lon="4.71185">
        <ele>112</ele>
        <time>2019-05-22T12:14:47Z</time>
      </trkpt>
      <trkpt lat="43.75832" lon="4.71183">
        <ele>112</ele>
        <time>2019-05-22T12:14:50Z</time>
      </trkpt>
      <trkpt lat="43.75834" lon="4.71178">
        <ele>115</ele>
        <time>2019-05-22T12:14:55Z</time>
      </trkpt>
      <trkpt lat="43.75834" lon="4.71175">
        <ele>115</ele>
        <time>2019-05-22T12:15:00Z</time>
      </trkpt>
      <trkpt lat="43.75834" lon="4.71174">
        <ele>115</ele>
        <time>2019-05-22T12:15:04Z</time>
      </trkpt>
      <trkpt lat="43.75836" lon="4.71171">
        <ele>114</ele>
        <time>2019-05-22T12:15:09Z</time>
      </trkpt>
      <trkpt lat="43.75838" lon="4.7117">
        <ele>114</ele>
        <time>2019-05-22T12:15:12Z</time>
      </trkpt>
      <trkpt lat="43.75839" lon="4.71165">
        <ele>114</ele>
        <time>2019-05-22T12:15:17Z</time>
      </trkpt>
      <trkpt lat="43.75841" lon="4.71162">
        <ele>114</ele>
        <time>2019-05-22T12:15:22Z</time>
      </trkpt>
      <trkpt lat="43.75842" lon="4.7116">
        <ele>115</ele>
        <time>2019-05-22T12:15:26Z</time>
      </trkpt>
      <trkpt lat="43.75842" lon="4.71156">
        <ele>115</ele>
        <time>2019-05-22T12:15:30Z</time>
      </trkpt>
      <trkpt lat="43.75842" lon="4.71154">
        <ele>115</ele>
        <time>2019-05-22T12:15:34Z</time>
      </trkpt>
      <trkpt lat="43.75842" lon="4.71151">
        <ele>115</ele>
        <time>2019-05-22T12:15:37Z</time>
      </trkpt>
      <trkpt lat="43.75842" lon="4.7115">
        <ele>115</ele>
        <time>2019-05-22T12:15:42Z</time>
      </trkpt>
      <trkpt lat="43.75842" lon="4.71149">
        <ele>116</ele>
        <time>2019-05-22T12:15:47Z</time>
      </trkpt>
      <trkpt lat="43.75842" lon="4.71148">
        <ele>116</ele>
        <time>2019-05-22T12:15:53Z</time>
      </trkpt>
      <trkpt lat="43.75842" lon="4.71147">
        <ele>116</ele>
        <time>2019-05-22T12:15:57Z</time>
      </trkpt>
      <trkpt lat="43.75841" lon="4.71146">
        <ele>116</ele>
        <time>2019-05-22T12:16:02Z</time>
      </trkpt>
      <trkpt lat="43.7584" lon="4.71146">
        <ele>116</ele>
        <time>2019-05-22T12:16:08Z</time>
      </trkpt>
      <trkpt lat="43.75839" lon="4.71145">
        <ele>116</ele>
        <time>2019-05-22T12:16:15Z</time>
      </trkpt>
      <trkpt lat="43.75839" lon="4.71144">
        <ele>116</ele>
        <time>2019-05-22T12:16:20Z</time>
      </trkpt>
      <trkpt lat="43.75838" lon="4.71143">
        <ele>116</ele>
        <time>2019-05-22T12:16:24Z</time>
      </trkpt>
      <trkpt lat="43.75837" lon="4.71142">
        <ele>116</ele>
        <time>2019-05-22T12:16:31Z</time>
      </trkpt>
      <trkpt lat="43.75838" lon="4.71142">
        <ele>116</ele>
        <time>2019-05-22T12:16:40Z</time>
      </trkpt>
      <trkpt lat="43.75839" lon="4.71143">
        <ele>116</ele>
        <time>2019-05-22T12:16:43Z</time>
      </trkpt>
      <trkpt lat="43.75839" lon="4.71143">
        <ele>116</ele>
        <time>2019-05-22T12:16:49Z</time>
      </trkpt>
      <trkpt lat="43.75838" lon="4.7114">
        <ele>116</ele>
        <time>2019-05-22T12:16:54Z</time>
      </trkpt>
      <trkpt lat="43.75837" lon="4.71138">
        <ele>116</ele>
        <time>2019-05-22T12:16:58Z</time>
      </trkpt>
      <trkpt lat="43.75837" lon="4.71136">
        <ele>116</ele>
        <time>2019-05-22T12:17:02Z</time>
      </trkpt>
      <trkpt lat="43.75837" lon="4.71136">
        <ele>116</ele>
        <time>2019-05-22T12:17:06Z</time>
      </trkpt>
      <trkpt lat="43.75838" lon="4.71138">
        <ele>116</ele>
        <time>2019-05-22T12:17:10Z</time>
      </trkpt>
      <trkpt lat="43.75839" lon="4.71139">
        <ele>116</ele>
        <time>2019-05-22T12:17:13Z</time>
      </trkpt>
      <trkpt lat="43.75841" lon="4.7114">
        <ele>116</ele>
        <time>2019-05-22T12:17:17Z</time>
      </trkpt>
      <trkpt lat="43.7584" lon="4.7114">
        <ele>116</ele>
        <time>2019-05-22T12:17:26Z</time>
      </trkpt>
      <trkpt lat="43.75839" lon="4.71139">
        <ele>116</ele>
        <time>2019-05-22T12:17:30Z</time>
      </trkpt>
      <trkpt lat="43.75838" lon="4.71138">
        <ele>116</ele>
        <time>2019-05-22T12:17:34Z</time>
      </trkpt>
      <trkpt lat="43.75837" lon="4.71138">
        <ele>116</ele>
        <time>2019-05-22T12:17:39Z</time>
      </trkpt>
      <trkpt lat="43.75837" lon="4.71136">
        <ele>116</ele>
        <time>2019-05-22T12:17:43Z</time>
      </trkpt>
      <trkpt lat="43.75838" lon="4.71134">
        <ele>116</ele>
        <time>2019-05-22T12:17:47Z</time>
      </trkpt>
      <trkpt lat="43.7584" lon="4.71131">
        <ele>116</ele>
        <time>2019-05-22T12:17:51Z</time>
      </trkpt>
      <trkpt lat="43.75841" lon="4.71127">
        <ele>116</ele>
        <time>2019-05-22T12:17:55Z</time>
      </trkpt>
      <trkpt lat="43.75842" lon="4.71124">
        <ele>116</ele>
        <time>2019-05-22T12:17:58Z</time>
      </trkpt>
      <trkpt lat="43.75843" lon="4.71118">
        <ele>116</ele>
        <time>2019-05-22T12:18:03Z</time>
      </trkpt>
      <trkpt lat="43.75844" lon="4.71115">
        <ele>116</ele>
        <time>2019-05-22T12:18:06Z</time>
      </trkpt>
      <trkpt lat="43.75844" lon="4.71111">
        <ele>116</ele>
        <time>2019-05-22T12:18:09Z</time>
      </trkpt>
      <trkpt lat="43.75845" lon="4.71107">
        <ele>116</ele>
        <time>2019-05-22T12:18:13Z</time>
      </trkpt>
      <trkpt lat="43.75845" lon="4.71104">
        <ele>116</ele>
        <time>2019-05-22T12:18:16Z</time>
      </trkpt>
      <trkpt lat="43.75847" lon="4.71098">
        <ele>116</ele>
        <time>2019-05-22T12:18:20Z</time>
      </trkpt>
      <trkpt lat="43.75848" lon="4.71093">
        <ele>116</ele>
        <time>2019-05-22T12:18:24Z</time>
      </trkpt>
      <trkpt lat="43.7585" lon="4.71087">
        <ele>116</ele>
        <time>2019-05-22T12:18:28Z</time>
      </trkpt>
      <trkpt lat="43.7585" lon="4.71084">
        <ele>116</ele>
        <time>2019-05-22T12:18:32Z</time>
      </trkpt>
      <trkpt lat="43.75852" lon="4.71079">
        <ele>115</ele>
        <time>2019-05-22T12:18:36Z</time>
      </trkpt>
      <trkpt lat="43.75853" lon="4.71073">
        <ele>115</ele>
        <time>2019-05-22T12:18:41Z</time>
      </trkpt>
      <trkpt lat="43.75855" lon="4.71069">
        <ele>115</ele>
        <time>2019-05-22T12:18:45Z</time>
      </trkpt>
      <trkpt lat="43.75857" lon="4.71063">
        <ele>115</ele>
        <time>2019-05-22T12:18:49Z</time>
      </trkpt>
      <trkpt lat="43.75859" lon="4.71059">
        <ele>115</ele>
        <time>2019-05-22T12:18:54Z</time>
      </trkpt>
      <trkpt lat="43.7586" lon="4.71055">
        <ele>115</ele>
        <time>2019-05-22T12:18:58Z</time>
      </trkpt>
      <trkpt lat="43.75862" lon="4.71052">
        <ele>115</ele>
        <time>2019-05-22T12:19:03Z</time>
      </trkpt>
      <trkpt lat="43.75863" lon="4.71048">
        <ele>115</ele>
        <time>2019-05-22T12:19:07Z</time>
      </trkpt>
      <trkpt lat="43.75865" lon="4.71043">
        <ele>115</ele>
        <time>2019-05-22T12:19:11Z</time>
      </trkpt>
      <trkpt lat="43.75866" lon="4.71036">
        <ele>114</ele>
        <time>2019-05-22T12:19:15Z</time>
      </trkpt>
      <trkpt lat="43.75867" lon="4.71032">
        <ele>114</ele>
        <time>2019-05-22T12:19:19Z</time>
      </trkpt>
      <trkpt lat="43.75868" lon="4.7103">
        <ele>114</ele>
        <time>2019-05-22T12:19:22Z</time>
      </trkpt>
      <trkpt lat="43.75867" lon="4.71026">
        <ele>114</ele>
        <time>2019-05-22T12:19:26Z</time>
      </trkpt>
      <trkpt lat="43.75867" lon="4.7102">
        <ele>114</ele>
        <time>2019-05-22T12:19:30Z</time>
      </trkpt>
      <trkpt lat="43.75867" lon="4.71013">
        <ele>114</ele>
        <time>2019-05-22T12:19:35Z</time>
      </trkpt>
      <trkpt lat="43.75868" lon="4.71008">
        <ele>114</ele>
        <time>2019-05-22T12:19:39Z</time>
      </trkpt>
      <trkpt lat="43.75871" lon="4.71">
        <ele>114</ele>
        <time>2019-05-22T12:19:43Z</time>
      </trkpt>
      <trkpt lat="43.75872" lon="4.70995">
        <ele>112</ele>
        <time>2019-05-22T12:19:46Z</time>
      </trkpt>
      <trkpt lat="43.75874" lon="4.70988">
        <ele>112</ele>
        <time>2019-05-22T12:19:50Z</time>
      </trkpt>
      <trkpt lat="43.75875" lon="4.70982">
        <ele>112</ele>
        <time>2019-05-22T12:19:54Z</time>
      </trkpt>
      <trkpt lat="43.75876" lon="4.70977">
        <ele>111</ele>
        <time>2019-05-22T12:19:57Z</time>
      </trkpt>
      <trkpt lat="43.75877" lon="4.70968">
        <ele>111</ele>
        <time>2019-05-22T12:20:02Z</time>
      </trkpt>
      <trkpt lat="43.75878" lon="4.70958">
        <ele>111</ele>
        <time>2019-05-22T12:20:07Z</time>
      </trkpt>
      <trkpt lat="43.75879" lon="4.70951">
        <ele>111</ele>
        <time>2019-05-22T12:20:11Z</time>
      </trkpt>
      <trkpt lat="43.75879" lon="4.70947">
        <ele>111</ele>
        <time>2019-05-22T12:20:15Z</time>
      </trkpt>
      <trkpt lat="43.75878" lon="4.70939">
        <ele>111</ele>
        <time>2019-05-22T12:20:20Z</time>
      </trkpt>
      <trkpt lat="43.7588" lon="4.70932">
        <ele>111</ele>
        <time>2019-05-22T12:20:25Z</time>
      </trkpt>
      <trkpt lat="43.7588" lon="4.70928">
        <ele>111</ele>
        <time>2019-05-22T12:20:29Z</time>
      </trkpt>
      <trkpt lat="43.75881" lon="4.70926">
        <ele>111</ele>
        <time>2019-05-22T12:20:33Z</time>
      </trkpt>
      <trkpt lat="43.75882" lon="4.70919">
        <ele>110</ele>
        <time>2019-05-22T12:20:38Z</time>
      </trkpt>
      <trkpt lat="43.75884" lon="4.70911">
        <ele>108</ele>
        <time>2019-05-22T12:20:42Z</time>
      </trkpt>
      <trkpt lat="43.75885" lon="4.70906">
        <ele>108</ele>
        <time>2019-05-22T12:20:46Z</time>
      </trkpt>
      <trkpt lat="43.75888" lon="4.70902">
        <ele>108</ele>
        <time>2019-05-22T12:20:50Z</time>
      </trkpt>
      <trkpt lat="43.7589" lon="4.70898">
        <ele>108</ele>
        <time>2019-05-22T12:20:54Z</time>
      </trkpt>
      <trkpt lat="43.7589" lon="4.70894">
        <ele>108</ele>
        <time>2019-05-22T12:20:58Z</time>
      </trkpt>
      <trkpt lat="43.75892" lon="4.70888">
        <ele>108</ele>
        <time>2019-05-22T12:21:03Z</time>
      </trkpt>
      <trkpt lat="43.75895" lon="4.70883">
        <ele>107</ele>
        <time>2019-05-22T12:21:07Z</time>
      </trkpt>
      <trkpt lat="43.75897" lon="4.70875">
        <ele>107</ele>
        <time>2019-05-22T12:21:12Z</time>
      </trkpt>
      <trkpt lat="43.75898" lon="4.70869">
        <ele>107</ele>
        <time>2019-05-22T12:21:16Z</time>
      </trkpt>
      <trkpt lat="43.75899" lon="4.70863">
        <ele>107</ele>
        <time>2019-05-22T12:21:19Z</time>
      </trkpt>
      <trkpt lat="43.759" lon="4.7086">
        <ele>107</ele>
        <time>2019-05-22T12:21:23Z</time>
      </trkpt>
      <trkpt lat="43.759" lon="4.70855">
        <ele>107</ele>
        <time>2019-05-22T12:21:27Z</time>
      </trkpt>
      <trkpt lat="43.75901" lon="4.70848">
        <ele>106</ele>
        <time>2019-05-22T12:21:31Z</time>
      </trkpt>
      <trkpt lat="43.75903" lon="4.70841">
        <ele>106</ele>
        <time>2019-05-22T12:21:35Z</time>
      </trkpt>
      <trkpt lat="43.75904" lon="4.70837">
        <ele>106</ele>
        <time>2019-05-22T12:21:38Z</time>
      </trkpt>
      <trkpt lat="43.75906" lon="4.7083">
        <ele>104</ele>
        <time>2019-05-22T12:21:42Z</time>
      </trkpt>
      <trkpt lat="43.75907" lon="4.70823">
        <ele>104</ele>
        <time>2019-05-22T12:21:47Z</time>
      </trkpt>
      <trkpt lat="43.75907" lon="4.7082">
        <ele>104</ele>
        <time>2019-05-22T12:21:50Z</time>
      </trkpt>
      <trkpt lat="43.75908" lon="4.70815">
        <ele>103</ele>
        <time>2019-05-22T12:21:55Z</time>
      </trkpt>
      <trkpt lat="43.75908" lon="4.70807">
        <ele>103</ele>
        <time>2019-05-22T12:21:59Z</time>
      </trkpt>
      <trkpt lat="43.75907" lon="4.70799">
        <ele>102</ele>
        <time>2019-05-22T12:22:04Z</time>
      </trkpt>
      <trkpt lat="43.75906" lon="4.70792">
        <ele>102</ele>
        <time>2019-05-22T12:22:08Z</time>
      </trkpt>
      <trkpt lat="43.75907" lon="4.70785">
        <ele>101</ele>
        <time>2019-05-22T12:22:12Z</time>
      </trkpt>
      <trkpt lat="43.75908" lon="4.7078">
        <ele>101</ele>
        <time>2019-05-22T12:22:16Z</time>
      </trkpt>
      <trkpt lat="43.75908" lon="4.70772">
        <ele>101</ele>
        <time>2019-05-22T12:22:21Z</time>
      </trkpt>
      <trkpt lat="43.75909" lon="4.70767">
        <ele>100</ele>
        <time>2019-05-22T12:22:25Z</time>
      </trkpt>
      <trkpt lat="43.75909" lon="4.70758">
        <ele>100</ele>
        <time>2019-05-22T12:22:30Z</time>
      </trkpt>
      <trkpt lat="43.7591" lon="4.70754">
        <ele>100</ele>
        <time>2019-05-22T12:22:34Z</time>
      </trkpt>
      <trkpt lat="43.75911" lon="4.70749">
        <ele>98</ele>
        <time>2019-05-22T12:22:38Z</time>
      </trkpt>
      <trkpt lat="43.75911" lon="4.70744">
        <ele>98</ele>
        <time>2019-05-22T12:22:42Z</time>
      </trkpt>
      <trkpt lat="43.75912" lon="4.70741">
        <ele>98</ele>
        <time>2019-05-22T12:22:46Z</time>
      </trkpt>
      <trkpt lat="43.75913" lon="4.70736">
        <ele>98</ele>
        <time>2019-05-22T12:22:50Z</time>
      </trkpt>
      <trkpt lat="43.75914" lon="4.7073">
        <ele>97</ele>
        <time>2019-05-22T12:22:55Z</time>
      </trkpt>
      <trkpt lat="43.75916" lon="4.70725">
        <ele>97</ele>
        <time>2019-05-22T12:22:59Z</time>
      </trkpt>
      <trkpt lat="43.75918" lon="4.70718">
        <ele>98</ele>
        <time>2019-05-22T12:23:04Z</time>
      </trkpt>
      <trkpt lat="43.7592" lon="4.7071">
        <ele>98</ele>
        <time>2019-05-22T12:23:08Z</time>
      </trkpt>
      <trkpt lat="43.75921" lon="4.70706">
        <ele>98</ele>
        <time>2019-05-22T12:23:11Z</time>
      </trkpt>
      <trkpt lat="43.75921" lon="4.707">
        <ele>98</ele>
        <time>2019-05-22T12:23:14Z</time>
      </trkpt>
      <trkpt lat="43.75923" lon="4.70688">
        <ele>97</ele>
        <time>2019-05-22T12:23:19Z</time>
      </trkpt>
      <trkpt lat="43.75924" lon="4.7068">
        <ele>97</ele>
        <time>2019-05-22T12:23:23Z</time>
      </trkpt>
      <trkpt lat="43.75925" lon="4.70671">
        <ele>96</ele>
        <time>2019-05-22T12:23:28Z</time>
      </trkpt>
      <trkpt lat="43.75926" lon="4.70664">
        <ele>95</ele>
        <time>2019-05-22T12:23:32Z</time>
      </trkpt>
      <trkpt lat="43.75926" lon="4.7066">
        <ele>95</ele>
        <time>2019-05-22T12:23:36Z</time>
      </trkpt>
      <trkpt lat="43.75927" lon="4.70656">
        <ele>95</ele>
        <time>2019-05-22T12:23:40Z</time>
      </trkpt>
      <trkpt lat="43.75928" lon="4.70651">
        <ele>95</ele>
        <time>2019-05-22T12:23:45Z</time>
      </trkpt>
      <trkpt lat="43.7593" lon="4.70642">
        <ele>94</ele>
        <time>2019-05-22T12:23:50Z</time>
      </trkpt>
      <trkpt lat="43.75932" lon="4.70637">
        <ele>94</ele>
        <time>2019-05-22T12:23:53Z</time>
      </trkpt>
      <trkpt lat="43.75934" lon="4.70631">
        <ele>94</ele>
        <time>2019-05-22T12:23:57Z</time>
      </trkpt>
      <trkpt lat="43.75935" lon="4.70622">
        <ele>94</ele>
        <time>2019-05-22T12:24:02Z</time>
      </trkpt>
      <trkpt lat="43.75935" lon="4.70616">
        <ele>94</ele>
        <time>2019-05-22T12:24:06Z</time>
      </trkpt>
      <trkpt lat="43.75936" lon="4.70609">
        <ele>93</ele>
        <time>2019-05-22T12:24:10Z</time>
      </trkpt>
      <trkpt lat="43.75934" lon="4.70603">
        <ele>93</ele>
        <time>2019-05-22T12:24:15Z</time>
      </trkpt>
      <trkpt lat="43.75934" lon="4.70598">
        <ele>93</ele>
        <time>2019-05-22T12:24:20Z</time>
      </trkpt>
      <trkpt lat="43.75933" lon="4.70594">
        <ele>93</ele>
        <time>2019-05-22T12:24:24Z</time>
      </trkpt>
      <trkpt lat="43.75932" lon="4.70593">
        <ele>93</ele>
        <time>2019-05-22T12:24:28Z</time>
      </trkpt>
      <trkpt lat="43.7593" lon="4.70591">
        <ele>92</ele>
        <time>2019-05-22T12:24:33Z</time>
      </trkpt>
      <trkpt lat="43.75926" lon="4.70591">
        <ele>92</ele>
        <time>2019-05-22T12:24:37Z</time>
      </trkpt>
      <trkpt lat="43.7592" lon="4.70592">
        <ele>92</ele>
        <time>2019-05-22T12:24:41Z</time>
      </trkpt>
      <trkpt lat="43.75914" lon="4.7059">
        <ele>91</ele>
        <time>2019-05-22T12:24:45Z</time>
      </trkpt>
      <trkpt lat="43.75908" lon="4.70586">
        <ele>91</ele>
        <time>2019-05-22T12:24:49Z</time>
      </trkpt>
      <trkpt lat="43.75902" lon="4.70583">
        <ele>91</ele>
        <time>2019-05-22T12:24:53Z</time>
      </trkpt>
      <trkpt lat="43.75898" lon="4.70581">
        <ele>89</ele>
        <time>2019-05-22T12:24:56Z</time>
      </trkpt>
      <trkpt lat="43.75892" lon="4.70578">
        <ele>88</ele>
        <time>2019-05-22T12:25:00Z</time>
      </trkpt>
      <trkpt lat="43.75887" lon="4.70575">
        <ele>88</ele>
        <time>2019-05-22T12:25:04Z</time>
      </trkpt>
      <trkpt lat="43.75883" lon="4.70573">
        <ele>88</ele>
        <time>2019-05-22T12:25:07Z</time>
      </trkpt>
      <trkpt lat="43.75878" lon="4.70571">
        <ele>88</ele>
        <time>2019-05-22T12:25:11Z</time>
      </trkpt>
      <trkpt lat="43.75873" lon="4.70569">
        <ele>87</ele>
        <time>2019-05-22T12:25:15Z</time>
      </trkpt>
      <trkpt lat="43.75871" lon="4.70567">
        <ele>87</ele>
        <time>2019-05-22T12:25:18Z</time>
      </trkpt>
      <trkpt lat="43.75866" lon="4.70563">
        <ele>87</ele>
        <time>2019-05-22T12:25:22Z</time>
      </trkpt>
      <trkpt lat="43.75862" lon="4.70555">
        <ele>87</ele>
        <time>2019-05-22T12:25:27Z</time>
      </trkpt>
      <trkpt lat="43.75861" lon="4.70546">
        <ele>87</ele>
        <time>2019-05-22T12:25:31Z</time>
      </trkpt>
      <trkpt lat="43.75863" lon="4.70535">
        <ele>86</ele>
        <time>2019-05-22T12:25:36Z</time>
      </trkpt>
      <trkpt lat="43.75864" lon="4.70528">
        <ele>86</ele>
        <time>2019-05-22T12:25:40Z</time>
      </trkpt>
      <trkpt lat="43.75867" lon="4.70524">
        <ele>86</ele>
        <time>2019-05-22T12:25:43Z</time>
      </trkpt>
      <trkpt lat="43.7587" lon="4.70522">
        <ele>86</ele>
        <time>2019-05-22T12:25:46Z</time>
      </trkpt>
      <trkpt lat="43.75874" lon="4.70519">
        <ele>86</ele>
        <time>2019-05-22T12:25:50Z</time>
      </trkpt>
      <trkpt lat="43.75879" lon="4.70518">
        <ele>86</ele>
        <time>2019-05-22T12:25:54Z</time>
      </trkpt>
      <trkpt lat="43.75883" lon="4.70516">
        <ele>86</ele>
        <time>2019-05-22T12:25:59Z</time>
      </trkpt>
      <trkpt lat="43.75885" lon="4.70515">
        <ele>86</ele>
        <time>2019-05-22T12:26:03Z</time>
      </trkpt>
      <trkpt lat="43.75882" lon="4.70517">
        <ele>86</ele>
        <time>2019-05-22T12:26:06Z</time>
      </trkpt>
      <trkpt lat="43.7588" lon="4.70519">
        <ele>86</ele>
        <time>2019-05-22T12:26:10Z</time>
      </trkpt>
      <trkpt lat="43.75879" lon="4.70521">
        <ele>86</ele>
        <time>2019-05-22T12:26:14Z</time>
      </trkpt>
      <trkpt lat="43.75876" lon="4.70522">
        <ele>86</ele>
        <time>2019-05-22T12:26:19Z</time>
      </trkpt>
      <trkpt lat="43.75873" lon="4.70523">
        <ele>86</ele>
        <time>2019-05-22T12:26:24Z</time>
      </trkpt>
      <trkpt lat="43.75873" lon="4.70523">
        <ele>86</ele>
        <time>2019-05-22T12:26:31Z</time>
      </trkpt>
      <trkpt lat="43.75874" lon="4.7052">
        <ele>86</ele>
        <time>2019-05-22T12:26:36Z</time>
      </trkpt>
      <trkpt lat="43.75878" lon="4.70517">
        <ele>86</ele>
        <time>2019-05-22T12:26:41Z</time>
      </trkpt>
      <trkpt lat="43.75882" lon="4.70515">
        <ele>86</ele>
        <time>2019-05-22T12:26:45Z</time>
      </trkpt>
      <trkpt lat="43.75887" lon="4.70514">
        <ele>86</ele>
        <time>2019-05-22T12:26:48Z</time>
      </trkpt>
      <trkpt lat="43.75892" lon="4.70512">
        <ele>86</ele>
        <time>2019-05-22T12:26:53Z</time>
      </trkpt>
      <trkpt lat="43.75893" lon="4.70513">
        <ele>86</ele>
        <time>2019-05-22T12:26:58Z</time>
      </trkpt>
      <trkpt lat="43.75894" lon="4.70513">
        <ele>86</ele>
        <time>2019-05-22T12:27:06Z</time>
      </trkpt>
      <trkpt lat="43.75895" lon="4.70512">
        <ele>86</ele>
        <time>2019-05-22T12:27:10Z</time>
      </trkpt>
      <trkpt lat="43.75898" lon="4.70513">
        <ele>86</ele>
        <time>2019-05-22T12:27:14Z</time>
      </trkpt>
      <trkpt lat="43.75902" lon="4.70512">
        <ele>86</ele>
        <time>2019-05-22T12:27:18Z</time>
      </trkpt>
      <trkpt lat="43.75908" lon="4.70512">
        <ele>86</ele>
        <time>2019-05-22T12:27:23Z</time>
      </trkpt>
      <trkpt lat="43.75913" lon="4.70512">
        <ele>86</ele>
        <time>2019-05-22T12:27:27Z</time>
      </trkpt>
      <trkpt lat="43.75918" lon="4.70513">
        <ele>86</ele>
        <time>2019-05-22T12:27:31Z</time>
      </trkpt>
      <trkpt lat="43.75925" lon="4.70515">
        <ele>87</ele>
        <time>2019-05-22T12:27:36Z</time>
      </trkpt>
      <trkpt lat="43.75929" lon="4.70516">
        <ele>87</ele>
        <time>2019-05-22T12:27:40Z</time>
      </trkpt>
      <trkpt lat="43.75931" lon="4.70518">
        <ele>87</ele>
        <time>2019-05-22T12:27:43Z</time>
      </trkpt>
      <trkpt lat="43.75937" lon="4.70523">
        <ele>88</ele>
        <time>2019-05-22T12:27:48Z</time>
      </trkpt>
      <trkpt lat="43.75941" lon="4.70524">
        <ele>88</ele>
        <time>2019-05-22T12:27:52Z</time>
      </trkpt>
      <trkpt lat="43.75946" lon="4.70526">
        <ele>88</ele>
        <time>2019-05-22T12:27:57Z</time>
      </trkpt>
      <trkpt lat="43.75949" lon="4.70526">
        <ele>88</ele>
        <time>2019-05-22T12:28:00Z</time>
      </trkpt>
      <trkpt lat="43.75956" lon="4.70529">
        <ele>88</ele>
        <time>2019-05-22T12:28:05Z</time>
      </trkpt>
      <trkpt lat="43.75963" lon="4.7053">
        <ele>88</ele>
        <time>2019-05-22T12:28:10Z</time>
      </trkpt>
      <trkpt lat="43.75969" lon="4.70531">
        <ele>88</ele>
        <time>2019-05-22T12:28:14Z</time>
      </trkpt>
      <trkpt lat="43.75974" lon="4.70531">
        <ele>88</ele>
        <time>2019-05-22T12:28:18Z</time>
      </trkpt>
      <trkpt lat="43.7598" lon="4.7053">
        <ele>88</ele>
        <time>2019-05-22T12:28:23Z</time>
      </trkpt>
      <trkpt lat="43.75984" lon="4.7053">
        <ele>88</ele>
        <time>2019-05-22T12:28:28Z</time>
      </trkpt>
      <trkpt lat="43.75987" lon="4.70529">
        <ele>88</ele>
        <time>2019-05-22T12:28:33Z</time>
      </trkpt>
      <trkpt lat="43.7599" lon="4.70528">
        <ele>88</ele>
        <time>2019-05-22T12:28:38Z</time>
      </trkpt>
      <trkpt lat="43.75994" lon="4.70526">
        <ele>88</ele>
        <time>2019-05-22T12:28:42Z</time>
      </trkpt>
      <trkpt lat="43.76" lon="4.70522">
        <ele>89</ele>
        <time>2019-05-22T12:28:47Z</time>
      </trkpt>
      <trkpt lat="43.76004" lon="4.70519">
        <ele>89</ele>
        <time>2019-05-22T12:28:51Z</time>
      </trkpt>
      <trkpt lat="43.76006" lon="4.70517">
        <ele>89</ele>
        <time>2019-05-22T12:28:55Z</time>
      </trkpt>
      <trkpt lat="43.76006" lon="4.70517">
        <ele>89</ele>
        <time>2019-05-22T12:29:03Z</time>
      </trkpt>
      <trkpt lat="43.76009" lon="4.70517">
        <ele>89</ele>
        <time>2019-05-22T12:29:07Z</time>
      </trkpt>
      <trkpt lat="43.76015" lon="4.70514">
        <ele>89</ele>
        <time>2019-05-22T12:29:12Z</time>
      </trkpt>
      <trkpt lat="43.76019" lon="4.70511">
        <ele>89</ele>
        <time>2019-05-22T12:29:16Z</time>
      </trkpt>
      <trkpt lat="43.76022" lon="4.70508">
        <ele>89</ele>
        <time>2019-05-22T12:29:20Z</time>
      </trkpt>
      <trkpt lat="43.76024" lon="4.70505">
        <ele>89</ele>
        <time>2019-05-22T12:29:24Z</time>
      </trkpt>
      <trkpt lat="43.76029" lon="4.70499">
        <ele>86</ele>
        <time>2019-05-22T12:29:29Z</time>
      </trkpt>
      <trkpt lat="43.76034" lon="4.70495">
        <ele>86</ele>
        <time>2019-05-22T12:29:34Z</time>
      </trkpt>
      <trkpt lat="43.76037" lon="4.70491">
        <ele>86</ele>
        <time>2019-05-22T12:29:38Z</time>
      </trkpt>
      <trkpt lat="43.7604" lon="4.70488">
        <ele>86</ele>
        <time>2019-05-22T12:29:41Z</time>
      </trkpt>
      <trkpt lat="43.76044" lon="4.70485">
        <ele>86</ele>
        <time>2019-05-22T12:29:45Z</time>
      </trkpt>
      <trkpt lat="43.76048" lon="4.70482">
        <ele>86</ele>
        <time>2019-05-22T12:29:49Z</time>
      </trkpt>
      <trkpt lat="43.76051" lon="4.7048">
        <ele>86</ele>
        <time>2019-05-22T12:29:52Z</time>
      </trkpt>
      <trkpt lat="43.76057" lon="4.70478">
        <ele>86</ele>
        <time>2019-05-22T12:29:57Z</time>
      </trkpt>
      <trkpt lat="43.76062" lon="4.70475">
        <ele>86</ele>
        <time>2019-05-22T12:30:01Z</time>
      </trkpt>
      <trkpt lat="43.76066" lon="4.70473">
        <ele>86</ele>
        <time>2019-05-22T12:30:05Z</time>
      </trkpt>
      <trkpt lat="43.76069" lon="4.70471">
        <ele>86</ele>
        <time>2019-05-22T12:30:08Z</time>
      </trkpt>
      <trkpt lat="43.76074" lon="4.70469">
        <ele>86</ele>
        <time>2019-05-22T12:30:12Z</time>
      </trkpt>
      <trkpt lat="43.76077" lon="4.70468">
        <ele>86</ele>
        <time>2019-05-22T12:30:16Z</time>
      </trkpt>
      <trkpt lat="43.76084" lon="4.70469">
        <ele>86</ele>
        <time>2019-05-22T12:30:21Z</time>
      </trkpt>
      <trkpt lat="43.76091" lon="4.70467">
        <ele>86</ele>
        <time>2019-05-22T12:30:26Z</time>
      </trkpt>
      <trkpt lat="43.76096" lon="4.70466">
        <ele>86</ele>
        <time>2019-05-22T12:30:30Z</time>
      </trkpt>
      <trkpt lat="43.761" lon="4.70465">
        <ele>86</ele>
        <time>2019-05-22T12:30:34Z</time>
      </trkpt>
      <trkpt lat="43.76104" lon="4.70464">
        <ele>86</ele>
        <time>2019-05-22T12:30:38Z</time>
      </trkpt>
      <trkpt lat="43.76108" lon="4.70464">
        <ele>86</ele>
        <time>2019-05-22T12:30:42Z</time>
      </trkpt>
      <trkpt lat="43.76114" lon="4.70465">
        <ele>86</ele>
        <time>2019-05-22T12:30:46Z</time>
      </trkpt>
      <trkpt lat="43.7612" lon="4.70465">
        <ele>86</ele>
        <time>2019-05-22T12:30:51Z</time>
      </trkpt>
      <trkpt lat="43.76124" lon="4.70466">
        <ele>86</ele>
        <time>2019-05-22T12:30:54Z</time>
      </trkpt>
      <trkpt lat="43.76129" lon="4.70467">
        <ele>86</ele>
        <time>2019-05-22T12:30:59Z</time>
      </trkpt>
      <trkpt lat="43.76133" lon="4.70468">
        <ele>86</ele>
        <time>2019-05-22T12:31:02Z</time>
      </trkpt>
      <trkpt lat="43.76138" lon="4.70471">
        <ele>86</ele>
        <time>2019-05-22T12:31:06Z</time>
      </trkpt>
      <trkpt lat="43.76143" lon="4.70472">
        <ele>86</ele>
        <time>2019-05-22T12:31:11Z</time>
      </trkpt>
      <trkpt lat="43.76145" lon="4.70473">
        <ele>86</ele>
        <time>2019-05-22T12:31:15Z</time>
      </trkpt>
      <trkpt lat="43.76147" lon="4.70476">
        <ele>86</ele>
        <time>2019-05-22T12:31:18Z</time>
      </trkpt>
      <trkpt lat="43.76153" lon="4.70486">
        <ele>86</ele>
        <time>2019-05-22T12:31:23Z</time>
      </trkpt>
      <trkpt lat="43.76157" lon="4.70491">
        <ele>86</ele>
        <time>2019-05-22T12:31:28Z</time>
      </trkpt>
      <trkpt lat="43.7616" lon="4.70494">
        <ele>87</ele>
        <time>2019-05-22T12:31:31Z</time>
      </trkpt>
      <trkpt lat="43.76164" lon="4.70499">
        <ele>87</ele>
        <time>2019-05-22T12:31:36Z</time>
      </trkpt>
      <trkpt lat="43.76166" lon="4.70503">
        <ele>88</ele>
        <time>2019-05-22T12:31:40Z</time>
      </trkpt>
      <trkpt lat="43.76169" lon="4.70507">
        <ele>88</ele>
        <time>2019-05-22T12:31:45Z</time>
      </trkpt>
      <trkpt lat="43.76172" lon="4.70513">
        <ele>89</ele>
        <time>2019-05-22T12:31:49Z</time>
      </trkpt>
      <trkpt lat="43.76175" lon="4.70522">
        <ele>90</ele>
        <time>2019-05-22T12:31:53Z</time>
      </trkpt>
      <trkpt lat="43.76176" lon="4.70525">
        <ele>91</ele>
        <time>2019-05-22T12:31:57Z</time>
      </trkpt>
      <trkpt lat="43.76179" lon="4.70526">
        <ele>91</ele>
        <time>2019-05-22T12:32:00Z</time>
      </trkpt>
      <trkpt lat="43.76184" lon="4.70525">
        <ele>91</ele>
        <time>2019-05-22T12:32:05Z</time>
      </trkpt>
      <trkpt lat="43.76187" lon="4.70523">
        <ele>91</ele>
        <time>2019-05-22T12:32:09Z</time>
      </trkpt>
      <trkpt lat="43.76189" lon="4.70521">
        <ele>91</ele>
        <time>2019-05-22T12:32:12Z</time>
      </trkpt>
      <trkpt lat="43.76192" lon="4.70516">
        <ele>91</ele>
        <time>2019-05-22T12:32:16Z</time>
      </trkpt>
      <trkpt lat="43.76194" lon="4.70511">
        <ele>91</ele>
        <time>2019-05-22T12:32:20Z</time>
      </trkpt>
      <trkpt lat="43.76195" lon="4.70504">
        <ele>90</ele>
        <time>2019-05-22T12:32:25Z</time>
      </trkpt>
      <trkpt lat="43.76197" lon="4.70498">
        <ele>87</ele>
        <time>2019-05-22T12:32:30Z</time>
      </trkpt>
      <trkpt lat="43.76199" lon="4.70493">
        <ele>87</ele>
        <time>2019-05-22T12:32:34Z</time>
      </trkpt>
      <trkpt lat="43.76201" lon="4.70487">
        <ele>87</ele>
        <time>2019-05-22T12:32:39Z</time>
      </trkpt>
      <trkpt lat="43.76202" lon="4.70483">
        <ele>87</ele>
        <time>2019-05-22T12:32:43Z</time>
      </trkpt>
      <trkpt lat="43.76202" lon="4.7048">
        <ele>87</ele>
        <time>2019-05-22T12:32:47Z</time>
      </trkpt>
      <trkpt lat="43.76204" lon="4.70471">
        <ele>87</ele>
        <time>2019-05-22T12:32:52Z</time>
      </trkpt>
      <trkpt lat="43.76206" lon="4.70465">
        <ele>87</ele>
        <time>2019-05-22T12:32:55Z</time>
      </trkpt>
      <trkpt lat="43.76208" lon="4.70459">
        <ele>87</ele>
        <time>2019-05-22T12:32:59Z</time>
      </trkpt>
      <trkpt lat="43.76211" lon="4.70453">
        <ele>87</ele>
        <time>2019-05-22T12:33:03Z</time>
      </trkpt>
      <trkpt lat="43.76212" lon="4.70447">
        <ele>87</ele>
        <time>2019-05-22T12:33:08Z</time>
      </trkpt>
      <trkpt lat="43.76215" lon="4.70441">
        <ele>86</ele>
        <time>2019-05-22T12:33:13Z</time>
      </trkpt>
      <trkpt lat="43.76216" lon="4.70436">
        <ele>86</ele>
        <time>2019-05-22T12:33:16Z</time>
      </trkpt>
      <trkpt lat="43.76217" lon="4.70434">
        <ele>86</ele>
        <time>2019-05-22T12:33:20Z</time>
      </trkpt>
      <trkpt lat="43.76218" lon="4.70434">
        <ele>86</ele>
        <time>2019-05-22T12:33:23Z</time>
      </trkpt>
      <trkpt lat="43.76221" lon="4.70431">
        <ele>86</ele>
        <time>2019-05-22T12:33:27Z</time>
      </trkpt>
      <trkpt lat="43.76223" lon="4.70429">
        <ele>86</ele>
        <time>2019-05-22T12:33:30Z</time>
      </trkpt>
      <trkpt lat="43.76226" lon="4.70425">
        <ele>86</ele>
        <time>2019-05-22T12:33:34Z</time>
      </trkpt>
      <trkpt lat="43.76229" lon="4.70421">
        <ele>86</ele>
        <time>2019-05-22T12:33:38Z</time>
      </trkpt>
      <trkpt lat="43.76233" lon="4.70416">
        <ele>84</ele>
        <time>2019-05-22T12:33:43Z</time>
      </trkpt>
      <trkpt lat="43.76234" lon="4.70412">
        <ele>84</ele>
        <time>2019-05-22T12:33:48Z</time>
      </trkpt>
      <trkpt lat="43.76237" lon="4.70409">
        <ele>84</ele>
        <time>2019-05-22T12:33:53Z</time>
      </trkpt>
      <trkpt lat="43.76241" lon="4.70408">
        <ele>84</ele>
        <time>2019-05-22T12:33:57Z</time>
      </trkpt>
      <trkpt lat="43.76245" lon="4.70409">
        <ele>85</ele>
        <time>2019-05-22T12:34:01Z</time>
      </trkpt>
      <trkpt lat="43.76252" lon="4.70411">
        <ele>86</ele>
        <time>2019-05-22T12:34:06Z</time>
      </trkpt>
      <trkpt lat="43.76255" lon="4.70412">
        <ele>86</ele>
        <time>2019-05-22T12:34:10Z</time>
      </trkpt>
      <trkpt lat="43.76258" lon="4.70411">
        <ele>86</ele>
        <time>2019-05-22T12:34:14Z</time>
      </trkpt>
      <trkpt lat="43.76264" lon="4.7041">
        <ele>86</ele>
        <time>2019-05-22T12:34:19Z</time>
      </trkpt>
      <trkpt lat="43.76267" lon="4.70409">
        <ele>86</ele>
        <time>2019-05-22T12:34:22Z</time>
      </trkpt>
      <trkpt lat="43.76271" lon="4.70406">
        <ele>86</ele>
        <time>2019-05-22T12:34:27Z</time>
      </trkpt>
      <trkpt lat="43.76273" lon="4.70405">
        <ele>86</ele>
        <time>2019-05-22T12:34:32Z</time>
      </trkpt>
      <trkpt lat="43.76273" lon="4.70405">
        <ele>86</ele>
        <time>2019-05-22T12:34:57Z</time>
      </trkpt>
      <trkpt lat="43.76273" lon="4.70405">
        <ele>86</ele>
        <time>2019-05-22T12:35:03Z</time>
      </trkpt>
      <trkpt lat="43.76271" lon="4.70407">
        <ele>86</ele>
        <time>2019-05-22T12:35:08Z</time>
      </trkpt>
      <trkpt lat="43.7627" lon="4.70407">
        <ele>86</ele>
        <time>2019-05-22T12:35:12Z</time>
      </trkpt>
      <trkpt lat="43.76271" lon="4.70406">
        <ele>86</ele>
        <time>2019-05-22T12:35:17Z</time>
      </trkpt>
      <trkpt lat="43.76273" lon="4.70406">
        <ele>86</ele>
        <time>2019-05-22T12:35:20Z</time>
      </trkpt>
      <trkpt lat="43.76275" lon="4.70406">
        <ele>86</ele>
        <time>2019-05-22T12:35:25Z</time>
      </trkpt>
      <trkpt lat="43.76275" lon="4.70406">
        <ele>86</ele>
        <time>2019-05-22T12:35:36Z</time>
      </trkpt>
      <trkpt lat="43.76275" lon="4.70407">
        <ele>86</ele>
        <time>2019-05-22T12:35:48Z</time>
      </trkpt>
      <trkpt lat="43.76274" lon="4.70408">
        <ele>86</ele>
        <time>2019-05-22T12:35:53Z</time>
      </trkpt>
      <trkpt lat="43.76275" lon="4.70409">
        <ele>86</ele>
        <time>2019-05-22T12:35:57Z</time>
      </trkpt>
      <trkpt lat="43.76275" lon="4.70408">
        <ele>86</ele>
        <time>2019-05-22T12:36:06Z</time>
      </trkpt>
      <trkpt lat="43.76275" lon="4.70407">
        <ele>86</ele>
        <time>2019-05-22T12:36:11Z</time>
      </trkpt>
      <trkpt lat="43.76274" lon="4.70406">
        <ele>86</ele>
        <time>2019-05-22T12:36:15Z</time>
      </trkpt>
      <trkpt lat="43.76274" lon="4.70404">
        <ele>86</ele>
        <time>2019-05-22T12:36:19Z</time>
      </trkpt>
      <trkpt lat="43.76274" lon="4.70403">
        <ele>85</ele>
        <time>2019-05-22T12:36:22Z</time>
      </trkpt>
      <trkpt lat="43.76274" lon="4.70403">
        <ele>85</ele>
        <time>2019-05-22T12:36:27Z</time>
      </trkpt>
      <trkpt lat="43.76274" lon="4.70406">
        <ele>86</ele>
        <time>2019-05-22T12:36:31Z</time>
      </trkpt>
      <trkpt lat="43.76274" lon="4.70407">
        <ele>86</ele>
        <time>2019-05-22T12:36:35Z</time>
      </trkpt>
      <trkpt lat="43.76273" lon="4.70407">
        <ele>86</ele>
        <time>2019-05-22T12:36:53Z</time>
      </trkpt>
      <trkpt lat="43.76272" lon="4.70405">
        <ele>85</ele>
        <time>2019-05-22T12:36:57Z</time>
      </trkpt>
      <trkpt lat="43.76273" lon="4.70404">
        <ele>85</ele>
        <time>2019-05-22T12:37:09Z</time>
      </trkpt>
      <trkpt lat="43.76273" lon="4.70404">
        <ele>85</ele>
        <time>2019-05-22T12:37:23Z</time>
      </trkpt>
      <trkpt lat="43.76272" lon="4.704">
        <ele>85</ele>
        <time>2019-05-22T12:37:28Z</time>
      </trkpt>
      <trkpt lat="43.76273" lon="4.70399">
        <ele>85</ele>
        <time>2019-05-22T12:37:33Z</time>
      </trkpt>
      <trkpt lat="43.76274" lon="4.704">
        <ele>85</ele>
        <time>2019-05-22T12:37:38Z</time>
      </trkpt>
      <trkpt lat="43.76274" lon="4.70401">
        <ele>85</ele>
        <time>2019-05-22T12:37:42Z</time>
      </trkpt>
      <trkpt lat="43.76274" lon="4.70403">
        <ele>85</ele>
        <time>2019-05-22T12:37:46Z</time>
      </trkpt>
      <trkpt lat="43.76274" lon="4.70403">
        <ele>85</ele>
        <time>2019-05-22T12:37:56Z</time>
      </trkpt>
      <trkpt lat="43.76276" lon="4.70401">
        <ele>85</ele>
        <time>2019-05-22T12:38:01Z</time>
      </trkpt>
      <trkpt lat="43.76278" lon="4.70401">
        <ele>85</ele>
        <time>2019-05-22T12:38:05Z</time>
      </trkpt>
      <trkpt lat="43.7628" lon="4.70399">
        <ele>85</ele>
        <time>2019-05-22T12:38:09Z</time>
      </trkpt>
      <trkpt lat="43.76281" lon="4.70399">
        <ele>85</ele>
        <time>2019-05-22T12:38:12Z</time>
      </trkpt>
      <trkpt lat="43.76282" lon="4.704">
        <ele>85</ele>
        <time>2019-05-22T12:38:17Z</time>
      </trkpt>
      <trkpt lat="43.76282" lon="4.70403">
        <ele>86</ele>
        <time>2019-05-22T12:38:22Z</time>
      </trkpt>
      <trkpt lat="43.76281" lon="4.70404">
        <ele>86</ele>
        <time>2019-05-22T12:38:27Z</time>
      </trkpt>
      <trkpt lat="43.76281" lon="4.70405">
        <ele>86</ele>
        <time>2019-05-22T12:38:36Z</time>
      </trkpt>
      <trkpt lat="43.76282" lon="4.70405">
        <ele>86</ele>
        <time>2019-05-22T12:38:51Z</time>
      </trkpt>
      <trkpt lat="43.76285" lon="4.70402">
        <ele>86</ele>
        <time>2019-05-22T12:38:56Z</time>
      </trkpt>
      <trkpt lat="43.76287" lon="4.70399">
        <ele>86</ele>
        <time>2019-05-22T12:39:00Z</time>
      </trkpt>
      <trkpt lat="43.76289" lon="4.70395">
        <ele>86</ele>
        <time>2019-05-22T12:39:04Z</time>
      </trkpt>
      <trkpt lat="43.76289" lon="4.70393">
        <ele>85</ele>
        <time>2019-05-22T12:39:08Z</time>
      </trkpt>
      <trkpt lat="43.76289" lon="4.7039">
        <ele>85</ele>
        <time>2019-05-22T12:39:11Z</time>
      </trkpt>
      <trkpt lat="43.76288" lon="4.70383">
        <ele>85</ele>
        <time>2019-05-22T12:39:15Z</time>
      </trkpt>
      <trkpt lat="43.76287" lon="4.70378">
        <ele>85</ele>
        <time>2019-05-22T12:39:20Z</time>
      </trkpt>
      <trkpt lat="43.76286" lon="4.70374">
        <ele>85</ele>
        <time>2019-05-22T12:39:24Z</time>
      </trkpt>
      <trkpt lat="43.76282" lon="4.7037">
        <ele>85</ele>
        <time>2019-05-22T12:39:29Z</time>
      </trkpt>
      <trkpt lat="43.7628" lon="4.70366">
        <ele>84</ele>
        <time>2019-05-22T12:39:33Z</time>
      </trkpt>
      <trkpt lat="43.76278" lon="4.70363">
        <ele>84</ele>
        <time>2019-05-22T12:39:38Z</time>
      </trkpt>
      <trkpt lat="43.76276" lon="4.70361">
        <ele>84</ele>
        <time>2019-05-22T12:39:41Z</time>
      </trkpt>
      <trkpt lat="43.76273" lon="4.70358">
        <ele>84</ele>
        <time>2019-05-22T12:39:45Z</time>
      </trkpt>
      <trkpt lat="43.76271" lon="4.70355">
        <ele>84</ele>
        <time>2019-05-22T12:39:49Z</time>
      </trkpt>
      <trkpt lat="43.76269" lon="4.70351">
        <ele>84</ele>
        <time>2019-05-22T12:39:53Z</time>
      </trkpt>
      <trkpt lat="43.76266" lon="4.70346">
        <ele>83</ele>
        <time>2019-05-22T12:39:58Z</time>
      </trkpt>
      <trkpt lat="43.76261" lon="4.70341">
        <ele>83</ele>
        <time>2019-05-22T12:40:03Z</time>
      </trkpt>
      <trkpt lat="43.76257" lon="4.70338">
        <ele>82</ele>
        <time>2019-05-22T12:40:07Z</time>
      </trkpt>
      <trkpt lat="43.76254" lon="4.70335">
        <ele>82</ele>
        <time>2019-05-22T12:40:11Z</time>
      </trkpt>
      <trkpt lat="43.76251" lon="4.70331">
        <ele>81</ele>
        <time>2019-05-22T12:40:15Z</time>
      </trkpt>
      <trkpt lat="43.76248" lon="4.7033">
        <ele>81</ele>
        <time>2019-05-22T12:40:18Z</time>
      </trkpt>
      <trkpt lat="43.76245" lon="4.70327">
        <ele>80</ele>
        <time>2019-05-22T12:40:22Z</time>
      </trkpt>
      <trkpt lat="43.76242" lon="4.70322">
        <ele>80</ele>
        <time>2019-05-22T12:40:26Z</time>
      </trkpt>
      <trkpt lat="43.76238" lon="4.70317">
        <ele>79</ele>
        <time>2019-05-22T12:40:31Z</time>
      </trkpt>
      <trkpt lat="43.76236" lon="4.70314">
        <ele>79</ele>
        <time>2019-05-22T12:40:36Z</time>
      </trkpt>
      <trkpt lat="43.76233" lon="4.70309">
        <ele>79</ele>
        <time>2019-05-22T12:40:41Z</time>
      </trkpt>
      <trkpt lat="43.7623" lon="4.70305">
        <ele>79</ele>
        <time>2019-05-22T12:40:45Z</time>
      </trkpt>
      <trkpt lat="43.76227" lon="4.703">
        <ele>79</ele>
        <time>2019-05-22T12:40:49Z</time>
      </trkpt>
      <trkpt lat="43.76224" lon="4.70296">
        <ele>78</ele>
        <time>2019-05-22T12:40:53Z</time>
      </trkpt>
      <trkpt lat="43.76222" lon="4.70295">
        <ele>78</ele>
        <time>2019-05-22T12:40:56Z</time>
      </trkpt>
      <trkpt lat="43.76219" lon="4.70291">
        <ele>78</ele>
        <time>2019-05-22T12:41:00Z</time>
      </trkpt>
      <trkpt lat="43.76215" lon="4.70286">
        <ele>78</ele>
        <time>2019-05-22T12:41:05Z</time>
      </trkpt>
      <trkpt lat="43.76211" lon="4.70284">
        <ele>78</ele>
        <time>2019-05-22T12:41:08Z</time>
      </trkpt>
      <trkpt lat="43.76209" lon="4.70279">
        <ele>78</ele>
        <time>2019-05-22T12:41:13Z</time>
      </trkpt>
      <trkpt lat="43.76207" lon="4.70276">
        <ele>78</ele>
        <time>2019-05-22T12:41:16Z</time>
      </trkpt>
      <trkpt lat="43.76204" lon="4.70271">
        <ele>78</ele>
        <time>2019-05-22T12:41:21Z</time>
      </trkpt>
      <trkpt lat="43.76202" lon="4.70268">
        <ele>77</ele>
        <time>2019-05-22T12:41:24Z</time>
      </trkpt>
      <trkpt lat="43.762" lon="4.70262">
        <ele>77</ele>
        <time>2019-05-22T12:41:28Z</time>
      </trkpt>
      <trkpt lat="43.76198" lon="4.70258">
        <ele>77</ele>
        <time>2019-05-22T12:41:32Z</time>
      </trkpt>
      <trkpt lat="43.76196" lon="4.70255">
        <ele>77</ele>
        <time>2019-05-22T12:41:35Z</time>
      </trkpt>
      <trkpt lat="43.76192" lon="4.7025">
        <ele>77</ele>
        <time>2019-05-22T12:41:40Z</time>
      </trkpt>
      <trkpt lat="43.76189" lon="4.70247">
        <ele>75</ele>
        <time>2019-05-22T12:41:44Z</time>
      </trkpt>
      <trkpt lat="43.76187" lon="4.70245">
        <ele>75</ele>
        <time>2019-05-22T12:41:48Z</time>
      </trkpt>
      <trkpt lat="43.76183" lon="4.7024">
        <ele>74</ele>
        <time>2019-05-22T12:41:52Z</time>
      </trkpt>
      <trkpt lat="43.76179" lon="4.70235">
        <ele>74</ele>
        <time>2019-05-22T12:41:57Z</time>
      </trkpt>
      <trkpt lat="43.76176" lon="4.7023">
        <ele>74</ele>
        <time>2019-05-22T12:42:01Z</time>
      </trkpt>
      <trkpt lat="43.76171" lon="4.70224">
        <ele>74</ele>
        <time>2019-05-22T12:42:06Z</time>
      </trkpt>
      <trkpt lat="43.76168" lon="4.70222">
        <ele>74</ele>
        <time>2019-05-22T12:42:10Z</time>
      </trkpt>
      <trkpt lat="43.76166" lon="4.70218">
        <ele>72</ele>
        <time>2019-05-22T12:42:14Z</time>
      </trkpt>
      <trkpt lat="43.76163" lon="4.70212">
        <ele>72</ele>
        <time>2019-05-22T12:42:19Z</time>
      </trkpt>
      <trkpt lat="43.76162" lon="4.70209">
        <ele>71</ele>
        <time>2019-05-22T12:42:22Z</time>
      </trkpt>
      <trkpt lat="43.76159" lon="4.70206">
        <ele>71</ele>
        <time>2019-05-22T12:42:25Z</time>
      </trkpt>
      <trkpt lat="43.76155" lon="4.70202">
        <ele>71</ele>
        <time>2019-05-22T12:42:29Z</time>
      </trkpt>
      <trkpt lat="43.7615" lon="4.70194">
        <ele>71</ele>
        <time>2019-05-22T12:42:34Z</time>
      </trkpt>
      <trkpt lat="43.76146" lon="4.70189">
        <ele>71</ele>
        <time>2019-05-22T12:42:39Z</time>
      </trkpt>
      <trkpt lat="43.76143" lon="4.70184">
        <ele>71</ele>
        <time>2019-05-22T12:42:43Z</time>
      </trkpt>
      <trkpt lat="43.7614" lon="4.70179">
        <ele>70</ele>
        <time>2019-05-22T12:42:47Z</time>
      </trkpt>
      <trkpt lat="43.76139" lon="4.70177">
        <ele>70</ele>
        <time>2019-05-22T12:42:50Z</time>
      </trkpt>
      <trkpt lat="43.76136" lon="4.70173">
        <ele>70</ele>
        <time>2019-05-22T12:42:54Z</time>
      </trkpt>
      <trkpt lat="43.76133" lon="4.70169">
        <ele>70</ele>
        <time>2019-05-22T12:42:58Z</time>
      </trkpt>
      <trkpt lat="43.76128" lon="4.70164">
        <ele>68</ele>
        <time>2019-05-22T12:43:03Z</time>
      </trkpt>
      <trkpt lat="43.76125" lon="4.7016">
        <ele>67</ele>
        <time>2019-05-22T12:43:07Z</time>
      </trkpt>
      <trkpt lat="43.76122" lon="4.70155">
        <ele>67</ele>
        <time>2019-05-22T12:43:11Z</time>
      </trkpt>
      <trkpt lat="43.76119" lon="4.70154">
        <ele>67</ele>
        <time>2019-05-22T12:43:15Z</time>
      </trkpt>
      <trkpt lat="43.76118" lon="4.70153">
        <ele>67</ele>
        <time>2019-05-22T12:43:19Z</time>
      </trkpt>
      <trkpt lat="43.76117" lon="4.70151">
        <ele>67</ele>
        <time>2019-05-22T12:43:23Z</time>
      </trkpt>
      <trkpt lat="43.76114" lon="4.70147">
        <ele>67</ele>
        <time>2019-05-22T12:43:27Z</time>
      </trkpt>
      <trkpt lat="43.76109" lon="4.7014">
        <ele>67</ele>
        <time>2019-05-22T12:43:31Z</time>
      </trkpt>
      <trkpt lat="43.76104" lon="4.70132">
        <ele>66</ele>
        <time>2019-05-22T12:43:35Z</time>
      </trkpt>
      <trkpt lat="43.76102" lon="4.70129">
        <ele>66</ele>
        <time>2019-05-22T12:43:38Z</time>
      </trkpt>
      <trkpt lat="43.76102" lon="4.70123">
        <ele>66</ele>
        <time>2019-05-22T12:43:42Z</time>
      </trkpt>
      <trkpt lat="43.76101" lon="4.70116">
        <ele>66</ele>
        <time>2019-05-22T12:43:46Z</time>
      </trkpt>
      <trkpt lat="43.761" lon="4.70109">
        <ele>66</ele>
        <time>2019-05-22T12:43:50Z</time>
      </trkpt>
      <trkpt lat="43.761" lon="4.70104">
        <ele>66</ele>
        <time>2019-05-22T12:43:54Z</time>
      </trkpt>
      <trkpt lat="43.76101" lon="4.70097">
        <ele>66</ele>
        <time>2019-05-22T12:43:59Z</time>
      </trkpt>
      <trkpt lat="43.76102" lon="4.70091">
        <ele>66</ele>
        <time>2019-05-22T12:44:04Z</time>
      </trkpt>
      <trkpt lat="43.76104" lon="4.70086">
        <ele>66</ele>
        <time>2019-05-22T12:44:08Z</time>
      </trkpt>
      <trkpt lat="43.76105" lon="4.70081">
        <ele>64</ele>
        <time>2019-05-22T12:44:12Z</time>
      </trkpt>
      <trkpt lat="43.76107" lon="4.70076">
        <ele>63</ele>
        <time>2019-05-22T12:44:17Z</time>
      </trkpt>
      <trkpt lat="43.7611" lon="4.7007">
        <ele>63</ele>
        <time>2019-05-22T12:44:22Z</time>
      </trkpt>
      <trkpt lat="43.76113" lon="4.70066">
        <ele>63</ele>
        <time>2019-05-22T12:44:26Z</time>
      </trkpt>
      <trkpt lat="43.76117" lon="4.70062">
        <ele>63</ele>
        <time>2019-05-22T12:44:30Z</time>
      </trkpt>
      <trkpt lat="43.76121" lon="4.70056">
        <ele>63</ele>
        <time>2019-05-22T12:44:35Z</time>
      </trkpt>
      <trkpt lat="43.76125" lon="4.70053">
        <ele>63</ele>
        <time>2019-05-22T12:44:39Z</time>
      </trkpt>
      <trkpt lat="43.76129" lon="4.7005">
        <ele>63</ele>
        <time>2019-05-22T12:44:43Z</time>
      </trkpt>
      <trkpt lat="43.76134" lon="4.70047">
        <ele>63</ele>
        <time>2019-05-22T12:44:47Z</time>
      </trkpt>
      <trkpt lat="43.76139" lon="4.70045">
        <ele>63</ele>
        <time>2019-05-22T12:44:52Z</time>
      </trkpt>
      <trkpt lat="43.76145" lon="4.70042">
        <ele>63</ele>
        <time>2019-05-22T12:44:56Z</time>
      </trkpt>
      <trkpt lat="43.76148" lon="4.7004">
        <ele>63</ele>
        <time>2019-05-22T12:45:00Z</time>
      </trkpt>
      <trkpt lat="43.76151" lon="4.70037">
        <ele>63</ele>
        <time>2019-05-22T12:45:03Z</time>
      </trkpt>
      <trkpt lat="43.76155" lon="4.70034">
        <ele>63</ele>
        <time>2019-05-22T12:45:08Z</time>
      </trkpt>
      <trkpt lat="43.76159" lon="4.70032">
        <ele>63</ele>
        <time>2019-05-22T12:45:12Z</time>
      </trkpt>
      <trkpt lat="43.76164" lon="4.70027">
        <ele>63</ele>
        <time>2019-05-22T12:45:17Z</time>
      </trkpt>
      <trkpt lat="43.76167" lon="4.70024">
        <ele>62</ele>
        <time>2019-05-22T12:45:21Z</time>
      </trkpt>
      <trkpt lat="43.76171" lon="4.7002">
        <ele>63</ele>
        <time>2019-05-22T12:45:24Z</time>
      </trkpt>
      <trkpt lat="43.76175" lon="4.70017">
        <ele>63</ele>
        <time>2019-05-22T12:45:28Z</time>
      </trkpt>
      <trkpt lat="43.7618" lon="4.70014">
        <ele>63</ele>
        <time>2019-05-22T12:45:33Z</time>
      </trkpt>
      <trkpt lat="43.76183" lon="4.70013">
        <ele>63</ele>
        <time>2019-05-22T12:45:37Z</time>
      </trkpt>
      <trkpt lat="43.76185" lon="4.70012">
        <ele>63</ele>
        <time>2019-05-22T12:45:40Z</time>
      </trkpt>
      <trkpt lat="43.76188" lon="4.70009">
        <ele>63</ele>
        <time>2019-05-22T12:45:45Z</time>
      </trkpt>
      <trkpt lat="43.76191" lon="4.70003">
        <ele>63</ele>
        <time>2019-05-22T12:45:49Z</time>
      </trkpt>
      <trkpt lat="43.76193" lon="4.7">
        <ele>60</ele>
        <time>2019-05-22T12:45:52Z</time>
      </trkpt>
      <trkpt lat="43.76197" lon="4.69996">
        <ele>60</ele>
        <time>2019-05-22T12:45:56Z</time>
      </trkpt>
      <trkpt lat="43.762" lon="4.69993">
        <ele>60</ele>
        <time>2019-05-22T12:45:59Z</time>
      </trkpt>
      <trkpt lat="43.76204" lon="4.69989">
        <ele>60</ele>
        <time>2019-05-22T12:46:04Z</time>
      </trkpt>
      <trkpt lat="43.76205" lon="4.69983">
        <ele>60</ele>
        <time>2019-05-22T12:46:08Z</time>
      </trkpt>
      <trkpt lat="43.76207" lon="4.69976">
        <ele>60</ele>
        <time>2019-05-22T12:46:12Z</time>
      </trkpt>
      <trkpt lat="43.7621" lon="4.69968">
        <ele>59</ele>
        <time>2019-05-22T12:46:17Z</time>
      </trkpt>
      <trkpt lat="43.76212" lon="4.69961">
        <ele>59</ele>
        <time>2019-05-22T12:46:21Z</time>
      </trkpt>
      <trkpt lat="43.76213" lon="4.69957">
        <ele>59</ele>
        <time>2019-05-22T12:46:24Z</time>
      </trkpt>
      <trkpt lat="43.76214" lon="4.69952">
        <ele>59</ele>
        <time>2019-05-22T12:46:28Z</time>
      </trkpt>
      <trkpt lat="43.76215" lon="4.69946">
        <ele>59</ele>
        <time>2019-05-22T12:46:32Z</time>
      </trkpt>
      <trkpt lat="43.76216" lon="4.69942">
        <ele>58</ele>
        <time>2019-05-22T12:46:37Z</time>
      </trkpt>
      <trkpt lat="43.76217" lon="4.69936">
        <ele>58</ele>
        <time>2019-05-22T12:46:41Z</time>
      </trkpt>
      <trkpt lat="43.76218" lon="4.69933">
        <ele>58</ele>
        <time>2019-05-22T12:46:45Z</time>
      </trkpt>
      <trkpt lat="43.76218" lon="4.69932">
        <ele>58</ele>
        <time>2019-05-22T12:46:51Z</time>
      </trkpt>
      <trkpt lat="43.76218" lon="4.69935">
        <ele>58</ele>
        <time>2019-05-22T12:46:55Z</time>
      </trkpt>
      <trkpt lat="43.76218" lon="4.69936">
        <ele>58</ele>
        <time>2019-05-22T12:47:00Z</time>
      </trkpt>
      <trkpt lat="43.76217" lon="4.69936">
        <ele>58</ele>
        <time>2019-05-22T12:47:04Z</time>
      </trkpt>
      <trkpt lat="43.76217" lon="4.69937">
        <ele>58</ele>
        <time>2019-05-22T12:47:09Z</time>
      </trkpt>
      <trkpt lat="43.76219" lon="4.69938">
        <ele>58</ele>
        <time>2019-05-22T12:47:13Z</time>
      </trkpt>
      <trkpt lat="43.7622" lon="4.69938">
        <ele>58</ele>
        <time>2019-05-22T12:47:17Z</time>
      </trkpt>
      <trkpt lat="43.76221" lon="4.6994">
        <ele>58</ele>
        <time>2019-05-22T12:47:22Z</time>
      </trkpt>
      <trkpt lat="43.7622" lon="4.6994">
        <ele>58</ele>
        <time>2019-05-22T12:47:33Z</time>
      </trkpt>
      <trkpt lat="43.7622" lon="4.69942">
        <ele>58</ele>
        <time>2019-05-22T12:47:38Z</time>
      </trkpt>
      <trkpt lat="43.76218" lon="4.69945">
        <ele>59</ele>
        <time>2019-05-22T12:47:43Z</time>
      </trkpt>
      <trkpt lat="43.76219" lon="4.69944">
        <ele>59</ele>
        <time>2019-05-22T12:47:51Z</time>
      </trkpt>
      <trkpt lat="43.76218" lon="4.69942">
        <ele>58</ele>
        <time>2019-05-22T12:47:54Z</time>
      </trkpt>
      <trkpt lat="43.76219" lon="4.69937">
        <ele>58</ele>
        <time>2019-05-22T12:47:57Z</time>
      </trkpt>
      <trkpt lat="43.76219" lon="4.6993">
        <ele>58</ele>
        <time>2019-05-22T12:48:01Z</time>
      </trkpt>
      <trkpt lat="43.7622" lon="4.69919">
        <ele>58</ele>
        <time>2019-05-22T12:48:06Z</time>
      </trkpt>
      <trkpt lat="43.76221" lon="4.69912">
        <ele>54</ele>
        <time>2019-05-22T12:48:10Z</time>
      </trkpt>
      <trkpt lat="43.76222" lon="4.69906">
        <ele>54</ele>
        <time>2019-05-22T12:48:15Z</time>
      </trkpt>
      <trkpt lat="43.76223" lon="4.69895">
        <ele>54</ele>
        <time>2019-05-22T12:48:19Z</time>
      </trkpt>
      <trkpt lat="43.76225" lon="4.69887">
        <ele>54</ele>
        <time>2019-05-22T12:48:23Z</time>
      </trkpt>
      <trkpt lat="43.76225" lon="4.69881">
        <ele>53</ele>
        <time>2019-05-22T12:48:27Z</time>
      </trkpt>
      <trkpt lat="43.76226" lon="4.69877">
        <ele>53</ele>
        <time>2019-05-22T12:48:30Z</time>
      </trkpt>
      <trkpt lat="43.76228" lon="4.69878">
        <ele>53</ele>
        <time>2019-05-22T12:48:34Z</time>
      </trkpt>
      <trkpt lat="43.76231" lon="4.69877">
        <ele>53</ele>
        <time>2019-05-22T12:48:38Z</time>
      </trkpt>
      <trkpt lat="43.76238" lon="4.69877">
        <ele>53</ele>
        <time>2019-05-22T12:48:43Z</time>
      </trkpt>
      <trkpt lat="43.76244" lon="4.69879">
        <ele>53</ele>
        <time>2019-05-22T12:48:47Z</time>
      </trkpt>
      <trkpt lat="43.76249" lon="4.69883">
        <ele>53</ele>
        <time>2019-05-22T12:48:51Z</time>
      </trkpt>
      <trkpt lat="43.76253" lon="4.69885">
        <ele>54</ele>
        <time>2019-05-22T12:48:55Z</time>
      </trkpt>
      <trkpt lat="43.76259" lon="4.69886">
        <ele>54</ele>
        <time>2019-05-22T12:49:00Z</time>
      </trkpt>
      <trkpt lat="43.76263" lon="4.69889">
        <ele>54</ele>
        <time>2019-05-22T12:49:05Z</time>
      </trkpt>
      <trkpt lat="43.76268" lon="4.69889">
        <ele>54</ele>
        <time>2019-05-22T12:49:09Z</time>
      </trkpt>
      <trkpt lat="43.76273" lon="4.69889">
        <ele>54</ele>
        <time>2019-05-22T12:49:14Z</time>
      </trkpt>
      <trkpt lat="43.76276" lon="4.69891">
        <ele>54</ele>
        <time>2019-05-22T12:49:17Z</time>
      </trkpt>
      <trkpt lat="43.76279" lon="4.69892">
        <ele>54</ele>
        <time>2019-05-22T12:49:20Z</time>
      </trkpt>
      <trkpt lat="43.76283" lon="4.69894">
        <ele>54</ele>
        <time>2019-05-22T12:49:25Z</time>
      </trkpt>
      <trkpt lat="43.76286" lon="4.69895">
        <ele>54</ele>
        <time>2019-05-22T12:49:29Z</time>
      </trkpt>
      <trkpt lat="43.76289" lon="4.69897">
        <ele>55</ele>
        <time>2019-05-22T12:49:33Z</time>
      </trkpt>
      <trkpt lat="43.76293" lon="4.69897">
        <ele>55</ele>
        <time>2019-05-22T12:49:37Z</time>
      </trkpt>
      <trkpt lat="43.76296" lon="4.69899">
        <ele>55</ele>
        <time>2019-05-22T12:49:40Z</time>
      </trkpt>
      <trkpt lat="43.763" lon="4.69903">
        <ele>55</ele>
        <time>2019-05-22T12:49:44Z</time>
      </trkpt>
      <trkpt lat="43.76304" lon="4.69904">
        <ele>55</ele>
        <time>2019-05-22T12:49:47Z</time>
      </trkpt>
      <trkpt lat="43.76307" lon="4.69905">
        <ele>55</ele>
        <time>2019-05-22T12:49:51Z</time>
      </trkpt>
      <trkpt lat="43.76309" lon="4.69907">
        <ele>55</ele>
        <time>2019-05-22T12:49:55Z</time>
      </trkpt>
      <trkpt lat="43.76313" lon="4.69909">
        <ele>56</ele>
        <time>2019-05-22T12:49:59Z</time>
      </trkpt>
      <trkpt lat="43.76316" lon="4.69911">
        <ele>56</ele>
        <time>2019-05-22T12:50:03Z</time>
      </trkpt>
      <trkpt lat="43.76318" lon="4.69912">
        <ele>56</ele>
        <time>2019-05-22T12:50:06Z</time>
      </trkpt>
      <trkpt lat="43.76323" lon="4.69914">
        <ele>57</ele>
        <time>2019-05-22T12:50:11Z</time>
      </trkpt>
      <trkpt lat="43.76328" lon="4.69918">
        <ele>58</ele>
        <time>2019-05-22T12:50:15Z</time>
      </trkpt>
      <trkpt lat="43.76332" lon="4.69921">
        <ele>58</ele>
        <time>2019-05-22T12:50:19Z</time>
      </trkpt>
      <trkpt lat="43.76336" lon="4.69921">
        <ele>59</ele>
        <time>2019-05-22T12:50:23Z</time>
      </trkpt>
      <trkpt lat="43.7634" lon="4.69922">
        <ele>59</ele>
        <time>2019-05-22T12:50:27Z</time>
      </trkpt>
      <trkpt lat="43.76343" lon="4.69923">
        <ele>60</ele>
        <time>2019-05-22T12:50:31Z</time>
      </trkpt>
      <trkpt lat="43.7635" lon="4.69927">
        <ele>60</ele>
        <time>2019-05-22T12:50:36Z</time>
      </trkpt>
      <trkpt lat="43.76354" lon="4.69928">
        <ele>61</ele>
        <time>2019-05-22T12:50:39Z</time>
      </trkpt>
      <trkpt lat="43.7636" lon="4.69933">
        <ele>61</ele>
        <time>2019-05-22T12:50:44Z</time>
      </trkpt>
      <trkpt lat="43.76366" lon="4.69935">
        <ele>62</ele>
        <time>2019-05-22T12:50:49Z</time>
      </trkpt>
      <trkpt lat="43.76368" lon="4.69935">
        <ele>62</ele>
        <time>2019-05-22T12:50:52Z</time>
      </trkpt>
      <trkpt lat="43.76371" lon="4.69936">
        <ele>62</ele>
        <time>2019-05-22T12:50:57Z</time>
      </trkpt>
      <trkpt lat="43.76373" lon="4.69937">
        <ele>62</ele>
        <time>2019-05-22T12:51:00Z</time>
      </trkpt>
      <trkpt lat="43.76377" lon="4.69938">
        <ele>62</ele>
        <time>2019-05-22T12:51:04Z</time>
      </trkpt>
      <trkpt lat="43.76382" lon="4.69939">
        <ele>62</ele>
        <time>2019-05-22T12:51:08Z</time>
      </trkpt>
      <trkpt lat="43.76388" lon="4.69938">
        <ele>62</ele>
        <time>2019-05-22T12:51:13Z</time>
      </trkpt>
      <trkpt lat="43.76392" lon="4.69937">
        <ele>63</ele>
        <time>2019-05-22T12:51:17Z</time>
      </trkpt>
      <trkpt lat="43.76396" lon="4.69936">
        <ele>63</ele>
        <time>2019-05-22T12:51:22Z</time>
      </trkpt>
      <trkpt lat="43.76399" lon="4.69933">
        <ele>63</ele>
        <time>2019-05-22T12:51:26Z</time>
      </trkpt>
      <trkpt lat="43.76401" lon="4.69928">
        <ele>63</ele>
        <time>2019-05-22T12:51:30Z</time>
      </trkpt>
      <trkpt lat="43.76404" lon="4.6992">
        <ele>63</ele>
        <time>2019-05-22T12:51:35Z</time>
      </trkpt>
      <trkpt lat="43.76407" lon="4.69916">
        <ele>61</ele>
        <time>2019-05-22T12:51:39Z</time>
      </trkpt>
      <trkpt lat="43.76413" lon="4.69911">
        <ele>62</ele>
        <time>2019-05-22T12:51:44Z</time>
      </trkpt>
      <trkpt lat="43.76419" lon="4.69908">
        <ele>62</ele>
        <time>2019-05-22T12:51:49Z</time>
      </trkpt>
      <trkpt lat="43.76424" lon="4.69907">
        <ele>62</ele>
        <time>2019-05-22T12:51:52Z</time>
      </trkpt>
      <trkpt lat="43.76427" lon="4.69907">
        <ele>62</ele>
        <time>2019-05-22T12:51:56Z</time>
      </trkpt>
      <trkpt lat="43.76432" lon="4.69907">
        <ele>62</ele>
        <time>2019-05-22T12:52:00Z</time>
      </trkpt>
      <trkpt lat="43.76438" lon="4.69909">
        <ele>62</ele>
        <time>2019-05-22T12:52:04Z</time>
      </trkpt>
      <trkpt lat="43.76441" lon="4.6991">
        <ele>62</ele>
        <time>2019-05-22T12:52:08Z</time>
      </trkpt>
      <trkpt lat="43.76446" lon="4.69911">
        <ele>62</ele>
        <time>2019-05-22T12:52:12Z</time>
      </trkpt>
      <trkpt lat="43.76452" lon="4.69912">
        <ele>62</ele>
        <time>2019-05-22T12:52:17Z</time>
      </trkpt>
      <trkpt lat="43.76457" lon="4.69914">
        <ele>62</ele>
        <time>2019-05-22T12:52:20Z</time>
      </trkpt>
      <trkpt lat="43.76461" lon="4.69916">
        <ele>62</ele>
        <time>2019-05-22T12:52:24Z</time>
      </trkpt>
      <trkpt lat="43.76465" lon="4.69919">
        <ele>65</ele>
        <time>2019-05-22T12:52:29Z</time>
      </trkpt>
      <trkpt lat="43.76467" lon="4.69922">
        <ele>65</ele>
        <time>2019-05-22T12:52:32Z</time>
      </trkpt>
      <trkpt lat="43.76468" lon="4.69923">
        <ele>65</ele>
        <time>2019-05-22T12:52:36Z</time>
      </trkpt>
      <trkpt lat="43.76471" lon="4.69925">
        <ele>65</ele>
        <time>2019-05-22T12:52:40Z</time>
      </trkpt>
      <trkpt lat="43.76477" lon="4.69927">
        <ele>65</ele>
        <time>2019-05-22T12:52:44Z</time>
      </trkpt>
      <trkpt lat="43.76481" lon="4.69928">
        <ele>65</ele>
        <time>2019-05-22T12:52:49Z</time>
      </trkpt>
      <trkpt lat="43.76485" lon="4.69928">
        <ele>65</ele>
        <time>2019-05-22T12:52:53Z</time>
      </trkpt>
      <trkpt lat="43.7649" lon="4.69929">
        <ele>65</ele>
        <time>2019-05-22T12:52:58Z</time>
      </trkpt>
      <trkpt lat="43.76496" lon="4.6993">
        <ele>65</ele>
        <time>2019-05-22T12:53:02Z</time>
      </trkpt>
      <trkpt lat="43.76501" lon="4.6993">
        <ele>66</ele>
        <time>2019-05-22T12:53:06Z</time>
      </trkpt>
      <trkpt lat="43.76504" lon="4.6993">
        <ele>66</ele>
        <time>2019-05-22T12:53:09Z</time>
      </trkpt>
      <trkpt lat="43.76507" lon="4.69933">
        <ele>66</ele>
        <time>2019-05-22T12:53:13Z</time>
      </trkpt>
      <trkpt lat="43.7651" lon="4.69933">
        <ele>66</ele>
        <time>2019-05-22T12:53:18Z</time>
      </trkpt>
      <trkpt lat="43.76512" lon="4.69931">
        <ele>66</ele>
        <time>2019-05-22T12:53:22Z</time>
      </trkpt>
      <trkpt lat="43.76516" lon="4.69929">
        <ele>66</ele>
        <time>2019-05-22T12:53:27Z</time>
      </trkpt>
      <trkpt lat="43.7652" lon="4.69927">
        <ele>66</ele>
        <time>2019-05-22T12:53:31Z</time>
      </trkpt>
      <trkpt lat="43.76528" lon="4.69927">
        <ele>66</ele>
        <time>2019-05-22T12:53:36Z</time>
      </trkpt>
      <trkpt lat="43.76536" lon="4.69926">
        <ele>67</ele>
        <time>2019-05-22T12:53:40Z</time>
      </trkpt>
      <trkpt lat="43.76543" lon="4.69924">
        <ele>67</ele>
        <time>2019-05-22T12:53:45Z</time>
      </trkpt>
      <trkpt lat="43.76547" lon="4.69922">
        <ele>67</ele>
        <time>2019-05-22T12:53:49Z</time>
      </trkpt>
      <trkpt lat="43.76553" lon="4.69921">
        <ele>66</ele>
        <time>2019-05-22T12:53:53Z</time>
      </trkpt>
      <trkpt lat="43.7656" lon="4.69918">
        <ele>66</ele>
        <time>2019-05-22T12:53:58Z</time>
      </trkpt>
      <trkpt lat="43.76564" lon="4.69918">
        <ele>66</ele>
        <time>2019-05-22T12:54:02Z</time>
      </trkpt>
      <trkpt lat="43.76566" lon="4.69915">
        <ele>63</ele>
        <time>2019-05-22T12:54:07Z</time>
      </trkpt>
      <trkpt lat="43.76571" lon="4.69907">
        <ele>63</ele>
        <time>2019-05-22T12:54:12Z</time>
      </trkpt>
      <trkpt lat="43.76576" lon="4.69904">
        <ele>63</ele>
        <time>2019-05-22T12:54:17Z</time>
      </trkpt>
      <trkpt lat="43.7658" lon="4.69901">
        <ele>62</ele>
        <time>2019-05-22T12:54:20Z</time>
      </trkpt>
      <trkpt lat="43.76584" lon="4.69896">
        <ele>61</ele>
        <time>2019-05-22T12:54:24Z</time>
      </trkpt>
      <trkpt lat="43.76588" lon="4.69893">
        <ele>61</ele>
        <time>2019-05-22T12:54:28Z</time>
      </trkpt>
      <trkpt lat="43.76591" lon="4.69889">
        <ele>61</ele>
        <time>2019-05-22T12:54:32Z</time>
      </trkpt>
      <trkpt lat="43.76593" lon="4.69887">
        <ele>61</ele>
        <time>2019-05-22T12:54:35Z</time>
      </trkpt>
      <trkpt lat="43.76595" lon="4.69885">
        <ele>60</ele>
        <time>2019-05-22T12:54:40Z</time>
      </trkpt>
      <trkpt lat="43.76597" lon="4.69882">
        <ele>60</ele>
        <time>2019-05-22T12:54:44Z</time>
      </trkpt>
      <trkpt lat="43.76602" lon="4.69876">
        <ele>60</ele>
        <time>2019-05-22T12:54:49Z</time>
      </trkpt>
      <trkpt lat="43.76605" lon="4.69872">
        <ele>60</ele>
        <time>2019-05-22T12:54:53Z</time>
      </trkpt>
      <trkpt lat="43.76607" lon="4.69867">
        <ele>59</ele>
        <time>2019-05-22T12:54:58Z</time>
      </trkpt>
      <trkpt lat="43.76613" lon="4.69861">
        <ele>59</ele>
        <time>2019-05-22T12:55:02Z</time>
      </trkpt>
      <trkpt lat="43.76617" lon="4.69855">
        <ele>59</ele>
        <time>2019-05-22T12:55:07Z</time>
      </trkpt>
      <trkpt lat="43.76622" lon="4.69851">
        <ele>59</ele>
        <time>2019-05-22T12:55:11Z</time>
      </trkpt>
      <trkpt lat="43.76625" lon="4.69848">
        <ele>58</ele>
        <time>2019-05-22T12:55:15Z</time>
      </trkpt>
      <trkpt lat="43.76627" lon="4.69846">
        <ele>58</ele>
        <time>2019-05-22T12:55:19Z</time>
      </trkpt>
      <trkpt lat="43.76629" lon="4.69842">
        <ele>58</ele>
        <time>2019-05-22T12:55:24Z</time>
      </trkpt>
      <trkpt lat="43.76631" lon="4.69837">
        <ele>58</ele>
        <time>2019-05-22T12:55:28Z</time>
      </trkpt>
      <trkpt lat="43.76633" lon="4.69832">
        <ele>54</ele>
        <time>2019-05-22T12:55:32Z</time>
      </trkpt>
      <trkpt lat="43.76638" lon="4.69826">
        <ele>54</ele>
        <time>2019-05-22T12:55:37Z</time>
      </trkpt>
      <trkpt lat="43.76641" lon="4.69822">
        <ele>54</ele>
        <time>2019-05-22T12:55:42Z</time>
      </trkpt>
      <trkpt lat="43.76645" lon="4.69819">
        <ele>54</ele>
        <time>2019-05-22T12:55:47Z</time>
      </trkpt>
      <trkpt lat="43.76646" lon="4.69816">
        <ele>54</ele>
        <time>2019-05-22T12:55:51Z</time>
      </trkpt>
      <trkpt lat="43.76646" lon="4.69809">
        <ele>54</ele>
        <time>2019-05-22T12:55:56Z</time>
      </trkpt>
      <trkpt lat="43.76644" lon="4.698">
        <ele>53</ele>
        <time>2019-05-22T12:56:00Z</time>
      </trkpt>
      <trkpt lat="43.76642" lon="4.69792">
        <ele>53</ele>
        <time>2019-05-22T12:56:03Z</time>
      </trkpt>
      <trkpt lat="43.76641" lon="4.69781">
        <ele>53</ele>
        <time>2019-05-22T12:56:06Z</time>
      </trkpt>
      <trkpt lat="43.7664" lon="4.69773">
        <ele>52</ele>
        <time>2019-05-22T12:56:11Z</time>
      </trkpt>
      <trkpt lat="43.76641" lon="4.69771">
        <ele>52</ele>
        <time>2019-05-22T12:56:14Z</time>
      </trkpt>
      <trkpt lat="43.76642" lon="4.69768">
        <ele>52</ele>
        <time>2019-05-22T12:56:19Z</time>
      </trkpt>
      <trkpt lat="43.76644" lon="4.69765">
        <ele>52</ele>
        <time>2019-05-22T12:56:24Z</time>
      </trkpt>
      <trkpt lat="43.76646" lon="4.69761">
        <ele>52</ele>
        <time>2019-05-22T12:56:28Z</time>
      </trkpt>
      <trkpt lat="43.76649" lon="4.69755">
        <ele>51</ele>
        <time>2019-05-22T12:56:33Z</time>
      </trkpt>
      <trkpt lat="43.76653" lon="4.69749">
        <ele>48</ele>
        <time>2019-05-22T12:56:37Z</time>
      </trkpt>
      <trkpt lat="43.76656" lon="4.69744">
        <ele>48</ele>
        <time>2019-05-22T12:56:42Z</time>
      </trkpt>
      <trkpt lat="43.76656" lon="4.6974">
        <ele>48</ele>
        <time>2019-05-22T12:56:46Z</time>
      </trkpt>
      <trkpt lat="43.76657" lon="4.69738">
        <ele>48</ele>
        <time>2019-05-22T12:56:50Z</time>
      </trkpt>
      <trkpt lat="43.76657" lon="4.69732">
        <ele>47</ele>
        <time>2019-05-22T12:56:54Z</time>
      </trkpt>
      <trkpt lat="43.76657" lon="4.69725">
        <ele>47</ele>
        <time>2019-05-22T12:56:58Z</time>
      </trkpt>
      <trkpt lat="43.76657" lon="4.69717">
        <ele>46</ele>
        <time>2019-05-22T12:57:03Z</time>
      </trkpt>
      <trkpt lat="43.76655" lon="4.69711">
        <ele>45</ele>
        <time>2019-05-22T12:57:07Z</time>
      </trkpt>
      <trkpt lat="43.76654" lon="4.69707">
        <ele>45</ele>
        <time>2019-05-22T12:57:12Z</time>
      </trkpt>
      <trkpt lat="43.76654" lon="4.69705">
        <ele>45</ele>
        <time>2019-05-22T12:57:15Z</time>
      </trkpt>
      <trkpt lat="43.76654" lon="4.69701">
        <ele>45</ele>
        <time>2019-05-22T12:57:19Z</time>
      </trkpt>
      <trkpt lat="43.76654" lon="4.69697">
        <ele>44</ele>
        <time>2019-05-22T12:57:22Z</time>
      </trkpt>
      <trkpt lat="43.76655" lon="4.6969">
        <ele>44</ele>
        <time>2019-05-22T12:57:26Z</time>
      </trkpt>
      <trkpt lat="43.76656" lon="4.69685">
        <ele>43</ele>
        <time>2019-05-22T12:57:29Z</time>
      </trkpt>
      <trkpt lat="43.76656" lon="4.6968">
        <ele>43</ele>
        <time>2019-05-22T12:57:33Z</time>
      </trkpt>
      <trkpt lat="43.76656" lon="4.69674">
        <ele>42</ele>
        <time>2019-05-22T12:57:38Z</time>
      </trkpt>
      <trkpt lat="43.76657" lon="4.6967">
        <ele>42</ele>
        <time>2019-05-22T12:57:42Z</time>
      </trkpt>
      <trkpt lat="43.76659" lon="4.69664">
        <ele>38</ele>
        <time>2019-05-22T12:57:46Z</time>
      </trkpt>
      <trkpt lat="43.76661" lon="4.6966">
        <ele>38</ele>
        <time>2019-05-22T12:57:50Z</time>
      </trkpt>
      <trkpt lat="43.76663" lon="4.69657">
        <ele>38</ele>
        <time>2019-05-22T12:57:54Z</time>
      </trkpt>
      <trkpt lat="43.76666" lon="4.69653">
        <ele>37</ele>
        <time>2019-05-22T12:57:58Z</time>
      </trkpt>
      <trkpt lat="43.76666" lon="4.69648">
        <ele>36</ele>
        <time>2019-05-22T12:58:03Z</time>
      </trkpt>
      <trkpt lat="43.76666" lon="4.69641">
        <ele>35</ele>
        <time>2019-05-22T12:58:06Z</time>
      </trkpt>
      <trkpt lat="43.76665" lon="4.69636">
        <ele>34</ele>
        <time>2019-05-22T12:58:10Z</time>
      </trkpt>
      <trkpt lat="43.76661" lon="4.69633">
        <ele>34</ele>
        <time>2019-05-22T12:58:14Z</time>
      </trkpt>
      <trkpt lat="43.7666" lon="4.69631">
        <ele>34</ele>
        <time>2019-05-22T12:58:17Z</time>
      </trkpt>
      <trkpt lat="43.76658" lon="4.69629">
        <ele>33</ele>
        <time>2019-05-22T12:58:22Z</time>
      </trkpt>
      <trkpt lat="43.76657" lon="4.69625">
        <ele>33</ele>
        <time>2019-05-22T12:58:26Z</time>
      </trkpt>
      <trkpt lat="43.76655" lon="4.69617">
        <ele>32</ele>
        <time>2019-05-22T12:58:31Z</time>
      </trkpt>
      <trkpt lat="43.76655" lon="4.69612">
        <ele>31</ele>
        <time>2019-05-22T12:58:34Z</time>
      </trkpt>
      <trkpt lat="43.76656" lon="4.69606">
        <ele>31</ele>
        <time>2019-05-22T12:58:39Z</time>
      </trkpt>
      <trkpt lat="43.76658" lon="4.696">
        <ele>30</ele>
        <time>2019-05-22T12:58:44Z</time>
      </trkpt>
      <trkpt lat="43.76659" lon="4.69595">
        <ele>29</ele>
        <time>2019-05-22T12:58:48Z</time>
      </trkpt>
      <trkpt lat="43.7666" lon="4.69592">
        <ele>28</ele>
        <time>2019-05-22T12:58:52Z</time>
      </trkpt>
      <trkpt lat="43.7666" lon="4.69587">
        <ele>28</ele>
        <time>2019-05-22T12:58:56Z</time>
      </trkpt>
      <trkpt lat="43.76661" lon="4.69583">
        <ele>27</ele>
        <time>2019-05-22T12:58:59Z</time>
      </trkpt>
      <trkpt lat="43.76662" lon="4.69579">
        <ele>25</ele>
        <time>2019-05-22T12:59:04Z</time>
      </trkpt>
      <trkpt lat="43.76664" lon="4.69572">
        <ele>24</ele>
        <time>2019-05-22T12:59:09Z</time>
      </trkpt>
      <trkpt lat="43.76665" lon="4.69567">
        <ele>24</ele>
        <time>2019-05-22T12:59:13Z</time>
      </trkpt>
      <trkpt lat="43.76664" lon="4.69564">
        <ele>23</ele>
        <time>2019-05-22T12:59:17Z</time>
      </trkpt>
      <trkpt lat="43.76663" lon="4.69562">
        <ele>23</ele>
        <time>2019-05-22T12:59:21Z</time>
      </trkpt>
      <trkpt lat="43.76664" lon="4.69559">
        <ele>23</ele>
        <time>2019-05-22T12:59:26Z</time>
      </trkpt>
      <trkpt lat="43.76665" lon="4.69556">
        <ele>23</ele>
        <time>2019-05-22T12:59:30Z</time>
      </trkpt>
      <trkpt lat="43.76665" lon="4.69554">
        <ele>23</ele>
        <time>2019-05-22T12:59:34Z</time>
      </trkpt>
      <trkpt lat="43.76665" lon="4.69553">
        <ele>22</ele>
        <time>2019-05-22T12:59:38Z</time>
      </trkpt>
      <trkpt lat="43.76665" lon="4.69553">
        <ele>22</ele>
        <time>2019-05-22T12:59:41Z</time>
      </trkpt>
      <trkpt lat="43.76665" lon="4.6955">
        <ele>22</ele>
        <time>2019-05-22T12:59:45Z</time>
      </trkpt>
      <trkpt lat="43.76665" lon="4.69547">
        <ele>22</ele>
        <time>2019-05-22T12:59:48Z</time>
      </trkpt>
      <trkpt lat="43.76667" lon="4.69542">
        <ele>20</ele>
        <time>2019-05-22T12:59:52Z</time>
      </trkpt>
      <trkpt lat="43.76667" lon="4.69537">
        <ele>20</ele>
        <time>2019-05-22T12:59:57Z</time>
      </trkpt>
      <trkpt lat="43.76666" lon="4.69533">
        <ele>21</ele>
        <time>2019-05-22T13:00:01Z</time>
      </trkpt>
      <trkpt lat="43.76666" lon="4.69529">
        <ele>20</ele>
        <time>2019-05-22T13:00:05Z</time>
      </trkpt>
      <trkpt lat="43.76662" lon="4.69525">
        <ele>20</ele>
        <time>2019-05-22T13:00:10Z</time>
      </trkpt>
      <trkpt lat="43.76659" lon="4.69527">
        <ele>20</ele>
        <time>2019-05-22T13:00:14Z</time>
      </trkpt>
      <trkpt lat="43.76654" lon="4.69532">
        <ele>21</ele>
        <time>2019-05-22T13:00:18Z</time>
      </trkpt>
      <trkpt lat="43.76652" lon="4.69533">
        <ele>21</ele>
        <time>2019-05-22T13:00:22Z</time>
      </trkpt>
      <trkpt lat="43.76651" lon="4.69532">
        <ele>21</ele>
        <time>2019-05-22T13:00:27Z</time>
      </trkpt>
      <trkpt lat="43.76651" lon="4.6953">
        <ele>21</ele>
        <time>2019-05-22T13:00:41Z</time>
      </trkpt>
      <trkpt lat="43.76649" lon="4.69529">
        <ele>21</ele>
        <time>2019-05-22T13:00:45Z</time>
      </trkpt>
      <trkpt lat="43.76648" lon="4.69528">
        <ele>21</ele>
        <time>2019-05-22T13:00:49Z</time>
      </trkpt>
      <trkpt lat="43.76648" lon="4.69527">
        <ele>21</ele>
        <time>2019-05-22T13:00:54Z</time>
      </trkpt>
      <trkpt lat="43.76648" lon="4.69526">
        <ele>20</ele>
        <time>2019-05-22T13:00:58Z</time>
      </trkpt>
      <trkpt lat="43.76649" lon="4.69522">
        <ele>20</ele>
        <time>2019-05-22T13:01:03Z</time>
      </trkpt>
      <trkpt lat="43.76648" lon="4.69518">
        <ele>20</ele>
        <time>2019-05-22T13:01:06Z</time>
      </trkpt>
      <trkpt lat="43.76648" lon="4.69517">
        <ele>20</ele>
        <time>2019-05-22T13:01:12Z</time>
      </trkpt>
      <trkpt lat="43.76648" lon="4.69514">
        <ele>20</ele>
        <time>2019-05-22T13:01:16Z</time>
      </trkpt>
      <trkpt lat="43.76647" lon="4.69507">
        <ele>19</ele>
        <time>2019-05-22T13:01:21Z</time>
      </trkpt>
      <trkpt lat="43.76646" lon="4.69502">
        <ele>19</ele>
        <time>2019-05-22T13:01:24Z</time>
      </trkpt>
      <trkpt lat="43.76646" lon="4.695">
        <ele>16</ele>
        <time>2019-05-22T13:01:28Z</time>
      </trkpt>
      <trkpt lat="43.76644" lon="4.69497">
        <ele>16</ele>
        <time>2019-05-22T13:01:32Z</time>
      </trkpt>
      <trkpt lat="43.76644" lon="4.69493">
        <ele>16</ele>
        <time>2019-05-22T13:01:37Z</time>
      </trkpt>
      <trkpt lat="43.76644" lon="4.69488">
        <ele>16</ele>
        <time>2019-05-22T13:01:40Z</time>
      </trkpt>
      <trkpt lat="43.76645" lon="4.69484">
        <ele>15</ele>
        <time>2019-05-22T13:01:44Z</time>
      </trkpt>
      <trkpt lat="43.76645" lon="4.69477">
        <ele>15</ele>
        <time>2019-05-22T13:01:48Z</time>
      </trkpt>
      <trkpt lat="43.76647" lon="4.6947">
        <ele>15</ele>
        <time>2019-05-22T13:01:52Z</time>
      </trkpt>
      <trkpt lat="43.76649" lon="4.69464">
        <ele>15</ele>
        <time>2019-05-22T13:01:56Z</time>
      </trkpt>
      <trkpt lat="43.76651" lon="4.69459">
        <ele>14</ele>
        <time>2019-05-22T13:02:00Z</time>
      </trkpt>
      <trkpt lat="43.76655" lon="4.6945">
        <ele>14</ele>
        <time>2019-05-22T13:02:05Z</time>
      </trkpt>
      <trkpt lat="43.76657" lon="4.69444">
        <ele>14</ele>
        <time>2019-05-22T13:02:09Z</time>
      </trkpt>
      <trkpt lat="43.76659" lon="4.69439">
        <ele>13</ele>
        <time>2019-05-22T13:02:13Z</time>
      </trkpt>
      <trkpt lat="43.76661" lon="4.69435">
        <ele>13</ele>
        <time>2019-05-22T13:02:17Z</time>
      </trkpt>
      <trkpt lat="43.76661" lon="4.69431">
        <ele>13</ele>
        <time>2019-05-22T13:02:21Z</time>
      </trkpt>
      <trkpt lat="43.76661" lon="4.69429">
        <ele>12</ele>
        <time>2019-05-22T13:02:25Z</time>
      </trkpt>
      <trkpt lat="43.76661" lon="4.69427">
        <ele>12</ele>
        <time>2019-05-22T13:02:29Z</time>
      </trkpt>
      <trkpt lat="43.76661" lon="4.69425">
        <ele>12</ele>
        <time>2019-05-22T13:02:34Z</time>
      </trkpt>
      <trkpt lat="43.7666" lon="4.69421">
        <ele>12</ele>
        <time>2019-05-22T13:02:38Z</time>
      </trkpt>
      <trkpt lat="43.76661" lon="4.69422">
        <ele>12</ele>
        <time>2019-05-22T13:02:56Z</time>
      </trkpt>
      <trkpt lat="43.76661" lon="4.69421">
        <ele>12</ele>
        <time>2019-05-22T13:03:09Z</time>
      </trkpt>
      <trkpt lat="43.76661" lon="4.69422">
        <ele>12</ele>
        <time>2019-05-22T13:03:20Z</time>
      </trkpt>
      <trkpt lat="43.7666" lon="4.69423">
        <ele>12</ele>
        <time>2019-05-22T13:03:29Z</time>
      </trkpt>
      <trkpt lat="43.7666" lon="4.69423">
        <ele>12</ele>
        <time>2019-05-22T13:03:45Z</time>
      </trkpt>
      <trkpt lat="43.7666" lon="4.69423">
        <ele>12</ele>
        <time>2019-05-22T13:03:47Z</time>
      </trkpt>
    </trkseg>
  </trk>
</gpx>